<?xml version="1.0" encoding="UTF-8" standalone="no" ?>
<gpx xmlns="http://www.topografix.com/GPX/1/1" xmlns:xsi="http://www.w3.org/2001/XMLSchema-instance" xsi:schemaLocation="http://www.topografix.com/GPX/1/1 http://www.topografix.com/GPX/1/1/gpx.xsd" version="1.1" creator="VisuGPX - https://www.visugpx.com">
  <metadata>
    <name>Tour des 5 villages vésubiens</name>
    <desc><![CDATA[Sortie VTC06
Depuis La Bollène Vésubie et retour au village:
%u2022	Bal 208 et GR52A vers Flaut et son fort (blockaus) direction Barver via le Véséou 
%u2022	Redescente sur Rocabiera lou vieil, on traverse le pont et on longe la Vésubie  jusqu%u2019à la route, bal 33
%u2022	On s%u2019enfonce un peu dans la forêt de Sauma longa, on peut aller jeter un %u0153il aux forts du Martinet (blockhaus bien conservés)
%u2022	Direction Lantosque par les hameaux des Taballons et Quinsons
%u2022	Remontée sur La Bollène par le Mirail, la Dorgane, le Riou et les raccourcis.

]]></desc>
  </metadata>
  <trk>
    <name><![CDATA[Tour des 5 villages - Sortie VTC06]]></name>
    <trkseg>
      <trkpt lat="43.99073" lon="7.33215">
        <ele>689.7</ele>
        <time>2016-03-26T06:39:30Z</time>
      </trkpt>
      <trkpt lat="43.99073" lon="7.33215">
        <ele>689.7</ele>
        <time>2016-03-26T06:39:32Z</time>
      </trkpt>
      <trkpt lat="43.99073" lon="7.33215">
        <ele>689.7</ele>
        <time>2016-03-26T06:39:36Z</time>
      </trkpt>
      <trkpt lat="43.99073" lon="7.33215">
        <ele>689.7</ele>
        <time>2016-03-26T06:39:40Z</time>
      </trkpt>
      <trkpt lat="43.9908" lon="7.33218">
        <ele>689.4</ele>
        <time>2016-03-26T06:39:44Z</time>
      </trkpt>
      <trkpt lat="43.99089" lon="7.33211">
        <ele>688.3</ele>
        <time>2016-03-26T06:39:48Z</time>
      </trkpt>
      <trkpt lat="43.99096" lon="7.33208">
        <ele>687.4</ele>
        <time>2016-03-26T06:39:52Z</time>
      </trkpt>
      <trkpt lat="43.99104" lon="7.33215">
        <ele>687.6</ele>
        <time>2016-03-26T06:39:56Z</time>
      </trkpt>
      <trkpt lat="43.99111" lon="7.33225">
        <ele>688.5</ele>
        <time>2016-03-26T06:40:00Z</time>
      </trkpt>
      <trkpt lat="43.99117" lon="7.33234">
        <ele>689.8</ele>
        <time>2016-03-26T06:40:04Z</time>
      </trkpt>
      <trkpt lat="43.99122" lon="7.33243">
        <ele>691.3</ele>
        <time>2016-03-26T06:40:08Z</time>
      </trkpt>
      <trkpt lat="43.99124" lon="7.33254">
        <ele>693.1</ele>
        <time>2016-03-26T06:40:12Z</time>
      </trkpt>
      <trkpt lat="43.99128" lon="7.33263">
        <ele>693.9</ele>
        <time>2016-03-26T06:40:16Z</time>
      </trkpt>
      <trkpt lat="43.99133" lon="7.33273">
        <ele>694.4</ele>
        <time>2016-03-26T06:40:20Z</time>
      </trkpt>
      <trkpt lat="43.99137" lon="7.33283">
        <ele>695</ele>
        <time>2016-03-26T06:40:24Z</time>
      </trkpt>
      <trkpt lat="43.99142" lon="7.33292">
        <ele>695.1</ele>
        <time>2016-03-26T06:40:29Z</time>
      </trkpt>
      <trkpt lat="43.99148" lon="7.33302">
        <ele>695.4</ele>
        <time>2016-03-26T06:40:32Z</time>
      </trkpt>
      <trkpt lat="43.99153" lon="7.33312">
        <ele>696</ele>
        <time>2016-03-26T06:40:36Z</time>
      </trkpt>
      <trkpt lat="43.9916" lon="7.33321">
        <ele>696.4</ele>
        <time>2016-03-26T06:40:40Z</time>
      </trkpt>
      <trkpt lat="43.99166" lon="7.3333">
        <ele>696.6</ele>
        <time>2016-03-26T06:40:44Z</time>
      </trkpt>
      <trkpt lat="43.99173" lon="7.33338">
        <ele>696.8</ele>
        <time>2016-03-26T06:40:48Z</time>
      </trkpt>
      <trkpt lat="43.99181" lon="7.33343">
        <ele>696.2</ele>
        <time>2016-03-26T06:40:52Z</time>
      </trkpt>
      <trkpt lat="43.99189" lon="7.33346">
        <ele>695.1</ele>
        <time>2016-03-26T06:40:56Z</time>
      </trkpt>
      <trkpt lat="43.99196" lon="7.33347">
        <ele>693.8</ele>
        <time>2016-03-26T06:41:00Z</time>
      </trkpt>
      <trkpt lat="43.99205" lon="7.33348">
        <ele>692.4</ele>
        <time>2016-03-26T06:41:04Z</time>
      </trkpt>
      <trkpt lat="43.99214" lon="7.3335">
        <ele>690.4</ele>
        <time>2016-03-26T06:41:08Z</time>
      </trkpt>
      <trkpt lat="43.99223" lon="7.33351">
        <ele>688.5</ele>
        <time>2016-03-26T06:41:12Z</time>
      </trkpt>
      <trkpt lat="43.99231" lon="7.33352">
        <ele>686.7</ele>
        <time>2016-03-26T06:41:16Z</time>
      </trkpt>
      <trkpt lat="43.9924" lon="7.33352">
        <ele>684.3</ele>
        <time>2016-03-26T06:41:20Z</time>
      </trkpt>
      <trkpt lat="43.99249" lon="7.33352">
        <ele>681.5</ele>
        <time>2016-03-26T06:41:24Z</time>
      </trkpt>
      <trkpt lat="43.99259" lon="7.33354">
        <ele>679.9</ele>
        <time>2016-03-26T06:41:28Z</time>
      </trkpt>
      <trkpt lat="43.99267" lon="7.3336">
        <ele>679.9</ele>
        <time>2016-03-26T06:41:32Z</time>
      </trkpt>
      <trkpt lat="43.99276" lon="7.33367">
        <ele>680.6</ele>
        <time>2016-03-26T06:41:36Z</time>
      </trkpt>
      <trkpt lat="43.99283" lon="7.33376">
        <ele>682.4</ele>
        <time>2016-03-26T06:41:40Z</time>
      </trkpt>
      <trkpt lat="43.99289" lon="7.33386">
        <ele>684.5</ele>
        <time>2016-03-26T06:41:44Z</time>
      </trkpt>
      <trkpt lat="43.99295" lon="7.33396">
        <ele>686.2</ele>
        <time>2016-03-26T06:41:48Z</time>
      </trkpt>
      <trkpt lat="43.99299" lon="7.33405">
        <ele>688</ele>
        <time>2016-03-26T06:41:52Z</time>
      </trkpt>
      <trkpt lat="43.99303" lon="7.33414">
        <ele>689.1</ele>
        <time>2016-03-26T06:41:57Z</time>
      </trkpt>
      <trkpt lat="43.99309" lon="7.33425">
        <ele>690.6</ele>
        <time>2016-03-26T06:42:00Z</time>
      </trkpt>
      <trkpt lat="43.99315" lon="7.33437">
        <ele>692</ele>
        <time>2016-03-26T06:42:04Z</time>
      </trkpt>
      <trkpt lat="43.99322" lon="7.33448">
        <ele>692.2</ele>
        <time>2016-03-26T06:42:08Z</time>
      </trkpt>
      <trkpt lat="43.99331" lon="7.33457">
        <ele>691</ele>
        <time>2016-03-26T06:42:12Z</time>
      </trkpt>
      <trkpt lat="43.9934" lon="7.33466">
        <ele>689.3</ele>
        <time>2016-03-26T06:42:16Z</time>
      </trkpt>
      <trkpt lat="43.99349" lon="7.33474">
        <ele>687.1</ele>
        <time>2016-03-26T06:42:20Z</time>
      </trkpt>
      <trkpt lat="43.99357" lon="7.33482">
        <ele>685.1</ele>
        <time>2016-03-26T06:42:24Z</time>
      </trkpt>
      <trkpt lat="43.99364" lon="7.3349">
        <ele>683.8</ele>
        <time>2016-03-26T06:42:28Z</time>
      </trkpt>
      <trkpt lat="43.9937" lon="7.33501">
        <ele>683.7</ele>
        <time>2016-03-26T06:42:32Z</time>
      </trkpt>
      <trkpt lat="43.99374" lon="7.3351">
        <ele>684.1</ele>
        <time>2016-03-26T06:42:36Z</time>
      </trkpt>
      <trkpt lat="43.99379" lon="7.33511">
        <ele>681.7</ele>
        <time>2016-03-26T06:42:40Z</time>
      </trkpt>
      <trkpt lat="43.99386" lon="7.33509">
        <ele>678</ele>
        <time>2016-03-26T06:42:45Z</time>
      </trkpt>
      <trkpt lat="43.99392" lon="7.33504">
        <ele>674.3</ele>
        <time>2016-03-26T06:42:48Z</time>
      </trkpt>
      <trkpt lat="43.99398" lon="7.33499">
        <ele>670.4</ele>
        <time>2016-03-26T06:42:52Z</time>
      </trkpt>
      <trkpt lat="43.99399" lon="7.33499">
        <ele>669.7</ele>
        <time>2016-03-26T06:42:56Z</time>
      </trkpt>
      <trkpt lat="43.994" lon="7.33503">
        <ele>670.5</ele>
        <time>2016-03-26T06:43:00Z</time>
      </trkpt>
      <trkpt lat="43.99399" lon="7.33511">
        <ele>672.8</ele>
        <time>2016-03-26T06:43:04Z</time>
      </trkpt>
      <trkpt lat="43.99398" lon="7.33516">
        <ele>674.3</ele>
        <time>2016-03-26T06:43:08Z</time>
      </trkpt>
      <trkpt lat="43.99398" lon="7.33516">
        <ele>674.3</ele>
        <time>2016-03-26T06:43:12Z</time>
      </trkpt>
      <trkpt lat="43.99398" lon="7.33516">
        <ele>674.3</ele>
        <time>2016-03-26T06:43:16Z</time>
      </trkpt>
      <trkpt lat="43.99398" lon="7.33516">
        <ele>674.3</ele>
        <time>2016-03-26T06:43:20Z</time>
      </trkpt>
      <trkpt lat="43.99413" lon="7.33526">
        <ele>669.6</ele>
        <time>2016-03-26T06:43:24Z</time>
      </trkpt>
      <trkpt lat="43.99419" lon="7.33527">
        <ele>666.8</ele>
        <time>2016-03-26T06:43:29Z</time>
      </trkpt>
      <trkpt lat="43.99425" lon="7.33532">
        <ele>665.5</ele>
        <time>2016-03-26T06:43:32Z</time>
      </trkpt>
      <trkpt lat="43.99431" lon="7.33541">
        <ele>664.7</ele>
        <time>2016-03-26T06:43:36Z</time>
      </trkpt>
      <trkpt lat="43.99437" lon="7.3355">
        <ele>663.5</ele>
        <time>2016-03-26T06:43:40Z</time>
      </trkpt>
      <trkpt lat="43.99442" lon="7.33559">
        <ele>662.6</ele>
        <time>2016-03-26T06:43:44Z</time>
      </trkpt>
      <trkpt lat="43.99448" lon="7.33571">
        <ele>662.1</ele>
        <time>2016-03-26T06:43:48Z</time>
      </trkpt>
      <trkpt lat="43.99455" lon="7.33579">
        <ele>660.5</ele>
        <time>2016-03-26T06:43:52Z</time>
      </trkpt>
      <trkpt lat="43.99463" lon="7.33582">
        <ele>657.3</ele>
        <time>2016-03-26T06:43:56Z</time>
      </trkpt>
      <trkpt lat="43.99472" lon="7.33582">
        <ele>653.3</ele>
        <time>2016-03-26T06:44:00Z</time>
      </trkpt>
      <trkpt lat="43.99478" lon="7.33582">
        <ele>650.7</ele>
        <time>2016-03-26T06:44:04Z</time>
      </trkpt>
      <trkpt lat="43.99483" lon="7.33581">
        <ele>648.7</ele>
        <time>2016-03-26T06:44:08Z</time>
      </trkpt>
      <trkpt lat="43.99487" lon="7.33583">
        <ele>647</ele>
        <time>2016-03-26T06:44:12Z</time>
      </trkpt>
      <trkpt lat="43.99493" lon="7.33587">
        <ele>645.3</ele>
        <time>2016-03-26T06:44:16Z</time>
      </trkpt>
      <trkpt lat="43.99501" lon="7.33587">
        <ele>641.8</ele>
        <time>2016-03-26T06:44:21Z</time>
      </trkpt>
      <trkpt lat="43.99512" lon="7.33589">
        <ele>637.9</ele>
        <time>2016-03-26T06:44:24Z</time>
      </trkpt>
      <trkpt lat="43.99523" lon="7.33592">
        <ele>633.7</ele>
        <time>2016-03-26T06:44:28Z</time>
      </trkpt>
      <trkpt lat="43.99533" lon="7.33592">
        <ele>629.5</ele>
        <time>2016-03-26T06:44:32Z</time>
      </trkpt>
      <trkpt lat="43.99541" lon="7.33597">
        <ele>627.2</ele>
        <time>2016-03-26T06:44:36Z</time>
      </trkpt>
      <trkpt lat="43.99547" lon="7.33606">
        <ele>627.2</ele>
        <time>2016-03-26T06:44:40Z</time>
      </trkpt>
      <trkpt lat="43.99554" lon="7.33612">
        <ele>626.2</ele>
        <time>2016-03-26T06:44:44Z</time>
      </trkpt>
      <trkpt lat="43.99563" lon="7.33621">
        <ele>624.9</ele>
        <time>2016-03-26T06:44:49Z</time>
      </trkpt>
      <trkpt lat="43.99565" lon="7.33622">
        <ele>624.5</ele>
        <time>2016-03-26T06:44:52Z</time>
      </trkpt>
      <trkpt lat="43.99568" lon="7.33624">
        <ele>624</ele>
        <time>2016-03-26T06:44:53Z</time>
      </trkpt>
      <trkpt lat="43.99575" lon="7.33633">
        <ele>623.4</ele>
        <time>2016-03-26T06:44:56Z</time>
      </trkpt>
      <trkpt lat="43.9958" lon="7.33646">
        <ele>624.4</ele>
        <time>2016-03-26T06:45:00Z</time>
      </trkpt>
      <trkpt lat="43.99581" lon="7.33658">
        <ele>626.5</ele>
        <time>2016-03-26T06:45:04Z</time>
      </trkpt>
      <trkpt lat="43.99582" lon="7.3367">
        <ele>628.9</ele>
        <time>2016-03-26T06:45:08Z</time>
      </trkpt>
      <trkpt lat="43.99583" lon="7.33683">
        <ele>631.5</ele>
        <time>2016-03-26T06:45:12Z</time>
      </trkpt>
      <trkpt lat="43.99583" lon="7.33697">
        <ele>634.4</ele>
        <time>2016-03-26T06:45:16Z</time>
      </trkpt>
      <trkpt lat="43.99586" lon="7.33707">
        <ele>635.1</ele>
        <time>2016-03-26T06:45:20Z</time>
      </trkpt>
      <trkpt lat="43.9959" lon="7.33715">
        <ele>633.8</ele>
        <time>2016-03-26T06:45:25Z</time>
      </trkpt>
      <trkpt lat="43.99596" lon="7.33723">
        <ele>632</ele>
        <time>2016-03-26T06:45:28Z</time>
      </trkpt>
      <trkpt lat="43.99597" lon="7.33735">
        <ele>632.1</ele>
        <time>2016-03-26T06:45:32Z</time>
      </trkpt>
      <trkpt lat="43.99598" lon="7.33746">
        <ele>632.5</ele>
        <time>2016-03-26T06:45:36Z</time>
      </trkpt>
      <trkpt lat="43.99598" lon="7.33758">
        <ele>633.6</ele>
        <time>2016-03-26T06:45:40Z</time>
      </trkpt>
      <trkpt lat="43.99598" lon="7.33772">
        <ele>634.8</ele>
        <time>2016-03-26T06:45:44Z</time>
      </trkpt>
      <trkpt lat="43.99599" lon="7.33785">
        <ele>635.2</ele>
        <time>2016-03-26T06:45:48Z</time>
      </trkpt>
      <trkpt lat="43.99604" lon="7.33795">
        <ele>633.1</ele>
        <time>2016-03-26T06:45:52Z</time>
      </trkpt>
      <trkpt lat="43.99607" lon="7.33804">
        <ele>631.3</ele>
        <time>2016-03-26T06:45:56Z</time>
      </trkpt>
      <trkpt lat="43.9961" lon="7.33812">
        <ele>630.2</ele>
        <time>2016-03-26T06:46:00Z</time>
      </trkpt>
      <trkpt lat="43.99615" lon="7.33817">
        <ele>626.9</ele>
        <time>2016-03-26T06:46:04Z</time>
      </trkpt>
      <trkpt lat="43.99624" lon="7.33822">
        <ele>621.5</ele>
        <time>2016-03-26T06:46:08Z</time>
      </trkpt>
      <trkpt lat="43.99631" lon="7.33829">
        <ele>617.5</ele>
        <time>2016-03-26T06:46:12Z</time>
      </trkpt>
      <trkpt lat="43.99637" lon="7.33836">
        <ele>614.1</ele>
        <time>2016-03-26T06:46:16Z</time>
      </trkpt>
      <trkpt lat="43.99643" lon="7.33843">
        <ele>610.7</ele>
        <time>2016-03-26T06:46:20Z</time>
      </trkpt>
      <trkpt lat="43.99648" lon="7.33855">
        <ele>608.4</ele>
        <time>2016-03-26T06:46:25Z</time>
      </trkpt>
      <trkpt lat="43.99651" lon="7.33868">
        <ele>606.8</ele>
        <time>2016-03-26T06:46:28Z</time>
      </trkpt>
      <trkpt lat="43.99654" lon="7.3388">
        <ele>606.1</ele>
        <time>2016-03-26T06:46:32Z</time>
      </trkpt>
      <trkpt lat="43.99659" lon="7.33888">
        <ele>604.2</ele>
        <time>2016-03-26T06:46:36Z</time>
      </trkpt>
      <trkpt lat="43.99666" lon="7.33891">
        <ele>601.1</ele>
        <time>2016-03-26T06:46:40Z</time>
      </trkpt>
      <trkpt lat="43.99672" lon="7.33894">
        <ele>599</ele>
        <time>2016-03-26T06:46:44Z</time>
      </trkpt>
      <trkpt lat="43.99679" lon="7.33897">
        <ele>595.8</ele>
        <time>2016-03-26T06:46:48Z</time>
      </trkpt>
      <trkpt lat="43.9969" lon="7.33897">
        <ele>590.8</ele>
        <time>2016-03-26T06:46:52Z</time>
      </trkpt>
      <trkpt lat="43.997" lon="7.33899">
        <ele>586.3</ele>
        <time>2016-03-26T06:46:56Z</time>
      </trkpt>
      <trkpt lat="43.99709" lon="7.33901">
        <ele>582.5</ele>
        <time>2016-03-26T06:47:00Z</time>
      </trkpt>
      <trkpt lat="43.99717" lon="7.33902">
        <ele>582.3</ele>
        <time>2016-03-26T06:47:04Z</time>
      </trkpt>
      <trkpt lat="43.99724" lon="7.33901">
        <ele>581.8</ele>
        <time>2016-03-26T06:47:09Z</time>
      </trkpt>
      <trkpt lat="43.99729" lon="7.33896">
        <ele>580.4</ele>
        <time>2016-03-26T06:47:12Z</time>
      </trkpt>
      <trkpt lat="43.99736" lon="7.33894">
        <ele>579.8</ele>
        <time>2016-03-26T06:47:16Z</time>
      </trkpt>
      <trkpt lat="43.99744" lon="7.33892">
        <ele>578.9</ele>
        <time>2016-03-26T06:47:20Z</time>
      </trkpt>
      <trkpt lat="43.9975" lon="7.33887">
        <ele>577.7</ele>
        <time>2016-03-26T06:47:24Z</time>
      </trkpt>
      <trkpt lat="43.99755" lon="7.33879">
        <ele>575.7</ele>
        <time>2016-03-26T06:47:28Z</time>
      </trkpt>
      <trkpt lat="43.99759" lon="7.3387">
        <ele>574.6</ele>
        <time>2016-03-26T06:47:32Z</time>
      </trkpt>
      <trkpt lat="43.9976" lon="7.33868">
        <ele>574.5</ele>
        <time>2016-03-26T06:47:36Z</time>
      </trkpt>
      <trkpt lat="43.9976" lon="7.33868">
        <ele>574.5</ele>
        <time>2016-03-26T06:47:40Z</time>
      </trkpt>
      <trkpt lat="43.9976" lon="7.33868">
        <ele>574.5</ele>
        <time>2016-03-26T06:47:44Z</time>
      </trkpt>
      <trkpt lat="43.9976" lon="7.33868">
        <ele>574.5</ele>
        <time>2016-03-26T06:47:48Z</time>
      </trkpt>
      <trkpt lat="43.9976" lon="7.33868">
        <ele>574.5</ele>
        <time>2016-03-26T06:47:53Z</time>
      </trkpt>
      <trkpt lat="43.9976" lon="7.33868">
        <ele>574.5</ele>
        <time>2016-03-26T06:47:57Z</time>
      </trkpt>
      <trkpt lat="43.99764" lon="7.33848">
        <ele>573.8</ele>
        <time>2016-03-26T06:48:00Z</time>
      </trkpt>
      <trkpt lat="43.99762" lon="7.33837">
        <ele>573.4</ele>
        <time>2016-03-26T06:48:04Z</time>
      </trkpt>
      <trkpt lat="43.99761" lon="7.33825">
        <ele>573</ele>
        <time>2016-03-26T06:48:08Z</time>
      </trkpt>
      <trkpt lat="43.99757" lon="7.33814">
        <ele>572.6</ele>
        <time>2016-03-26T06:48:12Z</time>
      </trkpt>
      <trkpt lat="43.99754" lon="7.33801">
        <ele>572</ele>
        <time>2016-03-26T06:48:16Z</time>
      </trkpt>
      <trkpt lat="43.99754" lon="7.33789">
        <ele>571.5</ele>
        <time>2016-03-26T06:48:20Z</time>
      </trkpt>
      <trkpt lat="43.99756" lon="7.33777">
        <ele>571</ele>
        <time>2016-03-26T06:48:24Z</time>
      </trkpt>
      <trkpt lat="43.99758" lon="7.33764">
        <ele>570.4</ele>
        <time>2016-03-26T06:48:28Z</time>
      </trkpt>
      <trkpt lat="43.99761" lon="7.33753">
        <ele>570.1</ele>
        <time>2016-03-26T06:48:32Z</time>
      </trkpt>
      <trkpt lat="43.99764" lon="7.33743">
        <ele>569.8</ele>
        <time>2016-03-26T06:48:36Z</time>
      </trkpt>
      <trkpt lat="43.99766" lon="7.33734">
        <ele>569.6</ele>
        <time>2016-03-26T06:48:40Z</time>
      </trkpt>
      <trkpt lat="43.99766" lon="7.3373">
        <ele>569.5</ele>
        <time>2016-03-26T06:48:44Z</time>
      </trkpt>
      <trkpt lat="43.99766" lon="7.33725">
        <ele>569.2</ele>
        <time>2016-03-26T06:48:48Z</time>
      </trkpt>
      <trkpt lat="43.99766" lon="7.33719">
        <ele>569</ele>
        <time>2016-03-26T06:48:52Z</time>
      </trkpt>
      <trkpt lat="43.99768" lon="7.33712">
        <ele>568.9</ele>
        <time>2016-03-26T06:48:56Z</time>
      </trkpt>
      <trkpt lat="43.99773" lon="7.33705">
        <ele>569.1</ele>
        <time>2016-03-26T06:49:00Z</time>
      </trkpt>
      <trkpt lat="43.99777" lon="7.33694">
        <ele>569.6</ele>
        <time>2016-03-26T06:49:04Z</time>
      </trkpt>
      <trkpt lat="43.99779" lon="7.33681">
        <ele>569.9</ele>
        <time>2016-03-26T06:49:08Z</time>
      </trkpt>
      <trkpt lat="43.99782" lon="7.3367">
        <ele>570.3</ele>
        <time>2016-03-26T06:49:12Z</time>
      </trkpt>
      <trkpt lat="43.99784" lon="7.33662">
        <ele>570.9</ele>
        <time>2016-03-26T06:49:17Z</time>
      </trkpt>
      <trkpt lat="43.99785" lon="7.33654">
        <ele>571.1</ele>
        <time>2016-03-26T06:49:20Z</time>
      </trkpt>
      <trkpt lat="43.99783" lon="7.33645">
        <ele>570.9</ele>
        <time>2016-03-26T06:49:24Z</time>
      </trkpt>
      <trkpt lat="43.99782" lon="7.33637">
        <ele>570.7</ele>
        <time>2016-03-26T06:49:28Z</time>
      </trkpt>
      <trkpt lat="43.9978" lon="7.3363">
        <ele>570.4</ele>
        <time>2016-03-26T06:49:32Z</time>
      </trkpt>
      <trkpt lat="43.99779" lon="7.33619">
        <ele>570.2</ele>
        <time>2016-03-26T06:49:36Z</time>
      </trkpt>
      <trkpt lat="43.99778" lon="7.33606">
        <ele>570.4</ele>
        <time>2016-03-26T06:49:40Z</time>
      </trkpt>
      <trkpt lat="43.99775" lon="7.33594">
        <ele>570.2</ele>
        <time>2016-03-26T06:49:44Z</time>
      </trkpt>
      <trkpt lat="43.99774" lon="7.33582">
        <ele>570.2</ele>
        <time>2016-03-26T06:49:48Z</time>
      </trkpt>
      <trkpt lat="43.99774" lon="7.33571">
        <ele>570.7</ele>
        <time>2016-03-26T06:49:52Z</time>
      </trkpt>
      <trkpt lat="43.99778" lon="7.33562">
        <ele>572.1</ele>
        <time>2016-03-26T06:49:56Z</time>
      </trkpt>
      <trkpt lat="43.99782" lon="7.33553">
        <ele>573.4</ele>
        <time>2016-03-26T06:50:00Z</time>
      </trkpt>
      <trkpt lat="43.99784" lon="7.33544">
        <ele>574.4</ele>
        <time>2016-03-26T06:50:04Z</time>
      </trkpt>
      <trkpt lat="43.99786" lon="7.33533">
        <ele>575.3</ele>
        <time>2016-03-26T06:50:08Z</time>
      </trkpt>
      <trkpt lat="43.99787" lon="7.33523">
        <ele>576</ele>
        <time>2016-03-26T06:50:12Z</time>
      </trkpt>
      <trkpt lat="43.99791" lon="7.33515">
        <ele>577.5</ele>
        <time>2016-03-26T06:50:16Z</time>
      </trkpt>
      <trkpt lat="43.99797" lon="7.33512">
        <ele>579.9</ele>
        <time>2016-03-26T06:50:20Z</time>
      </trkpt>
      <trkpt lat="43.99801" lon="7.33511">
        <ele>581.8</ele>
        <time>2016-03-26T06:50:24Z</time>
      </trkpt>
      <trkpt lat="43.99805" lon="7.33509">
        <ele>583.6</ele>
        <time>2016-03-26T06:50:28Z</time>
      </trkpt>
      <trkpt lat="43.99809" lon="7.33508">
        <ele>585.4</ele>
        <time>2016-03-26T06:50:32Z</time>
      </trkpt>
      <trkpt lat="43.99813" lon="7.33508">
        <ele>587.2</ele>
        <time>2016-03-26T06:50:36Z</time>
      </trkpt>
      <trkpt lat="43.99817" lon="7.33508">
        <ele>588.7</ele>
        <time>2016-03-26T06:50:41Z</time>
      </trkpt>
      <trkpt lat="43.9982" lon="7.33506">
        <ele>590.4</ele>
        <time>2016-03-26T06:50:45Z</time>
      </trkpt>
      <trkpt lat="43.99824" lon="7.33504">
        <ele>592</ele>
        <time>2016-03-26T06:50:48Z</time>
      </trkpt>
      <trkpt lat="43.99827" lon="7.33502">
        <ele>593.4</ele>
        <time>2016-03-26T06:50:52Z</time>
      </trkpt>
      <trkpt lat="43.99831" lon="7.33498">
        <ele>595.1</ele>
        <time>2016-03-26T06:50:56Z</time>
      </trkpt>
      <trkpt lat="43.99835" lon="7.33493">
        <ele>597.1</ele>
        <time>2016-03-26T06:51:00Z</time>
      </trkpt>
      <trkpt lat="43.99838" lon="7.33485">
        <ele>598.5</ele>
        <time>2016-03-26T06:51:04Z</time>
      </trkpt>
      <trkpt lat="43.99841" lon="7.33476">
        <ele>600.1</ele>
        <time>2016-03-26T06:51:08Z</time>
      </trkpt>
      <trkpt lat="43.99844" lon="7.33468">
        <ele>601.8</ele>
        <time>2016-03-26T06:51:12Z</time>
      </trkpt>
      <trkpt lat="43.99847" lon="7.33459">
        <ele>603.4</ele>
        <time>2016-03-26T06:51:16Z</time>
      </trkpt>
      <trkpt lat="43.99851" lon="7.33452">
        <ele>605.7</ele>
        <time>2016-03-26T06:51:20Z</time>
      </trkpt>
      <trkpt lat="43.99854" lon="7.33446">
        <ele>607.7</ele>
        <time>2016-03-26T06:51:24Z</time>
      </trkpt>
      <trkpt lat="43.99854" lon="7.33437">
        <ele>608.4</ele>
        <time>2016-03-26T06:51:28Z</time>
      </trkpt>
      <trkpt lat="43.99853" lon="7.33426">
        <ele>608.8</ele>
        <time>2016-03-26T06:51:32Z</time>
      </trkpt>
      <trkpt lat="43.99853" lon="7.33417">
        <ele>609.7</ele>
        <time>2016-03-26T06:51:37Z</time>
      </trkpt>
      <trkpt lat="43.99856" lon="7.33409">
        <ele>611.4</ele>
        <time>2016-03-26T06:51:40Z</time>
      </trkpt>
      <trkpt lat="43.99858" lon="7.33401">
        <ele>613.1</ele>
        <time>2016-03-26T06:51:44Z</time>
      </trkpt>
      <trkpt lat="43.99859" lon="7.33393">
        <ele>614.4</ele>
        <time>2016-03-26T06:51:48Z</time>
      </trkpt>
      <trkpt lat="43.99861" lon="7.33385">
        <ele>615.8</ele>
        <time>2016-03-26T06:51:52Z</time>
      </trkpt>
      <trkpt lat="43.99863" lon="7.3338">
        <ele>617</ele>
        <time>2016-03-26T06:51:56Z</time>
      </trkpt>
      <trkpt lat="43.99865" lon="7.33374">
        <ele>618.3</ele>
        <time>2016-03-26T06:52:00Z</time>
      </trkpt>
      <trkpt lat="43.99868" lon="7.33367">
        <ele>620</ele>
        <time>2016-03-26T06:52:04Z</time>
      </trkpt>
      <trkpt lat="43.99869" lon="7.33361">
        <ele>621.1</ele>
        <time>2016-03-26T06:52:08Z</time>
      </trkpt>
      <trkpt lat="43.9987" lon="7.33356">
        <ele>621.9</ele>
        <time>2016-03-26T06:52:12Z</time>
      </trkpt>
      <trkpt lat="43.99871" lon="7.33351">
        <ele>622.5</ele>
        <time>2016-03-26T06:52:16Z</time>
      </trkpt>
      <trkpt lat="43.99873" lon="7.33346">
        <ele>623.3</ele>
        <time>2016-03-26T06:52:20Z</time>
      </trkpt>
      <trkpt lat="43.99872" lon="7.3334">
        <ele>623.6</ele>
        <time>2016-03-26T06:52:24Z</time>
      </trkpt>
      <trkpt lat="43.99872" lon="7.3334">
        <ele>623.6</ele>
        <time>2016-03-26T06:52:29Z</time>
      </trkpt>
      <trkpt lat="43.99872" lon="7.3334">
        <ele>623.6</ele>
        <time>2016-03-26T06:52:32Z</time>
      </trkpt>
      <trkpt lat="43.99872" lon="7.3334">
        <ele>623.6</ele>
        <time>2016-03-26T06:52:36Z</time>
      </trkpt>
      <trkpt lat="43.99872" lon="7.3334">
        <ele>623.6</ele>
        <time>2016-03-26T06:52:40Z</time>
      </trkpt>
      <trkpt lat="43.99872" lon="7.3334">
        <ele>623.6</ele>
        <time>2016-03-26T06:52:44Z</time>
      </trkpt>
      <trkpt lat="43.99872" lon="7.3334">
        <ele>623.6</ele>
        <time>2016-03-26T06:52:48Z</time>
      </trkpt>
      <trkpt lat="43.99872" lon="7.3334">
        <ele>623.6</ele>
        <time>2016-03-26T06:52:52Z</time>
      </trkpt>
      <trkpt lat="43.99872" lon="7.3334">
        <ele>623.6</ele>
        <time>2016-03-26T06:52:56Z</time>
      </trkpt>
      <trkpt lat="43.99872" lon="7.3334">
        <ele>623.6</ele>
        <time>2016-03-26T06:53:00Z</time>
      </trkpt>
      <trkpt lat="43.99872" lon="7.3334">
        <ele>623.6</ele>
        <time>2016-03-26T06:53:04Z</time>
      </trkpt>
      <trkpt lat="43.99872" lon="7.3334">
        <ele>623.6</ele>
        <time>2016-03-26T06:53:08Z</time>
      </trkpt>
      <trkpt lat="43.99872" lon="7.3334">
        <ele>623.6</ele>
        <time>2016-03-26T06:53:12Z</time>
      </trkpt>
      <trkpt lat="43.99872" lon="7.3334">
        <ele>623.6</ele>
        <time>2016-03-26T06:53:16Z</time>
      </trkpt>
      <trkpt lat="43.99872" lon="7.3334">
        <ele>623.6</ele>
        <time>2016-03-26T06:53:20Z</time>
      </trkpt>
      <trkpt lat="43.99872" lon="7.3334">
        <ele>623.6</ele>
        <time>2016-03-26T06:53:25Z</time>
      </trkpt>
      <trkpt lat="43.99877" lon="7.3332">
        <ele>626.4</ele>
        <time>2016-03-26T06:53:28Z</time>
      </trkpt>
      <trkpt lat="43.99881" lon="7.33313">
        <ele>628.3</ele>
        <time>2016-03-26T06:53:32Z</time>
      </trkpt>
      <trkpt lat="43.99885" lon="7.33307">
        <ele>630.5</ele>
        <time>2016-03-26T06:53:36Z</time>
      </trkpt>
      <trkpt lat="43.9989" lon="7.33302">
        <ele>632.6</ele>
        <time>2016-03-26T06:53:40Z</time>
      </trkpt>
      <trkpt lat="43.99893" lon="7.33296">
        <ele>634.1</ele>
        <time>2016-03-26T06:53:44Z</time>
      </trkpt>
      <trkpt lat="43.99897" lon="7.33294">
        <ele>636.1</ele>
        <time>2016-03-26T06:53:48Z</time>
      </trkpt>
      <trkpt lat="43.999" lon="7.33297">
        <ele>637.1</ele>
        <time>2016-03-26T06:53:52Z</time>
      </trkpt>
      <trkpt lat="43.99904" lon="7.333">
        <ele>638.6</ele>
        <time>2016-03-26T06:53:56Z</time>
      </trkpt>
      <trkpt lat="43.99909" lon="7.33297">
        <ele>640.5</ele>
        <time>2016-03-26T06:54:00Z</time>
      </trkpt>
      <trkpt lat="43.99914" lon="7.33296">
        <ele>642.9</ele>
        <time>2016-03-26T06:54:04Z</time>
      </trkpt>
      <trkpt lat="43.99914" lon="7.33296">
        <ele>642.9</ele>
        <time>2016-03-26T06:54:08Z</time>
      </trkpt>
      <trkpt lat="43.99917" lon="7.33299">
        <ele>644</ele>
        <time>2016-03-26T06:54:11Z</time>
      </trkpt>
      <trkpt lat="43.9992" lon="7.33302">
        <ele>644.8</ele>
        <time>2016-03-26T06:54:12Z</time>
      </trkpt>
      <trkpt lat="43.99923" lon="7.333">
        <ele>646.3</ele>
        <time>2016-03-26T06:54:16Z</time>
      </trkpt>
      <trkpt lat="43.99926" lon="7.33298">
        <ele>647.7</ele>
        <time>2016-03-26T06:54:20Z</time>
      </trkpt>
      <trkpt lat="43.99929" lon="7.33297">
        <ele>649</ele>
        <time>2016-03-26T06:54:24Z</time>
      </trkpt>
      <trkpt lat="43.99934" lon="7.33294">
        <ele>651</ele>
        <time>2016-03-26T06:54:29Z</time>
      </trkpt>
      <trkpt lat="43.99936" lon="7.33287">
        <ele>651.6</ele>
        <time>2016-03-26T06:54:32Z</time>
      </trkpt>
      <trkpt lat="43.99935" lon="7.33278">
        <ele>651.3</ele>
        <time>2016-03-26T06:54:36Z</time>
      </trkpt>
      <trkpt lat="43.99935" lon="7.3327">
        <ele>651</ele>
        <time>2016-03-26T06:54:40Z</time>
      </trkpt>
      <trkpt lat="43.99934" lon="7.33261">
        <ele>650.6</ele>
        <time>2016-03-26T06:54:44Z</time>
      </trkpt>
      <trkpt lat="43.99933" lon="7.3325">
        <ele>650</ele>
        <time>2016-03-26T06:54:48Z</time>
      </trkpt>
      <trkpt lat="43.99931" lon="7.33239">
        <ele>649.1</ele>
        <time>2016-03-26T06:54:52Z</time>
      </trkpt>
      <trkpt lat="43.99931" lon="7.33229">
        <ele>648.7</ele>
        <time>2016-03-26T06:54:56Z</time>
      </trkpt>
      <trkpt lat="43.99933" lon="7.3322">
        <ele>649.4</ele>
        <time>2016-03-26T06:55:00Z</time>
      </trkpt>
      <trkpt lat="43.99935" lon="7.33212">
        <ele>650.3</ele>
        <time>2016-03-26T06:55:04Z</time>
      </trkpt>
      <trkpt lat="43.99937" lon="7.33203">
        <ele>651.6</ele>
        <time>2016-03-26T06:55:08Z</time>
      </trkpt>
      <trkpt lat="43.9994" lon="7.33196">
        <ele>653.4</ele>
        <time>2016-03-26T06:55:12Z</time>
      </trkpt>
      <trkpt lat="43.99943" lon="7.33189">
        <ele>655.4</ele>
        <time>2016-03-26T06:55:16Z</time>
      </trkpt>
      <trkpt lat="43.99946" lon="7.33185">
        <ele>657</ele>
        <time>2016-03-26T06:55:21Z</time>
      </trkpt>
      <trkpt lat="43.99949" lon="7.33181">
        <ele>658.2</ele>
        <time>2016-03-26T06:55:24Z</time>
      </trkpt>
      <trkpt lat="43.99951" lon="7.33177">
        <ele>659.4</ele>
        <time>2016-03-26T06:55:28Z</time>
      </trkpt>
      <trkpt lat="43.99953" lon="7.33175">
        <ele>660.4</ele>
        <time>2016-03-26T06:55:32Z</time>
      </trkpt>
      <trkpt lat="43.99955" lon="7.33172">
        <ele>661.3</ele>
        <time>2016-03-26T06:55:36Z</time>
      </trkpt>
      <trkpt lat="43.99957" lon="7.33168">
        <ele>662.4</ele>
        <time>2016-03-26T06:55:40Z</time>
      </trkpt>
      <trkpt lat="43.99959" lon="7.33163">
        <ele>663.4</ele>
        <time>2016-03-26T06:55:44Z</time>
      </trkpt>
      <trkpt lat="43.99961" lon="7.33155">
        <ele>665.2</ele>
        <time>2016-03-26T06:55:48Z</time>
      </trkpt>
      <trkpt lat="43.99964" lon="7.33147">
        <ele>666.9</ele>
        <time>2016-03-26T06:55:52Z</time>
      </trkpt>
      <trkpt lat="43.99966" lon="7.33141">
        <ele>668.5</ele>
        <time>2016-03-26T06:55:56Z</time>
      </trkpt>
      <trkpt lat="43.99971" lon="7.33134">
        <ele>670.8</ele>
        <time>2016-03-26T06:56:00Z</time>
      </trkpt>
      <trkpt lat="43.99974" lon="7.3313">
        <ele>672.3</ele>
        <time>2016-03-26T06:56:04Z</time>
      </trkpt>
      <trkpt lat="43.99974" lon="7.3313">
        <ele>672.3</ele>
        <time>2016-03-26T06:56:08Z</time>
      </trkpt>
      <trkpt lat="43.99974" lon="7.3313">
        <ele>672.3</ele>
        <time>2016-03-26T06:56:12Z</time>
      </trkpt>
      <trkpt lat="43.99974" lon="7.3313">
        <ele>672.3</ele>
        <time>2016-03-26T06:56:16Z</time>
      </trkpt>
      <trkpt lat="43.99974" lon="7.3313">
        <ele>672.3</ele>
        <time>2016-03-26T06:56:21Z</time>
      </trkpt>
      <trkpt lat="43.99974" lon="7.3313">
        <ele>672.3</ele>
        <time>2016-03-26T06:56:24Z</time>
      </trkpt>
      <trkpt lat="43.99974" lon="7.3313">
        <ele>672.3</ele>
        <time>2016-03-26T06:56:28Z</time>
      </trkpt>
      <trkpt lat="43.99974" lon="7.3313">
        <ele>672.3</ele>
        <time>2016-03-26T06:56:33Z</time>
      </trkpt>
      <trkpt lat="43.99974" lon="7.3313">
        <ele>672.3</ele>
        <time>2016-03-26T06:56:36Z</time>
      </trkpt>
      <trkpt lat="43.99974" lon="7.3313">
        <ele>672.3</ele>
        <time>2016-03-26T06:56:40Z</time>
      </trkpt>
      <trkpt lat="43.99981" lon="7.33127">
        <ele>675.5</ele>
        <time>2016-03-26T06:56:44Z</time>
      </trkpt>
      <trkpt lat="43.99983" lon="7.33122">
        <ele>677.4</ele>
        <time>2016-03-26T06:56:48Z</time>
      </trkpt>
      <trkpt lat="43.99986" lon="7.33118">
        <ele>679.5</ele>
        <time>2016-03-26T06:56:52Z</time>
      </trkpt>
      <trkpt lat="43.99987" lon="7.33113">
        <ele>681.3</ele>
        <time>2016-03-26T06:56:56Z</time>
      </trkpt>
      <trkpt lat="43.99987" lon="7.33108">
        <ele>682.6</ele>
        <time>2016-03-26T06:57:00Z</time>
      </trkpt>
      <trkpt lat="43.99986" lon="7.33101">
        <ele>684</ele>
        <time>2016-03-26T06:57:04Z</time>
      </trkpt>
      <trkpt lat="43.99984" lon="7.33095">
        <ele>684.3</ele>
        <time>2016-03-26T06:57:08Z</time>
      </trkpt>
      <trkpt lat="43.99982" lon="7.33088">
        <ele>685.6</ele>
        <time>2016-03-26T06:57:12Z</time>
      </trkpt>
      <trkpt lat="43.99981" lon="7.33079">
        <ele>687.4</ele>
        <time>2016-03-26T06:57:16Z</time>
      </trkpt>
      <trkpt lat="43.9998" lon="7.33073">
        <ele>688.8</ele>
        <time>2016-03-26T06:57:20Z</time>
      </trkpt>
      <trkpt lat="43.99977" lon="7.33067">
        <ele>689.6</ele>
        <time>2016-03-26T06:57:24Z</time>
      </trkpt>
      <trkpt lat="43.99974" lon="7.3306">
        <ele>690.4</ele>
        <time>2016-03-26T06:57:28Z</time>
      </trkpt>
      <trkpt lat="43.99974" lon="7.33053">
        <ele>692.5</ele>
        <time>2016-03-26T06:57:32Z</time>
      </trkpt>
      <trkpt lat="43.99977" lon="7.33048">
        <ele>694.8</ele>
        <time>2016-03-26T06:57:36Z</time>
      </trkpt>
      <trkpt lat="43.99982" lon="7.33043">
        <ele>697.1</ele>
        <time>2016-03-26T06:57:40Z</time>
      </trkpt>
      <trkpt lat="43.99987" lon="7.33038">
        <ele>699.4</ele>
        <time>2016-03-26T06:57:44Z</time>
      </trkpt>
      <trkpt lat="43.9999" lon="7.33033">
        <ele>701.2</ele>
        <time>2016-03-26T06:57:48Z</time>
      </trkpt>
      <trkpt lat="43.99991" lon="7.33027">
        <ele>703.2</ele>
        <time>2016-03-26T06:57:53Z</time>
      </trkpt>
      <trkpt lat="43.99993" lon="7.3302">
        <ele>705.2</ele>
        <time>2016-03-26T06:57:56Z</time>
      </trkpt>
      <trkpt lat="43.99994" lon="7.33014">
        <ele>706.6</ele>
        <time>2016-03-26T06:58:00Z</time>
      </trkpt>
      <trkpt lat="43.99995" lon="7.33008">
        <ele>708.2</ele>
        <time>2016-03-26T06:58:04Z</time>
      </trkpt>
      <trkpt lat="43.99995" lon="7.33003">
        <ele>709.6</ele>
        <time>2016-03-26T06:58:08Z</time>
      </trkpt>
      <trkpt lat="43.99993" lon="7.32995">
        <ele>711.2</ele>
        <time>2016-03-26T06:58:12Z</time>
      </trkpt>
      <trkpt lat="43.99989" lon="7.32984">
        <ele>713.3</ele>
        <time>2016-03-26T06:58:16Z</time>
      </trkpt>
      <trkpt lat="43.99985" lon="7.32973">
        <ele>715.4</ele>
        <time>2016-03-26T06:58:20Z</time>
      </trkpt>
      <trkpt lat="43.99979" lon="7.32964">
        <ele>717.2</ele>
        <time>2016-03-26T06:58:24Z</time>
      </trkpt>
      <trkpt lat="43.99972" lon="7.32956">
        <ele>718.6</ele>
        <time>2016-03-26T06:58:28Z</time>
      </trkpt>
      <trkpt lat="43.99966" lon="7.32949">
        <ele>719.6</ele>
        <time>2016-03-26T06:58:32Z</time>
      </trkpt>
      <trkpt lat="43.9996" lon="7.32944">
        <ele>720.2</ele>
        <time>2016-03-26T06:58:36Z</time>
      </trkpt>
      <trkpt lat="43.99956" lon="7.32941">
        <ele>720</ele>
        <time>2016-03-26T06:58:40Z</time>
      </trkpt>
      <trkpt lat="43.99958" lon="7.32939">
        <ele>721.3</ele>
        <time>2016-03-26T06:58:44Z</time>
      </trkpt>
      <trkpt lat="43.99958" lon="7.32939">
        <ele>721.3</ele>
        <time>2016-03-26T06:58:48Z</time>
      </trkpt>
      <trkpt lat="43.99958" lon="7.32939">
        <ele>721.3</ele>
        <time>2016-03-26T06:58:52Z</time>
      </trkpt>
      <trkpt lat="43.99958" lon="7.32939">
        <ele>721.3</ele>
        <time>2016-03-26T06:58:56Z</time>
      </trkpt>
      <trkpt lat="43.99958" lon="7.32939">
        <ele>721.3</ele>
        <time>2016-03-26T06:59:00Z</time>
      </trkpt>
      <trkpt lat="43.99958" lon="7.32939">
        <ele>721.3</ele>
        <time>2016-03-26T06:59:04Z</time>
      </trkpt>
      <trkpt lat="43.99958" lon="7.32939">
        <ele>721.3</ele>
        <time>2016-03-26T06:59:08Z</time>
      </trkpt>
      <trkpt lat="43.99958" lon="7.32939">
        <ele>721.3</ele>
        <time>2016-03-26T06:59:12Z</time>
      </trkpt>
      <trkpt lat="43.99958" lon="7.32939">
        <ele>721.3</ele>
        <time>2016-03-26T06:59:16Z</time>
      </trkpt>
      <trkpt lat="43.99958" lon="7.32939">
        <ele>721.3</ele>
        <time>2016-03-26T06:59:20Z</time>
      </trkpt>
      <trkpt lat="43.99958" lon="7.32939">
        <ele>721.3</ele>
        <time>2016-03-26T06:59:24Z</time>
      </trkpt>
      <trkpt lat="43.99958" lon="7.32939">
        <ele>721.3</ele>
        <time>2016-03-26T06:59:29Z</time>
      </trkpt>
      <trkpt lat="43.99958" lon="7.32939">
        <ele>721.3</ele>
        <time>2016-03-26T06:59:33Z</time>
      </trkpt>
      <trkpt lat="43.99958" lon="7.32939">
        <ele>721.3</ele>
        <time>2016-03-26T06:59:36Z</time>
      </trkpt>
      <trkpt lat="43.99958" lon="7.32939">
        <ele>721.3</ele>
        <time>2016-03-26T06:59:40Z</time>
      </trkpt>
      <trkpt lat="43.99958" lon="7.32939">
        <ele>721.3</ele>
        <time>2016-03-26T06:59:44Z</time>
      </trkpt>
      <trkpt lat="43.99958" lon="7.32939">
        <ele>721.3</ele>
        <time>2016-03-26T06:59:49Z</time>
      </trkpt>
      <trkpt lat="43.99959" lon="7.3294">
        <ele>721.1</ele>
        <time>2016-03-26T06:59:52Z</time>
      </trkpt>
      <trkpt lat="43.99954" lon="7.3294">
        <ele>719.7</ele>
        <time>2016-03-26T06:59:57Z</time>
      </trkpt>
      <trkpt lat="43.99948" lon="7.32939">
        <ele>718.5</ele>
        <time>2016-03-26T07:00:00Z</time>
      </trkpt>
      <trkpt lat="43.99947" lon="7.32933">
        <ele>719.5</ele>
        <time>2016-03-26T07:00:04Z</time>
      </trkpt>
      <trkpt lat="43.99942" lon="7.32931">
        <ele>718.8</ele>
        <time>2016-03-26T07:00:09Z</time>
      </trkpt>
      <trkpt lat="43.99936" lon="7.32925">
        <ele>718.4</ele>
        <time>2016-03-26T07:00:12Z</time>
      </trkpt>
      <trkpt lat="43.99932" lon="7.32918">
        <ele>719.2</ele>
        <time>2016-03-26T07:00:16Z</time>
      </trkpt>
      <trkpt lat="43.9993" lon="7.3291">
        <ele>720.2</ele>
        <time>2016-03-26T07:00:20Z</time>
      </trkpt>
      <trkpt lat="43.99928" lon="7.32903">
        <ele>721.4</ele>
        <time>2016-03-26T07:00:24Z</time>
      </trkpt>
      <trkpt lat="43.9993" lon="7.32898">
        <ele>723.2</ele>
        <time>2016-03-26T07:00:28Z</time>
      </trkpt>
      <trkpt lat="43.99936" lon="7.32899">
        <ele>724.1</ele>
        <time>2016-03-26T07:00:33Z</time>
      </trkpt>
      <trkpt lat="43.99941" lon="7.32901">
        <ele>725.1</ele>
        <time>2016-03-26T07:00:36Z</time>
      </trkpt>
      <trkpt lat="43.99948" lon="7.32899">
        <ele>727.3</ele>
        <time>2016-03-26T07:00:40Z</time>
      </trkpt>
      <trkpt lat="43.99955" lon="7.32894">
        <ele>730</ele>
        <time>2016-03-26T07:00:44Z</time>
      </trkpt>
      <trkpt lat="43.99958" lon="7.32887">
        <ele>732.3</ele>
        <time>2016-03-26T07:00:49Z</time>
      </trkpt>
      <trkpt lat="43.99961" lon="7.32881">
        <ele>734</ele>
        <time>2016-03-26T07:00:52Z</time>
      </trkpt>
      <trkpt lat="43.99963" lon="7.32872">
        <ele>735.7</ele>
        <time>2016-03-26T07:00:56Z</time>
      </trkpt>
      <trkpt lat="43.99965" lon="7.32865">
        <ele>736.8</ele>
        <time>2016-03-26T07:01:00Z</time>
      </trkpt>
      <trkpt lat="43.99966" lon="7.32857">
        <ele>737.8</ele>
        <time>2016-03-26T07:01:04Z</time>
      </trkpt>
      <trkpt lat="43.99965" lon="7.32848">
        <ele>738.6</ele>
        <time>2016-03-26T07:01:08Z</time>
      </trkpt>
      <trkpt lat="43.99963" lon="7.32841">
        <ele>739.2</ele>
        <time>2016-03-26T07:01:12Z</time>
      </trkpt>
      <trkpt lat="43.99963" lon="7.32835">
        <ele>739.8</ele>
        <time>2016-03-26T07:01:16Z</time>
      </trkpt>
      <trkpt lat="43.99964" lon="7.3283">
        <ele>740.6</ele>
        <time>2016-03-26T07:01:20Z</time>
      </trkpt>
      <trkpt lat="43.99968" lon="7.32824">
        <ele>741.7</ele>
        <time>2016-03-26T07:01:25Z</time>
      </trkpt>
      <trkpt lat="43.99971" lon="7.32818">
        <ele>742.7</ele>
        <time>2016-03-26T07:01:28Z</time>
      </trkpt>
      <trkpt lat="43.99973" lon="7.32811">
        <ele>743.7</ele>
        <time>2016-03-26T07:01:32Z</time>
      </trkpt>
      <trkpt lat="43.99972" lon="7.32803">
        <ele>744.6</ele>
        <time>2016-03-26T07:01:36Z</time>
      </trkpt>
      <trkpt lat="43.99971" lon="7.32796">
        <ele>745.2</ele>
        <time>2016-03-26T07:01:40Z</time>
      </trkpt>
      <trkpt lat="43.99969" lon="7.3279">
        <ele>745.6</ele>
        <time>2016-03-26T07:01:44Z</time>
      </trkpt>
      <trkpt lat="43.99968" lon="7.32782">
        <ele>745.5</ele>
        <time>2016-03-26T07:01:48Z</time>
      </trkpt>
      <trkpt lat="43.99967" lon="7.32775">
        <ele>745.5</ele>
        <time>2016-03-26T07:01:52Z</time>
      </trkpt>
      <trkpt lat="43.99966" lon="7.32769">
        <ele>745.4</ele>
        <time>2016-03-26T07:01:56Z</time>
      </trkpt>
      <trkpt lat="43.99965" lon="7.32761">
        <ele>745.4</ele>
        <time>2016-03-26T07:02:00Z</time>
      </trkpt>
      <trkpt lat="43.99965" lon="7.32754">
        <ele>745.5</ele>
        <time>2016-03-26T07:02:04Z</time>
      </trkpt>
      <trkpt lat="43.99965" lon="7.32746">
        <ele>745.6</ele>
        <time>2016-03-26T07:02:08Z</time>
      </trkpt>
      <trkpt lat="43.99964" lon="7.32738">
        <ele>745.7</ele>
        <time>2016-03-26T07:02:12Z</time>
      </trkpt>
      <trkpt lat="43.99964" lon="7.32732">
        <ele>745.7</ele>
        <time>2016-03-26T07:02:16Z</time>
      </trkpt>
      <trkpt lat="43.99964" lon="7.32725">
        <ele>745.7</ele>
        <time>2016-03-26T07:02:20Z</time>
      </trkpt>
      <trkpt lat="43.99963" lon="7.32718">
        <ele>745.6</ele>
        <time>2016-03-26T07:02:24Z</time>
      </trkpt>
      <trkpt lat="43.99962" lon="7.3271">
        <ele>745.6</ele>
        <time>2016-03-26T07:02:28Z</time>
      </trkpt>
      <trkpt lat="43.99962" lon="7.32703">
        <ele>745</ele>
        <time>2016-03-26T07:02:32Z</time>
      </trkpt>
      <trkpt lat="43.99962" lon="7.32696">
        <ele>744.2</ele>
        <time>2016-03-26T07:02:36Z</time>
      </trkpt>
      <trkpt lat="43.99963" lon="7.3269">
        <ele>743.6</ele>
        <time>2016-03-26T07:02:40Z</time>
      </trkpt>
      <trkpt lat="43.99963" lon="7.32683">
        <ele>742.9</ele>
        <time>2016-03-26T07:02:44Z</time>
      </trkpt>
      <trkpt lat="43.99964" lon="7.32677">
        <ele>742.2</ele>
        <time>2016-03-26T07:02:48Z</time>
      </trkpt>
      <trkpt lat="43.99965" lon="7.32669">
        <ele>741.5</ele>
        <time>2016-03-26T07:02:52Z</time>
      </trkpt>
      <trkpt lat="43.99969" lon="7.32663">
        <ele>741.4</ele>
        <time>2016-03-26T07:02:56Z</time>
      </trkpt>
      <trkpt lat="43.99973" lon="7.32661">
        <ele>741.9</ele>
        <time>2016-03-26T07:03:00Z</time>
      </trkpt>
      <trkpt lat="43.9998" lon="7.32661">
        <ele>743.3</ele>
        <time>2016-03-26T07:03:04Z</time>
      </trkpt>
      <trkpt lat="43.99988" lon="7.32665">
        <ele>745.1</ele>
        <time>2016-03-26T07:03:08Z</time>
      </trkpt>
      <trkpt lat="43.99996" lon="7.32668">
        <ele>746.9</ele>
        <time>2016-03-26T07:03:12Z</time>
      </trkpt>
      <trkpt lat="44.00003" lon="7.32672">
        <ele>748.7</ele>
        <time>2016-03-26T07:03:16Z</time>
      </trkpt>
      <trkpt lat="44.00009" lon="7.32676">
        <ele>750.3</ele>
        <time>2016-03-26T07:03:20Z</time>
      </trkpt>
      <trkpt lat="44.00011" lon="7.32675">
        <ele>750.5</ele>
        <time>2016-03-26T07:03:24Z</time>
      </trkpt>
      <trkpt lat="44.00014" lon="7.32673">
        <ele>750.8</ele>
        <time>2016-03-26T07:03:28Z</time>
      </trkpt>
      <trkpt lat="44.00017" lon="7.32676">
        <ele>751.7</ele>
        <time>2016-03-26T07:03:32Z</time>
      </trkpt>
      <trkpt lat="44.00022" lon="7.32677">
        <ele>752.6</ele>
        <time>2016-03-26T07:03:36Z</time>
      </trkpt>
      <trkpt lat="44.00027" lon="7.32677">
        <ele>753.5</ele>
        <time>2016-03-26T07:03:40Z</time>
      </trkpt>
      <trkpt lat="44.0003" lon="7.32675">
        <ele>753.9</ele>
        <time>2016-03-26T07:03:44Z</time>
      </trkpt>
      <trkpt lat="44.00034" lon="7.3267">
        <ele>754</ele>
        <time>2016-03-26T07:03:48Z</time>
      </trkpt>
      <trkpt lat="44.00037" lon="7.32665">
        <ele>754</ele>
        <time>2016-03-26T07:03:52Z</time>
      </trkpt>
      <trkpt lat="44.0004" lon="7.32661">
        <ele>753.9</ele>
        <time>2016-03-26T07:03:56Z</time>
      </trkpt>
      <trkpt lat="44.00042" lon="7.32658">
        <ele>754.1</ele>
        <time>2016-03-26T07:04:00Z</time>
      </trkpt>
      <trkpt lat="44.00045" lon="7.32656">
        <ele>754.9</ele>
        <time>2016-03-26T07:04:04Z</time>
      </trkpt>
      <trkpt lat="44.00049" lon="7.32655">
        <ele>756.1</ele>
        <time>2016-03-26T07:04:08Z</time>
      </trkpt>
      <trkpt lat="44.00053" lon="7.32654">
        <ele>757.2</ele>
        <time>2016-03-26T07:04:13Z</time>
      </trkpt>
      <trkpt lat="44.00057" lon="7.32654">
        <ele>758.5</ele>
        <time>2016-03-26T07:04:16Z</time>
      </trkpt>
      <trkpt lat="44.00061" lon="7.32654">
        <ele>759.8</ele>
        <time>2016-03-26T07:04:20Z</time>
      </trkpt>
      <trkpt lat="44.00064" lon="7.32654">
        <ele>760.9</ele>
        <time>2016-03-26T07:04:24Z</time>
      </trkpt>
      <trkpt lat="44.00068" lon="7.32654">
        <ele>762</ele>
        <time>2016-03-26T07:04:28Z</time>
      </trkpt>
      <trkpt lat="44.00071" lon="7.32654">
        <ele>763.2</ele>
        <time>2016-03-26T07:04:33Z</time>
      </trkpt>
      <trkpt lat="44.00075" lon="7.32655">
        <ele>764.4</ele>
        <time>2016-03-26T07:04:36Z</time>
      </trkpt>
      <trkpt lat="44.00079" lon="7.32655">
        <ele>765.8</ele>
        <time>2016-03-26T07:04:40Z</time>
      </trkpt>
      <trkpt lat="44.00084" lon="7.32655">
        <ele>767.3</ele>
        <time>2016-03-26T07:04:44Z</time>
      </trkpt>
      <trkpt lat="44.00087" lon="7.32655">
        <ele>768.4</ele>
        <time>2016-03-26T07:04:48Z</time>
      </trkpt>
      <trkpt lat="44.0009" lon="7.32656">
        <ele>769.4</ele>
        <time>2016-03-26T07:04:52Z</time>
      </trkpt>
      <trkpt lat="44.00094" lon="7.32656">
        <ele>771</ele>
        <time>2016-03-26T07:04:56Z</time>
      </trkpt>
      <trkpt lat="44.001" lon="7.32657">
        <ele>772.8</ele>
        <time>2016-03-26T07:05:00Z</time>
      </trkpt>
      <trkpt lat="44.00104" lon="7.32658">
        <ele>774.4</ele>
        <time>2016-03-26T07:05:04Z</time>
      </trkpt>
      <trkpt lat="44.00108" lon="7.32661">
        <ele>775.8</ele>
        <time>2016-03-26T07:05:08Z</time>
      </trkpt>
      <trkpt lat="44.0011" lon="7.32664">
        <ele>776.9</ele>
        <time>2016-03-26T07:05:12Z</time>
      </trkpt>
      <trkpt lat="44.00113" lon="7.32666">
        <ele>778</ele>
        <time>2016-03-26T07:05:16Z</time>
      </trkpt>
      <trkpt lat="44.00116" lon="7.32667">
        <ele>779</ele>
        <time>2016-03-26T07:05:20Z</time>
      </trkpt>
      <trkpt lat="44.0012" lon="7.32666">
        <ele>780.2</ele>
        <time>2016-03-26T07:05:24Z</time>
      </trkpt>
      <trkpt lat="44.00124" lon="7.32667">
        <ele>781.8</ele>
        <time>2016-03-26T07:05:28Z</time>
      </trkpt>
      <trkpt lat="44.00128" lon="7.32667">
        <ele>782.9</ele>
        <time>2016-03-26T07:05:32Z</time>
      </trkpt>
      <trkpt lat="44.00133" lon="7.3267">
        <ele>784.4</ele>
        <time>2016-03-26T07:05:36Z</time>
      </trkpt>
      <trkpt lat="44.00137" lon="7.32673">
        <ele>785.7</ele>
        <time>2016-03-26T07:05:40Z</time>
      </trkpt>
      <trkpt lat="44.00141" lon="7.32675">
        <ele>787</ele>
        <time>2016-03-26T07:05:44Z</time>
      </trkpt>
      <trkpt lat="44.00145" lon="7.32677">
        <ele>788.1</ele>
        <time>2016-03-26T07:05:48Z</time>
      </trkpt>
      <trkpt lat="44.00149" lon="7.32677">
        <ele>789.2</ele>
        <time>2016-03-26T07:05:52Z</time>
      </trkpt>
      <trkpt lat="44.00155" lon="7.32675">
        <ele>790.6</ele>
        <time>2016-03-26T07:05:56Z</time>
      </trkpt>
      <trkpt lat="44.00159" lon="7.32673">
        <ele>791.4</ele>
        <time>2016-03-26T07:06:00Z</time>
      </trkpt>
      <trkpt lat="44.00161" lon="7.3267">
        <ele>791.7</ele>
        <time>2016-03-26T07:06:04Z</time>
      </trkpt>
      <trkpt lat="44.00164" lon="7.32667">
        <ele>792.2</ele>
        <time>2016-03-26T07:06:08Z</time>
      </trkpt>
      <trkpt lat="44.00167" lon="7.32664">
        <ele>792.5</ele>
        <time>2016-03-26T07:06:12Z</time>
      </trkpt>
      <trkpt lat="44.0017" lon="7.3266">
        <ele>792.9</ele>
        <time>2016-03-26T07:06:16Z</time>
      </trkpt>
      <trkpt lat="44.00173" lon="7.32658">
        <ele>793.7</ele>
        <time>2016-03-26T07:06:20Z</time>
      </trkpt>
      <trkpt lat="44.00176" lon="7.3266">
        <ele>794.6</ele>
        <time>2016-03-26T07:06:24Z</time>
      </trkpt>
      <trkpt lat="44.0018" lon="7.3266">
        <ele>795.6</ele>
        <time>2016-03-26T07:06:28Z</time>
      </trkpt>
      <trkpt lat="44.00184" lon="7.32659">
        <ele>796.5</ele>
        <time>2016-03-26T07:06:32Z</time>
      </trkpt>
      <trkpt lat="44.00187" lon="7.32662">
        <ele>797.7</ele>
        <time>2016-03-26T07:06:36Z</time>
      </trkpt>
      <trkpt lat="44.00189" lon="7.32667">
        <ele>798.6</ele>
        <time>2016-03-26T07:06:41Z</time>
      </trkpt>
      <trkpt lat="44.00191" lon="7.32672">
        <ele>799.4</ele>
        <time>2016-03-26T07:06:44Z</time>
      </trkpt>
      <trkpt lat="44.00192" lon="7.32679">
        <ele>800.3</ele>
        <time>2016-03-26T07:06:48Z</time>
      </trkpt>
      <trkpt lat="44.00192" lon="7.32686">
        <ele>801</ele>
        <time>2016-03-26T07:06:52Z</time>
      </trkpt>
      <trkpt lat="44.00193" lon="7.32692">
        <ele>801.7</ele>
        <time>2016-03-26T07:06:56Z</time>
      </trkpt>
      <trkpt lat="44.00194" lon="7.32699">
        <ele>802.5</ele>
        <time>2016-03-26T07:07:00Z</time>
      </trkpt>
      <trkpt lat="44.00194" lon="7.32706">
        <ele>803.2</ele>
        <time>2016-03-26T07:07:04Z</time>
      </trkpt>
      <trkpt lat="44.00194" lon="7.32712">
        <ele>803.5</ele>
        <time>2016-03-26T07:07:08Z</time>
      </trkpt>
      <trkpt lat="44.00193" lon="7.32719">
        <ele>803.4</ele>
        <time>2016-03-26T07:07:12Z</time>
      </trkpt>
      <trkpt lat="44.00194" lon="7.32725">
        <ele>803.6</ele>
        <time>2016-03-26T07:07:16Z</time>
      </trkpt>
      <trkpt lat="44.00195" lon="7.32732">
        <ele>804</ele>
        <time>2016-03-26T07:07:20Z</time>
      </trkpt>
      <trkpt lat="44.00197" lon="7.32737">
        <ele>804.5</ele>
        <time>2016-03-26T07:07:24Z</time>
      </trkpt>
      <trkpt lat="44.00197" lon="7.32744">
        <ele>804.8</ele>
        <time>2016-03-26T07:07:28Z</time>
      </trkpt>
      <trkpt lat="44.00198" lon="7.32751">
        <ele>805.1</ele>
        <time>2016-03-26T07:07:32Z</time>
      </trkpt>
      <trkpt lat="44.00198" lon="7.32759">
        <ele>805.1</ele>
        <time>2016-03-26T07:07:36Z</time>
      </trkpt>
      <trkpt lat="44.00199" lon="7.32767">
        <ele>805.6</ele>
        <time>2016-03-26T07:07:40Z</time>
      </trkpt>
      <trkpt lat="44.00201" lon="7.32774">
        <ele>806.4</ele>
        <time>2016-03-26T07:07:45Z</time>
      </trkpt>
      <trkpt lat="44.00203" lon="7.32781">
        <ele>807.1</ele>
        <time>2016-03-26T07:07:48Z</time>
      </trkpt>
      <trkpt lat="44.00205" lon="7.32786">
        <ele>807.9</ele>
        <time>2016-03-26T07:07:53Z</time>
      </trkpt>
      <trkpt lat="44.00209" lon="7.32792">
        <ele>809.3</ele>
        <time>2016-03-26T07:07:56Z</time>
      </trkpt>
      <trkpt lat="44.00213" lon="7.328">
        <ele>809.3</ele>
        <time>2016-03-26T07:08:00Z</time>
      </trkpt>
      <trkpt lat="44.00218" lon="7.32808">
        <ele>810.1</ele>
        <time>2016-03-26T07:08:04Z</time>
      </trkpt>
      <trkpt lat="44.00224" lon="7.32813">
        <ele>811.4</ele>
        <time>2016-03-26T07:08:09Z</time>
      </trkpt>
      <trkpt lat="44.00227" lon="7.32818">
        <ele>812.1</ele>
        <time>2016-03-26T07:08:12Z</time>
      </trkpt>
      <trkpt lat="44.00232" lon="7.32823">
        <ele>813</ele>
        <time>2016-03-26T07:08:17Z</time>
      </trkpt>
      <trkpt lat="44.00237" lon="7.32828">
        <ele>814.3</ele>
        <time>2016-03-26T07:08:20Z</time>
      </trkpt>
      <trkpt lat="44.00241" lon="7.32834">
        <ele>814.9</ele>
        <time>2016-03-26T07:08:24Z</time>
      </trkpt>
      <trkpt lat="44.00244" lon="7.32842">
        <ele>815.2</ele>
        <time>2016-03-26T07:08:28Z</time>
      </trkpt>
      <trkpt lat="44.00246" lon="7.3285">
        <ele>815.2</ele>
        <time>2016-03-26T07:08:32Z</time>
      </trkpt>
      <trkpt lat="44.0025" lon="7.32857">
        <ele>815.9</ele>
        <time>2016-03-26T07:08:36Z</time>
      </trkpt>
      <trkpt lat="44.00254" lon="7.32865">
        <ele>816.6</ele>
        <time>2016-03-26T07:08:40Z</time>
      </trkpt>
      <trkpt lat="44.00258" lon="7.32875">
        <ele>817</ele>
        <time>2016-03-26T07:08:44Z</time>
      </trkpt>
      <trkpt lat="44.00262" lon="7.32886">
        <ele>817</ele>
        <time>2016-03-26T07:08:49Z</time>
      </trkpt>
      <trkpt lat="44.00266" lon="7.32896">
        <ele>817.2</ele>
        <time>2016-03-26T07:08:52Z</time>
      </trkpt>
      <trkpt lat="44.0027" lon="7.32906">
        <ele>817.4</ele>
        <time>2016-03-26T07:08:56Z</time>
      </trkpt>
      <trkpt lat="44.00274" lon="7.32916">
        <ele>817.5</ele>
        <time>2016-03-26T07:09:00Z</time>
      </trkpt>
      <trkpt lat="44.00278" lon="7.32927">
        <ele>817.8</ele>
        <time>2016-03-26T07:09:04Z</time>
      </trkpt>
      <trkpt lat="44.00281" lon="7.32938">
        <ele>817.4</ele>
        <time>2016-03-26T07:09:08Z</time>
      </trkpt>
      <trkpt lat="44.00284" lon="7.32949">
        <ele>817.1</ele>
        <time>2016-03-26T07:09:12Z</time>
      </trkpt>
      <trkpt lat="44.00286" lon="7.3296">
        <ele>816.2</ele>
        <time>2016-03-26T07:09:16Z</time>
      </trkpt>
      <trkpt lat="44.00288" lon="7.32971">
        <ele>816</ele>
        <time>2016-03-26T07:09:20Z</time>
      </trkpt>
      <trkpt lat="44.00291" lon="7.32983">
        <ele>816.1</ele>
        <time>2016-03-26T07:09:24Z</time>
      </trkpt>
      <trkpt lat="44.00292" lon="7.32994">
        <ele>815.7</ele>
        <time>2016-03-26T07:09:28Z</time>
      </trkpt>
      <trkpt lat="44.00294" lon="7.33006">
        <ele>815.5</ele>
        <time>2016-03-26T07:09:32Z</time>
      </trkpt>
      <trkpt lat="44.00295" lon="7.33017">
        <ele>814.9</ele>
        <time>2016-03-26T07:09:36Z</time>
      </trkpt>
      <trkpt lat="44.00295" lon="7.33029">
        <ele>813.7</ele>
        <time>2016-03-26T07:09:40Z</time>
      </trkpt>
      <trkpt lat="44.00296" lon="7.33041">
        <ele>813</ele>
        <time>2016-03-26T07:09:44Z</time>
      </trkpt>
      <trkpt lat="44.00298" lon="7.33054">
        <ele>813.5</ele>
        <time>2016-03-26T07:09:48Z</time>
      </trkpt>
      <trkpt lat="44.00299" lon="7.33064">
        <ele>814.2</ele>
        <time>2016-03-26T07:09:53Z</time>
      </trkpt>
      <trkpt lat="44.00305" lon="7.33064">
        <ele>816.7</ele>
        <time>2016-03-26T07:09:56Z</time>
      </trkpt>
      <trkpt lat="44.00307" lon="7.33057">
        <ele>817.7</ele>
        <time>2016-03-26T07:10:00Z</time>
      </trkpt>
      <trkpt lat="44.00307" lon="7.33047">
        <ele>817.7</ele>
        <time>2016-03-26T07:10:04Z</time>
      </trkpt>
      <trkpt lat="44.00306" lon="7.33036">
        <ele>817.9</ele>
        <time>2016-03-26T07:10:08Z</time>
      </trkpt>
      <trkpt lat="44.00304" lon="7.33024">
        <ele>818</ele>
        <time>2016-03-26T07:10:13Z</time>
      </trkpt>
      <trkpt lat="44.00303" lon="7.33011">
        <ele>818.6</ele>
        <time>2016-03-26T07:10:16Z</time>
      </trkpt>
      <trkpt lat="44.00303" lon="7.32999">
        <ele>819.7</ele>
        <time>2016-03-26T07:10:20Z</time>
      </trkpt>
      <trkpt lat="44.00303" lon="7.32987">
        <ele>821.1</ele>
        <time>2016-03-26T07:10:24Z</time>
      </trkpt>
      <trkpt lat="44.00304" lon="7.32976">
        <ele>822.3</ele>
        <time>2016-03-26T07:10:29Z</time>
      </trkpt>
      <trkpt lat="44.00303" lon="7.32963">
        <ele>823.2</ele>
        <time>2016-03-26T07:10:32Z</time>
      </trkpt>
      <trkpt lat="44.00303" lon="7.32951">
        <ele>824.4</ele>
        <time>2016-03-26T07:10:36Z</time>
      </trkpt>
      <trkpt lat="44.00303" lon="7.32951">
        <ele>824.4</ele>
        <time>2016-03-26T07:10:40Z</time>
      </trkpt>
      <trkpt lat="44.00303" lon="7.32939">
        <ele>826.3</ele>
        <time>2016-03-26T07:10:44Z</time>
      </trkpt>
      <trkpt lat="44.00307" lon="7.3293">
        <ele>829</ele>
        <time>2016-03-26T07:10:45Z</time>
      </trkpt>
      <trkpt lat="44.00314" lon="7.32926">
        <ele>832</ele>
        <time>2016-03-26T07:10:48Z</time>
      </trkpt>
      <trkpt lat="44.00321" lon="7.32925">
        <ele>834.8</ele>
        <time>2016-03-26T07:10:52Z</time>
      </trkpt>
      <trkpt lat="44.0032" lon="7.32919">
        <ele>835.4</ele>
        <time>2016-03-26T07:10:56Z</time>
      </trkpt>
      <trkpt lat="44.00317" lon="7.32909">
        <ele>835.4</ele>
        <time>2016-03-26T07:11:00Z</time>
      </trkpt>
      <trkpt lat="44.00315" lon="7.32897">
        <ele>836.4</ele>
        <time>2016-03-26T07:11:04Z</time>
      </trkpt>
      <trkpt lat="44.00313" lon="7.32886">
        <ele>837.2</ele>
        <time>2016-03-26T07:11:08Z</time>
      </trkpt>
      <trkpt lat="44.00311" lon="7.32876">
        <ele>837.8</ele>
        <time>2016-03-26T07:11:12Z</time>
      </trkpt>
      <trkpt lat="44.00307" lon="7.32866">
        <ele>837.1</ele>
        <time>2016-03-26T07:11:16Z</time>
      </trkpt>
      <trkpt lat="44.00303" lon="7.32858">
        <ele>836.1</ele>
        <time>2016-03-26T07:11:20Z</time>
      </trkpt>
      <trkpt lat="44.00299" lon="7.32849">
        <ele>835.4</ele>
        <time>2016-03-26T07:11:24Z</time>
      </trkpt>
      <trkpt lat="44.00295" lon="7.32839">
        <ele>834.8</ele>
        <time>2016-03-26T07:11:28Z</time>
      </trkpt>
      <trkpt lat="44.00294" lon="7.32827">
        <ele>835.1</ele>
        <time>2016-03-26T07:11:32Z</time>
      </trkpt>
      <trkpt lat="44.00293" lon="7.32817">
        <ele>835.7</ele>
        <time>2016-03-26T07:11:36Z</time>
      </trkpt>
      <trkpt lat="44.00293" lon="7.32807">
        <ele>836.4</ele>
        <time>2016-03-26T07:11:40Z</time>
      </trkpt>
      <trkpt lat="44.00294" lon="7.32795">
        <ele>837.4</ele>
        <time>2016-03-26T07:11:44Z</time>
      </trkpt>
      <trkpt lat="44.00294" lon="7.32783">
        <ele>837.2</ele>
        <time>2016-03-26T07:11:48Z</time>
      </trkpt>
      <trkpt lat="44.00295" lon="7.3277">
        <ele>836.5</ele>
        <time>2016-03-26T07:11:52Z</time>
      </trkpt>
      <trkpt lat="44.00298" lon="7.32763">
        <ele>837</ele>
        <time>2016-03-26T07:11:56Z</time>
      </trkpt>
      <trkpt lat="44.00303" lon="7.32761">
        <ele>838.1</ele>
        <time>2016-03-26T07:12:00Z</time>
      </trkpt>
      <trkpt lat="44.00309" lon="7.32758">
        <ele>839.3</ele>
        <time>2016-03-26T07:12:04Z</time>
      </trkpt>
      <trkpt lat="44.00315" lon="7.32755">
        <ele>840.7</ele>
        <time>2016-03-26T07:12:08Z</time>
      </trkpt>
      <trkpt lat="44.00321" lon="7.32757">
        <ele>842.4</ele>
        <time>2016-03-26T07:12:12Z</time>
      </trkpt>
      <trkpt lat="44.00323" lon="7.32765">
        <ele>843.7</ele>
        <time>2016-03-26T07:12:17Z</time>
      </trkpt>
      <trkpt lat="44.00322" lon="7.32772">
        <ele>844.2</ele>
        <time>2016-03-26T07:12:20Z</time>
      </trkpt>
      <trkpt lat="44.00323" lon="7.32777">
        <ele>844.9</ele>
        <time>2016-03-26T07:12:24Z</time>
      </trkpt>
      <trkpt lat="44.00326" lon="7.3278">
        <ele>846</ele>
        <time>2016-03-26T07:12:28Z</time>
      </trkpt>
      <trkpt lat="44.00329" lon="7.3278">
        <ele>846.9</ele>
        <time>2016-03-26T07:12:32Z</time>
      </trkpt>
      <trkpt lat="44.0033" lon="7.3278">
        <ele>847.2</ele>
        <time>2016-03-26T07:12:36Z</time>
      </trkpt>
      <trkpt lat="44.0033" lon="7.3278">
        <ele>847.2</ele>
        <time>2016-03-26T07:12:40Z</time>
      </trkpt>
      <trkpt lat="44.0033" lon="7.3278">
        <ele>847.2</ele>
        <time>2016-03-26T07:12:44Z</time>
      </trkpt>
      <trkpt lat="44.0033" lon="7.3278">
        <ele>847.2</ele>
        <time>2016-03-26T07:12:48Z</time>
      </trkpt>
      <trkpt lat="44.0033" lon="7.3278">
        <ele>847.2</ele>
        <time>2016-03-26T07:12:52Z</time>
      </trkpt>
      <trkpt lat="44.0033" lon="7.3278">
        <ele>847.2</ele>
        <time>2016-03-26T07:12:56Z</time>
      </trkpt>
      <trkpt lat="44.0033" lon="7.3278">
        <ele>847.2</ele>
        <time>2016-03-26T07:13:00Z</time>
      </trkpt>
      <trkpt lat="44.0033" lon="7.3278">
        <ele>847.2</ele>
        <time>2016-03-26T07:13:04Z</time>
      </trkpt>
      <trkpt lat="44.00335" lon="7.32786">
        <ele>849.4</ele>
        <time>2016-03-26T07:13:08Z</time>
      </trkpt>
      <trkpt lat="44.0034" lon="7.32791">
        <ele>851.5</ele>
        <time>2016-03-26T07:13:12Z</time>
      </trkpt>
      <trkpt lat="44.00344" lon="7.32797">
        <ele>852.4</ele>
        <time>2016-03-26T07:13:16Z</time>
      </trkpt>
      <trkpt lat="44.00347" lon="7.32803">
        <ele>853.1</ele>
        <time>2016-03-26T07:13:20Z</time>
      </trkpt>
      <trkpt lat="44.0035" lon="7.3281">
        <ele>853.8</ele>
        <time>2016-03-26T07:13:24Z</time>
      </trkpt>
      <trkpt lat="44.00352" lon="7.32817">
        <ele>854.4</ele>
        <time>2016-03-26T07:13:29Z</time>
      </trkpt>
      <trkpt lat="44.00355" lon="7.32824">
        <ele>855.1</ele>
        <time>2016-03-26T07:13:32Z</time>
      </trkpt>
      <trkpt lat="44.00359" lon="7.32827">
        <ele>856.2</ele>
        <time>2016-03-26T07:13:36Z</time>
      </trkpt>
      <trkpt lat="44.00362" lon="7.32832">
        <ele>857.4</ele>
        <time>2016-03-26T07:13:40Z</time>
      </trkpt>
      <trkpt lat="44.00367" lon="7.3284">
        <ele>858.9</ele>
        <time>2016-03-26T07:13:44Z</time>
      </trkpt>
      <trkpt lat="44.00374" lon="7.32841">
        <ele>860.9</ele>
        <time>2016-03-26T07:13:48Z</time>
      </trkpt>
      <trkpt lat="44.00378" lon="7.32843">
        <ele>861.2</ele>
        <time>2016-03-26T07:13:52Z</time>
      </trkpt>
      <trkpt lat="44.00382" lon="7.32848">
        <ele>860.8</ele>
        <time>2016-03-26T07:13:56Z</time>
      </trkpt>
      <trkpt lat="44.00389" lon="7.32854">
        <ele>860.2</ele>
        <time>2016-03-26T07:14:00Z</time>
      </trkpt>
      <trkpt lat="44.00394" lon="7.32865">
        <ele>859.9</ele>
        <time>2016-03-26T07:14:04Z</time>
      </trkpt>
      <trkpt lat="44.00396" lon="7.32875">
        <ele>859.8</ele>
        <time>2016-03-26T07:14:08Z</time>
      </trkpt>
      <trkpt lat="44.00397" lon="7.32883">
        <ele>859.1</ele>
        <time>2016-03-26T07:14:12Z</time>
      </trkpt>
      <trkpt lat="44.00398" lon="7.32893">
        <ele>858.3</ele>
        <time>2016-03-26T07:14:16Z</time>
      </trkpt>
      <trkpt lat="44.00399" lon="7.32906">
        <ele>857.4</ele>
        <time>2016-03-26T07:14:20Z</time>
      </trkpt>
      <trkpt lat="44.00402" lon="7.32919">
        <ele>856.5</ele>
        <time>2016-03-26T07:14:24Z</time>
      </trkpt>
      <trkpt lat="44.004" lon="7.32937">
        <ele>855.3</ele>
        <time>2016-03-26T07:14:28Z</time>
      </trkpt>
      <trkpt lat="44.00398" lon="7.32955">
        <ele>853.9</ele>
        <time>2016-03-26T07:14:32Z</time>
      </trkpt>
      <trkpt lat="44.00401" lon="7.32968">
        <ele>853.6</ele>
        <time>2016-03-26T07:14:36Z</time>
      </trkpt>
      <trkpt lat="44.00407" lon="7.32976">
        <ele>853.9</ele>
        <time>2016-03-26T07:14:41Z</time>
      </trkpt>
      <trkpt lat="44.00414" lon="7.32983">
        <ele>854.3</ele>
        <time>2016-03-26T07:14:44Z</time>
      </trkpt>
      <trkpt lat="44.00421" lon="7.32989">
        <ele>854.9</ele>
        <time>2016-03-26T07:14:49Z</time>
      </trkpt>
      <trkpt lat="44.00429" lon="7.32996">
        <ele>855.5</ele>
        <time>2016-03-26T07:14:52Z</time>
      </trkpt>
      <trkpt lat="44.00436" lon="7.33">
        <ele>856.2</ele>
        <time>2016-03-26T07:14:56Z</time>
      </trkpt>
      <trkpt lat="44.00444" lon="7.33005">
        <ele>857.1</ele>
        <time>2016-03-26T07:15:01Z</time>
      </trkpt>
      <trkpt lat="44.00452" lon="7.33009">
        <ele>857.9</ele>
        <time>2016-03-26T07:15:04Z</time>
      </trkpt>
      <trkpt lat="44.00458" lon="7.33013">
        <ele>858.7</ele>
        <time>2016-03-26T07:15:08Z</time>
      </trkpt>
      <trkpt lat="44.00458" lon="7.33013">
        <ele>858.7</ele>
        <time>2016-03-26T07:15:13Z</time>
      </trkpt>
      <trkpt lat="44.00467" lon="7.33016">
        <ele>857.6</ele>
        <time>2016-03-26T07:15:16Z</time>
      </trkpt>
      <trkpt lat="44.0047" lon="7.33016">
        <ele>857.3</ele>
        <time>2016-03-26T07:15:17Z</time>
      </trkpt>
      <trkpt lat="44.00478" lon="7.33016">
        <ele>856.2</ele>
        <time>2016-03-26T07:15:20Z</time>
      </trkpt>
      <trkpt lat="44.00485" lon="7.33014">
        <ele>855.2</ele>
        <time>2016-03-26T07:15:24Z</time>
      </trkpt>
      <trkpt lat="44.00492" lon="7.33013">
        <ele>854.4</ele>
        <time>2016-03-26T07:15:28Z</time>
      </trkpt>
      <trkpt lat="44.00499" lon="7.33011">
        <ele>853.2</ele>
        <time>2016-03-26T07:15:32Z</time>
      </trkpt>
      <trkpt lat="44.00506" lon="7.33008">
        <ele>852.1</ele>
        <time>2016-03-26T07:15:36Z</time>
      </trkpt>
      <trkpt lat="44.00511" lon="7.33003">
        <ele>850.9</ele>
        <time>2016-03-26T07:15:40Z</time>
      </trkpt>
      <trkpt lat="44.00516" lon="7.32998">
        <ele>849.6</ele>
        <time>2016-03-26T07:15:44Z</time>
      </trkpt>
      <trkpt lat="44.0052" lon="7.32991">
        <ele>848.2</ele>
        <time>2016-03-26T07:15:48Z</time>
      </trkpt>
      <trkpt lat="44.00522" lon="7.32983">
        <ele>846.9</ele>
        <time>2016-03-26T07:15:52Z</time>
      </trkpt>
      <trkpt lat="44.00524" lon="7.32974">
        <ele>845.6</ele>
        <time>2016-03-26T07:15:56Z</time>
      </trkpt>
      <trkpt lat="44.00528" lon="7.32971">
        <ele>844.5</ele>
        <time>2016-03-26T07:16:00Z</time>
      </trkpt>
      <trkpt lat="44.00532" lon="7.32972">
        <ele>843.8</ele>
        <time>2016-03-26T07:16:04Z</time>
      </trkpt>
      <trkpt lat="44.00537" lon="7.32973">
        <ele>843</ele>
        <time>2016-03-26T07:16:09Z</time>
      </trkpt>
      <trkpt lat="44.0054" lon="7.32974">
        <ele>842.6</ele>
        <time>2016-03-26T07:16:12Z</time>
      </trkpt>
      <trkpt lat="44.00544" lon="7.32976">
        <ele>841.9</ele>
        <time>2016-03-26T07:16:16Z</time>
      </trkpt>
      <trkpt lat="44.00548" lon="7.32977">
        <ele>840.5</ele>
        <time>2016-03-26T07:16:20Z</time>
      </trkpt>
      <trkpt lat="44.00554" lon="7.32978">
        <ele>838.7</ele>
        <time>2016-03-26T07:16:24Z</time>
      </trkpt>
      <trkpt lat="44.0056" lon="7.32981">
        <ele>837.1</ele>
        <time>2016-03-26T07:16:28Z</time>
      </trkpt>
      <trkpt lat="44.00567" lon="7.32984">
        <ele>835.3</ele>
        <time>2016-03-26T07:16:32Z</time>
      </trkpt>
      <trkpt lat="44.00577" lon="7.32988">
        <ele>832.9</ele>
        <time>2016-03-26T07:16:36Z</time>
      </trkpt>
      <trkpt lat="44.00585" lon="7.32989">
        <ele>830.5</ele>
        <time>2016-03-26T07:16:40Z</time>
      </trkpt>
      <trkpt lat="44.00591" lon="7.3299">
        <ele>828.5</ele>
        <time>2016-03-26T07:16:44Z</time>
      </trkpt>
      <trkpt lat="44.00599" lon="7.32992">
        <ele>826.5</ele>
        <time>2016-03-26T07:16:48Z</time>
      </trkpt>
      <trkpt lat="44.00607" lon="7.32996">
        <ele>824.6</ele>
        <time>2016-03-26T07:16:52Z</time>
      </trkpt>
      <trkpt lat="44.00614" lon="7.33001">
        <ele>823.3</ele>
        <time>2016-03-26T07:16:56Z</time>
      </trkpt>
      <trkpt lat="44.00622" lon="7.33005">
        <ele>821.6</ele>
        <time>2016-03-26T07:17:01Z</time>
      </trkpt>
      <trkpt lat="44.0063" lon="7.33008">
        <ele>818.5</ele>
        <time>2016-03-26T07:17:04Z</time>
      </trkpt>
      <trkpt lat="44.00636" lon="7.33012">
        <ele>815.4</ele>
        <time>2016-03-26T07:17:08Z</time>
      </trkpt>
      <trkpt lat="44.00641" lon="7.33015">
        <ele>812.7</ele>
        <time>2016-03-26T07:17:12Z</time>
      </trkpt>
      <trkpt lat="44.00647" lon="7.33021">
        <ele>810.5</ele>
        <time>2016-03-26T07:17:16Z</time>
      </trkpt>
      <trkpt lat="44.00654" lon="7.33027">
        <ele>807.9</ele>
        <time>2016-03-26T07:17:20Z</time>
      </trkpt>
      <trkpt lat="44.00662" lon="7.33034">
        <ele>804.6</ele>
        <time>2016-03-26T07:17:24Z</time>
      </trkpt>
      <trkpt lat="44.00669" lon="7.3304">
        <ele>801.6</ele>
        <time>2016-03-26T07:17:28Z</time>
      </trkpt>
      <trkpt lat="44.00678" lon="7.33044">
        <ele>797.7</ele>
        <time>2016-03-26T07:17:32Z</time>
      </trkpt>
      <trkpt lat="44.00684" lon="7.33047">
        <ele>794.7</ele>
        <time>2016-03-26T07:17:36Z</time>
      </trkpt>
      <trkpt lat="44.00692" lon="7.33051">
        <ele>792</ele>
        <time>2016-03-26T07:17:40Z</time>
      </trkpt>
      <trkpt lat="44.00698" lon="7.33058">
        <ele>790.9</ele>
        <time>2016-03-26T07:17:44Z</time>
      </trkpt>
      <trkpt lat="44.00704" lon="7.33069">
        <ele>790.8</ele>
        <time>2016-03-26T07:17:48Z</time>
      </trkpt>
      <trkpt lat="44.00708" lon="7.3308">
        <ele>792.2</ele>
        <time>2016-03-26T07:17:52Z</time>
      </trkpt>
      <trkpt lat="44.00711" lon="7.33085">
        <ele>793</ele>
        <time>2016-03-26T07:17:56Z</time>
      </trkpt>
      <trkpt lat="44.00715" lon="7.33087">
        <ele>791.8</ele>
        <time>2016-03-26T07:18:00Z</time>
      </trkpt>
      <trkpt lat="44.00719" lon="7.33091">
        <ele>791.3</ele>
        <time>2016-03-26T07:18:04Z</time>
      </trkpt>
      <trkpt lat="44.00723" lon="7.33099">
        <ele>792</ele>
        <time>2016-03-26T07:18:08Z</time>
      </trkpt>
      <trkpt lat="44.00728" lon="7.33113">
        <ele>794.6</ele>
        <time>2016-03-26T07:18:12Z</time>
      </trkpt>
      <trkpt lat="44.0073" lon="7.33126">
        <ele>798.1</ele>
        <time>2016-03-26T07:18:17Z</time>
      </trkpt>
      <trkpt lat="44.00734" lon="7.33134">
        <ele>798.9</ele>
        <time>2016-03-26T07:18:20Z</time>
      </trkpt>
      <trkpt lat="44.00742" lon="7.33136">
        <ele>795.9</ele>
        <time>2016-03-26T07:18:24Z</time>
      </trkpt>
      <trkpt lat="44.00752" lon="7.33138">
        <ele>791.9</ele>
        <time>2016-03-26T07:18:28Z</time>
      </trkpt>
      <trkpt lat="44.00762" lon="7.33138">
        <ele>786.6</ele>
        <time>2016-03-26T07:18:32Z</time>
      </trkpt>
      <trkpt lat="44.0077" lon="7.33134">
        <ele>781.9</ele>
        <time>2016-03-26T07:18:36Z</time>
      </trkpt>
      <trkpt lat="44.00772" lon="7.33125">
        <ele>777.4</ele>
        <time>2016-03-26T07:18:40Z</time>
      </trkpt>
      <trkpt lat="44.00775" lon="7.33116">
        <ele>772.9</ele>
        <time>2016-03-26T07:18:44Z</time>
      </trkpt>
      <trkpt lat="44.00777" lon="7.33107">
        <ele>769</ele>
        <time>2016-03-26T07:18:48Z</time>
      </trkpt>
      <trkpt lat="44.00782" lon="7.33099">
        <ele>764.2</ele>
        <time>2016-03-26T07:18:52Z</time>
      </trkpt>
      <trkpt lat="44.00788" lon="7.33095">
        <ele>760</ele>
        <time>2016-03-26T07:18:57Z</time>
      </trkpt>
      <trkpt lat="44.00793" lon="7.3309">
        <ele>756.6</ele>
        <time>2016-03-26T07:19:00Z</time>
      </trkpt>
      <trkpt lat="44.00799" lon="7.33085">
        <ele>753.3</ele>
        <time>2016-03-26T07:19:04Z</time>
      </trkpt>
      <trkpt lat="44.00807" lon="7.33082">
        <ele>750.4</ele>
        <time>2016-03-26T07:19:08Z</time>
      </trkpt>
      <trkpt lat="44.0082" lon="7.33075">
        <ele>745.3</ele>
        <time>2016-03-26T07:19:13Z</time>
      </trkpt>
      <trkpt lat="44.0082" lon="7.33075">
        <ele>745.3</ele>
        <time>2016-03-26T07:19:16Z</time>
      </trkpt>
      <trkpt lat="44.00825" lon="7.33073">
        <ele>743.3</ele>
        <time>2016-03-26T07:19:20Z</time>
      </trkpt>
      <trkpt lat="44.00833" lon="7.33071">
        <ele>740.8</ele>
        <time>2016-03-26T07:19:24Z</time>
      </trkpt>
      <trkpt lat="44.00842" lon="7.3307">
        <ele>738.6</ele>
        <time>2016-03-26T07:19:28Z</time>
      </trkpt>
      <trkpt lat="44.00842" lon="7.3307">
        <ele>738.6</ele>
        <time>2016-03-26T07:19:32Z</time>
      </trkpt>
      <trkpt lat="44.0086" lon="7.33067">
        <ele>733.1</ele>
        <time>2016-03-26T07:19:36Z</time>
      </trkpt>
      <trkpt lat="44.00869" lon="7.33065">
        <ele>730.3</ele>
        <time>2016-03-26T07:19:40Z</time>
      </trkpt>
      <trkpt lat="44.00878" lon="7.33064">
        <ele>727.9</ele>
        <time>2016-03-26T07:19:44Z</time>
      </trkpt>
      <trkpt lat="44.00887" lon="7.33063">
        <ele>726</ele>
        <time>2016-03-26T07:19:48Z</time>
      </trkpt>
      <trkpt lat="44.00897" lon="7.33063">
        <ele>724.2</ele>
        <time>2016-03-26T07:19:52Z</time>
      </trkpt>
      <trkpt lat="44.00907" lon="7.33061">
        <ele>721.7</ele>
        <time>2016-03-26T07:19:56Z</time>
      </trkpt>
      <trkpt lat="44.00916" lon="7.33061">
        <ele>719.7</ele>
        <time>2016-03-26T07:20:00Z</time>
      </trkpt>
      <trkpt lat="44.00924" lon="7.3306">
        <ele>717.9</ele>
        <time>2016-03-26T07:20:04Z</time>
      </trkpt>
      <trkpt lat="44.00933" lon="7.33059">
        <ele>716.1</ele>
        <time>2016-03-26T07:20:08Z</time>
      </trkpt>
      <trkpt lat="44.00943" lon="7.33058">
        <ele>713.7</ele>
        <time>2016-03-26T07:20:13Z</time>
      </trkpt>
      <trkpt lat="44.00952" lon="7.33057">
        <ele>711.6</ele>
        <time>2016-03-26T07:20:16Z</time>
      </trkpt>
      <trkpt lat="44.00961" lon="7.33055">
        <ele>709.1</ele>
        <time>2016-03-26T07:20:20Z</time>
      </trkpt>
      <trkpt lat="44.00969" lon="7.33054">
        <ele>706.5</ele>
        <time>2016-03-26T07:20:24Z</time>
      </trkpt>
      <trkpt lat="44.00978" lon="7.33054">
        <ele>704.1</ele>
        <time>2016-03-26T07:20:28Z</time>
      </trkpt>
      <trkpt lat="44.00988" lon="7.33056">
        <ele>702.4</ele>
        <time>2016-03-26T07:20:32Z</time>
      </trkpt>
      <trkpt lat="44.00999" lon="7.33057">
        <ele>700.2</ele>
        <time>2016-03-26T07:20:36Z</time>
      </trkpt>
      <trkpt lat="44.01007" lon="7.33059">
        <ele>698.9</ele>
        <time>2016-03-26T07:20:40Z</time>
      </trkpt>
      <trkpt lat="44.01015" lon="7.33058">
        <ele>696.6</ele>
        <time>2016-03-26T07:20:44Z</time>
      </trkpt>
      <trkpt lat="44.01023" lon="7.33056">
        <ele>693.3</ele>
        <time>2016-03-26T07:20:48Z</time>
      </trkpt>
      <trkpt lat="44.01032" lon="7.33057">
        <ele>691.5</ele>
        <time>2016-03-26T07:20:52Z</time>
      </trkpt>
      <trkpt lat="44.0104" lon="7.33062">
        <ele>691.5</ele>
        <time>2016-03-26T07:20:56Z</time>
      </trkpt>
      <trkpt lat="44.01049" lon="7.33065">
        <ele>690.9</ele>
        <time>2016-03-26T07:21:00Z</time>
      </trkpt>
      <trkpt lat="44.01057" lon="7.33065">
        <ele>688.8</ele>
        <time>2016-03-26T07:21:04Z</time>
      </trkpt>
      <trkpt lat="44.01063" lon="7.33068">
        <ele>688.2</ele>
        <time>2016-03-26T07:21:08Z</time>
      </trkpt>
      <trkpt lat="44.01068" lon="7.33072">
        <ele>688.8</ele>
        <time>2016-03-26T07:21:12Z</time>
      </trkpt>
      <trkpt lat="44.01071" lon="7.33075">
        <ele>689.4</ele>
        <time>2016-03-26T07:21:16Z</time>
      </trkpt>
      <trkpt lat="44.01076" lon="7.33076">
        <ele>688.2</ele>
        <time>2016-03-26T07:21:20Z</time>
      </trkpt>
      <trkpt lat="44.01085" lon="7.33078">
        <ele>686.9</ele>
        <time>2016-03-26T07:21:24Z</time>
      </trkpt>
      <trkpt lat="44.01093" lon="7.33083">
        <ele>686.6</ele>
        <time>2016-03-26T07:21:28Z</time>
      </trkpt>
      <trkpt lat="44.01099" lon="7.33091">
        <ele>688.2</ele>
        <time>2016-03-26T07:21:32Z</time>
      </trkpt>
      <trkpt lat="44.01103" lon="7.33102">
        <ele>691.6</ele>
        <time>2016-03-26T07:21:36Z</time>
      </trkpt>
      <trkpt lat="44.01107" lon="7.33114">
        <ele>695.2</ele>
        <time>2016-03-26T07:21:40Z</time>
      </trkpt>
      <trkpt lat="44.01112" lon="7.33125">
        <ele>698.2</ele>
        <time>2016-03-26T07:21:44Z</time>
      </trkpt>
      <trkpt lat="44.01116" lon="7.33135">
        <ele>701.3</ele>
        <time>2016-03-26T07:21:48Z</time>
      </trkpt>
      <trkpt lat="44.01121" lon="7.33147">
        <ele>704.5</ele>
        <time>2016-03-26T07:21:52Z</time>
      </trkpt>
      <trkpt lat="44.01125" lon="7.33159">
        <ele>708.4</ele>
        <time>2016-03-26T07:21:56Z</time>
      </trkpt>
      <trkpt lat="44.01129" lon="7.33171">
        <ele>711.4</ele>
        <time>2016-03-26T07:22:00Z</time>
      </trkpt>
      <trkpt lat="44.01135" lon="7.33182">
        <ele>712.5</ele>
        <time>2016-03-26T07:22:04Z</time>
      </trkpt>
      <trkpt lat="44.01143" lon="7.33192">
        <ele>711.6</ele>
        <time>2016-03-26T07:22:08Z</time>
      </trkpt>
      <trkpt lat="44.01151" lon="7.33203">
        <ele>710.7</ele>
        <time>2016-03-26T07:22:12Z</time>
      </trkpt>
      <trkpt lat="44.01158" lon="7.33213">
        <ele>710.8</ele>
        <time>2016-03-26T07:22:16Z</time>
      </trkpt>
      <trkpt lat="44.01164" lon="7.33223">
        <ele>710.8</ele>
        <time>2016-03-26T07:22:20Z</time>
      </trkpt>
      <trkpt lat="44.01171" lon="7.33233">
        <ele>711.2</ele>
        <time>2016-03-26T07:22:24Z</time>
      </trkpt>
      <trkpt lat="44.01176" lon="7.33246">
        <ele>714.3</ele>
        <time>2016-03-26T07:22:28Z</time>
      </trkpt>
      <trkpt lat="44.01182" lon="7.33258">
        <ele>716.1</ele>
        <time>2016-03-26T07:22:32Z</time>
      </trkpt>
      <trkpt lat="44.01189" lon="7.33267">
        <ele>715.3</ele>
        <time>2016-03-26T07:22:36Z</time>
      </trkpt>
      <trkpt lat="44.01198" lon="7.33273">
        <ele>712.7</ele>
        <time>2016-03-26T07:22:40Z</time>
      </trkpt>
      <trkpt lat="44.01207" lon="7.33276">
        <ele>707.8</ele>
        <time>2016-03-26T07:22:44Z</time>
      </trkpt>
      <trkpt lat="44.01216" lon="7.33281">
        <ele>706.4</ele>
        <time>2016-03-26T07:22:49Z</time>
      </trkpt>
      <trkpt lat="44.01224" lon="7.33285">
        <ele>705.3</ele>
        <time>2016-03-26T07:22:52Z</time>
      </trkpt>
      <trkpt lat="44.01233" lon="7.33289">
        <ele>703.3</ele>
        <time>2016-03-26T07:22:57Z</time>
      </trkpt>
      <trkpt lat="44.01242" lon="7.33294">
        <ele>701</ele>
        <time>2016-03-26T07:23:00Z</time>
      </trkpt>
      <trkpt lat="44.01253" lon="7.33296">
        <ele>697.5</ele>
        <time>2016-03-26T07:23:04Z</time>
      </trkpt>
      <trkpt lat="44.01263" lon="7.33295">
        <ele>692.8</ele>
        <time>2016-03-26T07:23:08Z</time>
      </trkpt>
      <trkpt lat="44.01272" lon="7.33288">
        <ele>687.5</ele>
        <time>2016-03-26T07:23:12Z</time>
      </trkpt>
      <trkpt lat="44.01279" lon="7.33278">
        <ele>683.4</ele>
        <time>2016-03-26T07:23:17Z</time>
      </trkpt>
      <trkpt lat="44.01287" lon="7.33269">
        <ele>680.2</ele>
        <time>2016-03-26T07:23:21Z</time>
      </trkpt>
      <trkpt lat="44.01291" lon="7.33258">
        <ele>678.2</ele>
        <time>2016-03-26T07:23:24Z</time>
      </trkpt>
      <trkpt lat="44.01291" lon="7.33254">
        <ele>677.9</ele>
        <time>2016-03-26T07:23:28Z</time>
      </trkpt>
      <trkpt lat="44.01291" lon="7.33254">
        <ele>677.9</ele>
        <time>2016-03-26T07:23:32Z</time>
      </trkpt>
      <trkpt lat="44.01291" lon="7.33254">
        <ele>677.9</ele>
        <time>2016-03-26T07:23:36Z</time>
      </trkpt>
      <trkpt lat="44.01291" lon="7.33254">
        <ele>677.9</ele>
        <time>2016-03-26T07:23:40Z</time>
      </trkpt>
      <trkpt lat="44.01292" lon="7.33255">
        <ele>677.9</ele>
        <time>2016-03-26T07:23:44Z</time>
      </trkpt>
      <trkpt lat="44.01298" lon="7.33257">
        <ele>678.9</ele>
        <time>2016-03-26T07:23:49Z</time>
      </trkpt>
      <trkpt lat="44.01303" lon="7.3326">
        <ele>679.8</ele>
        <time>2016-03-26T07:23:52Z</time>
      </trkpt>
      <trkpt lat="44.01309" lon="7.33262">
        <ele>680.7</ele>
        <time>2016-03-26T07:23:56Z</time>
      </trkpt>
      <trkpt lat="44.01314" lon="7.33264">
        <ele>681.5</ele>
        <time>2016-03-26T07:24:00Z</time>
      </trkpt>
      <trkpt lat="44.0132" lon="7.33265">
        <ele>682.3</ele>
        <time>2016-03-26T07:24:04Z</time>
      </trkpt>
      <trkpt lat="44.01325" lon="7.33268">
        <ele>683</ele>
        <time>2016-03-26T07:24:08Z</time>
      </trkpt>
      <trkpt lat="44.01331" lon="7.33269">
        <ele>683.8</ele>
        <time>2016-03-26T07:24:12Z</time>
      </trkpt>
      <trkpt lat="44.01336" lon="7.33271">
        <ele>684.4</ele>
        <time>2016-03-26T07:24:17Z</time>
      </trkpt>
      <trkpt lat="44.01341" lon="7.33273">
        <ele>684.9</ele>
        <time>2016-03-26T07:24:20Z</time>
      </trkpt>
      <trkpt lat="44.01347" lon="7.33275">
        <ele>685.5</ele>
        <time>2016-03-26T07:24:24Z</time>
      </trkpt>
      <trkpt lat="44.01353" lon="7.33279">
        <ele>686</ele>
        <time>2016-03-26T07:24:28Z</time>
      </trkpt>
      <trkpt lat="44.01358" lon="7.33282">
        <ele>686.3</ele>
        <time>2016-03-26T07:24:32Z</time>
      </trkpt>
      <trkpt lat="44.01363" lon="7.33285">
        <ele>686.5</ele>
        <time>2016-03-26T07:24:36Z</time>
      </trkpt>
      <trkpt lat="44.01369" lon="7.33286">
        <ele>687</ele>
        <time>2016-03-26T07:24:40Z</time>
      </trkpt>
      <trkpt lat="44.01374" lon="7.33284">
        <ele>687.8</ele>
        <time>2016-03-26T07:24:44Z</time>
      </trkpt>
      <trkpt lat="44.01377" lon="7.33278">
        <ele>688.9</ele>
        <time>2016-03-26T07:24:48Z</time>
      </trkpt>
      <trkpt lat="44.01375" lon="7.33272">
        <ele>689.2</ele>
        <time>2016-03-26T07:24:52Z</time>
      </trkpt>
      <trkpt lat="44.01372" lon="7.33266">
        <ele>689.3</ele>
        <time>2016-03-26T07:24:56Z</time>
      </trkpt>
      <trkpt lat="44.01368" lon="7.33262">
        <ele>689.2</ele>
        <time>2016-03-26T07:25:00Z</time>
      </trkpt>
      <trkpt lat="44.01364" lon="7.33256">
        <ele>689.1</ele>
        <time>2016-03-26T07:25:04Z</time>
      </trkpt>
      <trkpt lat="44.01359" lon="7.33251">
        <ele>688.8</ele>
        <time>2016-03-26T07:25:08Z</time>
      </trkpt>
      <trkpt lat="44.01356" lon="7.33244">
        <ele>688.7</ele>
        <time>2016-03-26T07:25:12Z</time>
      </trkpt>
      <trkpt lat="44.01353" lon="7.33236">
        <ele>688.7</ele>
        <time>2016-03-26T07:25:16Z</time>
      </trkpt>
      <trkpt lat="44.01351" lon="7.33228">
        <ele>688.8</ele>
        <time>2016-03-26T07:25:21Z</time>
      </trkpt>
      <trkpt lat="44.01349" lon="7.33222">
        <ele>688.6</ele>
        <time>2016-03-26T07:25:24Z</time>
      </trkpt>
      <trkpt lat="44.01345" lon="7.33216">
        <ele>688.1</ele>
        <time>2016-03-26T07:25:29Z</time>
      </trkpt>
      <trkpt lat="44.01342" lon="7.33208">
        <ele>687.8</ele>
        <time>2016-03-26T07:25:32Z</time>
      </trkpt>
      <trkpt lat="44.01339" lon="7.33201">
        <ele>687.6</ele>
        <time>2016-03-26T07:25:36Z</time>
      </trkpt>
      <trkpt lat="44.01335" lon="7.33194">
        <ele>687.5</ele>
        <time>2016-03-26T07:25:40Z</time>
      </trkpt>
      <trkpt lat="44.01334" lon="7.33187">
        <ele>687.7</ele>
        <time>2016-03-26T07:25:44Z</time>
      </trkpt>
      <trkpt lat="44.01332" lon="7.33179">
        <ele>688.1</ele>
        <time>2016-03-26T07:25:48Z</time>
      </trkpt>
      <trkpt lat="44.0133" lon="7.33171">
        <ele>688.5</ele>
        <time>2016-03-26T07:25:52Z</time>
      </trkpt>
      <trkpt lat="44.01329" lon="7.33163">
        <ele>689</ele>
        <time>2016-03-26T07:25:56Z</time>
      </trkpt>
      <trkpt lat="44.01329" lon="7.33154">
        <ele>689.7</ele>
        <time>2016-03-26T07:26:00Z</time>
      </trkpt>
      <trkpt lat="44.01329" lon="7.33144">
        <ele>690.5</ele>
        <time>2016-03-26T07:26:04Z</time>
      </trkpt>
      <trkpt lat="44.01328" lon="7.33135">
        <ele>691.3</ele>
        <time>2016-03-26T07:26:08Z</time>
      </trkpt>
      <trkpt lat="44.01327" lon="7.33127">
        <ele>691.8</ele>
        <time>2016-03-26T07:26:12Z</time>
      </trkpt>
      <trkpt lat="44.01326" lon="7.33118">
        <ele>693.4</ele>
        <time>2016-03-26T07:26:16Z</time>
      </trkpt>
      <trkpt lat="44.01324" lon="7.3311">
        <ele>694.7</ele>
        <time>2016-03-26T07:26:20Z</time>
      </trkpt>
      <trkpt lat="44.01322" lon="7.33104">
        <ele>695.5</ele>
        <time>2016-03-26T07:26:24Z</time>
      </trkpt>
      <trkpt lat="44.01318" lon="7.33096">
        <ele>696</ele>
        <time>2016-03-26T07:26:28Z</time>
      </trkpt>
      <trkpt lat="44.01314" lon="7.33089">
        <ele>696.5</ele>
        <time>2016-03-26T07:26:32Z</time>
      </trkpt>
      <trkpt lat="44.01311" lon="7.33081">
        <ele>697.4</ele>
        <time>2016-03-26T07:26:36Z</time>
      </trkpt>
      <trkpt lat="44.01308" lon="7.33074">
        <ele>697.7</ele>
        <time>2016-03-26T07:26:41Z</time>
      </trkpt>
      <trkpt lat="44.01305" lon="7.33067">
        <ele>697.8</ele>
        <time>2016-03-26T07:26:44Z</time>
      </trkpt>
      <trkpt lat="44.013" lon="7.33061">
        <ele>697.3</ele>
        <time>2016-03-26T07:26:48Z</time>
      </trkpt>
      <trkpt lat="44.01295" lon="7.33056">
        <ele>696.2</ele>
        <time>2016-03-26T07:26:52Z</time>
      </trkpt>
      <trkpt lat="44.0129" lon="7.3305">
        <ele>695.6</ele>
        <time>2016-03-26T07:26:56Z</time>
      </trkpt>
      <trkpt lat="44.01286" lon="7.33046">
        <ele>695.2</ele>
        <time>2016-03-26T07:27:00Z</time>
      </trkpt>
      <trkpt lat="44.01281" lon="7.33041">
        <ele>694.5</ele>
        <time>2016-03-26T07:27:04Z</time>
      </trkpt>
      <trkpt lat="44.01277" lon="7.33036">
        <ele>694</ele>
        <time>2016-03-26T07:27:08Z</time>
      </trkpt>
      <trkpt lat="44.01271" lon="7.33033">
        <ele>692.8</ele>
        <time>2016-03-26T07:27:12Z</time>
      </trkpt>
      <trkpt lat="44.01265" lon="7.33029">
        <ele>691.4</ele>
        <time>2016-03-26T07:27:17Z</time>
      </trkpt>
      <trkpt lat="44.01258" lon="7.33026">
        <ele>689.7</ele>
        <time>2016-03-26T07:27:20Z</time>
      </trkpt>
      <trkpt lat="44.01253" lon="7.33019">
        <ele>689.9</ele>
        <time>2016-03-26T07:27:24Z</time>
      </trkpt>
      <trkpt lat="44.01249" lon="7.33011">
        <ele>690.1</ele>
        <time>2016-03-26T07:27:28Z</time>
      </trkpt>
      <trkpt lat="44.01244" lon="7.33005">
        <ele>689.4</ele>
        <time>2016-03-26T07:27:33Z</time>
      </trkpt>
      <trkpt lat="44.01239" lon="7.32999">
        <ele>688.7</ele>
        <time>2016-03-26T07:27:36Z</time>
      </trkpt>
      <trkpt lat="44.01235" lon="7.32992">
        <ele>688.5</ele>
        <time>2016-03-26T07:27:40Z</time>
      </trkpt>
      <trkpt lat="44.01231" lon="7.32984">
        <ele>688.9</ele>
        <time>2016-03-26T07:27:44Z</time>
      </trkpt>
      <trkpt lat="44.01228" lon="7.32977">
        <ele>689.1</ele>
        <time>2016-03-26T07:27:48Z</time>
      </trkpt>
      <trkpt lat="44.01224" lon="7.3297">
        <ele>689.2</ele>
        <time>2016-03-26T07:27:52Z</time>
      </trkpt>
      <trkpt lat="44.01221" lon="7.32962">
        <ele>689.6</ele>
        <time>2016-03-26T07:27:56Z</time>
      </trkpt>
      <trkpt lat="44.01219" lon="7.32954">
        <ele>690.1</ele>
        <time>2016-03-26T07:28:00Z</time>
      </trkpt>
      <trkpt lat="44.01215" lon="7.32948">
        <ele>690.1</ele>
        <time>2016-03-26T07:28:05Z</time>
      </trkpt>
      <trkpt lat="44.01212" lon="7.32941">
        <ele>690.7</ele>
        <time>2016-03-26T07:28:08Z</time>
      </trkpt>
      <trkpt lat="44.01209" lon="7.32934">
        <ele>691.1</ele>
        <time>2016-03-26T07:28:13Z</time>
      </trkpt>
      <trkpt lat="44.01207" lon="7.32927">
        <ele>691.9</ele>
        <time>2016-03-26T07:28:17Z</time>
      </trkpt>
      <trkpt lat="44.01206" lon="7.32917">
        <ele>694.1</ele>
        <time>2016-03-26T07:28:21Z</time>
      </trkpt>
      <trkpt lat="44.01203" lon="7.3291">
        <ele>694.6</ele>
        <time>2016-03-26T07:28:24Z</time>
      </trkpt>
      <trkpt lat="44.012" lon="7.32902">
        <ele>695.1</ele>
        <time>2016-03-26T07:28:28Z</time>
      </trkpt>
      <trkpt lat="44.01198" lon="7.32895">
        <ele>696</ele>
        <time>2016-03-26T07:28:32Z</time>
      </trkpt>
      <trkpt lat="44.01196" lon="7.32886">
        <ele>697.5</ele>
        <time>2016-03-26T07:28:36Z</time>
      </trkpt>
      <trkpt lat="44.01195" lon="7.32878">
        <ele>698.6</ele>
        <time>2016-03-26T07:28:40Z</time>
      </trkpt>
      <trkpt lat="44.01193" lon="7.3287">
        <ele>699.1</ele>
        <time>2016-03-26T07:28:45Z</time>
      </trkpt>
      <trkpt lat="44.01192" lon="7.32863">
        <ele>699.7</ele>
        <time>2016-03-26T07:28:48Z</time>
      </trkpt>
      <trkpt lat="44.01192" lon="7.32854">
        <ele>700.9</ele>
        <time>2016-03-26T07:28:52Z</time>
      </trkpt>
      <trkpt lat="44.01194" lon="7.32845">
        <ele>702.5</ele>
        <time>2016-03-26T07:28:56Z</time>
      </trkpt>
      <trkpt lat="44.01194" lon="7.32838">
        <ele>703.4</ele>
        <time>2016-03-26T07:29:00Z</time>
      </trkpt>
      <trkpt lat="44.01192" lon="7.32831">
        <ele>703.8</ele>
        <time>2016-03-26T07:29:04Z</time>
      </trkpt>
      <trkpt lat="44.0119" lon="7.32824">
        <ele>703.8</ele>
        <time>2016-03-26T07:29:08Z</time>
      </trkpt>
      <trkpt lat="44.01188" lon="7.32817">
        <ele>703.9</ele>
        <time>2016-03-26T07:29:12Z</time>
      </trkpt>
      <trkpt lat="44.01188" lon="7.32813">
        <ele>704.5</ele>
        <time>2016-03-26T07:29:16Z</time>
      </trkpt>
      <trkpt lat="44.01189" lon="7.32808">
        <ele>705.5</ele>
        <time>2016-03-26T07:29:20Z</time>
      </trkpt>
      <trkpt lat="44.01192" lon="7.32804">
        <ele>707.3</ele>
        <time>2016-03-26T07:29:24Z</time>
      </trkpt>
      <trkpt lat="44.01196" lon="7.32802">
        <ele>709</ele>
        <time>2016-03-26T07:29:28Z</time>
      </trkpt>
      <trkpt lat="44.01199" lon="7.32801">
        <ele>710.1</ele>
        <time>2016-03-26T07:29:33Z</time>
      </trkpt>
      <trkpt lat="44.01202" lon="7.32803">
        <ele>711.2</ele>
        <time>2016-03-26T07:29:36Z</time>
      </trkpt>
      <trkpt lat="44.01204" lon="7.32799">
        <ele>712.3</ele>
        <time>2016-03-26T07:29:40Z</time>
      </trkpt>
      <trkpt lat="44.01205" lon="7.32792">
        <ele>713.5</ele>
        <time>2016-03-26T07:29:44Z</time>
      </trkpt>
      <trkpt lat="44.01208" lon="7.32786">
        <ele>714.9</ele>
        <time>2016-03-26T07:29:48Z</time>
      </trkpt>
      <trkpt lat="44.0121" lon="7.32782">
        <ele>715.9</ele>
        <time>2016-03-26T07:29:52Z</time>
      </trkpt>
      <trkpt lat="44.01213" lon="7.32777">
        <ele>717.3</ele>
        <time>2016-03-26T07:29:56Z</time>
      </trkpt>
      <trkpt lat="44.01217" lon="7.32772">
        <ele>719.1</ele>
        <time>2016-03-26T07:30:00Z</time>
      </trkpt>
      <trkpt lat="44.0122" lon="7.32769">
        <ele>720.5</ele>
        <time>2016-03-26T07:30:04Z</time>
      </trkpt>
      <trkpt lat="44.01223" lon="7.32768">
        <ele>722.1</ele>
        <time>2016-03-26T07:30:08Z</time>
      </trkpt>
      <trkpt lat="44.01225" lon="7.32765">
        <ele>722.7</ele>
        <time>2016-03-26T07:30:13Z</time>
      </trkpt>
      <trkpt lat="44.01223" lon="7.3276">
        <ele>722.3</ele>
        <time>2016-03-26T07:30:16Z</time>
      </trkpt>
      <trkpt lat="44.01224" lon="7.32757">
        <ele>722.9</ele>
        <time>2016-03-26T07:30:20Z</time>
      </trkpt>
      <trkpt lat="44.01224" lon="7.32757">
        <ele>722.9</ele>
        <time>2016-03-26T07:30:24Z</time>
      </trkpt>
      <trkpt lat="44.0123" lon="7.32758">
        <ele>725.4</ele>
        <time>2016-03-26T07:30:28Z</time>
      </trkpt>
      <trkpt lat="44.01233" lon="7.32761">
        <ele>726.3</ele>
        <time>2016-03-26T07:30:32Z</time>
      </trkpt>
      <trkpt lat="44.01233" lon="7.32761">
        <ele>726.3</ele>
        <time>2016-03-26T07:30:36Z</time>
      </trkpt>
      <trkpt lat="44.01233" lon="7.32761">
        <ele>726.3</ele>
        <time>2016-03-26T07:30:40Z</time>
      </trkpt>
      <trkpt lat="44.01233" lon="7.32761">
        <ele>726.3</ele>
        <time>2016-03-26T07:30:44Z</time>
      </trkpt>
      <trkpt lat="44.01233" lon="7.32761">
        <ele>726.3</ele>
        <time>2016-03-26T07:30:48Z</time>
      </trkpt>
      <trkpt lat="44.01233" lon="7.32761">
        <ele>726.3</ele>
        <time>2016-03-26T07:30:52Z</time>
      </trkpt>
      <trkpt lat="44.01233" lon="7.32761">
        <ele>726.3</ele>
        <time>2016-03-26T07:30:57Z</time>
      </trkpt>
      <trkpt lat="44.01233" lon="7.32761">
        <ele>726.3</ele>
        <time>2016-03-26T07:31:01Z</time>
      </trkpt>
      <trkpt lat="44.01242" lon="7.3274">
        <ele>731.3</ele>
        <time>2016-03-26T07:31:04Z</time>
      </trkpt>
      <trkpt lat="44.01243" lon="7.32735">
        <ele>732.1</ele>
        <time>2016-03-26T07:31:08Z</time>
      </trkpt>
      <trkpt lat="44.01243" lon="7.32728">
        <ele>732.5</ele>
        <time>2016-03-26T07:31:12Z</time>
      </trkpt>
      <trkpt lat="44.01244" lon="7.32723">
        <ele>733.2</ele>
        <time>2016-03-26T07:31:17Z</time>
      </trkpt>
      <trkpt lat="44.01245" lon="7.32718">
        <ele>734.2</ele>
        <time>2016-03-26T07:31:20Z</time>
      </trkpt>
      <trkpt lat="44.01247" lon="7.32718">
        <ele>735</ele>
        <time>2016-03-26T07:31:24Z</time>
      </trkpt>
      <trkpt lat="44.01248" lon="7.32721">
        <ele>735.5</ele>
        <time>2016-03-26T07:31:28Z</time>
      </trkpt>
      <trkpt lat="44.01248" lon="7.32721">
        <ele>735.5</ele>
        <time>2016-03-26T07:31:33Z</time>
      </trkpt>
      <trkpt lat="44.01249" lon="7.32714">
        <ele>736.2</ele>
        <time>2016-03-26T07:31:36Z</time>
      </trkpt>
      <trkpt lat="44.01251" lon="7.32714">
        <ele>737.1</ele>
        <time>2016-03-26T07:31:40Z</time>
      </trkpt>
      <trkpt lat="44.01254" lon="7.32718">
        <ele>738</ele>
        <time>2016-03-26T07:31:44Z</time>
      </trkpt>
      <trkpt lat="44.01257" lon="7.3272">
        <ele>739.4</ele>
        <time>2016-03-26T07:31:48Z</time>
      </trkpt>
      <trkpt lat="44.0126" lon="7.32719">
        <ele>740.7</ele>
        <time>2016-03-26T07:31:52Z</time>
      </trkpt>
      <trkpt lat="44.01263" lon="7.32717">
        <ele>742.2</ele>
        <time>2016-03-26T07:31:56Z</time>
      </trkpt>
      <trkpt lat="44.01266" lon="7.32713">
        <ele>743.7</ele>
        <time>2016-03-26T07:32:00Z</time>
      </trkpt>
      <trkpt lat="44.01268" lon="7.32709">
        <ele>745.2</ele>
        <time>2016-03-26T07:32:04Z</time>
      </trkpt>
      <trkpt lat="44.01272" lon="7.32705">
        <ele>747</ele>
        <time>2016-03-26T07:32:08Z</time>
      </trkpt>
      <trkpt lat="44.01276" lon="7.32702">
        <ele>749</ele>
        <time>2016-03-26T07:32:12Z</time>
      </trkpt>
      <trkpt lat="44.0128" lon="7.32699">
        <ele>751</ele>
        <time>2016-03-26T07:32:16Z</time>
      </trkpt>
      <trkpt lat="44.01282" lon="7.32701">
        <ele>751.9</ele>
        <time>2016-03-26T07:32:20Z</time>
      </trkpt>
      <trkpt lat="44.01285" lon="7.32703">
        <ele>753</ele>
        <time>2016-03-26T07:32:24Z</time>
      </trkpt>
      <trkpt lat="44.01289" lon="7.32703">
        <ele>755.2</ele>
        <time>2016-03-26T07:32:28Z</time>
      </trkpt>
      <trkpt lat="44.01293" lon="7.32699">
        <ele>757</ele>
        <time>2016-03-26T07:32:32Z</time>
      </trkpt>
      <trkpt lat="44.01295" lon="7.32695">
        <ele>758</ele>
        <time>2016-03-26T07:32:36Z</time>
      </trkpt>
      <trkpt lat="44.01296" lon="7.32693">
        <ele>758.4</ele>
        <time>2016-03-26T07:32:40Z</time>
      </trkpt>
      <trkpt lat="44.01296" lon="7.32693">
        <ele>758.4</ele>
        <time>2016-03-26T07:32:45Z</time>
      </trkpt>
      <trkpt lat="44.01299" lon="7.32688">
        <ele>759.6</ele>
        <time>2016-03-26T07:32:48Z</time>
      </trkpt>
      <trkpt lat="44.01301" lon="7.32685">
        <ele>760.7</ele>
        <time>2016-03-26T07:32:52Z</time>
      </trkpt>
      <trkpt lat="44.01304" lon="7.32681">
        <ele>762</ele>
        <time>2016-03-26T07:32:56Z</time>
      </trkpt>
      <trkpt lat="44.01307" lon="7.32677">
        <ele>763.4</ele>
        <time>2016-03-26T07:33:00Z</time>
      </trkpt>
      <trkpt lat="44.0131" lon="7.32673">
        <ele>764.7</ele>
        <time>2016-03-26T07:33:04Z</time>
      </trkpt>
      <trkpt lat="44.01311" lon="7.32669">
        <ele>765.3</ele>
        <time>2016-03-26T07:33:08Z</time>
      </trkpt>
      <trkpt lat="44.01312" lon="7.32664">
        <ele>765.7</ele>
        <time>2016-03-26T07:33:12Z</time>
      </trkpt>
      <trkpt lat="44.01313" lon="7.32658">
        <ele>766.5</ele>
        <time>2016-03-26T07:33:16Z</time>
      </trkpt>
      <trkpt lat="44.01313" lon="7.32652">
        <ele>766.9</ele>
        <time>2016-03-26T07:33:20Z</time>
      </trkpt>
      <trkpt lat="44.01314" lon="7.32646">
        <ele>767.4</ele>
        <time>2016-03-26T07:33:24Z</time>
      </trkpt>
      <trkpt lat="44.01314" lon="7.32638">
        <ele>768</ele>
        <time>2016-03-26T07:33:28Z</time>
      </trkpt>
      <trkpt lat="44.01315" lon="7.32629">
        <ele>768.7</ele>
        <time>2016-03-26T07:33:33Z</time>
      </trkpt>
      <trkpt lat="44.01315" lon="7.32616">
        <ele>768.5</ele>
        <time>2016-03-26T07:33:36Z</time>
      </trkpt>
      <trkpt lat="44.01316" lon="7.32604">
        <ele>768.1</ele>
        <time>2016-03-26T07:33:41Z</time>
      </trkpt>
      <trkpt lat="44.01317" lon="7.32593">
        <ele>768</ele>
        <time>2016-03-26T07:33:44Z</time>
      </trkpt>
      <trkpt lat="44.01319" lon="7.32582">
        <ele>768.4</ele>
        <time>2016-03-26T07:33:48Z</time>
      </trkpt>
      <trkpt lat="44.01322" lon="7.32572">
        <ele>768.9</ele>
        <time>2016-03-26T07:33:52Z</time>
      </trkpt>
      <trkpt lat="44.01325" lon="7.32561">
        <ele>769.4</ele>
        <time>2016-03-26T07:33:56Z</time>
      </trkpt>
      <trkpt lat="44.01328" lon="7.32552">
        <ele>770.4</ele>
        <time>2016-03-26T07:34:00Z</time>
      </trkpt>
      <trkpt lat="44.01332" lon="7.32542">
        <ele>771.4</ele>
        <time>2016-03-26T07:34:04Z</time>
      </trkpt>
      <trkpt lat="44.01336" lon="7.32533">
        <ele>772.3</ele>
        <time>2016-03-26T07:34:08Z</time>
      </trkpt>
      <trkpt lat="44.01339" lon="7.32525">
        <ele>773.2</ele>
        <time>2016-03-26T07:34:12Z</time>
      </trkpt>
      <trkpt lat="44.01343" lon="7.32516">
        <ele>773.9</ele>
        <time>2016-03-26T07:34:17Z</time>
      </trkpt>
      <trkpt lat="44.01346" lon="7.32506">
        <ele>774.7</ele>
        <time>2016-03-26T07:34:20Z</time>
      </trkpt>
      <trkpt lat="44.01351" lon="7.32497">
        <ele>776</ele>
        <time>2016-03-26T07:34:24Z</time>
      </trkpt>
      <trkpt lat="44.01354" lon="7.32489">
        <ele>776.8</ele>
        <time>2016-03-26T07:34:28Z</time>
      </trkpt>
      <trkpt lat="44.01357" lon="7.32481">
        <ele>777.4</ele>
        <time>2016-03-26T07:34:32Z</time>
      </trkpt>
      <trkpt lat="44.0136" lon="7.32473">
        <ele>778.1</ele>
        <time>2016-03-26T07:34:36Z</time>
      </trkpt>
      <trkpt lat="44.01365" lon="7.32466">
        <ele>779.5</ele>
        <time>2016-03-26T07:34:40Z</time>
      </trkpt>
      <trkpt lat="44.01371" lon="7.32458">
        <ele>781.3</ele>
        <time>2016-03-26T07:34:44Z</time>
      </trkpt>
      <trkpt lat="44.01376" lon="7.32453">
        <ele>783.1</ele>
        <time>2016-03-26T07:34:48Z</time>
      </trkpt>
      <trkpt lat="44.0138" lon="7.32443">
        <ele>784</ele>
        <time>2016-03-26T07:34:52Z</time>
      </trkpt>
      <trkpt lat="44.01383" lon="7.32434">
        <ele>784.2</ele>
        <time>2016-03-26T07:34:56Z</time>
      </trkpt>
      <trkpt lat="44.01385" lon="7.32425">
        <ele>784.4</ele>
        <time>2016-03-26T07:35:00Z</time>
      </trkpt>
      <trkpt lat="44.01388" lon="7.32416">
        <ele>784.8</ele>
        <time>2016-03-26T07:35:04Z</time>
      </trkpt>
      <trkpt lat="44.01392" lon="7.32406">
        <ele>785.8</ele>
        <time>2016-03-26T07:35:08Z</time>
      </trkpt>
      <trkpt lat="44.01396" lon="7.32396">
        <ele>786.8</ele>
        <time>2016-03-26T07:35:12Z</time>
      </trkpt>
      <trkpt lat="44.01398" lon="7.32387">
        <ele>787.1</ele>
        <time>2016-03-26T07:35:16Z</time>
      </trkpt>
      <trkpt lat="44.01399" lon="7.3238">
        <ele>787.2</ele>
        <time>2016-03-26T07:35:20Z</time>
      </trkpt>
      <trkpt lat="44.01401" lon="7.32375">
        <ele>787.6</ele>
        <time>2016-03-26T07:35:24Z</time>
      </trkpt>
      <trkpt lat="44.01404" lon="7.3237">
        <ele>788.4</ele>
        <time>2016-03-26T07:35:28Z</time>
      </trkpt>
      <trkpt lat="44.01405" lon="7.32366">
        <ele>788.7</ele>
        <time>2016-03-26T07:35:32Z</time>
      </trkpt>
      <trkpt lat="44.01406" lon="7.32363">
        <ele>789.2</ele>
        <time>2016-03-26T07:35:36Z</time>
      </trkpt>
      <trkpt lat="44.01408" lon="7.32359">
        <ele>789.5</ele>
        <time>2016-03-26T07:35:41Z</time>
      </trkpt>
      <trkpt lat="44.01409" lon="7.32353">
        <ele>789.8</ele>
        <time>2016-03-26T07:35:45Z</time>
      </trkpt>
      <trkpt lat="44.0141" lon="7.32347">
        <ele>789.9</ele>
        <time>2016-03-26T07:35:48Z</time>
      </trkpt>
      <trkpt lat="44.01411" lon="7.32341">
        <ele>790.2</ele>
        <time>2016-03-26T07:35:52Z</time>
      </trkpt>
      <trkpt lat="44.01413" lon="7.32336">
        <ele>790.6</ele>
        <time>2016-03-26T07:35:56Z</time>
      </trkpt>
      <trkpt lat="44.01415" lon="7.32331">
        <ele>791.2</ele>
        <time>2016-03-26T07:36:00Z</time>
      </trkpt>
      <trkpt lat="44.01415" lon="7.32331">
        <ele>791.2</ele>
        <time>2016-03-26T07:36:04Z</time>
      </trkpt>
      <trkpt lat="44.01415" lon="7.32331">
        <ele>791.2</ele>
        <time>2016-03-26T07:36:08Z</time>
      </trkpt>
      <trkpt lat="44.01417" lon="7.32325">
        <ele>791.8</ele>
        <time>2016-03-26T07:36:12Z</time>
      </trkpt>
      <trkpt lat="44.01419" lon="7.32321">
        <ele>792.6</ele>
        <time>2016-03-26T07:36:16Z</time>
      </trkpt>
      <trkpt lat="44.01421" lon="7.32316">
        <ele>793.5</ele>
        <time>2016-03-26T07:36:20Z</time>
      </trkpt>
      <trkpt lat="44.01425" lon="7.32313">
        <ele>794.7</ele>
        <time>2016-03-26T07:36:24Z</time>
      </trkpt>
      <trkpt lat="44.01428" lon="7.3231">
        <ele>796.1</ele>
        <time>2016-03-26T07:36:28Z</time>
      </trkpt>
      <trkpt lat="44.01436" lon="7.32301">
        <ele>799.4</ele>
        <time>2016-03-26T07:36:32Z</time>
      </trkpt>
      <trkpt lat="44.01439" lon="7.32296">
        <ele>800.4</ele>
        <time>2016-03-26T07:36:36Z</time>
      </trkpt>
      <trkpt lat="44.01441" lon="7.3229">
        <ele>801.3</ele>
        <time>2016-03-26T07:36:40Z</time>
      </trkpt>
      <trkpt lat="44.01444" lon="7.32284">
        <ele>802.3</ele>
        <time>2016-03-26T07:36:44Z</time>
      </trkpt>
      <trkpt lat="44.01445" lon="7.32279">
        <ele>802.9</ele>
        <time>2016-03-26T07:36:48Z</time>
      </trkpt>
      <trkpt lat="44.01447" lon="7.32273">
        <ele>803.5</ele>
        <time>2016-03-26T07:36:52Z</time>
      </trkpt>
      <trkpt lat="44.01449" lon="7.32267">
        <ele>804.4</ele>
        <time>2016-03-26T07:36:56Z</time>
      </trkpt>
      <trkpt lat="44.01452" lon="7.32261">
        <ele>805.2</ele>
        <time>2016-03-26T07:37:00Z</time>
      </trkpt>
      <trkpt lat="44.01454" lon="7.32255">
        <ele>805.9</ele>
        <time>2016-03-26T07:37:04Z</time>
      </trkpt>
      <trkpt lat="44.01457" lon="7.3225">
        <ele>806.8</ele>
        <time>2016-03-26T07:37:08Z</time>
      </trkpt>
      <trkpt lat="44.0146" lon="7.32245">
        <ele>807.8</ele>
        <time>2016-03-26T07:37:12Z</time>
      </trkpt>
      <trkpt lat="44.01464" lon="7.32241">
        <ele>808.9</ele>
        <time>2016-03-26T07:37:16Z</time>
      </trkpt>
      <trkpt lat="44.01468" lon="7.32236">
        <ele>809.9</ele>
        <time>2016-03-26T07:37:20Z</time>
      </trkpt>
      <trkpt lat="44.01471" lon="7.3223">
        <ele>810.8</ele>
        <time>2016-03-26T07:37:24Z</time>
      </trkpt>
      <trkpt lat="44.01474" lon="7.32225">
        <ele>811.7</ele>
        <time>2016-03-26T07:37:28Z</time>
      </trkpt>
      <trkpt lat="44.01477" lon="7.32221">
        <ele>812.3</ele>
        <time>2016-03-26T07:37:32Z</time>
      </trkpt>
      <trkpt lat="44.01479" lon="7.32218">
        <ele>812.8</ele>
        <time>2016-03-26T07:37:36Z</time>
      </trkpt>
      <trkpt lat="44.01483" lon="7.32213">
        <ele>813.9</ele>
        <time>2016-03-26T07:37:40Z</time>
      </trkpt>
      <trkpt lat="44.01487" lon="7.32204">
        <ele>815.1</ele>
        <time>2016-03-26T07:37:44Z</time>
      </trkpt>
      <trkpt lat="44.01491" lon="7.32197">
        <ele>816.2</ele>
        <time>2016-03-26T07:37:48Z</time>
      </trkpt>
      <trkpt lat="44.01493" lon="7.3219">
        <ele>817.1</ele>
        <time>2016-03-26T07:37:52Z</time>
      </trkpt>
      <trkpt lat="44.01496" lon="7.32182">
        <ele>818</ele>
        <time>2016-03-26T07:37:56Z</time>
      </trkpt>
      <trkpt lat="44.01499" lon="7.32175">
        <ele>818.9</ele>
        <time>2016-03-26T07:38:00Z</time>
      </trkpt>
      <trkpt lat="44.01501" lon="7.32168">
        <ele>819.6</ele>
        <time>2016-03-26T07:38:04Z</time>
      </trkpt>
      <trkpt lat="44.01503" lon="7.3216">
        <ele>820.2</ele>
        <time>2016-03-26T07:38:09Z</time>
      </trkpt>
      <trkpt lat="44.01506" lon="7.32154">
        <ele>820.9</ele>
        <time>2016-03-26T07:38:12Z</time>
      </trkpt>
      <trkpt lat="44.0151" lon="7.32148">
        <ele>822</ele>
        <time>2016-03-26T07:38:16Z</time>
      </trkpt>
      <trkpt lat="44.01516" lon="7.32142">
        <ele>823.2</ele>
        <time>2016-03-26T07:38:20Z</time>
      </trkpt>
      <trkpt lat="44.01519" lon="7.32136">
        <ele>823.9</ele>
        <time>2016-03-26T07:38:24Z</time>
      </trkpt>
      <trkpt lat="44.01519" lon="7.32127">
        <ele>823.9</ele>
        <time>2016-03-26T07:38:28Z</time>
      </trkpt>
      <trkpt lat="44.01519" lon="7.32118">
        <ele>823.6</ele>
        <time>2016-03-26T07:38:32Z</time>
      </trkpt>
      <trkpt lat="44.01518" lon="7.32109">
        <ele>823</ele>
        <time>2016-03-26T07:38:36Z</time>
      </trkpt>
      <trkpt lat="44.01516" lon="7.32101">
        <ele>822.3</ele>
        <time>2016-03-26T07:38:40Z</time>
      </trkpt>
      <trkpt lat="44.01514" lon="7.32092">
        <ele>821.5</ele>
        <time>2016-03-26T07:38:44Z</time>
      </trkpt>
      <trkpt lat="44.01514" lon="7.32083">
        <ele>821</ele>
        <time>2016-03-26T07:38:48Z</time>
      </trkpt>
      <trkpt lat="44.01513" lon="7.32076">
        <ele>820.5</ele>
        <time>2016-03-26T07:38:52Z</time>
      </trkpt>
      <trkpt lat="44.01514" lon="7.32073">
        <ele>820.6</ele>
        <time>2016-03-26T07:38:56Z</time>
      </trkpt>
      <trkpt lat="44.01514" lon="7.32073">
        <ele>820.6</ele>
        <time>2016-03-26T07:39:00Z</time>
      </trkpt>
      <trkpt lat="44.01514" lon="7.32073">
        <ele>820.6</ele>
        <time>2016-03-26T07:39:04Z</time>
      </trkpt>
      <trkpt lat="44.01514" lon="7.32073">
        <ele>820.6</ele>
        <time>2016-03-26T07:39:09Z</time>
      </trkpt>
      <trkpt lat="44.01514" lon="7.32073">
        <ele>820.6</ele>
        <time>2016-03-26T07:39:12Z</time>
      </trkpt>
      <trkpt lat="44.01514" lon="7.32073">
        <ele>820.6</ele>
        <time>2016-03-26T07:39:16Z</time>
      </trkpt>
      <trkpt lat="44.01514" lon="7.32073">
        <ele>820.6</ele>
        <time>2016-03-26T07:39:20Z</time>
      </trkpt>
      <trkpt lat="44.01514" lon="7.32073">
        <ele>820.6</ele>
        <time>2016-03-26T07:39:24Z</time>
      </trkpt>
      <trkpt lat="44.01514" lon="7.32073">
        <ele>820.6</ele>
        <time>2016-03-26T07:39:28Z</time>
      </trkpt>
      <trkpt lat="44.01514" lon="7.32073">
        <ele>820.6</ele>
        <time>2016-03-26T07:39:32Z</time>
      </trkpt>
      <trkpt lat="44.01514" lon="7.32073">
        <ele>820.6</ele>
        <time>2016-03-26T07:39:36Z</time>
      </trkpt>
      <trkpt lat="44.0151" lon="7.32055">
        <ele>818.8</ele>
        <time>2016-03-26T07:39:40Z</time>
      </trkpt>
      <trkpt lat="44.0151" lon="7.32048">
        <ele>818.5</ele>
        <time>2016-03-26T07:39:45Z</time>
      </trkpt>
      <trkpt lat="44.0151" lon="7.3204">
        <ele>817.8</ele>
        <time>2016-03-26T07:39:48Z</time>
      </trkpt>
      <trkpt lat="44.01509" lon="7.32026">
        <ele>814.9</ele>
        <time>2016-03-26T07:39:52Z</time>
      </trkpt>
      <trkpt lat="44.01512" lon="7.32013">
        <ele>813.1</ele>
        <time>2016-03-26T07:39:56Z</time>
      </trkpt>
      <trkpt lat="44.01516" lon="7.32005">
        <ele>812.7</ele>
        <time>2016-03-26T07:40:00Z</time>
      </trkpt>
      <trkpt lat="44.0152" lon="7.32">
        <ele>812.7</ele>
        <time>2016-03-26T07:40:04Z</time>
      </trkpt>
      <trkpt lat="44.0152" lon="7.31996">
        <ele>812</ele>
        <time>2016-03-26T07:40:08Z</time>
      </trkpt>
      <trkpt lat="44.0152" lon="7.31996">
        <ele>812</ele>
        <time>2016-03-26T07:40:12Z</time>
      </trkpt>
      <trkpt lat="44.0152" lon="7.31996">
        <ele>812</ele>
        <time>2016-03-26T07:40:16Z</time>
      </trkpt>
      <trkpt lat="44.0152" lon="7.31996">
        <ele>812</ele>
        <time>2016-03-26T07:40:20Z</time>
      </trkpt>
      <trkpt lat="44.0152" lon="7.31996">
        <ele>812</ele>
        <time>2016-03-26T07:40:24Z</time>
      </trkpt>
      <trkpt lat="44.0152" lon="7.31996">
        <ele>812</ele>
        <time>2016-03-26T07:40:28Z</time>
      </trkpt>
      <trkpt lat="44.0152" lon="7.31996">
        <ele>812</ele>
        <time>2016-03-26T07:40:32Z</time>
      </trkpt>
      <trkpt lat="44.0152" lon="7.31996">
        <ele>812</ele>
        <time>2016-03-26T07:40:37Z</time>
      </trkpt>
      <trkpt lat="44.0152" lon="7.31996">
        <ele>812</ele>
        <time>2016-03-26T07:40:40Z</time>
      </trkpt>
      <trkpt lat="44.0152" lon="7.31996">
        <ele>812</ele>
        <time>2016-03-26T07:40:44Z</time>
      </trkpt>
      <trkpt lat="44.0152" lon="7.31996">
        <ele>812</ele>
        <time>2016-03-26T07:40:48Z</time>
      </trkpt>
      <trkpt lat="44.0152" lon="7.31996">
        <ele>812</ele>
        <time>2016-03-26T07:40:52Z</time>
      </trkpt>
      <trkpt lat="44.0152" lon="7.31996">
        <ele>812</ele>
        <time>2016-03-26T07:40:56Z</time>
      </trkpt>
      <trkpt lat="44.0152" lon="7.31996">
        <ele>812</ele>
        <time>2016-03-26T07:41:00Z</time>
      </trkpt>
      <trkpt lat="44.0152" lon="7.31996">
        <ele>812</ele>
        <time>2016-03-26T07:41:04Z</time>
      </trkpt>
      <trkpt lat="44.0152" lon="7.31996">
        <ele>812</ele>
        <time>2016-03-26T07:41:09Z</time>
      </trkpt>
      <trkpt lat="44.0152" lon="7.31996">
        <ele>812</ele>
        <time>2016-03-26T07:41:13Z</time>
      </trkpt>
      <trkpt lat="44.0152" lon="7.31996">
        <ele>812</ele>
        <time>2016-03-26T07:41:16Z</time>
      </trkpt>
      <trkpt lat="44.0152" lon="7.31996">
        <ele>812</ele>
        <time>2016-03-26T07:41:20Z</time>
      </trkpt>
      <trkpt lat="44.0152" lon="7.31996">
        <ele>812</ele>
        <time>2016-03-26T07:41:24Z</time>
      </trkpt>
      <trkpt lat="44.0152" lon="7.31996">
        <ele>812</ele>
        <time>2016-03-26T07:41:28Z</time>
      </trkpt>
      <trkpt lat="44.0152" lon="7.31996">
        <ele>812</ele>
        <time>2016-03-26T07:41:32Z</time>
      </trkpt>
      <trkpt lat="44.0152" lon="7.31996">
        <ele>812</ele>
        <time>2016-03-26T07:41:36Z</time>
      </trkpt>
      <trkpt lat="44.0152" lon="7.31996">
        <ele>812</ele>
        <time>2016-03-26T07:41:40Z</time>
      </trkpt>
      <trkpt lat="44.0152" lon="7.31996">
        <ele>812</ele>
        <time>2016-03-26T07:41:44Z</time>
      </trkpt>
      <trkpt lat="44.0152" lon="7.31996">
        <ele>812</ele>
        <time>2016-03-26T07:41:48Z</time>
      </trkpt>
      <trkpt lat="44.0152" lon="7.31996">
        <ele>812</ele>
        <time>2016-03-26T07:41:53Z</time>
      </trkpt>
      <trkpt lat="44.0152" lon="7.31996">
        <ele>812</ele>
        <time>2016-03-26T07:41:56Z</time>
      </trkpt>
      <trkpt lat="44.0152" lon="7.31996">
        <ele>812</ele>
        <time>2016-03-26T07:42:00Z</time>
      </trkpt>
      <trkpt lat="44.0152" lon="7.31996">
        <ele>812</ele>
        <time>2016-03-26T07:42:04Z</time>
      </trkpt>
      <trkpt lat="44.0152" lon="7.31996">
        <ele>812</ele>
        <time>2016-03-26T07:42:08Z</time>
      </trkpt>
      <trkpt lat="44.0152" lon="7.31996">
        <ele>812</ele>
        <time>2016-03-26T07:42:12Z</time>
      </trkpt>
      <trkpt lat="44.0152" lon="7.31996">
        <ele>812</ele>
        <time>2016-03-26T07:42:16Z</time>
      </trkpt>
      <trkpt lat="44.0152" lon="7.31996">
        <ele>812</ele>
        <time>2016-03-26T07:42:20Z</time>
      </trkpt>
      <trkpt lat="44.0152" lon="7.31996">
        <ele>812</ele>
        <time>2016-03-26T07:42:24Z</time>
      </trkpt>
      <trkpt lat="44.0152" lon="7.31996">
        <ele>812</ele>
        <time>2016-03-26T07:42:28Z</time>
      </trkpt>
      <trkpt lat="44.0152" lon="7.31996">
        <ele>812</ele>
        <time>2016-03-26T07:42:32Z</time>
      </trkpt>
      <trkpt lat="44.0152" lon="7.31996">
        <ele>812</ele>
        <time>2016-03-26T07:42:36Z</time>
      </trkpt>
      <trkpt lat="44.0152" lon="7.31996">
        <ele>812</ele>
        <time>2016-03-26T07:42:40Z</time>
      </trkpt>
      <trkpt lat="44.0152" lon="7.31996">
        <ele>812</ele>
        <time>2016-03-26T07:42:44Z</time>
      </trkpt>
      <trkpt lat="44.0152" lon="7.31996">
        <ele>812</ele>
        <time>2016-03-26T07:42:48Z</time>
      </trkpt>
      <trkpt lat="44.0152" lon="7.31996">
        <ele>812</ele>
        <time>2016-03-26T07:42:52Z</time>
      </trkpt>
      <trkpt lat="44.0152" lon="7.31996">
        <ele>812</ele>
        <time>2016-03-26T07:42:56Z</time>
      </trkpt>
      <trkpt lat="44.0152" lon="7.31996">
        <ele>812</ele>
        <time>2016-03-26T07:43:00Z</time>
      </trkpt>
      <trkpt lat="44.0152" lon="7.31996">
        <ele>812</ele>
        <time>2016-03-26T07:43:04Z</time>
      </trkpt>
      <trkpt lat="44.0152" lon="7.31996">
        <ele>812</ele>
        <time>2016-03-26T07:43:08Z</time>
      </trkpt>
      <trkpt lat="44.0152" lon="7.31996">
        <ele>812</ele>
        <time>2016-03-26T07:43:12Z</time>
      </trkpt>
      <trkpt lat="44.0152" lon="7.31996">
        <ele>812</ele>
        <time>2016-03-26T07:43:16Z</time>
      </trkpt>
      <trkpt lat="44.0152" lon="7.31996">
        <ele>812</ele>
        <time>2016-03-26T07:43:20Z</time>
      </trkpt>
      <trkpt lat="44.0152" lon="7.31996">
        <ele>812</ele>
        <time>2016-03-26T07:43:24Z</time>
      </trkpt>
      <trkpt lat="44.0152" lon="7.31996">
        <ele>812</ele>
        <time>2016-03-26T07:43:28Z</time>
      </trkpt>
      <trkpt lat="44.0152" lon="7.31996">
        <ele>812</ele>
        <time>2016-03-26T07:43:33Z</time>
      </trkpt>
      <trkpt lat="44.0152" lon="7.31996">
        <ele>812</ele>
        <time>2016-03-26T07:43:36Z</time>
      </trkpt>
      <trkpt lat="44.0152" lon="7.31996">
        <ele>812</ele>
        <time>2016-03-26T07:43:40Z</time>
      </trkpt>
      <trkpt lat="44.0152" lon="7.31996">
        <ele>812</ele>
        <time>2016-03-26T07:43:44Z</time>
      </trkpt>
      <trkpt lat="44.0152" lon="7.31996">
        <ele>812</ele>
        <time>2016-03-26T07:43:48Z</time>
      </trkpt>
      <trkpt lat="44.0152" lon="7.31996">
        <ele>812</ele>
        <time>2016-03-26T07:43:52Z</time>
      </trkpt>
      <trkpt lat="44.0152" lon="7.31996">
        <ele>812</ele>
        <time>2016-03-26T07:43:56Z</time>
      </trkpt>
      <trkpt lat="44.0152" lon="7.31996">
        <ele>812</ele>
        <time>2016-03-26T07:44:00Z</time>
      </trkpt>
      <trkpt lat="44.0152" lon="7.31996">
        <ele>812</ele>
        <time>2016-03-26T07:44:04Z</time>
      </trkpt>
      <trkpt lat="44.0152" lon="7.31996">
        <ele>812</ele>
        <time>2016-03-26T07:44:08Z</time>
      </trkpt>
      <trkpt lat="44.0152" lon="7.31996">
        <ele>812</ele>
        <time>2016-03-26T07:44:12Z</time>
      </trkpt>
      <trkpt lat="44.0152" lon="7.31996">
        <ele>812</ele>
        <time>2016-03-26T07:44:16Z</time>
      </trkpt>
      <trkpt lat="44.0152" lon="7.31996">
        <ele>812</ele>
        <time>2016-03-26T07:44:20Z</time>
      </trkpt>
      <trkpt lat="44.0152" lon="7.31996">
        <ele>812</ele>
        <time>2016-03-26T07:44:24Z</time>
      </trkpt>
      <trkpt lat="44.0152" lon="7.31996">
        <ele>812</ele>
        <time>2016-03-26T07:44:28Z</time>
      </trkpt>
      <trkpt lat="44.0152" lon="7.31996">
        <ele>812</ele>
        <time>2016-03-26T07:44:32Z</time>
      </trkpt>
      <trkpt lat="44.0152" lon="7.31996">
        <ele>812</ele>
        <time>2016-03-26T07:44:36Z</time>
      </trkpt>
      <trkpt lat="44.0152" lon="7.31996">
        <ele>812</ele>
        <time>2016-03-26T07:44:40Z</time>
      </trkpt>
      <trkpt lat="44.0152" lon="7.31996">
        <ele>812</ele>
        <time>2016-03-26T07:44:44Z</time>
      </trkpt>
      <trkpt lat="44.0152" lon="7.31996">
        <ele>812</ele>
        <time>2016-03-26T07:44:48Z</time>
      </trkpt>
      <trkpt lat="44.0152" lon="7.31996">
        <ele>812</ele>
        <time>2016-03-26T07:44:52Z</time>
      </trkpt>
      <trkpt lat="44.0152" lon="7.31996">
        <ele>812</ele>
        <time>2016-03-26T07:44:56Z</time>
      </trkpt>
      <trkpt lat="44.0152" lon="7.31996">
        <ele>812</ele>
        <time>2016-03-26T07:45:00Z</time>
      </trkpt>
      <trkpt lat="44.0152" lon="7.31996">
        <ele>812</ele>
        <time>2016-03-26T07:45:04Z</time>
      </trkpt>
      <trkpt lat="44.0152" lon="7.31996">
        <ele>812</ele>
        <time>2016-03-26T07:45:08Z</time>
      </trkpt>
      <trkpt lat="44.0152" lon="7.31996">
        <ele>812</ele>
        <time>2016-03-26T07:45:12Z</time>
      </trkpt>
      <trkpt lat="44.0152" lon="7.31996">
        <ele>812</ele>
        <time>2016-03-26T07:45:16Z</time>
      </trkpt>
      <trkpt lat="44.0152" lon="7.31996">
        <ele>812</ele>
        <time>2016-03-26T07:45:20Z</time>
      </trkpt>
      <trkpt lat="44.0152" lon="7.31996">
        <ele>812</ele>
        <time>2016-03-26T07:45:24Z</time>
      </trkpt>
      <trkpt lat="44.0152" lon="7.31996">
        <ele>812</ele>
        <time>2016-03-26T07:45:28Z</time>
      </trkpt>
      <trkpt lat="44.0152" lon="7.31996">
        <ele>812</ele>
        <time>2016-03-26T07:45:32Z</time>
      </trkpt>
      <trkpt lat="44.0152" lon="7.31996">
        <ele>812</ele>
        <time>2016-03-26T07:45:36Z</time>
      </trkpt>
      <trkpt lat="44.0152" lon="7.31996">
        <ele>812</ele>
        <time>2016-03-26T07:45:40Z</time>
      </trkpt>
      <trkpt lat="44.0152" lon="7.31996">
        <ele>812</ele>
        <time>2016-03-26T07:45:44Z</time>
      </trkpt>
      <trkpt lat="44.0152" lon="7.31996">
        <ele>812</ele>
        <time>2016-03-26T07:45:48Z</time>
      </trkpt>
      <trkpt lat="44.0152" lon="7.31996">
        <ele>812</ele>
        <time>2016-03-26T07:45:52Z</time>
      </trkpt>
      <trkpt lat="44.0152" lon="7.31996">
        <ele>812</ele>
        <time>2016-03-26T07:45:56Z</time>
      </trkpt>
      <trkpt lat="44.0152" lon="7.31996">
        <ele>812</ele>
        <time>2016-03-26T07:46:00Z</time>
      </trkpt>
      <trkpt lat="44.0152" lon="7.31996">
        <ele>812</ele>
        <time>2016-03-26T07:46:04Z</time>
      </trkpt>
      <trkpt lat="44.0152" lon="7.31996">
        <ele>812</ele>
        <time>2016-03-26T07:46:08Z</time>
      </trkpt>
      <trkpt lat="44.0152" lon="7.31996">
        <ele>812</ele>
        <time>2016-03-26T07:46:12Z</time>
      </trkpt>
      <trkpt lat="44.0152" lon="7.31996">
        <ele>812</ele>
        <time>2016-03-26T07:46:16Z</time>
      </trkpt>
      <trkpt lat="44.0152" lon="7.31996">
        <ele>812</ele>
        <time>2016-03-26T07:46:20Z</time>
      </trkpt>
      <trkpt lat="44.0152" lon="7.31996">
        <ele>812</ele>
        <time>2016-03-26T07:46:24Z</time>
      </trkpt>
      <trkpt lat="44.0152" lon="7.31996">
        <ele>812</ele>
        <time>2016-03-26T07:46:28Z</time>
      </trkpt>
      <trkpt lat="44.0152" lon="7.31996">
        <ele>812</ele>
        <time>2016-03-26T07:46:32Z</time>
      </trkpt>
      <trkpt lat="44.0152" lon="7.31996">
        <ele>812</ele>
        <time>2016-03-26T07:46:36Z</time>
      </trkpt>
      <trkpt lat="44.0152" lon="7.31996">
        <ele>812</ele>
        <time>2016-03-26T07:46:40Z</time>
      </trkpt>
      <trkpt lat="44.0152" lon="7.31996">
        <ele>812</ele>
        <time>2016-03-26T07:46:44Z</time>
      </trkpt>
      <trkpt lat="44.01524" lon="7.31984">
        <ele>811</ele>
        <time>2016-03-26T07:46:48Z</time>
      </trkpt>
      <trkpt lat="44.01531" lon="7.3198">
        <ele>812</ele>
        <time>2016-03-26T07:46:52Z</time>
      </trkpt>
      <trkpt lat="44.01537" lon="7.31975">
        <ele>812.8</ele>
        <time>2016-03-26T07:46:56Z</time>
      </trkpt>
      <trkpt lat="44.01541" lon="7.31969">
        <ele>812.8</ele>
        <time>2016-03-26T07:47:00Z</time>
      </trkpt>
      <trkpt lat="44.01544" lon="7.31964">
        <ele>812.3</ele>
        <time>2016-03-26T07:47:04Z</time>
      </trkpt>
      <trkpt lat="44.0155" lon="7.31962">
        <ele>812.2</ele>
        <time>2016-03-26T07:47:08Z</time>
      </trkpt>
      <trkpt lat="44.01561" lon="7.31963">
        <ele>812.8</ele>
        <time>2016-03-26T07:47:12Z</time>
      </trkpt>
      <trkpt lat="44.01571" lon="7.31961">
        <ele>813</ele>
        <time>2016-03-26T07:47:16Z</time>
      </trkpt>
      <trkpt lat="44.01576" lon="7.31954">
        <ele>811.1</ele>
        <time>2016-03-26T07:47:20Z</time>
      </trkpt>
      <trkpt lat="44.01575" lon="7.31951">
        <ele>809.6</ele>
        <time>2016-03-26T07:47:24Z</time>
      </trkpt>
      <trkpt lat="44.0157" lon="7.31951">
        <ele>809.4</ele>
        <time>2016-03-26T07:47:29Z</time>
      </trkpt>
      <trkpt lat="44.0157" lon="7.31951">
        <ele>809.4</ele>
        <time>2016-03-26T07:47:32Z</time>
      </trkpt>
      <trkpt lat="44.0157" lon="7.31951">
        <ele>809.4</ele>
        <time>2016-03-26T07:47:36Z</time>
      </trkpt>
      <trkpt lat="44.01564" lon="7.31941">
        <ele>805.2</ele>
        <time>2016-03-26T07:47:40Z</time>
      </trkpt>
      <trkpt lat="44.01564" lon="7.31932">
        <ele>801.8</ele>
        <time>2016-03-26T07:47:44Z</time>
      </trkpt>
      <trkpt lat="44.01568" lon="7.31927">
        <ele>799.7</ele>
        <time>2016-03-26T07:47:48Z</time>
      </trkpt>
      <trkpt lat="44.0157" lon="7.31926">
        <ele>799.4</ele>
        <time>2016-03-26T07:47:52Z</time>
      </trkpt>
      <trkpt lat="44.0157" lon="7.31926">
        <ele>799.4</ele>
        <time>2016-03-26T07:47:56Z</time>
      </trkpt>
      <trkpt lat="44.01574" lon="7.31923">
        <ele>798.6</ele>
        <time>2016-03-26T07:48:00Z</time>
      </trkpt>
      <trkpt lat="44.01574" lon="7.31923">
        <ele>798.6</ele>
        <time>2016-03-26T07:48:04Z</time>
      </trkpt>
      <trkpt lat="44.01574" lon="7.31923">
        <ele>798.6</ele>
        <time>2016-03-26T07:48:09Z</time>
      </trkpt>
      <trkpt lat="44.01574" lon="7.31923">
        <ele>798.6</ele>
        <time>2016-03-26T07:48:12Z</time>
      </trkpt>
      <trkpt lat="44.01574" lon="7.31923">
        <ele>798.6</ele>
        <time>2016-03-26T07:48:16Z</time>
      </trkpt>
      <trkpt lat="44.01574" lon="7.31923">
        <ele>798.6</ele>
        <time>2016-03-26T07:48:20Z</time>
      </trkpt>
      <trkpt lat="44.01572" lon="7.31924">
        <ele>798.8</ele>
        <time>2016-03-26T07:48:24Z</time>
      </trkpt>
      <trkpt lat="44.01572" lon="7.31924">
        <ele>798.8</ele>
        <time>2016-03-26T07:48:28Z</time>
      </trkpt>
      <trkpt lat="44.01568" lon="7.31917">
        <ele>795.9</ele>
        <time>2016-03-26T07:48:31Z</time>
      </trkpt>
      <trkpt lat="44.01564" lon="7.31915">
        <ele>794.8</ele>
        <time>2016-03-26T07:48:32Z</time>
      </trkpt>
      <trkpt lat="44.01549" lon="7.31905">
        <ele>790.2</ele>
        <time>2016-03-26T07:48:36Z</time>
      </trkpt>
      <trkpt lat="44.01539" lon="7.319">
        <ele>787.4</ele>
        <time>2016-03-26T07:48:40Z</time>
      </trkpt>
      <trkpt lat="44.0153" lon="7.31895">
        <ele>784</ele>
        <time>2016-03-26T07:48:44Z</time>
      </trkpt>
      <trkpt lat="44.01521" lon="7.31891">
        <ele>780.8</ele>
        <time>2016-03-26T07:48:48Z</time>
      </trkpt>
      <trkpt lat="44.01513" lon="7.31887">
        <ele>777.9</ele>
        <time>2016-03-26T07:48:52Z</time>
      </trkpt>
      <trkpt lat="44.01506" lon="7.31883">
        <ele>775.6</ele>
        <time>2016-03-26T07:48:57Z</time>
      </trkpt>
      <trkpt lat="44.01499" lon="7.31879">
        <ele>773.2</ele>
        <time>2016-03-26T07:49:00Z</time>
      </trkpt>
      <trkpt lat="44.01492" lon="7.31874">
        <ele>770.6</ele>
        <time>2016-03-26T07:49:04Z</time>
      </trkpt>
      <trkpt lat="44.01484" lon="7.3187">
        <ele>768.1</ele>
        <time>2016-03-26T07:49:08Z</time>
      </trkpt>
      <trkpt lat="44.01475" lon="7.31865">
        <ele>765.4</ele>
        <time>2016-03-26T07:49:12Z</time>
      </trkpt>
      <trkpt lat="44.0147" lon="7.31858">
        <ele>762.8</ele>
        <time>2016-03-26T07:49:16Z</time>
      </trkpt>
      <trkpt lat="44.01472" lon="7.31855">
        <ele>762.1</ele>
        <time>2016-03-26T07:49:20Z</time>
      </trkpt>
      <trkpt lat="44.01468" lon="7.31852">
        <ele>760.6</ele>
        <time>2016-03-26T07:49:24Z</time>
      </trkpt>
      <trkpt lat="44.01461" lon="7.31846">
        <ele>757.9</ele>
        <time>2016-03-26T07:49:28Z</time>
      </trkpt>
      <trkpt lat="44.01454" lon="7.3184">
        <ele>755</ele>
        <time>2016-03-26T07:49:33Z</time>
      </trkpt>
      <trkpt lat="44.01449" lon="7.31838">
        <ele>753.1</ele>
        <time>2016-03-26T07:49:36Z</time>
      </trkpt>
      <trkpt lat="44.01453" lon="7.31834">
        <ele>753.1</ele>
        <time>2016-03-26T07:49:40Z</time>
      </trkpt>
      <trkpt lat="44.01455" lon="7.31827">
        <ele>751.4</ele>
        <time>2016-03-26T07:49:44Z</time>
      </trkpt>
      <trkpt lat="44.01449" lon="7.31821">
        <ele>748.4</ele>
        <time>2016-03-26T07:49:48Z</time>
      </trkpt>
      <trkpt lat="44.0144" lon="7.31818">
        <ele>745.3</ele>
        <time>2016-03-26T07:49:52Z</time>
      </trkpt>
      <trkpt lat="44.01436" lon="7.31814">
        <ele>743</ele>
        <time>2016-03-26T07:49:56Z</time>
      </trkpt>
      <trkpt lat="44.01434" lon="7.3181">
        <ele>741.5</ele>
        <time>2016-03-26T07:50:00Z</time>
      </trkpt>
      <trkpt lat="44.0143" lon="7.31806">
        <ele>739.4</ele>
        <time>2016-03-26T07:50:05Z</time>
      </trkpt>
      <trkpt lat="44.01427" lon="7.31798">
        <ele>736.5</ele>
        <time>2016-03-26T07:50:08Z</time>
      </trkpt>
      <trkpt lat="44.01428" lon="7.31793">
        <ele>734.9</ele>
        <time>2016-03-26T07:50:12Z</time>
      </trkpt>
      <trkpt lat="44.01424" lon="7.31784">
        <ele>730.8</ele>
        <time>2016-03-26T07:50:16Z</time>
      </trkpt>
      <trkpt lat="44.0142" lon="7.31781">
        <ele>728.8</ele>
        <time>2016-03-26T07:50:21Z</time>
      </trkpt>
      <trkpt lat="44.01415" lon="7.31778">
        <ele>726.4</ele>
        <time>2016-03-26T07:50:24Z</time>
      </trkpt>
      <trkpt lat="44.01409" lon="7.31775">
        <ele>723.5</ele>
        <time>2016-03-26T07:50:28Z</time>
      </trkpt>
      <trkpt lat="44.01406" lon="7.31774">
        <ele>722.3</ele>
        <time>2016-03-26T07:50:32Z</time>
      </trkpt>
      <trkpt lat="44.01402" lon="7.31775">
        <ele>721.7</ele>
        <time>2016-03-26T07:50:36Z</time>
      </trkpt>
      <trkpt lat="44.01396" lon="7.31777">
        <ele>721.3</ele>
        <time>2016-03-26T07:50:40Z</time>
      </trkpt>
      <trkpt lat="44.01393" lon="7.31779">
        <ele>721</ele>
        <time>2016-03-26T07:50:44Z</time>
      </trkpt>
      <trkpt lat="44.01388" lon="7.31781">
        <ele>720.8</ele>
        <time>2016-03-26T07:50:48Z</time>
      </trkpt>
      <trkpt lat="44.01381" lon="7.31784">
        <ele>720.3</ele>
        <time>2016-03-26T07:50:52Z</time>
      </trkpt>
      <trkpt lat="44.01373" lon="7.31787">
        <ele>719.7</ele>
        <time>2016-03-26T07:50:56Z</time>
      </trkpt>
      <trkpt lat="44.01365" lon="7.31791">
        <ele>720.6</ele>
        <time>2016-03-26T07:51:00Z</time>
      </trkpt>
      <trkpt lat="44.01357" lon="7.31796">
        <ele>721.2</ele>
        <time>2016-03-26T07:51:05Z</time>
      </trkpt>
      <trkpt lat="44.01351" lon="7.318">
        <ele>721.7</ele>
        <time>2016-03-26T07:51:08Z</time>
      </trkpt>
      <trkpt lat="44.01344" lon="7.31802">
        <ele>721.4</ele>
        <time>2016-03-26T07:51:13Z</time>
      </trkpt>
      <trkpt lat="44.01338" lon="7.31801">
        <ele>720.3</ele>
        <time>2016-03-26T07:51:16Z</time>
      </trkpt>
      <trkpt lat="44.01335" lon="7.31801">
        <ele>719.8</ele>
        <time>2016-03-26T07:51:20Z</time>
      </trkpt>
      <trkpt lat="44.01331" lon="7.318">
        <ele>719.1</ele>
        <time>2016-03-26T07:51:24Z</time>
      </trkpt>
      <trkpt lat="44.01325" lon="7.31795">
        <ele>716.9</ele>
        <time>2016-03-26T07:51:28Z</time>
      </trkpt>
      <trkpt lat="44.0132" lon="7.31788">
        <ele>713.9</ele>
        <time>2016-03-26T07:51:32Z</time>
      </trkpt>
      <trkpt lat="44.01316" lon="7.31784">
        <ele>711.7</ele>
        <time>2016-03-26T07:51:36Z</time>
      </trkpt>
      <trkpt lat="44.01312" lon="7.31779">
        <ele>709.3</ele>
        <time>2016-03-26T07:51:40Z</time>
      </trkpt>
      <trkpt lat="44.01309" lon="7.31773">
        <ele>705.9</ele>
        <time>2016-03-26T07:51:44Z</time>
      </trkpt>
      <trkpt lat="44.01306" lon="7.31767">
        <ele>703.1</ele>
        <time>2016-03-26T07:51:48Z</time>
      </trkpt>
      <trkpt lat="44.01301" lon="7.31764">
        <ele>701.1</ele>
        <time>2016-03-26T07:51:52Z</time>
      </trkpt>
      <trkpt lat="44.01296" lon="7.31763">
        <ele>699.9</ele>
        <time>2016-03-26T07:51:56Z</time>
      </trkpt>
      <trkpt lat="44.0129" lon="7.3176">
        <ele>698.1</ele>
        <time>2016-03-26T07:52:00Z</time>
      </trkpt>
      <trkpt lat="44.01283" lon="7.31755">
        <ele>695</ele>
        <time>2016-03-26T07:52:04Z</time>
      </trkpt>
      <trkpt lat="44.01275" lon="7.31747">
        <ele>690.8</ele>
        <time>2016-03-26T07:52:08Z</time>
      </trkpt>
      <trkpt lat="44.01268" lon="7.31744">
        <ele>688.3</ele>
        <time>2016-03-26T07:52:12Z</time>
      </trkpt>
      <trkpt lat="44.0126" lon="7.31741">
        <ele>686.3</ele>
        <time>2016-03-26T07:52:16Z</time>
      </trkpt>
      <trkpt lat="44.01252" lon="7.31741">
        <ele>685.4</ele>
        <time>2016-03-26T07:52:20Z</time>
      </trkpt>
      <trkpt lat="44.01245" lon="7.31742">
        <ele>685</ele>
        <time>2016-03-26T07:52:24Z</time>
      </trkpt>
      <trkpt lat="44.0124" lon="7.31744">
        <ele>685.2</ele>
        <time>2016-03-26T07:52:28Z</time>
      </trkpt>
      <trkpt lat="44.01237" lon="7.31742">
        <ele>684.2</ele>
        <time>2016-03-26T07:52:32Z</time>
      </trkpt>
      <trkpt lat="44.01233" lon="7.31741">
        <ele>683.3</ele>
        <time>2016-03-26T07:52:36Z</time>
      </trkpt>
      <trkpt lat="44.01228" lon="7.31745">
        <ele>684.1</ele>
        <time>2016-03-26T07:52:40Z</time>
      </trkpt>
      <trkpt lat="44.01228" lon="7.31745">
        <ele>684.1</ele>
        <time>2016-03-26T07:52:44Z</time>
      </trkpt>
      <trkpt lat="44.01223" lon="7.31749">
        <ele>684.6</ele>
        <time>2016-03-26T07:52:47Z</time>
      </trkpt>
      <trkpt lat="44.01217" lon="7.31752">
        <ele>684.6</ele>
        <time>2016-03-26T07:52:48Z</time>
      </trkpt>
      <trkpt lat="44.01209" lon="7.31748">
        <ele>682.6</ele>
        <time>2016-03-26T07:52:52Z</time>
      </trkpt>
      <trkpt lat="44.012" lon="7.31743">
        <ele>679.7</ele>
        <time>2016-03-26T07:52:56Z</time>
      </trkpt>
      <trkpt lat="44.01191" lon="7.31742">
        <ele>678.2</ele>
        <time>2016-03-26T07:53:00Z</time>
      </trkpt>
      <trkpt lat="44.01183" lon="7.31739">
        <ele>676.3</ele>
        <time>2016-03-26T07:53:04Z</time>
      </trkpt>
      <trkpt lat="44.01174" lon="7.31733">
        <ele>673.9</ele>
        <time>2016-03-26T07:53:09Z</time>
      </trkpt>
      <trkpt lat="44.01166" lon="7.31731">
        <ele>672.4</ele>
        <time>2016-03-26T07:53:12Z</time>
      </trkpt>
      <trkpt lat="44.01159" lon="7.31734">
        <ele>672.1</ele>
        <time>2016-03-26T07:53:16Z</time>
      </trkpt>
      <trkpt lat="44.01152" lon="7.31743">
        <ele>672.6</ele>
        <time>2016-03-26T07:53:20Z</time>
      </trkpt>
      <trkpt lat="44.01149" lon="7.3174">
        <ele>671.8</ele>
        <time>2016-03-26T07:53:24Z</time>
      </trkpt>
      <trkpt lat="44.0115" lon="7.31734">
        <ele>670.8</ele>
        <time>2016-03-26T07:53:28Z</time>
      </trkpt>
      <trkpt lat="44.0115" lon="7.31728">
        <ele>669.9</ele>
        <time>2016-03-26T07:53:32Z</time>
      </trkpt>
      <trkpt lat="44.0115" lon="7.31721">
        <ele>668.9</ele>
        <time>2016-03-26T07:53:36Z</time>
      </trkpt>
      <trkpt lat="44.01151" lon="7.31715">
        <ele>668</ele>
        <time>2016-03-26T07:53:40Z</time>
      </trkpt>
      <trkpt lat="44.01151" lon="7.31709">
        <ele>667</ele>
        <time>2016-03-26T07:53:44Z</time>
      </trkpt>
      <trkpt lat="44.01151" lon="7.31703">
        <ele>666</ele>
        <time>2016-03-26T07:53:48Z</time>
      </trkpt>
      <trkpt lat="44.01152" lon="7.31697">
        <ele>665</ele>
        <time>2016-03-26T07:53:52Z</time>
      </trkpt>
      <trkpt lat="44.01152" lon="7.31691">
        <ele>664</ele>
        <time>2016-03-26T07:53:56Z</time>
      </trkpt>
      <trkpt lat="44.01153" lon="7.31685">
        <ele>662.9</ele>
        <time>2016-03-26T07:54:00Z</time>
      </trkpt>
      <trkpt lat="44.01153" lon="7.31679">
        <ele>661.9</ele>
        <time>2016-03-26T07:54:04Z</time>
      </trkpt>
      <trkpt lat="44.01153" lon="7.31672">
        <ele>660.8</ele>
        <time>2016-03-26T07:54:08Z</time>
      </trkpt>
      <trkpt lat="44.01154" lon="7.31666">
        <ele>659.7</ele>
        <time>2016-03-26T07:54:12Z</time>
      </trkpt>
      <trkpt lat="44.01154" lon="7.3166">
        <ele>658.6</ele>
        <time>2016-03-26T07:54:13Z</time>
      </trkpt>
      <trkpt lat="44.01149" lon="7.31654">
        <ele>657.9</ele>
        <time>2016-03-26T07:54:16Z</time>
      </trkpt>
      <trkpt lat="44.01146" lon="7.31647">
        <ele>657.2</ele>
        <time>2016-03-26T07:54:20Z</time>
      </trkpt>
      <trkpt lat="44.01142" lon="7.31642">
        <ele>656.8</ele>
        <time>2016-03-26T07:54:24Z</time>
      </trkpt>
      <trkpt lat="44.01138" lon="7.31631">
        <ele>655.8</ele>
        <time>2016-03-26T07:54:29Z</time>
      </trkpt>
      <trkpt lat="44.01133" lon="7.31623">
        <ele>655.3</ele>
        <time>2016-03-26T07:54:32Z</time>
      </trkpt>
      <trkpt lat="44.01125" lon="7.31613">
        <ele>654.4</ele>
        <time>2016-03-26T07:54:36Z</time>
      </trkpt>
      <trkpt lat="44.01118" lon="7.31607">
        <ele>652</ele>
        <time>2016-03-26T07:54:40Z</time>
      </trkpt>
      <trkpt lat="44.01113" lon="7.31602">
        <ele>650.1</ele>
        <time>2016-03-26T07:54:44Z</time>
      </trkpt>
      <trkpt lat="44.01107" lon="7.31594">
        <ele>647.7</ele>
        <time>2016-03-26T07:54:48Z</time>
      </trkpt>
      <trkpt lat="44.01099" lon="7.31585">
        <ele>645</ele>
        <time>2016-03-26T07:54:52Z</time>
      </trkpt>
      <trkpt lat="44.01092" lon="7.31577">
        <ele>642.8</ele>
        <time>2016-03-26T07:54:56Z</time>
      </trkpt>
      <trkpt lat="44.01086" lon="7.31568">
        <ele>640.8</ele>
        <time>2016-03-26T07:55:00Z</time>
      </trkpt>
      <trkpt lat="44.01082" lon="7.31558">
        <ele>638.7</ele>
        <time>2016-03-26T07:55:04Z</time>
      </trkpt>
      <trkpt lat="44.01075" lon="7.31545">
        <ele>636.5</ele>
        <time>2016-03-26T07:55:09Z</time>
      </trkpt>
      <trkpt lat="44.01067" lon="7.31537">
        <ele>634.7</ele>
        <time>2016-03-26T07:55:12Z</time>
      </trkpt>
      <trkpt lat="44.01063" lon="7.31532">
        <ele>633.7</ele>
        <time>2016-03-26T07:55:16Z</time>
      </trkpt>
      <trkpt lat="44.01061" lon="7.31523">
        <ele>632.3</ele>
        <time>2016-03-26T07:55:20Z</time>
      </trkpt>
      <trkpt lat="44.01057" lon="7.31511">
        <ele>630.4</ele>
        <time>2016-03-26T07:55:24Z</time>
      </trkpt>
      <trkpt lat="44.0105" lon="7.31499">
        <ele>628.8</ele>
        <time>2016-03-26T07:55:28Z</time>
      </trkpt>
      <trkpt lat="44.01046" lon="7.31486">
        <ele>627.2</ele>
        <time>2016-03-26T07:55:32Z</time>
      </trkpt>
      <trkpt lat="44.01046" lon="7.31486">
        <ele>627.2</ele>
        <time>2016-03-26T07:55:37Z</time>
      </trkpt>
      <trkpt lat="44.01044" lon="7.31478">
        <ele>626.2</ele>
        <time>2016-03-26T07:55:39Z</time>
      </trkpt>
      <trkpt lat="44.01039" lon="7.3147">
        <ele>624.9</ele>
        <time>2016-03-26T07:55:40Z</time>
      </trkpt>
      <trkpt lat="44.01033" lon="7.31465">
        <ele>623.5</ele>
        <time>2016-03-26T07:55:44Z</time>
      </trkpt>
      <trkpt lat="44.01026" lon="7.3146">
        <ele>622</ele>
        <time>2016-03-26T07:55:48Z</time>
      </trkpt>
      <trkpt lat="44.01023" lon="7.31455">
        <ele>620.3</ele>
        <time>2016-03-26T07:55:52Z</time>
      </trkpt>
      <trkpt lat="44.01022" lon="7.31453">
        <ele>619.3</ele>
        <time>2016-03-26T07:55:56Z</time>
      </trkpt>
      <trkpt lat="44.01022" lon="7.31453">
        <ele>619.3</ele>
        <time>2016-03-26T07:56:00Z</time>
      </trkpt>
      <trkpt lat="44.01022" lon="7.31453">
        <ele>619.3</ele>
        <time>2016-03-26T07:56:04Z</time>
      </trkpt>
      <trkpt lat="44.01022" lon="7.31453">
        <ele>619.3</ele>
        <time>2016-03-26T07:56:08Z</time>
      </trkpt>
      <trkpt lat="44.01027" lon="7.31446">
        <ele>617.4</ele>
        <time>2016-03-26T07:56:12Z</time>
      </trkpt>
      <trkpt lat="44.01035" lon="7.31444">
        <ele>617.7</ele>
        <time>2016-03-26T07:56:16Z</time>
      </trkpt>
      <trkpt lat="44.01041" lon="7.31441">
        <ele>617.4</ele>
        <time>2016-03-26T07:56:20Z</time>
      </trkpt>
      <trkpt lat="44.01048" lon="7.31437">
        <ele>615.6</ele>
        <time>2016-03-26T07:56:24Z</time>
      </trkpt>
      <trkpt lat="44.01057" lon="7.31436">
        <ele>614.5</ele>
        <time>2016-03-26T07:56:28Z</time>
      </trkpt>
      <trkpt lat="44.01067" lon="7.31443">
        <ele>616.2</ele>
        <time>2016-03-26T07:56:32Z</time>
      </trkpt>
      <trkpt lat="44.01074" lon="7.31452">
        <ele>619.2</ele>
        <time>2016-03-26T07:56:36Z</time>
      </trkpt>
      <trkpt lat="44.01078" lon="7.31459">
        <ele>621.5</ele>
        <time>2016-03-26T07:56:40Z</time>
      </trkpt>
      <trkpt lat="44.01083" lon="7.31463">
        <ele>622</ele>
        <time>2016-03-26T07:56:44Z</time>
      </trkpt>
      <trkpt lat="44.01092" lon="7.31468">
        <ele>622.4</ele>
        <time>2016-03-26T07:56:48Z</time>
      </trkpt>
      <trkpt lat="44.01103" lon="7.31473">
        <ele>622.7</ele>
        <time>2016-03-26T07:56:52Z</time>
      </trkpt>
      <trkpt lat="44.01114" lon="7.31476">
        <ele>622.9</ele>
        <time>2016-03-26T07:56:56Z</time>
      </trkpt>
      <trkpt lat="44.01125" lon="7.31481">
        <ele>623.8</ele>
        <time>2016-03-26T07:57:00Z</time>
      </trkpt>
      <trkpt lat="44.0113" lon="7.31486">
        <ele>623.4</ele>
        <time>2016-03-26T07:57:04Z</time>
      </trkpt>
      <trkpt lat="44.0113" lon="7.31484">
        <ele>623.1</ele>
        <time>2016-03-26T07:57:08Z</time>
      </trkpt>
      <trkpt lat="44.0113" lon="7.31484">
        <ele>623.1</ele>
        <time>2016-03-26T07:57:12Z</time>
      </trkpt>
      <trkpt lat="44.0113" lon="7.31484">
        <ele>623.1</ele>
        <time>2016-03-26T07:57:16Z</time>
      </trkpt>
      <trkpt lat="44.0113" lon="7.31484">
        <ele>623.1</ele>
        <time>2016-03-26T07:57:20Z</time>
      </trkpt>
      <trkpt lat="44.0113" lon="7.31484">
        <ele>623.1</ele>
        <time>2016-03-26T07:57:24Z</time>
      </trkpt>
      <trkpt lat="44.01145" lon="7.31477">
        <ele>616.9</ele>
        <time>2016-03-26T07:57:28Z</time>
      </trkpt>
      <trkpt lat="44.01158" lon="7.31485">
        <ele>615.1</ele>
        <time>2016-03-26T07:57:32Z</time>
      </trkpt>
      <trkpt lat="44.0117" lon="7.31494">
        <ele>614.2</ele>
        <time>2016-03-26T07:57:36Z</time>
      </trkpt>
      <trkpt lat="44.0118" lon="7.31505">
        <ele>613.8</ele>
        <time>2016-03-26T07:57:40Z</time>
      </trkpt>
      <trkpt lat="44.01189" lon="7.31512">
        <ele>613</ele>
        <time>2016-03-26T07:57:44Z</time>
      </trkpt>
      <trkpt lat="44.01199" lon="7.31517">
        <ele>611.6</ele>
        <time>2016-03-26T07:57:48Z</time>
      </trkpt>
      <trkpt lat="44.0121" lon="7.31519">
        <ele>609.2</ele>
        <time>2016-03-26T07:57:52Z</time>
      </trkpt>
      <trkpt lat="44.01219" lon="7.31518">
        <ele>609.3</ele>
        <time>2016-03-26T07:57:56Z</time>
      </trkpt>
      <trkpt lat="44.01228" lon="7.31517">
        <ele>609.2</ele>
        <time>2016-03-26T07:58:00Z</time>
      </trkpt>
      <trkpt lat="44.01236" lon="7.31513">
        <ele>608.4</ele>
        <time>2016-03-26T07:58:04Z</time>
      </trkpt>
      <trkpt lat="44.01244" lon="7.3151">
        <ele>607.7</ele>
        <time>2016-03-26T07:58:08Z</time>
      </trkpt>
      <trkpt lat="44.01251" lon="7.31507">
        <ele>607.3</ele>
        <time>2016-03-26T07:58:12Z</time>
      </trkpt>
      <trkpt lat="44.01259" lon="7.31503">
        <ele>606.5</ele>
        <time>2016-03-26T07:58:16Z</time>
      </trkpt>
      <trkpt lat="44.01267" lon="7.31498">
        <ele>605.4</ele>
        <time>2016-03-26T07:58:20Z</time>
      </trkpt>
      <trkpt lat="44.01275" lon="7.31493">
        <ele>604.4</ele>
        <time>2016-03-26T07:58:24Z</time>
      </trkpt>
      <trkpt lat="44.01283" lon="7.31489">
        <ele>603.8</ele>
        <time>2016-03-26T07:58:28Z</time>
      </trkpt>
      <trkpt lat="44.01291" lon="7.31486">
        <ele>603.4</ele>
        <time>2016-03-26T07:58:32Z</time>
      </trkpt>
      <trkpt lat="44.01299" lon="7.31484">
        <ele>603.4</ele>
        <time>2016-03-26T07:58:37Z</time>
      </trkpt>
      <trkpt lat="44.01308" lon="7.31482">
        <ele>603.5</ele>
        <time>2016-03-26T07:58:40Z</time>
      </trkpt>
      <trkpt lat="44.01317" lon="7.31483">
        <ele>604.6</ele>
        <time>2016-03-26T07:58:44Z</time>
      </trkpt>
      <trkpt lat="44.01327" lon="7.31486">
        <ele>606.1</ele>
        <time>2016-03-26T07:58:48Z</time>
      </trkpt>
      <trkpt lat="44.01336" lon="7.31487">
        <ele>607.3</ele>
        <time>2016-03-26T07:58:52Z</time>
      </trkpt>
      <trkpt lat="44.01346" lon="7.31485">
        <ele>607.5</ele>
        <time>2016-03-26T07:58:56Z</time>
      </trkpt>
      <trkpt lat="44.01354" lon="7.31482">
        <ele>607.3</ele>
        <time>2016-03-26T07:59:00Z</time>
      </trkpt>
      <trkpt lat="44.01363" lon="7.31481">
        <ele>607.4</ele>
        <time>2016-03-26T07:59:04Z</time>
      </trkpt>
      <trkpt lat="44.0137" lon="7.31476">
        <ele>606.4</ele>
        <time>2016-03-26T07:59:08Z</time>
      </trkpt>
      <trkpt lat="44.01378" lon="7.31472">
        <ele>605.4</ele>
        <time>2016-03-26T07:59:12Z</time>
      </trkpt>
      <trkpt lat="44.01385" lon="7.31467">
        <ele>604.5</ele>
        <time>2016-03-26T07:59:16Z</time>
      </trkpt>
      <trkpt lat="44.01391" lon="7.3146">
        <ele>602.9</ele>
        <time>2016-03-26T07:59:20Z</time>
      </trkpt>
      <trkpt lat="44.01397" lon="7.31455">
        <ele>601.8</ele>
        <time>2016-03-26T07:59:24Z</time>
      </trkpt>
      <trkpt lat="44.01406" lon="7.31451">
        <ele>601.7</ele>
        <time>2016-03-26T07:59:28Z</time>
      </trkpt>
      <trkpt lat="44.01415" lon="7.31449">
        <ele>601.9</ele>
        <time>2016-03-26T07:59:32Z</time>
      </trkpt>
      <trkpt lat="44.01424" lon="7.31448">
        <ele>602.9</ele>
        <time>2016-03-26T07:59:36Z</time>
      </trkpt>
      <trkpt lat="44.01433" lon="7.31448">
        <ele>604.1</ele>
        <time>2016-03-26T07:59:40Z</time>
      </trkpt>
      <trkpt lat="44.01442" lon="7.31446">
        <ele>604.2</ele>
        <time>2016-03-26T07:59:44Z</time>
      </trkpt>
      <trkpt lat="44.01448" lon="7.3144">
        <ele>602.9</ele>
        <time>2016-03-26T07:59:48Z</time>
      </trkpt>
      <trkpt lat="44.01455" lon="7.31433">
        <ele>600.4</ele>
        <time>2016-03-26T07:59:52Z</time>
      </trkpt>
      <trkpt lat="44.01464" lon="7.31427">
        <ele>599.3</ele>
        <time>2016-03-26T07:59:56Z</time>
      </trkpt>
      <trkpt lat="44.01473" lon="7.31424">
        <ele>599.7</ele>
        <time>2016-03-26T08:00:00Z</time>
      </trkpt>
      <trkpt lat="44.01484" lon="7.31424">
        <ele>601.3</ele>
        <time>2016-03-26T08:00:04Z</time>
      </trkpt>
      <trkpt lat="44.01494" lon="7.31423">
        <ele>602.8</ele>
        <time>2016-03-26T08:00:09Z</time>
      </trkpt>
      <trkpt lat="44.01505" lon="7.31421">
        <ele>603.6</ele>
        <time>2016-03-26T08:00:12Z</time>
      </trkpt>
      <trkpt lat="44.01515" lon="7.31419">
        <ele>604.5</ele>
        <time>2016-03-26T08:00:16Z</time>
      </trkpt>
      <trkpt lat="44.01525" lon="7.31418">
        <ele>605.3</ele>
        <time>2016-03-26T08:00:20Z</time>
      </trkpt>
      <trkpt lat="44.01535" lon="7.31415">
        <ele>605.5</ele>
        <time>2016-03-26T08:00:24Z</time>
      </trkpt>
      <trkpt lat="44.01544" lon="7.3141">
        <ele>604.4</ele>
        <time>2016-03-26T08:00:29Z</time>
      </trkpt>
      <trkpt lat="44.01554" lon="7.31406">
        <ele>603.7</ele>
        <time>2016-03-26T08:00:32Z</time>
      </trkpt>
      <trkpt lat="44.01564" lon="7.31403">
        <ele>603.6</ele>
        <time>2016-03-26T08:00:36Z</time>
      </trkpt>
      <trkpt lat="44.01573" lon="7.31401">
        <ele>604.2</ele>
        <time>2016-03-26T08:00:40Z</time>
      </trkpt>
      <trkpt lat="44.01582" lon="7.31399">
        <ele>604.6</ele>
        <time>2016-03-26T08:00:44Z</time>
      </trkpt>
      <trkpt lat="44.01592" lon="7.31398">
        <ele>605.5</ele>
        <time>2016-03-26T08:00:48Z</time>
      </trkpt>
      <trkpt lat="44.01602" lon="7.31399">
        <ele>607.1</ele>
        <time>2016-03-26T08:00:52Z</time>
      </trkpt>
      <trkpt lat="44.0161" lon="7.314">
        <ele>608.8</ele>
        <time>2016-03-26T08:00:56Z</time>
      </trkpt>
      <trkpt lat="44.01617" lon="7.31401">
        <ele>610.3</ele>
        <time>2016-03-26T08:01:00Z</time>
      </trkpt>
      <trkpt lat="44.01626" lon="7.31399">
        <ele>610.5</ele>
        <time>2016-03-26T08:01:05Z</time>
      </trkpt>
      <trkpt lat="44.01631" lon="7.31392">
        <ele>607.9</ele>
        <time>2016-03-26T08:01:08Z</time>
      </trkpt>
      <trkpt lat="44.01638" lon="7.31385">
        <ele>605.6</ele>
        <time>2016-03-26T08:01:12Z</time>
      </trkpt>
      <trkpt lat="44.01646" lon="7.31382">
        <ele>605</ele>
        <time>2016-03-26T08:01:16Z</time>
      </trkpt>
      <trkpt lat="44.01654" lon="7.31379">
        <ele>604.4</ele>
        <time>2016-03-26T08:01:20Z</time>
      </trkpt>
      <trkpt lat="44.01664" lon="7.31375">
        <ele>603.3</ele>
        <time>2016-03-26T08:01:24Z</time>
      </trkpt>
      <trkpt lat="44.01673" lon="7.3137">
        <ele>602.5</ele>
        <time>2016-03-26T08:01:29Z</time>
      </trkpt>
      <trkpt lat="44.01678" lon="7.31369">
        <ele>602.5</ele>
        <time>2016-03-26T08:01:32Z</time>
      </trkpt>
      <trkpt lat="44.01683" lon="7.31368">
        <ele>602.4</ele>
        <time>2016-03-26T08:01:33Z</time>
      </trkpt>
      <trkpt lat="44.01694" lon="7.31369">
        <ele>603.5</ele>
        <time>2016-03-26T08:01:36Z</time>
      </trkpt>
      <trkpt lat="44.01704" lon="7.31368">
        <ele>603.7</ele>
        <time>2016-03-26T08:01:40Z</time>
      </trkpt>
      <trkpt lat="44.01711" lon="7.31362">
        <ele>602.7</ele>
        <time>2016-03-26T08:01:44Z</time>
      </trkpt>
      <trkpt lat="44.0172" lon="7.31357">
        <ele>602.2</ele>
        <time>2016-03-26T08:01:48Z</time>
      </trkpt>
      <trkpt lat="44.01729" lon="7.31349">
        <ele>601</ele>
        <time>2016-03-26T08:01:52Z</time>
      </trkpt>
      <trkpt lat="44.01738" lon="7.31341">
        <ele>599.7</ele>
        <time>2016-03-26T08:01:56Z</time>
      </trkpt>
      <trkpt lat="44.01746" lon="7.31333">
        <ele>598.2</ele>
        <time>2016-03-26T08:02:01Z</time>
      </trkpt>
      <trkpt lat="44.01755" lon="7.31325">
        <ele>596.9</ele>
        <time>2016-03-26T08:02:04Z</time>
      </trkpt>
      <trkpt lat="44.01763" lon="7.31319">
        <ele>596.1</ele>
        <time>2016-03-26T08:02:08Z</time>
      </trkpt>
      <trkpt lat="44.0177" lon="7.31317">
        <ele>596.1</ele>
        <time>2016-03-26T08:02:12Z</time>
      </trkpt>
      <trkpt lat="44.01774" lon="7.31307">
        <ele>593.8</ele>
        <time>2016-03-26T08:02:16Z</time>
      </trkpt>
      <trkpt lat="44.01776" lon="7.31297">
        <ele>591</ele>
        <time>2016-03-26T08:02:20Z</time>
      </trkpt>
      <trkpt lat="44.0178" lon="7.31287">
        <ele>589.4</ele>
        <time>2016-03-26T08:02:24Z</time>
      </trkpt>
      <trkpt lat="44.01786" lon="7.31277">
        <ele>588.9</ele>
        <time>2016-03-26T08:02:28Z</time>
      </trkpt>
      <trkpt lat="44.01792" lon="7.31266">
        <ele>588.2</ele>
        <time>2016-03-26T08:02:32Z</time>
      </trkpt>
      <trkpt lat="44.018" lon="7.31256">
        <ele>588.4</ele>
        <time>2016-03-26T08:02:36Z</time>
      </trkpt>
      <trkpt lat="44.01808" lon="7.31246">
        <ele>588.7</ele>
        <time>2016-03-26T08:02:40Z</time>
      </trkpt>
      <trkpt lat="44.01817" lon="7.31238">
        <ele>589.1</ele>
        <time>2016-03-26T08:02:44Z</time>
      </trkpt>
      <trkpt lat="44.01825" lon="7.31228">
        <ele>589.1</ele>
        <time>2016-03-26T08:02:48Z</time>
      </trkpt>
      <trkpt lat="44.01833" lon="7.31219">
        <ele>589.3</ele>
        <time>2016-03-26T08:02:52Z</time>
      </trkpt>
      <trkpt lat="44.01839" lon="7.3121">
        <ele>589.1</ele>
        <time>2016-03-26T08:02:56Z</time>
      </trkpt>
      <trkpt lat="44.01846" lon="7.312">
        <ele>589.2</ele>
        <time>2016-03-26T08:03:00Z</time>
      </trkpt>
      <trkpt lat="44.01854" lon="7.31189">
        <ele>589.4</ele>
        <time>2016-03-26T08:03:04Z</time>
      </trkpt>
      <trkpt lat="44.0186" lon="7.31178">
        <ele>589.3</ele>
        <time>2016-03-26T08:03:08Z</time>
      </trkpt>
      <trkpt lat="44.01862" lon="7.31165">
        <ele>588.4</ele>
        <time>2016-03-26T08:03:12Z</time>
      </trkpt>
      <trkpt lat="44.01864" lon="7.31152">
        <ele>587.4</ele>
        <time>2016-03-26T08:03:16Z</time>
      </trkpt>
      <trkpt lat="44.01862" lon="7.31142">
        <ele>586.4</ele>
        <time>2016-03-26T08:03:20Z</time>
      </trkpt>
      <trkpt lat="44.01857" lon="7.31133">
        <ele>585.1</ele>
        <time>2016-03-26T08:03:24Z</time>
      </trkpt>
      <trkpt lat="44.01851" lon="7.3112">
        <ele>584.1</ele>
        <time>2016-03-26T08:03:28Z</time>
      </trkpt>
      <trkpt lat="44.01844" lon="7.31107">
        <ele>584.1</ele>
        <time>2016-03-26T08:03:32Z</time>
      </trkpt>
      <trkpt lat="44.01839" lon="7.31095">
        <ele>584.2</ele>
        <time>2016-03-26T08:03:36Z</time>
      </trkpt>
      <trkpt lat="44.01833" lon="7.31084">
        <ele>584.5</ele>
        <time>2016-03-26T08:03:40Z</time>
      </trkpt>
      <trkpt lat="44.01826" lon="7.31072">
        <ele>584.9</ele>
        <time>2016-03-26T08:03:44Z</time>
      </trkpt>
      <trkpt lat="44.0182" lon="7.3106">
        <ele>585.5</ele>
        <time>2016-03-26T08:03:49Z</time>
      </trkpt>
      <trkpt lat="44.01815" lon="7.31048">
        <ele>586.3</ele>
        <time>2016-03-26T08:03:53Z</time>
      </trkpt>
      <trkpt lat="44.01809" lon="7.31037">
        <ele>587.9</ele>
        <time>2016-03-26T08:03:56Z</time>
      </trkpt>
      <trkpt lat="44.01803" lon="7.31026">
        <ele>591</ele>
        <time>2016-03-26T08:04:00Z</time>
      </trkpt>
      <trkpt lat="44.01797" lon="7.31016">
        <ele>593.6</ele>
        <time>2016-03-26T08:04:04Z</time>
      </trkpt>
      <trkpt lat="44.0179" lon="7.31009">
        <ele>595.6</ele>
        <time>2016-03-26T08:04:08Z</time>
      </trkpt>
      <trkpt lat="44.01782" lon="7.31001">
        <ele>597.8</ele>
        <time>2016-03-26T08:04:12Z</time>
      </trkpt>
      <trkpt lat="44.01774" lon="7.30995">
        <ele>599.3</ele>
        <time>2016-03-26T08:04:16Z</time>
      </trkpt>
      <trkpt lat="44.01766" lon="7.30991">
        <ele>600.4</ele>
        <time>2016-03-26T08:04:20Z</time>
      </trkpt>
      <trkpt lat="44.01758" lon="7.30987">
        <ele>601.6</ele>
        <time>2016-03-26T08:04:26Z</time>
      </trkpt>
      <trkpt lat="44.01752" lon="7.30983">
        <ele>602.5</ele>
        <time>2016-03-26T08:04:28Z</time>
      </trkpt>
      <trkpt lat="44.01745" lon="7.30981">
        <ele>603</ele>
        <time>2016-03-26T08:04:32Z</time>
      </trkpt>
      <trkpt lat="44.0174" lon="7.30983">
        <ele>602.7</ele>
        <time>2016-03-26T08:04:36Z</time>
      </trkpt>
      <trkpt lat="44.01736" lon="7.30984">
        <ele>602.3</ele>
        <time>2016-03-26T08:04:40Z</time>
      </trkpt>
      <trkpt lat="44.01728" lon="7.30986">
        <ele>601.6</ele>
        <time>2016-03-26T08:04:44Z</time>
      </trkpt>
      <trkpt lat="44.01718" lon="7.3099">
        <ele>600.6</ele>
        <time>2016-03-26T08:04:49Z</time>
      </trkpt>
      <trkpt lat="44.01706" lon="7.30994">
        <ele>599.4</ele>
        <time>2016-03-26T08:04:52Z</time>
      </trkpt>
      <trkpt lat="44.01695" lon="7.30999">
        <ele>598.4</ele>
        <time>2016-03-26T08:04:56Z</time>
      </trkpt>
      <trkpt lat="44.01684" lon="7.31003">
        <ele>597.5</ele>
        <time>2016-03-26T08:05:00Z</time>
      </trkpt>
      <trkpt lat="44.01672" lon="7.31006">
        <ele>597.2</ele>
        <time>2016-03-26T08:05:04Z</time>
      </trkpt>
      <trkpt lat="44.01661" lon="7.31005">
        <ele>597.9</ele>
        <time>2016-03-26T08:05:08Z</time>
      </trkpt>
      <trkpt lat="44.0165" lon="7.31005">
        <ele>598.2</ele>
        <time>2016-03-26T08:05:12Z</time>
      </trkpt>
      <trkpt lat="44.01638" lon="7.31008">
        <ele>597.9</ele>
        <time>2016-03-26T08:05:16Z</time>
      </trkpt>
      <trkpt lat="44.01626" lon="7.31009">
        <ele>598</ele>
        <time>2016-03-26T08:05:20Z</time>
      </trkpt>
      <trkpt lat="44.01614" lon="7.31008">
        <ele>597.6</ele>
        <time>2016-03-26T08:05:24Z</time>
      </trkpt>
      <trkpt lat="44.01604" lon="7.31006">
        <ele>597.2</ele>
        <time>2016-03-26T08:05:28Z</time>
      </trkpt>
      <trkpt lat="44.01594" lon="7.31006">
        <ele>596.5</ele>
        <time>2016-03-26T08:05:32Z</time>
      </trkpt>
      <trkpt lat="44.01584" lon="7.31006">
        <ele>595.8</ele>
        <time>2016-03-26T08:05:36Z</time>
      </trkpt>
      <trkpt lat="44.01573" lon="7.31008">
        <ele>594.4</ele>
        <time>2016-03-26T08:05:40Z</time>
      </trkpt>
      <trkpt lat="44.01562" lon="7.31011">
        <ele>592.8</ele>
        <time>2016-03-26T08:05:44Z</time>
      </trkpt>
      <trkpt lat="44.01553" lon="7.31012">
        <ele>591.6</ele>
        <time>2016-03-26T08:05:48Z</time>
      </trkpt>
      <trkpt lat="44.01543" lon="7.31013">
        <ele>590.7</ele>
        <time>2016-03-26T08:05:52Z</time>
      </trkpt>
      <trkpt lat="44.01531" lon="7.31011">
        <ele>589.5</ele>
        <time>2016-03-26T08:05:56Z</time>
      </trkpt>
      <trkpt lat="44.01521" lon="7.31005">
        <ele>589.4</ele>
        <time>2016-03-26T08:06:00Z</time>
      </trkpt>
      <trkpt lat="44.0151" lon="7.30998">
        <ele>589.1</ele>
        <time>2016-03-26T08:06:04Z</time>
      </trkpt>
      <trkpt lat="44.01501" lon="7.30993">
        <ele>588.6</ele>
        <time>2016-03-26T08:06:08Z</time>
      </trkpt>
      <trkpt lat="44.0149" lon="7.30988">
        <ele>587.6</ele>
        <time>2016-03-26T08:06:12Z</time>
      </trkpt>
      <trkpt lat="44.0148" lon="7.30984">
        <ele>586.5</ele>
        <time>2016-03-26T08:06:16Z</time>
      </trkpt>
      <trkpt lat="44.0147" lon="7.3098">
        <ele>585.1</ele>
        <time>2016-03-26T08:06:20Z</time>
      </trkpt>
      <trkpt lat="44.0146" lon="7.30975">
        <ele>584</ele>
        <time>2016-03-26T08:06:24Z</time>
      </trkpt>
      <trkpt lat="44.01451" lon="7.30967">
        <ele>586.1</ele>
        <time>2016-03-26T08:06:28Z</time>
      </trkpt>
      <trkpt lat="44.01448" lon="7.30953">
        <ele>588.5</ele>
        <time>2016-03-26T08:06:32Z</time>
      </trkpt>
      <trkpt lat="44.01446" lon="7.3094">
        <ele>590.1</ele>
        <time>2016-03-26T08:06:36Z</time>
      </trkpt>
      <trkpt lat="44.01446" lon="7.30926">
        <ele>591.4</ele>
        <time>2016-03-26T08:06:40Z</time>
      </trkpt>
      <trkpt lat="44.01444" lon="7.30914">
        <ele>593</ele>
        <time>2016-03-26T08:06:44Z</time>
      </trkpt>
      <trkpt lat="44.0144" lon="7.30902">
        <ele>595</ele>
        <time>2016-03-26T08:06:48Z</time>
      </trkpt>
      <trkpt lat="44.01435" lon="7.30896">
        <ele>596.8</ele>
        <time>2016-03-26T08:06:52Z</time>
      </trkpt>
      <trkpt lat="44.01429" lon="7.309">
        <ele>597.9</ele>
        <time>2016-03-26T08:06:56Z</time>
      </trkpt>
      <trkpt lat="44.01421" lon="7.30907">
        <ele>598.9</ele>
        <time>2016-03-26T08:07:00Z</time>
      </trkpt>
      <trkpt lat="44.01419" lon="7.30911">
        <ele>598.8</ele>
        <time>2016-03-26T08:07:04Z</time>
      </trkpt>
      <trkpt lat="44.0142" lon="7.30913">
        <ele>598.4</ele>
        <time>2016-03-26T08:07:08Z</time>
      </trkpt>
      <trkpt lat="44.01422" lon="7.30919">
        <ele>597.4</ele>
        <time>2016-03-26T08:07:12Z</time>
      </trkpt>
      <trkpt lat="44.01422" lon="7.30929">
        <ele>596.3</ele>
        <time>2016-03-26T08:07:16Z</time>
      </trkpt>
      <trkpt lat="44.01422" lon="7.30938">
        <ele>595.2</ele>
        <time>2016-03-26T08:07:20Z</time>
      </trkpt>
      <trkpt lat="44.01421" lon="7.30945">
        <ele>594.7</ele>
        <time>2016-03-26T08:07:25Z</time>
      </trkpt>
      <trkpt lat="44.01418" lon="7.30946">
        <ele>595.1</ele>
        <time>2016-03-26T08:07:28Z</time>
      </trkpt>
      <trkpt lat="44.01415" lon="7.30944">
        <ele>596</ele>
        <time>2016-03-26T08:07:32Z</time>
      </trkpt>
      <trkpt lat="44.0141" lon="7.30942">
        <ele>597.3</ele>
        <time>2016-03-26T08:07:36Z</time>
      </trkpt>
      <trkpt lat="44.01403" lon="7.3094">
        <ele>598.9</ele>
        <time>2016-03-26T08:07:40Z</time>
      </trkpt>
      <trkpt lat="44.01396" lon="7.3094">
        <ele>600.2</ele>
        <time>2016-03-26T08:07:44Z</time>
      </trkpt>
      <trkpt lat="44.01389" lon="7.3094">
        <ele>601.8</ele>
        <time>2016-03-26T08:07:48Z</time>
      </trkpt>
      <trkpt lat="44.0138" lon="7.30938">
        <ele>603.8</ele>
        <time>2016-03-26T08:07:52Z</time>
      </trkpt>
      <trkpt lat="44.01372" lon="7.30935">
        <ele>605.3</ele>
        <time>2016-03-26T08:07:56Z</time>
      </trkpt>
      <trkpt lat="44.01365" lon="7.30932">
        <ele>605.6</ele>
        <time>2016-03-26T08:08:00Z</time>
      </trkpt>
      <trkpt lat="44.01359" lon="7.3093">
        <ele>605.8</ele>
        <time>2016-03-26T08:08:05Z</time>
      </trkpt>
      <trkpt lat="44.01353" lon="7.30929">
        <ele>605.7</ele>
        <time>2016-03-26T08:08:08Z</time>
      </trkpt>
      <trkpt lat="44.01347" lon="7.30929">
        <ele>605.6</ele>
        <time>2016-03-26T08:08:12Z</time>
      </trkpt>
      <trkpt lat="44.0134" lon="7.30927">
        <ele>605.7</ele>
        <time>2016-03-26T08:08:16Z</time>
      </trkpt>
      <trkpt lat="44.01334" lon="7.30924">
        <ele>606</ele>
        <time>2016-03-26T08:08:20Z</time>
      </trkpt>
      <trkpt lat="44.01336" lon="7.30919">
        <ele>606.5</ele>
        <time>2016-03-26T08:08:24Z</time>
      </trkpt>
      <trkpt lat="44.01338" lon="7.30917">
        <ele>606.9</ele>
        <time>2016-03-26T08:08:28Z</time>
      </trkpt>
      <trkpt lat="44.01338" lon="7.30917">
        <ele>606.9</ele>
        <time>2016-03-26T08:08:32Z</time>
      </trkpt>
      <trkpt lat="44.01338" lon="7.30917">
        <ele>606.9</ele>
        <time>2016-03-26T08:08:36Z</time>
      </trkpt>
      <trkpt lat="44.01338" lon="7.30917">
        <ele>606.9</ele>
        <time>2016-03-26T08:08:41Z</time>
      </trkpt>
      <trkpt lat="44.01338" lon="7.30917">
        <ele>606.9</ele>
        <time>2016-03-26T08:08:44Z</time>
      </trkpt>
      <trkpt lat="44.01338" lon="7.30917">
        <ele>606.9</ele>
        <time>2016-03-26T08:08:49Z</time>
      </trkpt>
      <trkpt lat="44.01338" lon="7.30917">
        <ele>606.9</ele>
        <time>2016-03-26T08:08:53Z</time>
      </trkpt>
      <trkpt lat="44.01338" lon="7.30917">
        <ele>606.9</ele>
        <time>2016-03-26T08:08:56Z</time>
      </trkpt>
      <trkpt lat="44.01338" lon="7.30917">
        <ele>606.9</ele>
        <time>2016-03-26T08:09:00Z</time>
      </trkpt>
      <trkpt lat="44.01338" lon="7.30917">
        <ele>606.9</ele>
        <time>2016-03-26T08:09:04Z</time>
      </trkpt>
      <trkpt lat="44.01338" lon="7.30917">
        <ele>606.9</ele>
        <time>2016-03-26T08:09:08Z</time>
      </trkpt>
      <trkpt lat="44.01338" lon="7.30917">
        <ele>606.9</ele>
        <time>2016-03-26T08:09:12Z</time>
      </trkpt>
      <trkpt lat="44.01338" lon="7.30917">
        <ele>606.9</ele>
        <time>2016-03-26T08:09:16Z</time>
      </trkpt>
      <trkpt lat="44.01338" lon="7.30917">
        <ele>606.9</ele>
        <time>2016-03-26T08:09:20Z</time>
      </trkpt>
      <trkpt lat="44.01338" lon="7.30917">
        <ele>606.9</ele>
        <time>2016-03-26T08:09:24Z</time>
      </trkpt>
      <trkpt lat="44.01338" lon="7.30917">
        <ele>606.9</ele>
        <time>2016-03-26T08:09:28Z</time>
      </trkpt>
      <trkpt lat="44.01338" lon="7.30917">
        <ele>606.9</ele>
        <time>2016-03-26T08:09:32Z</time>
      </trkpt>
      <trkpt lat="44.01338" lon="7.30917">
        <ele>606.9</ele>
        <time>2016-03-26T08:09:36Z</time>
      </trkpt>
      <trkpt lat="44.01338" lon="7.30917">
        <ele>606.9</ele>
        <time>2016-03-26T08:09:40Z</time>
      </trkpt>
      <trkpt lat="44.01338" lon="7.30917">
        <ele>606.9</ele>
        <time>2016-03-26T08:09:44Z</time>
      </trkpt>
      <trkpt lat="44.01338" lon="7.30917">
        <ele>606.9</ele>
        <time>2016-03-26T08:09:48Z</time>
      </trkpt>
      <trkpt lat="44.01309" lon="7.30907">
        <ele>607</ele>
        <time>2016-03-26T08:09:52Z</time>
      </trkpt>
      <trkpt lat="44.01304" lon="7.30904">
        <ele>607.1</ele>
        <time>2016-03-26T08:09:56Z</time>
      </trkpt>
      <trkpt lat="44.013" lon="7.30901">
        <ele>607.2</ele>
        <time>2016-03-26T08:10:00Z</time>
      </trkpt>
      <trkpt lat="44.01296" lon="7.30896">
        <ele>607.4</ele>
        <time>2016-03-26T08:10:04Z</time>
      </trkpt>
      <trkpt lat="44.01292" lon="7.30891">
        <ele>607.7</ele>
        <time>2016-03-26T08:10:08Z</time>
      </trkpt>
      <trkpt lat="44.01287" lon="7.30885">
        <ele>608.1</ele>
        <time>2016-03-26T08:10:12Z</time>
      </trkpt>
      <trkpt lat="44.01284" lon="7.3088">
        <ele>608.5</ele>
        <time>2016-03-26T08:10:16Z</time>
      </trkpt>
      <trkpt lat="44.01279" lon="7.30875">
        <ele>608.8</ele>
        <time>2016-03-26T08:10:20Z</time>
      </trkpt>
      <trkpt lat="44.01273" lon="7.30872">
        <ele>609</ele>
        <time>2016-03-26T08:10:24Z</time>
      </trkpt>
      <trkpt lat="44.01268" lon="7.30868">
        <ele>609.3</ele>
        <time>2016-03-26T08:10:28Z</time>
      </trkpt>
      <trkpt lat="44.01261" lon="7.30867">
        <ele>609.2</ele>
        <time>2016-03-26T08:10:32Z</time>
      </trkpt>
      <trkpt lat="44.01254" lon="7.30864">
        <ele>609.4</ele>
        <time>2016-03-26T08:10:36Z</time>
      </trkpt>
      <trkpt lat="44.01247" lon="7.30858">
        <ele>609.8</ele>
        <time>2016-03-26T08:10:40Z</time>
      </trkpt>
      <trkpt lat="44.0124" lon="7.30853">
        <ele>610.1</ele>
        <time>2016-03-26T08:10:44Z</time>
      </trkpt>
      <trkpt lat="44.01233" lon="7.30849">
        <ele>610.3</ele>
        <time>2016-03-26T08:10:48Z</time>
      </trkpt>
      <trkpt lat="44.01225" lon="7.30845">
        <ele>610.4</ele>
        <time>2016-03-26T08:10:52Z</time>
      </trkpt>
      <trkpt lat="44.01218" lon="7.30842">
        <ele>610.5</ele>
        <time>2016-03-26T08:10:56Z</time>
      </trkpt>
      <trkpt lat="44.01213" lon="7.30843">
        <ele>610.4</ele>
        <time>2016-03-26T08:11:00Z</time>
      </trkpt>
      <trkpt lat="44.01208" lon="7.30842">
        <ele>610.4</ele>
        <time>2016-03-26T08:11:04Z</time>
      </trkpt>
      <trkpt lat="44.01203" lon="7.30848">
        <ele>609.5</ele>
        <time>2016-03-26T08:11:08Z</time>
      </trkpt>
      <trkpt lat="44.01195" lon="7.30855">
        <ele>608.4</ele>
        <time>2016-03-26T08:11:12Z</time>
      </trkpt>
      <trkpt lat="44.01187" lon="7.30857">
        <ele>607.6</ele>
        <time>2016-03-26T08:11:16Z</time>
      </trkpt>
      <trkpt lat="44.01179" lon="7.30858">
        <ele>606.8</ele>
        <time>2016-03-26T08:11:20Z</time>
      </trkpt>
      <trkpt lat="44.01169" lon="7.30858">
        <ele>606</ele>
        <time>2016-03-26T08:11:25Z</time>
      </trkpt>
      <trkpt lat="44.01157" lon="7.30857">
        <ele>605.2</ele>
        <time>2016-03-26T08:11:28Z</time>
      </trkpt>
      <trkpt lat="44.01146" lon="7.30852">
        <ele>604.6</ele>
        <time>2016-03-26T08:11:32Z</time>
      </trkpt>
      <trkpt lat="44.01135" lon="7.30852">
        <ele>603.7</ele>
        <time>2016-03-26T08:11:36Z</time>
      </trkpt>
      <trkpt lat="44.01129" lon="7.30862">
        <ele>602.4</ele>
        <time>2016-03-26T08:11:40Z</time>
      </trkpt>
      <trkpt lat="44.01125" lon="7.30875">
        <ele>601</ele>
        <time>2016-03-26T08:11:44Z</time>
      </trkpt>
      <trkpt lat="44.01122" lon="7.30891">
        <ele>599.8</ele>
        <time>2016-03-26T08:11:48Z</time>
      </trkpt>
      <trkpt lat="44.01121" lon="7.30906">
        <ele>598.5</ele>
        <time>2016-03-26T08:11:52Z</time>
      </trkpt>
      <trkpt lat="44.0112" lon="7.30921">
        <ele>597.3</ele>
        <time>2016-03-26T08:11:56Z</time>
      </trkpt>
      <trkpt lat="44.01116" lon="7.30934">
        <ele>596.2</ele>
        <time>2016-03-26T08:12:00Z</time>
      </trkpt>
      <trkpt lat="44.01114" lon="7.30942">
        <ele>595.6</ele>
        <time>2016-03-26T08:12:04Z</time>
      </trkpt>
      <trkpt lat="44.01113" lon="7.30946">
        <ele>595.2</ele>
        <time>2016-03-26T08:12:08Z</time>
      </trkpt>
      <trkpt lat="44.01113" lon="7.30946">
        <ele>595.2</ele>
        <time>2016-03-26T08:12:12Z</time>
      </trkpt>
      <trkpt lat="44.01113" lon="7.30946">
        <ele>595.2</ele>
        <time>2016-03-26T08:12:17Z</time>
      </trkpt>
      <trkpt lat="44.01113" lon="7.30946">
        <ele>595.2</ele>
        <time>2016-03-26T08:12:21Z</time>
      </trkpt>
      <trkpt lat="44.01121" lon="7.3096">
        <ele>593.7</ele>
        <time>2016-03-26T08:12:24Z</time>
      </trkpt>
      <trkpt lat="44.01132" lon="7.30964">
        <ele>593.1</ele>
        <time>2016-03-26T08:12:28Z</time>
      </trkpt>
      <trkpt lat="44.01139" lon="7.30967">
        <ele>592.9</ele>
        <time>2016-03-26T08:12:32Z</time>
      </trkpt>
      <trkpt lat="44.01142" lon="7.30969">
        <ele>592.4</ele>
        <time>2016-03-26T08:12:36Z</time>
      </trkpt>
      <trkpt lat="44.01142" lon="7.30973">
        <ele>591.6</ele>
        <time>2016-03-26T08:12:40Z</time>
      </trkpt>
      <trkpt lat="44.01143" lon="7.30977">
        <ele>590.8</ele>
        <time>2016-03-26T08:12:44Z</time>
      </trkpt>
      <trkpt lat="44.01147" lon="7.30981">
        <ele>590.1</ele>
        <time>2016-03-26T08:12:48Z</time>
      </trkpt>
      <trkpt lat="44.0115" lon="7.30985">
        <ele>589.3</ele>
        <time>2016-03-26T08:12:52Z</time>
      </trkpt>
      <trkpt lat="44.0115" lon="7.30985">
        <ele>589.3</ele>
        <time>2016-03-26T08:12:56Z</time>
      </trkpt>
      <trkpt lat="44.0115" lon="7.30985">
        <ele>589.3</ele>
        <time>2016-03-26T08:13:00Z</time>
      </trkpt>
      <trkpt lat="44.01137" lon="7.30994">
        <ele>586.8</ele>
        <time>2016-03-26T08:13:04Z</time>
      </trkpt>
      <trkpt lat="44.0113" lon="7.30999">
        <ele>585.5</ele>
        <time>2016-03-26T08:13:08Z</time>
      </trkpt>
      <trkpt lat="44.01118" lon="7.31008">
        <ele>583.7</ele>
        <time>2016-03-26T08:13:12Z</time>
      </trkpt>
      <trkpt lat="44.01107" lon="7.31018">
        <ele>582.2</ele>
        <time>2016-03-26T08:13:16Z</time>
      </trkpt>
      <trkpt lat="44.01096" lon="7.31023">
        <ele>582.1</ele>
        <time>2016-03-26T08:13:20Z</time>
      </trkpt>
      <trkpt lat="44.01089" lon="7.31025">
        <ele>582.1</ele>
        <time>2016-03-26T08:13:24Z</time>
      </trkpt>
      <trkpt lat="44.01082" lon="7.31028">
        <ele>582.2</ele>
        <time>2016-03-26T08:13:28Z</time>
      </trkpt>
      <trkpt lat="44.01074" lon="7.31032">
        <ele>582</ele>
        <time>2016-03-26T08:13:32Z</time>
      </trkpt>
      <trkpt lat="44.01066" lon="7.31038">
        <ele>581.6</ele>
        <time>2016-03-26T08:13:36Z</time>
      </trkpt>
      <trkpt lat="44.01057" lon="7.31044">
        <ele>581.1</ele>
        <time>2016-03-26T08:13:40Z</time>
      </trkpt>
      <trkpt lat="44.01049" lon="7.31049">
        <ele>580.5</ele>
        <time>2016-03-26T08:13:44Z</time>
      </trkpt>
      <trkpt lat="44.01049" lon="7.31049">
        <ele>580.5</ele>
        <time>2016-03-26T08:13:48Z</time>
      </trkpt>
      <trkpt lat="44.01039" lon="7.31053">
        <ele>579.9</ele>
        <time>2016-03-26T08:13:52Z</time>
      </trkpt>
      <trkpt lat="44.01034" lon="7.31055">
        <ele>579</ele>
        <time>2016-03-26T08:13:53Z</time>
      </trkpt>
      <trkpt lat="44.01019" lon="7.3106">
        <ele>576.6</ele>
        <time>2016-03-26T08:13:56Z</time>
      </trkpt>
      <trkpt lat="44.01009" lon="7.31064">
        <ele>574.7</ele>
        <time>2016-03-26T08:14:00Z</time>
      </trkpt>
      <trkpt lat="44.01" lon="7.31069">
        <ele>572.8</ele>
        <time>2016-03-26T08:14:04Z</time>
      </trkpt>
      <trkpt lat="44.00991" lon="7.31074">
        <ele>570.8</ele>
        <time>2016-03-26T08:14:08Z</time>
      </trkpt>
      <trkpt lat="44.00981" lon="7.3108">
        <ele>568.5</ele>
        <time>2016-03-26T08:14:12Z</time>
      </trkpt>
      <trkpt lat="44.0097" lon="7.31086">
        <ele>566.2</ele>
        <time>2016-03-26T08:14:16Z</time>
      </trkpt>
      <trkpt lat="44.0096" lon="7.31087">
        <ele>565.1</ele>
        <time>2016-03-26T08:14:20Z</time>
      </trkpt>
      <trkpt lat="44.00952" lon="7.31088">
        <ele>564.4</ele>
        <time>2016-03-26T08:14:24Z</time>
      </trkpt>
      <trkpt lat="44.00942" lon="7.31088">
        <ele>563.6</ele>
        <time>2016-03-26T08:14:28Z</time>
      </trkpt>
      <trkpt lat="44.00932" lon="7.31086">
        <ele>563.3</ele>
        <time>2016-03-26T08:14:32Z</time>
      </trkpt>
      <trkpt lat="44.00922" lon="7.31085">
        <ele>562.8</ele>
        <time>2016-03-26T08:14:36Z</time>
      </trkpt>
      <trkpt lat="44.00912" lon="7.31083">
        <ele>562.5</ele>
        <time>2016-03-26T08:14:40Z</time>
      </trkpt>
      <trkpt lat="44.00904" lon="7.31081">
        <ele>562.2</ele>
        <time>2016-03-26T08:14:44Z</time>
      </trkpt>
      <trkpt lat="44.00895" lon="7.31081">
        <ele>561.5</ele>
        <time>2016-03-26T08:14:48Z</time>
      </trkpt>
      <trkpt lat="44.00887" lon="7.31081">
        <ele>560.9</ele>
        <time>2016-03-26T08:14:52Z</time>
      </trkpt>
      <trkpt lat="44.00879" lon="7.31077">
        <ele>560.9</ele>
        <time>2016-03-26T08:14:56Z</time>
      </trkpt>
      <trkpt lat="44.0087" lon="7.31075">
        <ele>560.6</ele>
        <time>2016-03-26T08:15:00Z</time>
      </trkpt>
      <trkpt lat="44.00859" lon="7.31074">
        <ele>559.9</ele>
        <time>2016-03-26T08:15:04Z</time>
      </trkpt>
      <trkpt lat="44.00848" lon="7.31071">
        <ele>559.6</ele>
        <time>2016-03-26T08:15:08Z</time>
      </trkpt>
      <trkpt lat="44.00834" lon="7.31063">
        <ele>559.8</ele>
        <time>2016-03-26T08:15:12Z</time>
      </trkpt>
      <trkpt lat="44.00826" lon="7.31056">
        <ele>560.4</ele>
        <time>2016-03-26T08:15:16Z</time>
      </trkpt>
      <trkpt lat="44.00817" lon="7.31052">
        <ele>560.4</ele>
        <time>2016-03-26T08:15:20Z</time>
      </trkpt>
      <trkpt lat="44.00808" lon="7.31047">
        <ele>560.4</ele>
        <time>2016-03-26T08:15:24Z</time>
      </trkpt>
      <trkpt lat="44.00799" lon="7.31042">
        <ele>560.5</ele>
        <time>2016-03-26T08:15:28Z</time>
      </trkpt>
      <trkpt lat="44.0079" lon="7.31039">
        <ele>560.6</ele>
        <time>2016-03-26T08:15:32Z</time>
      </trkpt>
      <trkpt lat="44.00783" lon="7.31039">
        <ele>560.5</ele>
        <time>2016-03-26T08:15:36Z</time>
      </trkpt>
      <trkpt lat="44.00774" lon="7.31036">
        <ele>560.9</ele>
        <time>2016-03-26T08:15:40Z</time>
      </trkpt>
      <trkpt lat="44.00764" lon="7.31031">
        <ele>562</ele>
        <time>2016-03-26T08:15:44Z</time>
      </trkpt>
      <trkpt lat="44.00753" lon="7.31028">
        <ele>562.4</ele>
        <time>2016-03-26T08:15:48Z</time>
      </trkpt>
      <trkpt lat="44.00743" lon="7.31027">
        <ele>562</ele>
        <time>2016-03-26T08:15:52Z</time>
      </trkpt>
      <trkpt lat="44.00732" lon="7.3103">
        <ele>561</ele>
        <time>2016-03-26T08:15:56Z</time>
      </trkpt>
      <trkpt lat="44.00721" lon="7.31034">
        <ele>559.4</ele>
        <time>2016-03-26T08:16:00Z</time>
      </trkpt>
      <trkpt lat="44.00711" lon="7.31041">
        <ele>557.3</ele>
        <time>2016-03-26T08:16:04Z</time>
      </trkpt>
      <trkpt lat="44.007" lon="7.31046">
        <ele>555.9</ele>
        <time>2016-03-26T08:16:08Z</time>
      </trkpt>
      <trkpt lat="44.00691" lon="7.31051">
        <ele>554.6</ele>
        <time>2016-03-26T08:16:12Z</time>
      </trkpt>
      <trkpt lat="44.0068" lon="7.31053">
        <ele>553.8</ele>
        <time>2016-03-26T08:16:16Z</time>
      </trkpt>
      <trkpt lat="44.00668" lon="7.31046">
        <ele>554</ele>
        <time>2016-03-26T08:16:20Z</time>
      </trkpt>
      <trkpt lat="44.00661" lon="7.31041">
        <ele>554.4</ele>
        <time>2016-03-26T08:16:24Z</time>
      </trkpt>
      <trkpt lat="44.00654" lon="7.31037">
        <ele>554.9</ele>
        <time>2016-03-26T08:16:28Z</time>
      </trkpt>
      <trkpt lat="44.00646" lon="7.31033">
        <ele>555.5</ele>
        <time>2016-03-26T08:16:32Z</time>
      </trkpt>
      <trkpt lat="44.00637" lon="7.31028">
        <ele>556.3</ele>
        <time>2016-03-26T08:16:36Z</time>
      </trkpt>
      <trkpt lat="44.00637" lon="7.31028">
        <ele>556.3</ele>
        <time>2016-03-26T08:16:40Z</time>
      </trkpt>
      <trkpt lat="44.00629" lon="7.31023">
        <ele>557.3</ele>
        <time>2016-03-26T08:16:43Z</time>
      </trkpt>
      <trkpt lat="44.00623" lon="7.31019">
        <ele>558.1</ele>
        <time>2016-03-26T08:16:44Z</time>
      </trkpt>
      <trkpt lat="44.00616" lon="7.31016">
        <ele>558.5</ele>
        <time>2016-03-26T08:16:48Z</time>
      </trkpt>
      <trkpt lat="44.00607" lon="7.31014">
        <ele>558.4</ele>
        <time>2016-03-26T08:16:52Z</time>
      </trkpt>
      <trkpt lat="44.006" lon="7.31013">
        <ele>558.1</ele>
        <time>2016-03-26T08:16:56Z</time>
      </trkpt>
      <trkpt lat="44.00592" lon="7.31014">
        <ele>557.4</ele>
        <time>2016-03-26T08:17:00Z</time>
      </trkpt>
      <trkpt lat="44.00584" lon="7.31018">
        <ele>555.8</ele>
        <time>2016-03-26T08:17:04Z</time>
      </trkpt>
      <trkpt lat="44.00576" lon="7.31027">
        <ele>552.8</ele>
        <time>2016-03-26T08:17:08Z</time>
      </trkpt>
      <trkpt lat="44.00568" lon="7.31034">
        <ele>550.5</ele>
        <time>2016-03-26T08:17:12Z</time>
      </trkpt>
      <trkpt lat="44.00561" lon="7.31036">
        <ele>549.5</ele>
        <time>2016-03-26T08:17:16Z</time>
      </trkpt>
      <trkpt lat="44.00554" lon="7.31037">
        <ele>548.9</ele>
        <time>2016-03-26T08:17:20Z</time>
      </trkpt>
      <trkpt lat="44.00545" lon="7.31037">
        <ele>548.4</ele>
        <time>2016-03-26T08:17:24Z</time>
      </trkpt>
      <trkpt lat="44.00534" lon="7.31033">
        <ele>548.4</ele>
        <time>2016-03-26T08:17:29Z</time>
      </trkpt>
      <trkpt lat="44.00525" lon="7.31025">
        <ele>549.5</ele>
        <time>2016-03-26T08:17:32Z</time>
      </trkpt>
      <trkpt lat="44.00517" lon="7.31019">
        <ele>550.1</ele>
        <time>2016-03-26T08:17:36Z</time>
      </trkpt>
      <trkpt lat="44.00505" lon="7.31014">
        <ele>550.3</ele>
        <time>2016-03-26T08:17:40Z</time>
      </trkpt>
      <trkpt lat="44.00494" lon="7.31009">
        <ele>550.2</ele>
        <time>2016-03-26T08:17:44Z</time>
      </trkpt>
      <trkpt lat="44.00483" lon="7.31005">
        <ele>550</ele>
        <time>2016-03-26T08:17:48Z</time>
      </trkpt>
      <trkpt lat="44.00474" lon="7.30999">
        <ele>550.4</ele>
        <time>2016-03-26T08:17:52Z</time>
      </trkpt>
      <trkpt lat="44.00462" lon="7.30995">
        <ele>550.1</ele>
        <time>2016-03-26T08:17:56Z</time>
      </trkpt>
      <trkpt lat="44.00453" lon="7.30991">
        <ele>550.2</ele>
        <time>2016-03-26T08:18:00Z</time>
      </trkpt>
      <trkpt lat="44.00444" lon="7.30988">
        <ele>550.5</ele>
        <time>2016-03-26T08:18:04Z</time>
      </trkpt>
      <trkpt lat="44.00435" lon="7.30981">
        <ele>551.4</ele>
        <time>2016-03-26T08:18:08Z</time>
      </trkpt>
      <trkpt lat="44.00427" lon="7.30975">
        <ele>552.4</ele>
        <time>2016-03-26T08:18:12Z</time>
      </trkpt>
      <trkpt lat="44.00419" lon="7.30968">
        <ele>553.6</ele>
        <time>2016-03-26T08:18:16Z</time>
      </trkpt>
      <trkpt lat="44.00414" lon="7.30962">
        <ele>554.4</ele>
        <time>2016-03-26T08:18:20Z</time>
      </trkpt>
      <trkpt lat="44.0041" lon="7.30961">
        <ele>554.6</ele>
        <time>2016-03-26T08:18:24Z</time>
      </trkpt>
      <trkpt lat="44.00405" lon="7.30958">
        <ele>555</ele>
        <time>2016-03-26T08:18:29Z</time>
      </trkpt>
      <trkpt lat="44.00398" lon="7.30955">
        <ele>555.2</ele>
        <time>2016-03-26T08:18:33Z</time>
      </trkpt>
      <trkpt lat="44.0039" lon="7.30953">
        <ele>555.5</ele>
        <time>2016-03-26T08:18:36Z</time>
      </trkpt>
      <trkpt lat="44.00384" lon="7.30952">
        <ele>555.3</ele>
        <time>2016-03-26T08:18:40Z</time>
      </trkpt>
      <trkpt lat="44.00376" lon="7.30951">
        <ele>555</ele>
        <time>2016-03-26T08:18:45Z</time>
      </trkpt>
      <trkpt lat="44.00368" lon="7.30951">
        <ele>554.6</ele>
        <time>2016-03-26T08:18:48Z</time>
      </trkpt>
      <trkpt lat="44.0036" lon="7.30951">
        <ele>554.1</ele>
        <time>2016-03-26T08:18:52Z</time>
      </trkpt>
      <trkpt lat="44.00353" lon="7.3095">
        <ele>554</ele>
        <time>2016-03-26T08:18:56Z</time>
      </trkpt>
      <trkpt lat="44.00345" lon="7.30946">
        <ele>554.5</ele>
        <time>2016-03-26T08:19:00Z</time>
      </trkpt>
      <trkpt lat="44.00337" lon="7.30939">
        <ele>556.1</ele>
        <time>2016-03-26T08:19:04Z</time>
      </trkpt>
      <trkpt lat="44.00332" lon="7.30931">
        <ele>558.1</ele>
        <time>2016-03-26T08:19:08Z</time>
      </trkpt>
      <trkpt lat="44.0033" lon="7.30924">
        <ele>560</ele>
        <time>2016-03-26T08:19:12Z</time>
      </trkpt>
      <trkpt lat="44.00329" lon="7.30921">
        <ele>560.8</ele>
        <time>2016-03-26T08:19:16Z</time>
      </trkpt>
      <trkpt lat="44.00325" lon="7.30922">
        <ele>560.5</ele>
        <time>2016-03-26T08:19:20Z</time>
      </trkpt>
      <trkpt lat="44.0032" lon="7.30925">
        <ele>559.6</ele>
        <time>2016-03-26T08:19:24Z</time>
      </trkpt>
      <trkpt lat="44.00317" lon="7.30929">
        <ele>558.2</ele>
        <time>2016-03-26T08:19:28Z</time>
      </trkpt>
      <trkpt lat="44.00316" lon="7.3093">
        <ele>557.8</ele>
        <time>2016-03-26T08:19:32Z</time>
      </trkpt>
      <trkpt lat="44.00316" lon="7.3093">
        <ele>557.8</ele>
        <time>2016-03-26T08:19:36Z</time>
      </trkpt>
      <trkpt lat="44.00316" lon="7.3093">
        <ele>557.8</ele>
        <time>2016-03-26T08:19:40Z</time>
      </trkpt>
      <trkpt lat="44.00316" lon="7.3093">
        <ele>557.8</ele>
        <time>2016-03-26T08:19:44Z</time>
      </trkpt>
      <trkpt lat="44.00316" lon="7.3093">
        <ele>557.8</ele>
        <time>2016-03-26T08:19:49Z</time>
      </trkpt>
      <trkpt lat="44.00316" lon="7.3093">
        <ele>557.8</ele>
        <time>2016-03-26T08:19:52Z</time>
      </trkpt>
      <trkpt lat="44.00316" lon="7.3093">
        <ele>557.8</ele>
        <time>2016-03-26T08:19:56Z</time>
      </trkpt>
      <trkpt lat="44.00316" lon="7.3093">
        <ele>557.8</ele>
        <time>2016-03-26T08:20:00Z</time>
      </trkpt>
      <trkpt lat="44.00316" lon="7.3093">
        <ele>557.8</ele>
        <time>2016-03-26T08:20:04Z</time>
      </trkpt>
      <trkpt lat="44.00316" lon="7.3093">
        <ele>557.8</ele>
        <time>2016-03-26T08:20:08Z</time>
      </trkpt>
      <trkpt lat="44.00316" lon="7.3093">
        <ele>557.8</ele>
        <time>2016-03-26T08:20:12Z</time>
      </trkpt>
      <trkpt lat="44.00316" lon="7.3093">
        <ele>557.8</ele>
        <time>2016-03-26T08:20:16Z</time>
      </trkpt>
      <trkpt lat="44.00316" lon="7.3093">
        <ele>557.8</ele>
        <time>2016-03-26T08:20:20Z</time>
      </trkpt>
      <trkpt lat="44.00316" lon="7.3093">
        <ele>557.8</ele>
        <time>2016-03-26T08:20:24Z</time>
      </trkpt>
      <trkpt lat="44.00316" lon="7.3093">
        <ele>557.8</ele>
        <time>2016-03-26T08:20:28Z</time>
      </trkpt>
      <trkpt lat="44.00316" lon="7.3093">
        <ele>557.8</ele>
        <time>2016-03-26T08:20:32Z</time>
      </trkpt>
      <trkpt lat="44.00316" lon="7.3093">
        <ele>557.8</ele>
        <time>2016-03-26T08:20:36Z</time>
      </trkpt>
      <trkpt lat="44.00316" lon="7.3093">
        <ele>557.8</ele>
        <time>2016-03-26T08:20:40Z</time>
      </trkpt>
      <trkpt lat="44.00316" lon="7.3093">
        <ele>557.8</ele>
        <time>2016-03-26T08:20:44Z</time>
      </trkpt>
      <trkpt lat="44.00311" lon="7.30927">
        <ele>558.6</ele>
        <time>2016-03-26T08:20:48Z</time>
      </trkpt>
      <trkpt lat="44.00307" lon="7.30927">
        <ele>558.5</ele>
        <time>2016-03-26T08:20:52Z</time>
      </trkpt>
      <trkpt lat="44.00307" lon="7.30927">
        <ele>558.5</ele>
        <time>2016-03-26T08:20:56Z</time>
      </trkpt>
      <trkpt lat="44.00307" lon="7.30927">
        <ele>558.5</ele>
        <time>2016-03-26T08:21:00Z</time>
      </trkpt>
      <trkpt lat="44.00307" lon="7.30927">
        <ele>558.5</ele>
        <time>2016-03-26T08:21:04Z</time>
      </trkpt>
      <trkpt lat="44.00307" lon="7.30927">
        <ele>558.5</ele>
        <time>2016-03-26T08:21:08Z</time>
      </trkpt>
      <trkpt lat="44.00307" lon="7.30927">
        <ele>558.5</ele>
        <time>2016-03-26T08:21:12Z</time>
      </trkpt>
      <trkpt lat="44.00299" lon="7.3093">
        <ele>557</ele>
        <time>2016-03-26T08:21:16Z</time>
      </trkpt>
      <trkpt lat="44.00295" lon="7.30931">
        <ele>556.8</ele>
        <time>2016-03-26T08:21:20Z</time>
      </trkpt>
      <trkpt lat="44.0029" lon="7.3093">
        <ele>556.7</ele>
        <time>2016-03-26T08:21:24Z</time>
      </trkpt>
      <trkpt lat="44.00284" lon="7.30929">
        <ele>556.6</ele>
        <time>2016-03-26T08:21:28Z</time>
      </trkpt>
      <trkpt lat="44.00279" lon="7.30928">
        <ele>556.5</ele>
        <time>2016-03-26T08:21:32Z</time>
      </trkpt>
      <trkpt lat="44.00274" lon="7.30924">
        <ele>557.3</ele>
        <time>2016-03-26T08:21:36Z</time>
      </trkpt>
      <trkpt lat="44.00269" lon="7.3092">
        <ele>558.3</ele>
        <time>2016-03-26T08:21:40Z</time>
      </trkpt>
      <trkpt lat="44.00264" lon="7.30914">
        <ele>559.6</ele>
        <time>2016-03-26T08:21:44Z</time>
      </trkpt>
      <trkpt lat="44.00256" lon="7.3091">
        <ele>560.1</ele>
        <time>2016-03-26T08:21:48Z</time>
      </trkpt>
      <trkpt lat="44.0025" lon="7.30905">
        <ele>561.1</ele>
        <time>2016-03-26T08:21:52Z</time>
      </trkpt>
      <trkpt lat="44.00244" lon="7.30898">
        <ele>562.4</ele>
        <time>2016-03-26T08:21:56Z</time>
      </trkpt>
      <trkpt lat="44.00239" lon="7.30891">
        <ele>563.9</ele>
        <time>2016-03-26T08:22:01Z</time>
      </trkpt>
      <trkpt lat="44.00236" lon="7.30883">
        <ele>565.9</ele>
        <time>2016-03-26T08:22:04Z</time>
      </trkpt>
      <trkpt lat="44.00235" lon="7.30876">
        <ele>567.6</ele>
        <time>2016-03-26T08:22:08Z</time>
      </trkpt>
      <trkpt lat="44.00233" lon="7.30872">
        <ele>568.1</ele>
        <time>2016-03-26T08:22:12Z</time>
      </trkpt>
      <trkpt lat="44.00229" lon="7.30868">
        <ele>568.4</ele>
        <time>2016-03-26T08:22:16Z</time>
      </trkpt>
      <trkpt lat="44.00224" lon="7.30865">
        <ele>568.5</ele>
        <time>2016-03-26T08:22:20Z</time>
      </trkpt>
      <trkpt lat="44.00221" lon="7.30861">
        <ele>568.8</ele>
        <time>2016-03-26T08:22:24Z</time>
      </trkpt>
      <trkpt lat="44.0022" lon="7.30857">
        <ele>569.4</ele>
        <time>2016-03-26T08:22:28Z</time>
      </trkpt>
      <trkpt lat="44.00217" lon="7.30852">
        <ele>569.9</ele>
        <time>2016-03-26T08:22:32Z</time>
      </trkpt>
      <trkpt lat="44.00214" lon="7.30847">
        <ele>570.5</ele>
        <time>2016-03-26T08:22:36Z</time>
      </trkpt>
      <trkpt lat="44.00211" lon="7.30841">
        <ele>571.1</ele>
        <time>2016-03-26T08:22:40Z</time>
      </trkpt>
      <trkpt lat="44.00209" lon="7.30832">
        <ele>572.3</ele>
        <time>2016-03-26T08:22:45Z</time>
      </trkpt>
      <trkpt lat="44.00208" lon="7.30822">
        <ele>574.1</ele>
        <time>2016-03-26T08:22:48Z</time>
      </trkpt>
      <trkpt lat="44.00205" lon="7.30813">
        <ele>576.6</ele>
        <time>2016-03-26T08:22:52Z</time>
      </trkpt>
      <trkpt lat="44.00205" lon="7.30803">
        <ele>578.5</ele>
        <time>2016-03-26T08:22:56Z</time>
      </trkpt>
      <trkpt lat="44.00206" lon="7.30793">
        <ele>579.7</ele>
        <time>2016-03-26T08:23:00Z</time>
      </trkpt>
      <trkpt lat="44.00209" lon="7.30782">
        <ele>579.9</ele>
        <time>2016-03-26T08:23:04Z</time>
      </trkpt>
      <trkpt lat="44.00211" lon="7.30772">
        <ele>581.3</ele>
        <time>2016-03-26T08:23:08Z</time>
      </trkpt>
      <trkpt lat="44.00211" lon="7.30765">
        <ele>581.9</ele>
        <time>2016-03-26T08:23:12Z</time>
      </trkpt>
      <trkpt lat="44.0021" lon="7.30759">
        <ele>582.4</ele>
        <time>2016-03-26T08:23:16Z</time>
      </trkpt>
      <trkpt lat="44.00208" lon="7.30752">
        <ele>582.9</ele>
        <time>2016-03-26T08:23:20Z</time>
      </trkpt>
      <trkpt lat="44.00207" lon="7.30746">
        <ele>584.1</ele>
        <time>2016-03-26T08:23:24Z</time>
      </trkpt>
      <trkpt lat="44.00207" lon="7.3074">
        <ele>584.7</ele>
        <time>2016-03-26T08:23:28Z</time>
      </trkpt>
      <trkpt lat="44.00208" lon="7.30733">
        <ele>584.9</ele>
        <time>2016-03-26T08:23:32Z</time>
      </trkpt>
      <trkpt lat="44.00207" lon="7.30723">
        <ele>586.3</ele>
        <time>2016-03-26T08:23:36Z</time>
      </trkpt>
      <trkpt lat="44.00202" lon="7.30713">
        <ele>589.1</ele>
        <time>2016-03-26T08:23:40Z</time>
      </trkpt>
      <trkpt lat="44.00198" lon="7.30703">
        <ele>591.8</ele>
        <time>2016-03-26T08:23:44Z</time>
      </trkpt>
      <trkpt lat="44.00195" lon="7.30693">
        <ele>594.1</ele>
        <time>2016-03-26T08:23:48Z</time>
      </trkpt>
      <trkpt lat="44.0019" lon="7.30686">
        <ele>597</ele>
        <time>2016-03-26T08:23:53Z</time>
      </trkpt>
      <trkpt lat="44.00183" lon="7.30676">
        <ele>600.6</ele>
        <time>2016-03-26T08:23:56Z</time>
      </trkpt>
      <trkpt lat="44.0018" lon="7.30665">
        <ele>602.7</ele>
        <time>2016-03-26T08:24:00Z</time>
      </trkpt>
      <trkpt lat="44.0018" lon="7.30657">
        <ele>603.4</ele>
        <time>2016-03-26T08:24:04Z</time>
      </trkpt>
      <trkpt lat="44.00177" lon="7.30651">
        <ele>605.1</ele>
        <time>2016-03-26T08:24:08Z</time>
      </trkpt>
      <trkpt lat="44.00172" lon="7.3065">
        <ele>607</ele>
        <time>2016-03-26T08:24:12Z</time>
      </trkpt>
      <trkpt lat="44.00172" lon="7.3065">
        <ele>607</ele>
        <time>2016-03-26T08:24:16Z</time>
      </trkpt>
      <trkpt lat="44.00172" lon="7.3065">
        <ele>607</ele>
        <time>2016-03-26T08:24:20Z</time>
      </trkpt>
      <trkpt lat="44.00164" lon="7.30642">
        <ele>610.7</ele>
        <time>2016-03-26T08:24:24Z</time>
      </trkpt>
      <trkpt lat="44.00164" lon="7.30642">
        <ele>610.7</ele>
        <time>2016-03-26T08:24:28Z</time>
      </trkpt>
      <trkpt lat="44.00164" lon="7.30642">
        <ele>610.7</ele>
        <time>2016-03-26T08:24:32Z</time>
      </trkpt>
      <trkpt lat="44.00164" lon="7.30642">
        <ele>610.7</ele>
        <time>2016-03-26T08:24:36Z</time>
      </trkpt>
      <trkpt lat="44.00165" lon="7.30649">
        <ele>609.7</ele>
        <time>2016-03-26T08:24:40Z</time>
      </trkpt>
      <trkpt lat="44.00164" lon="7.30655">
        <ele>609.7</ele>
        <time>2016-03-26T08:24:44Z</time>
      </trkpt>
      <trkpt lat="44.00162" lon="7.30658">
        <ele>610.2</ele>
        <time>2016-03-26T08:24:48Z</time>
      </trkpt>
      <trkpt lat="44.00157" lon="7.30662">
        <ele>611.8</ele>
        <time>2016-03-26T08:24:52Z</time>
      </trkpt>
      <trkpt lat="44.00153" lon="7.30664">
        <ele>613.2</ele>
        <time>2016-03-26T08:24:56Z</time>
      </trkpt>
      <trkpt lat="44.00149" lon="7.30672">
        <ele>614.2</ele>
        <time>2016-03-26T08:25:00Z</time>
      </trkpt>
      <trkpt lat="44.00144" lon="7.30681">
        <ele>615.7</ele>
        <time>2016-03-26T08:25:04Z</time>
      </trkpt>
      <trkpt lat="44.00139" lon="7.30689">
        <ele>617.4</ele>
        <time>2016-03-26T08:25:08Z</time>
      </trkpt>
      <trkpt lat="44.00132" lon="7.30697">
        <ele>619.6</ele>
        <time>2016-03-26T08:25:12Z</time>
      </trkpt>
      <trkpt lat="44.00127" lon="7.30704">
        <ele>621.3</ele>
        <time>2016-03-26T08:25:17Z</time>
      </trkpt>
      <trkpt lat="44.00122" lon="7.3071">
        <ele>623.5</ele>
        <time>2016-03-26T08:25:20Z</time>
      </trkpt>
      <trkpt lat="44.00118" lon="7.30718">
        <ele>624.6</ele>
        <time>2016-03-26T08:25:24Z</time>
      </trkpt>
      <trkpt lat="44.00115" lon="7.30722">
        <ele>625.5</ele>
        <time>2016-03-26T08:25:28Z</time>
      </trkpt>
      <trkpt lat="44.00112" lon="7.30725">
        <ele>626.4</ele>
        <time>2016-03-26T08:25:32Z</time>
      </trkpt>
      <trkpt lat="44.00109" lon="7.30729">
        <ele>627.3</ele>
        <time>2016-03-26T08:25:36Z</time>
      </trkpt>
      <trkpt lat="44.00107" lon="7.30732">
        <ele>628.1</ele>
        <time>2016-03-26T08:25:40Z</time>
      </trkpt>
      <trkpt lat="44.00104" lon="7.30736">
        <ele>628.9</ele>
        <time>2016-03-26T08:25:44Z</time>
      </trkpt>
      <trkpt lat="44.00101" lon="7.30739">
        <ele>629.7</ele>
        <time>2016-03-26T08:25:48Z</time>
      </trkpt>
      <trkpt lat="44.00098" lon="7.30743">
        <ele>630.4</ele>
        <time>2016-03-26T08:25:52Z</time>
      </trkpt>
      <trkpt lat="44.00096" lon="7.30746">
        <ele>631.1</ele>
        <time>2016-03-26T08:25:56Z</time>
      </trkpt>
      <trkpt lat="44.00093" lon="7.3075">
        <ele>631.7</ele>
        <time>2016-03-26T08:26:00Z</time>
      </trkpt>
      <trkpt lat="44.0009" lon="7.30753">
        <ele>632.3</ele>
        <time>2016-03-26T08:26:04Z</time>
      </trkpt>
      <trkpt lat="44.00087" lon="7.30757">
        <ele>632.9</ele>
        <time>2016-03-26T08:26:08Z</time>
      </trkpt>
      <trkpt lat="44.00084" lon="7.3076">
        <ele>633.4</ele>
        <time>2016-03-26T08:26:12Z</time>
      </trkpt>
      <trkpt lat="44.00082" lon="7.30764">
        <ele>633.9</ele>
        <time>2016-03-26T08:26:16Z</time>
      </trkpt>
      <trkpt lat="44.00079" lon="7.30767">
        <ele>634.4</ele>
        <time>2016-03-26T08:26:17Z</time>
      </trkpt>
      <trkpt lat="44.00074" lon="7.30769">
        <ele>635.9</ele>
        <time>2016-03-26T08:26:20Z</time>
      </trkpt>
      <trkpt lat="44.00071" lon="7.30767">
        <ele>637.5</ele>
        <time>2016-03-26T08:26:24Z</time>
      </trkpt>
      <trkpt lat="44.00067" lon="7.30764">
        <ele>640</ele>
        <time>2016-03-26T08:26:29Z</time>
      </trkpt>
      <trkpt lat="44.00062" lon="7.30763">
        <ele>642</ele>
        <time>2016-03-26T08:26:32Z</time>
      </trkpt>
      <trkpt lat="44.00059" lon="7.30764">
        <ele>643.3</ele>
        <time>2016-03-26T08:26:36Z</time>
      </trkpt>
      <trkpt lat="44.00055" lon="7.30766">
        <ele>644.3</ele>
        <time>2016-03-26T08:26:40Z</time>
      </trkpt>
      <trkpt lat="44.00051" lon="7.30767">
        <ele>645.6</ele>
        <time>2016-03-26T08:26:44Z</time>
      </trkpt>
      <trkpt lat="44.00049" lon="7.30768">
        <ele>646.3</ele>
        <time>2016-03-26T08:26:48Z</time>
      </trkpt>
      <trkpt lat="44.00046" lon="7.30769">
        <ele>647.5</ele>
        <time>2016-03-26T08:26:52Z</time>
      </trkpt>
      <trkpt lat="44.00044" lon="7.30769">
        <ele>648.2</ele>
        <time>2016-03-26T08:26:56Z</time>
      </trkpt>
      <trkpt lat="44.00044" lon="7.30769">
        <ele>648.2</ele>
        <time>2016-03-26T08:27:00Z</time>
      </trkpt>
      <trkpt lat="44.00044" lon="7.30769">
        <ele>648.2</ele>
        <time>2016-03-26T08:27:04Z</time>
      </trkpt>
      <trkpt lat="44.00037" lon="7.30766">
        <ele>652.4</ele>
        <time>2016-03-26T08:27:08Z</time>
      </trkpt>
      <trkpt lat="44.00033" lon="7.30765">
        <ele>654.6</ele>
        <time>2016-03-26T08:27:12Z</time>
      </trkpt>
      <trkpt lat="44.00029" lon="7.30764">
        <ele>657.2</ele>
        <time>2016-03-26T08:27:16Z</time>
      </trkpt>
      <trkpt lat="44.00023" lon="7.30766">
        <ele>659.8</ele>
        <time>2016-03-26T08:27:20Z</time>
      </trkpt>
      <trkpt lat="44.00018" lon="7.30769">
        <ele>661.5</ele>
        <time>2016-03-26T08:27:24Z</time>
      </trkpt>
      <trkpt lat="44.00012" lon="7.30771">
        <ele>663.9</ele>
        <time>2016-03-26T08:27:28Z</time>
      </trkpt>
      <trkpt lat="44.00002" lon="7.30774">
        <ele>668.7</ele>
        <time>2016-03-26T08:27:32Z</time>
      </trkpt>
      <trkpt lat="43.99999" lon="7.30776">
        <ele>669.9</ele>
        <time>2016-03-26T08:27:36Z</time>
      </trkpt>
      <trkpt lat="43.99997" lon="7.30778">
        <ele>670.5</ele>
        <time>2016-03-26T08:27:40Z</time>
      </trkpt>
      <trkpt lat="43.99993" lon="7.30782">
        <ele>671.1</ele>
        <time>2016-03-26T08:27:44Z</time>
      </trkpt>
      <trkpt lat="43.99991" lon="7.30786">
        <ele>671.6</ele>
        <time>2016-03-26T08:27:48Z</time>
      </trkpt>
      <trkpt lat="43.99989" lon="7.30789">
        <ele>671.6</ele>
        <time>2016-03-26T08:27:52Z</time>
      </trkpt>
      <trkpt lat="43.99986" lon="7.30793">
        <ele>672.2</ele>
        <time>2016-03-26T08:27:56Z</time>
      </trkpt>
      <trkpt lat="43.99985" lon="7.30799">
        <ele>671.1</ele>
        <time>2016-03-26T08:28:00Z</time>
      </trkpt>
      <trkpt lat="43.99982" lon="7.30809">
        <ele>669.8</ele>
        <time>2016-03-26T08:28:04Z</time>
      </trkpt>
      <trkpt lat="43.99976" lon="7.30818">
        <ele>670.4</ele>
        <time>2016-03-26T08:28:08Z</time>
      </trkpt>
      <trkpt lat="43.99971" lon="7.30825">
        <ele>671.7</ele>
        <time>2016-03-26T08:28:12Z</time>
      </trkpt>
      <trkpt lat="43.99967" lon="7.3083">
        <ele>672.4</ele>
        <time>2016-03-26T08:28:16Z</time>
      </trkpt>
      <trkpt lat="43.99964" lon="7.30836">
        <ele>672.6</ele>
        <time>2016-03-26T08:28:20Z</time>
      </trkpt>
      <trkpt lat="43.99957" lon="7.3084">
        <ele>674.7</ele>
        <time>2016-03-26T08:28:24Z</time>
      </trkpt>
      <trkpt lat="43.99951" lon="7.30842">
        <ele>676.4</ele>
        <time>2016-03-26T08:28:28Z</time>
      </trkpt>
      <trkpt lat="43.99949" lon="7.30844">
        <ele>676.6</ele>
        <time>2016-03-26T08:28:32Z</time>
      </trkpt>
      <trkpt lat="43.99946" lon="7.30846">
        <ele>677</ele>
        <time>2016-03-26T08:28:36Z</time>
      </trkpt>
      <trkpt lat="43.99943" lon="7.30847">
        <ele>677.6</ele>
        <time>2016-03-26T08:28:40Z</time>
      </trkpt>
      <trkpt lat="43.9994" lon="7.3085">
        <ele>678</ele>
        <time>2016-03-26T08:28:44Z</time>
      </trkpt>
      <trkpt lat="43.99935" lon="7.30852">
        <ele>679</ele>
        <time>2016-03-26T08:28:48Z</time>
      </trkpt>
      <trkpt lat="43.9993" lon="7.30854">
        <ele>680.2</ele>
        <time>2016-03-26T08:28:52Z</time>
      </trkpt>
      <trkpt lat="43.99926" lon="7.30857">
        <ele>681</ele>
        <time>2016-03-26T08:28:56Z</time>
      </trkpt>
      <trkpt lat="43.99922" lon="7.30858">
        <ele>682</ele>
        <time>2016-03-26T08:29:00Z</time>
      </trkpt>
      <trkpt lat="43.99919" lon="7.30858">
        <ele>682.8</ele>
        <time>2016-03-26T08:29:04Z</time>
      </trkpt>
      <trkpt lat="43.99916" lon="7.3086">
        <ele>683.2</ele>
        <time>2016-03-26T08:29:08Z</time>
      </trkpt>
      <trkpt lat="43.99912" lon="7.30866">
        <ele>682.6</ele>
        <time>2016-03-26T08:29:12Z</time>
      </trkpt>
      <trkpt lat="43.99906" lon="7.30873">
        <ele>682.5</ele>
        <time>2016-03-26T08:29:16Z</time>
      </trkpt>
      <trkpt lat="43.999" lon="7.30878">
        <ele>682.9</ele>
        <time>2016-03-26T08:29:20Z</time>
      </trkpt>
      <trkpt lat="43.99895" lon="7.30883">
        <ele>682.9</ele>
        <time>2016-03-26T08:29:24Z</time>
      </trkpt>
      <trkpt lat="43.9989" lon="7.30886">
        <ele>683.6</ele>
        <time>2016-03-26T08:29:28Z</time>
      </trkpt>
      <trkpt lat="43.99883" lon="7.30889">
        <ele>685.1</ele>
        <time>2016-03-26T08:29:32Z</time>
      </trkpt>
      <trkpt lat="43.99876" lon="7.30893">
        <ele>686.3</ele>
        <time>2016-03-26T08:29:36Z</time>
      </trkpt>
      <trkpt lat="43.9987" lon="7.30895">
        <ele>686.6</ele>
        <time>2016-03-26T08:29:40Z</time>
      </trkpt>
      <trkpt lat="43.99866" lon="7.30897">
        <ele>686.3</ele>
        <time>2016-03-26T08:29:44Z</time>
      </trkpt>
      <trkpt lat="43.99862" lon="7.30899">
        <ele>686</ele>
        <time>2016-03-26T08:29:48Z</time>
      </trkpt>
      <trkpt lat="43.99857" lon="7.30902">
        <ele>685.8</ele>
        <time>2016-03-26T08:29:52Z</time>
      </trkpt>
      <trkpt lat="43.99853" lon="7.30902">
        <ele>686</ele>
        <time>2016-03-26T08:29:56Z</time>
      </trkpt>
      <trkpt lat="43.99849" lon="7.30903">
        <ele>686.1</ele>
        <time>2016-03-26T08:30:00Z</time>
      </trkpt>
      <trkpt lat="43.99844" lon="7.30908">
        <ele>685.1</ele>
        <time>2016-03-26T08:30:04Z</time>
      </trkpt>
      <trkpt lat="43.99839" lon="7.30912">
        <ele>684.2</ele>
        <time>2016-03-26T08:30:08Z</time>
      </trkpt>
      <trkpt lat="43.99834" lon="7.30915">
        <ele>683.6</ele>
        <time>2016-03-26T08:30:13Z</time>
      </trkpt>
      <trkpt lat="43.99832" lon="7.30918">
        <ele>683.1</ele>
        <time>2016-03-26T08:30:16Z</time>
      </trkpt>
      <trkpt lat="43.99832" lon="7.30918">
        <ele>683.1</ele>
        <time>2016-03-26T08:30:20Z</time>
      </trkpt>
      <trkpt lat="43.99832" lon="7.30918">
        <ele>683.1</ele>
        <time>2016-03-26T08:30:24Z</time>
      </trkpt>
      <trkpt lat="43.99832" lon="7.30918">
        <ele>683.1</ele>
        <time>2016-03-26T08:30:28Z</time>
      </trkpt>
      <trkpt lat="43.99832" lon="7.30918">
        <ele>683.1</ele>
        <time>2016-03-26T08:30:32Z</time>
      </trkpt>
      <trkpt lat="43.99832" lon="7.30918">
        <ele>683.1</ele>
        <time>2016-03-26T08:30:36Z</time>
      </trkpt>
      <trkpt lat="43.99832" lon="7.30918">
        <ele>683.1</ele>
        <time>2016-03-26T08:30:40Z</time>
      </trkpt>
      <trkpt lat="43.99832" lon="7.30918">
        <ele>683.1</ele>
        <time>2016-03-26T08:30:44Z</time>
      </trkpt>
      <trkpt lat="43.99832" lon="7.30918">
        <ele>683.1</ele>
        <time>2016-03-26T08:30:48Z</time>
      </trkpt>
      <trkpt lat="43.99831" lon="7.30927">
        <ele>680.1</ele>
        <time>2016-03-26T08:30:52Z</time>
      </trkpt>
      <trkpt lat="43.9983" lon="7.30934">
        <ele>678.2</ele>
        <time>2016-03-26T08:30:56Z</time>
      </trkpt>
      <trkpt lat="43.99827" lon="7.3094">
        <ele>676.4</ele>
        <time>2016-03-26T08:31:00Z</time>
      </trkpt>
      <trkpt lat="43.99826" lon="7.30947">
        <ele>674.1</ele>
        <time>2016-03-26T08:31:04Z</time>
      </trkpt>
      <trkpt lat="43.99826" lon="7.30956">
        <ele>671.4</ele>
        <time>2016-03-26T08:31:08Z</time>
      </trkpt>
      <trkpt lat="43.99827" lon="7.30967">
        <ele>666.8</ele>
        <time>2016-03-26T08:31:12Z</time>
      </trkpt>
      <trkpt lat="43.99824" lon="7.30978">
        <ele>662.2</ele>
        <time>2016-03-26T08:31:16Z</time>
      </trkpt>
      <trkpt lat="43.99821" lon="7.30984">
        <ele>659.8</ele>
        <time>2016-03-26T08:31:21Z</time>
      </trkpt>
      <trkpt lat="43.99818" lon="7.30984">
        <ele>660</ele>
        <time>2016-03-26T08:31:24Z</time>
      </trkpt>
      <trkpt lat="43.99812" lon="7.30983">
        <ele>660.7</ele>
        <time>2016-03-26T08:31:28Z</time>
      </trkpt>
      <trkpt lat="43.99805" lon="7.30984">
        <ele>660.8</ele>
        <time>2016-03-26T08:31:32Z</time>
      </trkpt>
      <trkpt lat="43.99795" lon="7.30986">
        <ele>660.9</ele>
        <time>2016-03-26T08:31:36Z</time>
      </trkpt>
      <trkpt lat="43.9979" lon="7.30987">
        <ele>660.7</ele>
        <time>2016-03-26T08:31:40Z</time>
      </trkpt>
      <trkpt lat="43.99789" lon="7.30991">
        <ele>658.7</ele>
        <time>2016-03-26T08:31:44Z</time>
      </trkpt>
      <trkpt lat="43.99789" lon="7.30991">
        <ele>658.7</ele>
        <time>2016-03-26T08:31:48Z</time>
      </trkpt>
      <trkpt lat="43.99796" lon="7.31004">
        <ele>653.1</ele>
        <time>2016-03-26T08:31:52Z</time>
      </trkpt>
      <trkpt lat="43.998" lon="7.31013">
        <ele>648.7</ele>
        <time>2016-03-26T08:31:56Z</time>
      </trkpt>
      <trkpt lat="43.99803" lon="7.31024">
        <ele>643.8</ele>
        <time>2016-03-26T08:32:00Z</time>
      </trkpt>
      <trkpt lat="43.998" lon="7.31033">
        <ele>640</ele>
        <time>2016-03-26T08:32:05Z</time>
      </trkpt>
      <trkpt lat="43.99797" lon="7.31041">
        <ele>636.9</ele>
        <time>2016-03-26T08:32:08Z</time>
      </trkpt>
      <trkpt lat="43.99796" lon="7.31044">
        <ele>635.4</ele>
        <time>2016-03-26T08:32:13Z</time>
      </trkpt>
      <trkpt lat="43.99794" lon="7.31044">
        <ele>635.5</ele>
        <time>2016-03-26T08:32:16Z</time>
      </trkpt>
      <trkpt lat="43.99791" lon="7.31045">
        <ele>635.3</ele>
        <time>2016-03-26T08:32:20Z</time>
      </trkpt>
      <trkpt lat="43.99789" lon="7.31048">
        <ele>633.9</ele>
        <time>2016-03-26T08:32:24Z</time>
      </trkpt>
      <trkpt lat="43.99788" lon="7.31053">
        <ele>631.6</ele>
        <time>2016-03-26T08:32:29Z</time>
      </trkpt>
      <trkpt lat="43.99784" lon="7.31056">
        <ele>629.8</ele>
        <time>2016-03-26T08:32:32Z</time>
      </trkpt>
      <trkpt lat="43.99779" lon="7.31054">
        <ele>630.5</ele>
        <time>2016-03-26T08:32:36Z</time>
      </trkpt>
      <trkpt lat="43.99771" lon="7.31052">
        <ele>631.7</ele>
        <time>2016-03-26T08:32:40Z</time>
      </trkpt>
      <trkpt lat="43.99765" lon="7.31047">
        <ele>633.7</ele>
        <time>2016-03-26T08:32:44Z</time>
      </trkpt>
      <trkpt lat="43.99758" lon="7.31047">
        <ele>633.5</ele>
        <time>2016-03-26T08:32:48Z</time>
      </trkpt>
      <trkpt lat="43.99754" lon="7.31051">
        <ele>631.3</ele>
        <time>2016-03-26T08:32:52Z</time>
      </trkpt>
      <trkpt lat="43.99752" lon="7.31059">
        <ele>628.1</ele>
        <time>2016-03-26T08:32:56Z</time>
      </trkpt>
      <trkpt lat="43.9975" lon="7.31067">
        <ele>624.3</ele>
        <time>2016-03-26T08:33:00Z</time>
      </trkpt>
      <trkpt lat="43.9975" lon="7.31067">
        <ele>624.3</ele>
        <time>2016-03-26T08:33:04Z</time>
      </trkpt>
      <trkpt lat="43.9975" lon="7.31067">
        <ele>624.3</ele>
        <time>2016-03-26T08:33:08Z</time>
      </trkpt>
      <trkpt lat="43.9975" lon="7.31067">
        <ele>624.3</ele>
        <time>2016-03-26T08:33:12Z</time>
      </trkpt>
      <trkpt lat="43.9975" lon="7.31067">
        <ele>624.3</ele>
        <time>2016-03-26T08:33:16Z</time>
      </trkpt>
      <trkpt lat="43.9975" lon="7.31067">
        <ele>624.3</ele>
        <time>2016-03-26T08:33:20Z</time>
      </trkpt>
      <trkpt lat="43.9975" lon="7.31067">
        <ele>624.3</ele>
        <time>2016-03-26T08:33:24Z</time>
      </trkpt>
      <trkpt lat="43.9975" lon="7.31067">
        <ele>624.3</ele>
        <time>2016-03-26T08:33:28Z</time>
      </trkpt>
      <trkpt lat="43.9975" lon="7.31067">
        <ele>624.3</ele>
        <time>2016-03-26T08:33:32Z</time>
      </trkpt>
      <trkpt lat="43.9975" lon="7.31067">
        <ele>624.3</ele>
        <time>2016-03-26T08:33:36Z</time>
      </trkpt>
      <trkpt lat="43.9975" lon="7.31067">
        <ele>624.3</ele>
        <time>2016-03-26T08:33:40Z</time>
      </trkpt>
      <trkpt lat="43.9975" lon="7.31067">
        <ele>624.3</ele>
        <time>2016-03-26T08:33:44Z</time>
      </trkpt>
      <trkpt lat="43.9975" lon="7.31067">
        <ele>624.3</ele>
        <time>2016-03-26T08:33:48Z</time>
      </trkpt>
      <trkpt lat="43.9975" lon="7.31067">
        <ele>624.3</ele>
        <time>2016-03-26T08:33:52Z</time>
      </trkpt>
      <trkpt lat="43.9975" lon="7.31067">
        <ele>624.3</ele>
        <time>2016-03-26T08:33:56Z</time>
      </trkpt>
      <trkpt lat="43.9975" lon="7.31067">
        <ele>624.3</ele>
        <time>2016-03-26T08:34:00Z</time>
      </trkpt>
      <trkpt lat="43.9975" lon="7.31067">
        <ele>624.3</ele>
        <time>2016-03-26T08:34:04Z</time>
      </trkpt>
      <trkpt lat="43.9975" lon="7.31067">
        <ele>624.3</ele>
        <time>2016-03-26T08:34:08Z</time>
      </trkpt>
      <trkpt lat="43.9975" lon="7.31067">
        <ele>624.3</ele>
        <time>2016-03-26T08:34:12Z</time>
      </trkpt>
      <trkpt lat="43.9975" lon="7.31067">
        <ele>624.3</ele>
        <time>2016-03-26T08:34:16Z</time>
      </trkpt>
      <trkpt lat="43.9975" lon="7.31067">
        <ele>624.3</ele>
        <time>2016-03-26T08:34:20Z</time>
      </trkpt>
      <trkpt lat="43.9975" lon="7.31067">
        <ele>624.3</ele>
        <time>2016-03-26T08:34:24Z</time>
      </trkpt>
      <trkpt lat="43.9975" lon="7.31067">
        <ele>624.3</ele>
        <time>2016-03-26T08:34:28Z</time>
      </trkpt>
      <trkpt lat="43.9975" lon="7.31067">
        <ele>624.3</ele>
        <time>2016-03-26T08:34:32Z</time>
      </trkpt>
      <trkpt lat="43.9975" lon="7.31067">
        <ele>624.3</ele>
        <time>2016-03-26T08:34:36Z</time>
      </trkpt>
      <trkpt lat="43.9975" lon="7.31067">
        <ele>624.3</ele>
        <time>2016-03-26T08:34:40Z</time>
      </trkpt>
      <trkpt lat="43.9975" lon="7.31067">
        <ele>624.3</ele>
        <time>2016-03-26T08:34:44Z</time>
      </trkpt>
      <trkpt lat="43.9975" lon="7.31067">
        <ele>624.3</ele>
        <time>2016-03-26T08:34:48Z</time>
      </trkpt>
      <trkpt lat="43.9975" lon="7.31067">
        <ele>624.3</ele>
        <time>2016-03-26T08:34:52Z</time>
      </trkpt>
      <trkpt lat="43.9975" lon="7.31067">
        <ele>624.3</ele>
        <time>2016-03-26T08:34:56Z</time>
      </trkpt>
      <trkpt lat="43.9975" lon="7.31067">
        <ele>624.3</ele>
        <time>2016-03-26T08:35:01Z</time>
      </trkpt>
      <trkpt lat="43.9975" lon="7.31067">
        <ele>624.3</ele>
        <time>2016-03-26T08:35:04Z</time>
      </trkpt>
      <trkpt lat="43.9975" lon="7.31067">
        <ele>624.3</ele>
        <time>2016-03-26T08:35:09Z</time>
      </trkpt>
      <trkpt lat="43.9975" lon="7.31067">
        <ele>624.3</ele>
        <time>2016-03-26T08:35:12Z</time>
      </trkpt>
      <trkpt lat="43.9975" lon="7.31067">
        <ele>624.3</ele>
        <time>2016-03-26T08:35:16Z</time>
      </trkpt>
      <trkpt lat="43.9975" lon="7.31067">
        <ele>624.3</ele>
        <time>2016-03-26T08:35:21Z</time>
      </trkpt>
      <trkpt lat="43.9975" lon="7.31067">
        <ele>624.3</ele>
        <time>2016-03-26T08:35:25Z</time>
      </trkpt>
      <trkpt lat="43.9975" lon="7.31067">
        <ele>624.3</ele>
        <time>2016-03-26T08:35:28Z</time>
      </trkpt>
      <trkpt lat="43.9975" lon="7.31067">
        <ele>624.3</ele>
        <time>2016-03-26T08:35:32Z</time>
      </trkpt>
      <trkpt lat="43.9975" lon="7.31067">
        <ele>624.3</ele>
        <time>2016-03-26T08:35:37Z</time>
      </trkpt>
      <trkpt lat="43.9975" lon="7.31067">
        <ele>624.3</ele>
        <time>2016-03-26T08:35:40Z</time>
      </trkpt>
      <trkpt lat="43.9975" lon="7.31067">
        <ele>624.3</ele>
        <time>2016-03-26T08:35:44Z</time>
      </trkpt>
      <trkpt lat="43.9975" lon="7.31067">
        <ele>624.3</ele>
        <time>2016-03-26T08:35:48Z</time>
      </trkpt>
      <trkpt lat="43.9975" lon="7.31067">
        <ele>624.3</ele>
        <time>2016-03-26T08:35:52Z</time>
      </trkpt>
      <trkpt lat="43.9975" lon="7.31067">
        <ele>624.3</ele>
        <time>2016-03-26T08:35:56Z</time>
      </trkpt>
      <trkpt lat="43.9975" lon="7.31067">
        <ele>624.3</ele>
        <time>2016-03-26T08:36:00Z</time>
      </trkpt>
      <trkpt lat="43.9975" lon="7.31067">
        <ele>624.3</ele>
        <time>2016-03-26T08:36:04Z</time>
      </trkpt>
      <trkpt lat="43.9975" lon="7.31067">
        <ele>624.3</ele>
        <time>2016-03-26T08:36:08Z</time>
      </trkpt>
      <trkpt lat="43.9975" lon="7.31067">
        <ele>624.3</ele>
        <time>2016-03-26T08:36:12Z</time>
      </trkpt>
      <trkpt lat="43.9975" lon="7.31067">
        <ele>624.3</ele>
        <time>2016-03-26T08:36:17Z</time>
      </trkpt>
      <trkpt lat="43.9975" lon="7.31067">
        <ele>624.3</ele>
        <time>2016-03-26T08:36:20Z</time>
      </trkpt>
      <trkpt lat="43.99757" lon="7.3106">
        <ele>627.5</ele>
        <time>2016-03-26T08:36:24Z</time>
      </trkpt>
      <trkpt lat="43.99764" lon="7.31059">
        <ele>628.1</ele>
        <time>2016-03-26T08:36:28Z</time>
      </trkpt>
      <trkpt lat="43.99767" lon="7.3106">
        <ele>627.8</ele>
        <time>2016-03-26T08:36:32Z</time>
      </trkpt>
      <trkpt lat="43.9977" lon="7.3106">
        <ele>627.5</ele>
        <time>2016-03-26T08:36:36Z</time>
      </trkpt>
      <trkpt lat="43.99773" lon="7.31061">
        <ele>627.2</ele>
        <time>2016-03-26T08:36:40Z</time>
      </trkpt>
      <trkpt lat="43.99777" lon="7.31062">
        <ele>626.9</ele>
        <time>2016-03-26T08:36:44Z</time>
      </trkpt>
      <trkpt lat="43.9978" lon="7.31063">
        <ele>626.6</ele>
        <time>2016-03-26T08:36:48Z</time>
      </trkpt>
      <trkpt lat="43.99783" lon="7.31063">
        <ele>626.3</ele>
        <time>2016-03-26T08:36:52Z</time>
      </trkpt>
      <trkpt lat="43.99786" lon="7.31064">
        <ele>626</ele>
        <time>2016-03-26T08:36:56Z</time>
      </trkpt>
      <trkpt lat="43.99789" lon="7.31065">
        <ele>625.6</ele>
        <time>2016-03-26T08:37:00Z</time>
      </trkpt>
      <trkpt lat="43.99792" lon="7.31066">
        <ele>625.2</ele>
        <time>2016-03-26T08:37:01Z</time>
      </trkpt>
      <trkpt lat="43.99792" lon="7.31066">
        <ele>625.2</ele>
        <time>2016-03-26T08:37:04Z</time>
      </trkpt>
      <trkpt lat="43.99796" lon="7.3107">
        <ele>622.8</ele>
        <time>2016-03-26T08:37:08Z</time>
      </trkpt>
      <trkpt lat="43.99801" lon="7.31069">
        <ele>622.7</ele>
        <time>2016-03-26T08:37:12Z</time>
      </trkpt>
      <trkpt lat="43.99805" lon="7.31067">
        <ele>622.9</ele>
        <time>2016-03-26T08:37:16Z</time>
      </trkpt>
      <trkpt lat="43.99807" lon="7.31065">
        <ele>624</ele>
        <time>2016-03-26T08:37:20Z</time>
      </trkpt>
      <trkpt lat="43.9981" lon="7.31066">
        <ele>622.9</ele>
        <time>2016-03-26T08:37:24Z</time>
      </trkpt>
      <trkpt lat="43.9981" lon="7.31066">
        <ele>622.9</ele>
        <time>2016-03-26T08:37:28Z</time>
      </trkpt>
      <trkpt lat="43.9981" lon="7.31066">
        <ele>622.9</ele>
        <time>2016-03-26T08:37:32Z</time>
      </trkpt>
      <trkpt lat="43.9981" lon="7.31066">
        <ele>622.9</ele>
        <time>2016-03-26T08:37:36Z</time>
      </trkpt>
      <trkpt lat="43.9981" lon="7.31066">
        <ele>622.9</ele>
        <time>2016-03-26T08:37:40Z</time>
      </trkpt>
      <trkpt lat="43.9981" lon="7.31066">
        <ele>622.9</ele>
        <time>2016-03-26T08:37:44Z</time>
      </trkpt>
      <trkpt lat="43.9981" lon="7.31066">
        <ele>622.9</ele>
        <time>2016-03-26T08:37:48Z</time>
      </trkpt>
      <trkpt lat="43.9981" lon="7.31066">
        <ele>622.9</ele>
        <time>2016-03-26T08:37:52Z</time>
      </trkpt>
      <trkpt lat="43.9981" lon="7.31066">
        <ele>622.9</ele>
        <time>2016-03-26T08:37:56Z</time>
      </trkpt>
      <trkpt lat="43.9981" lon="7.31066">
        <ele>622.9</ele>
        <time>2016-03-26T08:38:00Z</time>
      </trkpt>
      <trkpt lat="43.9981" lon="7.31066">
        <ele>622.9</ele>
        <time>2016-03-26T08:38:04Z</time>
      </trkpt>
      <trkpt lat="43.9981" lon="7.31066">
        <ele>622.9</ele>
        <time>2016-03-26T08:38:08Z</time>
      </trkpt>
      <trkpt lat="43.9981" lon="7.31066">
        <ele>622.9</ele>
        <time>2016-03-26T08:38:12Z</time>
      </trkpt>
      <trkpt lat="43.9981" lon="7.31066">
        <ele>622.9</ele>
        <time>2016-03-26T08:38:16Z</time>
      </trkpt>
      <trkpt lat="43.9981" lon="7.31066">
        <ele>622.9</ele>
        <time>2016-03-26T08:38:20Z</time>
      </trkpt>
      <trkpt lat="43.9981" lon="7.31066">
        <ele>622.9</ele>
        <time>2016-03-26T08:38:24Z</time>
      </trkpt>
      <trkpt lat="43.9981" lon="7.31066">
        <ele>622.9</ele>
        <time>2016-03-26T08:38:28Z</time>
      </trkpt>
      <trkpt lat="43.9981" lon="7.31066">
        <ele>622.9</ele>
        <time>2016-03-26T08:38:32Z</time>
      </trkpt>
      <trkpt lat="43.9981" lon="7.31066">
        <ele>622.9</ele>
        <time>2016-03-26T08:38:36Z</time>
      </trkpt>
      <trkpt lat="43.9981" lon="7.31066">
        <ele>622.9</ele>
        <time>2016-03-26T08:38:40Z</time>
      </trkpt>
      <trkpt lat="43.9981" lon="7.31066">
        <ele>622.9</ele>
        <time>2016-03-26T08:38:44Z</time>
      </trkpt>
      <trkpt lat="43.9981" lon="7.31066">
        <ele>622.9</ele>
        <time>2016-03-26T08:38:48Z</time>
      </trkpt>
      <trkpt lat="43.9981" lon="7.31066">
        <ele>622.9</ele>
        <time>2016-03-26T08:38:52Z</time>
      </trkpt>
      <trkpt lat="43.99809" lon="7.31038">
        <ele>637</ele>
        <time>2016-03-26T08:38:56Z</time>
      </trkpt>
      <trkpt lat="43.99807" lon="7.31034">
        <ele>639.2</ele>
        <time>2016-03-26T08:39:00Z</time>
      </trkpt>
      <trkpt lat="43.99805" lon="7.31028">
        <ele>641.7</ele>
        <time>2016-03-26T08:39:04Z</time>
      </trkpt>
      <trkpt lat="43.99803" lon="7.31024">
        <ele>643.8</ele>
        <time>2016-03-26T08:39:08Z</time>
      </trkpt>
      <trkpt lat="43.99801" lon="7.3102">
        <ele>645.6</ele>
        <time>2016-03-26T08:39:12Z</time>
      </trkpt>
      <trkpt lat="43.99799" lon="7.31016">
        <ele>647.3</ele>
        <time>2016-03-26T08:39:16Z</time>
      </trkpt>
      <trkpt lat="43.99797" lon="7.31012">
        <ele>649.2</ele>
        <time>2016-03-26T08:39:20Z</time>
      </trkpt>
      <trkpt lat="43.99793" lon="7.31008">
        <ele>651.5</ele>
        <time>2016-03-26T08:39:24Z</time>
      </trkpt>
      <trkpt lat="43.99788" lon="7.31004">
        <ele>653.1</ele>
        <time>2016-03-26T08:39:28Z</time>
      </trkpt>
      <trkpt lat="43.99784" lon="7.31002">
        <ele>654.1</ele>
        <time>2016-03-26T08:39:32Z</time>
      </trkpt>
      <trkpt lat="43.99782" lon="7.30999">
        <ele>655.3</ele>
        <time>2016-03-26T08:39:37Z</time>
      </trkpt>
      <trkpt lat="43.9978" lon="7.30997">
        <ele>656.2</ele>
        <time>2016-03-26T08:39:40Z</time>
      </trkpt>
      <trkpt lat="43.9978" lon="7.30997">
        <ele>656.2</ele>
        <time>2016-03-26T08:39:44Z</time>
      </trkpt>
      <trkpt lat="43.9978" lon="7.30997">
        <ele>656.2</ele>
        <time>2016-03-26T08:39:48Z</time>
      </trkpt>
      <trkpt lat="43.9978" lon="7.30997">
        <ele>656.2</ele>
        <time>2016-03-26T08:39:52Z</time>
      </trkpt>
      <trkpt lat="43.9978" lon="7.30997">
        <ele>656.2</ele>
        <time>2016-03-26T08:39:56Z</time>
      </trkpt>
      <trkpt lat="43.9978" lon="7.30997">
        <ele>656.2</ele>
        <time>2016-03-26T08:40:00Z</time>
      </trkpt>
      <trkpt lat="43.9978" lon="7.30997">
        <ele>656.2</ele>
        <time>2016-03-26T08:40:04Z</time>
      </trkpt>
      <trkpt lat="43.9978" lon="7.30997">
        <ele>656.2</ele>
        <time>2016-03-26T08:40:08Z</time>
      </trkpt>
      <trkpt lat="43.9978" lon="7.30997">
        <ele>656.2</ele>
        <time>2016-03-26T08:40:12Z</time>
      </trkpt>
      <trkpt lat="43.9978" lon="7.30997">
        <ele>656.2</ele>
        <time>2016-03-26T08:40:16Z</time>
      </trkpt>
      <trkpt lat="43.9978" lon="7.30997">
        <ele>656.2</ele>
        <time>2016-03-26T08:40:20Z</time>
      </trkpt>
      <trkpt lat="43.99812" lon="7.30987">
        <ele>659.2</ele>
        <time>2016-03-26T08:40:24Z</time>
      </trkpt>
      <trkpt lat="43.99817" lon="7.30983">
        <ele>660.6</ele>
        <time>2016-03-26T08:40:28Z</time>
      </trkpt>
      <trkpt lat="43.99819" lon="7.30979">
        <ele>662.1</ele>
        <time>2016-03-26T08:40:32Z</time>
      </trkpt>
      <trkpt lat="43.99821" lon="7.30975">
        <ele>663.4</ele>
        <time>2016-03-26T08:40:36Z</time>
      </trkpt>
      <trkpt lat="43.99823" lon="7.30972">
        <ele>664.9</ele>
        <time>2016-03-26T08:40:40Z</time>
      </trkpt>
      <trkpt lat="43.99823" lon="7.30972">
        <ele>664.9</ele>
        <time>2016-03-26T08:40:44Z</time>
      </trkpt>
      <trkpt lat="43.99823" lon="7.30972">
        <ele>664.9</ele>
        <time>2016-03-26T08:40:48Z</time>
      </trkpt>
      <trkpt lat="43.99823" lon="7.30972">
        <ele>664.9</ele>
        <time>2016-03-26T08:40:52Z</time>
      </trkpt>
      <trkpt lat="43.99823" lon="7.30972">
        <ele>664.9</ele>
        <time>2016-03-26T08:40:56Z</time>
      </trkpt>
      <trkpt lat="43.99823" lon="7.30972">
        <ele>664.9</ele>
        <time>2016-03-26T08:41:00Z</time>
      </trkpt>
      <trkpt lat="43.99823" lon="7.30972">
        <ele>664.9</ele>
        <time>2016-03-26T08:41:04Z</time>
      </trkpt>
      <trkpt lat="43.99823" lon="7.30972">
        <ele>664.9</ele>
        <time>2016-03-26T08:41:08Z</time>
      </trkpt>
      <trkpt lat="43.99825" lon="7.30939">
        <ele>676.9</ele>
        <time>2016-03-26T08:41:12Z</time>
      </trkpt>
      <trkpt lat="43.99826" lon="7.30934">
        <ele>678.4</ele>
        <time>2016-03-26T08:41:16Z</time>
      </trkpt>
      <trkpt lat="43.99826" lon="7.30934">
        <ele>678.4</ele>
        <time>2016-03-26T08:41:20Z</time>
      </trkpt>
      <trkpt lat="43.99826" lon="7.30934">
        <ele>678.4</ele>
        <time>2016-03-26T08:41:24Z</time>
      </trkpt>
      <trkpt lat="43.99826" lon="7.30934">
        <ele>678.4</ele>
        <time>2016-03-26T08:41:28Z</time>
      </trkpt>
      <trkpt lat="43.99826" lon="7.30934">
        <ele>678.4</ele>
        <time>2016-03-26T08:41:33Z</time>
      </trkpt>
      <trkpt lat="43.99826" lon="7.30934">
        <ele>678.4</ele>
        <time>2016-03-26T08:41:36Z</time>
      </trkpt>
      <trkpt lat="43.99826" lon="7.30934">
        <ele>678.4</ele>
        <time>2016-03-26T08:41:40Z</time>
      </trkpt>
      <trkpt lat="43.99818" lon="7.30921">
        <ele>683.3</ele>
        <time>2016-03-26T08:41:44Z</time>
      </trkpt>
      <trkpt lat="43.99809" lon="7.30919">
        <ele>684.6</ele>
        <time>2016-03-26T08:41:48Z</time>
      </trkpt>
      <trkpt lat="43.998" lon="7.30918">
        <ele>685.9</ele>
        <time>2016-03-26T08:41:52Z</time>
      </trkpt>
      <trkpt lat="43.99791" lon="7.30916">
        <ele>687.2</ele>
        <time>2016-03-26T08:41:56Z</time>
      </trkpt>
      <trkpt lat="43.99784" lon="7.30914">
        <ele>688.1</ele>
        <time>2016-03-26T08:42:00Z</time>
      </trkpt>
      <trkpt lat="43.99776" lon="7.30912">
        <ele>688.8</ele>
        <time>2016-03-26T08:42:04Z</time>
      </trkpt>
      <trkpt lat="43.99768" lon="7.3091">
        <ele>689.6</ele>
        <time>2016-03-26T08:42:08Z</time>
      </trkpt>
      <trkpt lat="43.9976" lon="7.30906">
        <ele>690.8</ele>
        <time>2016-03-26T08:42:12Z</time>
      </trkpt>
      <trkpt lat="43.99754" lon="7.30903">
        <ele>692</ele>
        <time>2016-03-26T08:42:16Z</time>
      </trkpt>
      <trkpt lat="43.99747" lon="7.30902">
        <ele>692.6</ele>
        <time>2016-03-26T08:42:20Z</time>
      </trkpt>
      <trkpt lat="43.99741" lon="7.30901">
        <ele>693.1</ele>
        <time>2016-03-26T08:42:24Z</time>
      </trkpt>
      <trkpt lat="43.99732" lon="7.30901">
        <ele>692.9</ele>
        <time>2016-03-26T08:42:28Z</time>
      </trkpt>
      <trkpt lat="43.99723" lon="7.30905">
        <ele>691.9</ele>
        <time>2016-03-26T08:42:32Z</time>
      </trkpt>
      <trkpt lat="43.99713" lon="7.30907">
        <ele>691.2</ele>
        <time>2016-03-26T08:42:36Z</time>
      </trkpt>
      <trkpt lat="43.99704" lon="7.30907">
        <ele>690.6</ele>
        <time>2016-03-26T08:42:40Z</time>
      </trkpt>
      <trkpt lat="43.99696" lon="7.30909">
        <ele>689.1</ele>
        <time>2016-03-26T08:42:44Z</time>
      </trkpt>
      <trkpt lat="43.99687" lon="7.30909">
        <ele>688.1</ele>
        <time>2016-03-26T08:42:48Z</time>
      </trkpt>
      <trkpt lat="43.99677" lon="7.30907">
        <ele>687.6</ele>
        <time>2016-03-26T08:42:52Z</time>
      </trkpt>
      <trkpt lat="43.99668" lon="7.30908">
        <ele>686.4</ele>
        <time>2016-03-26T08:42:57Z</time>
      </trkpt>
      <trkpt lat="43.99659" lon="7.3091">
        <ele>684.6</ele>
        <time>2016-03-26T08:43:00Z</time>
      </trkpt>
      <trkpt lat="43.99649" lon="7.30909">
        <ele>683.9</ele>
        <time>2016-03-26T08:43:04Z</time>
      </trkpt>
      <trkpt lat="43.99639" lon="7.30908">
        <ele>682.9</ele>
        <time>2016-03-26T08:43:08Z</time>
      </trkpt>
      <trkpt lat="43.99629" lon="7.30909">
        <ele>681.7</ele>
        <time>2016-03-26T08:43:12Z</time>
      </trkpt>
      <trkpt lat="43.9962" lon="7.30907">
        <ele>684.7</ele>
        <time>2016-03-26T08:43:16Z</time>
      </trkpt>
      <trkpt lat="43.99611" lon="7.30904">
        <ele>690</ele>
        <time>2016-03-26T08:43:20Z</time>
      </trkpt>
      <trkpt lat="43.99603" lon="7.30899">
        <ele>695.3</ele>
        <time>2016-03-26T08:43:24Z</time>
      </trkpt>
      <trkpt lat="43.99598" lon="7.30891">
        <ele>699.4</ele>
        <time>2016-03-26T08:43:28Z</time>
      </trkpt>
      <trkpt lat="43.9959" lon="7.30884">
        <ele>704.5</ele>
        <time>2016-03-26T08:43:32Z</time>
      </trkpt>
      <trkpt lat="43.99587" lon="7.30886">
        <ele>705.7</ele>
        <time>2016-03-26T08:43:36Z</time>
      </trkpt>
      <trkpt lat="43.99587" lon="7.30886">
        <ele>705.6</ele>
        <time>2016-03-26T08:43:40Z</time>
      </trkpt>
      <trkpt lat="43.99583" lon="7.30889">
        <ele>707.5</ele>
        <time>2016-03-26T08:43:44Z</time>
      </trkpt>
      <trkpt lat="43.99579" lon="7.30895">
        <ele>708.5</ele>
        <time>2016-03-26T08:43:48Z</time>
      </trkpt>
      <trkpt lat="43.99577" lon="7.30904">
        <ele>708.5</ele>
        <time>2016-03-26T08:43:52Z</time>
      </trkpt>
      <trkpt lat="43.99578" lon="7.30912">
        <ele>706.2</ele>
        <time>2016-03-26T08:43:56Z</time>
      </trkpt>
      <trkpt lat="43.99576" lon="7.30918">
        <ele>706.7</ele>
        <time>2016-03-26T08:44:00Z</time>
      </trkpt>
      <trkpt lat="43.99573" lon="7.30923">
        <ele>707.5</ele>
        <time>2016-03-26T08:44:04Z</time>
      </trkpt>
      <trkpt lat="43.99572" lon="7.30926">
        <ele>708</ele>
        <time>2016-03-26T08:44:08Z</time>
      </trkpt>
      <trkpt lat="43.99572" lon="7.30929">
        <ele>707.4</ele>
        <time>2016-03-26T08:44:12Z</time>
      </trkpt>
      <trkpt lat="43.99571" lon="7.30935">
        <ele>707</ele>
        <time>2016-03-26T08:44:16Z</time>
      </trkpt>
      <trkpt lat="43.9957" lon="7.30944">
        <ele>706.2</ele>
        <time>2016-03-26T08:44:20Z</time>
      </trkpt>
      <trkpt lat="43.99571" lon="7.30954">
        <ele>704.2</ele>
        <time>2016-03-26T08:44:24Z</time>
      </trkpt>
      <trkpt lat="43.99575" lon="7.30964">
        <ele>700.7</ele>
        <time>2016-03-26T08:44:28Z</time>
      </trkpt>
      <trkpt lat="43.9958" lon="7.30975">
        <ele>697.1</ele>
        <time>2016-03-26T08:44:32Z</time>
      </trkpt>
      <trkpt lat="43.99579" lon="7.30986">
        <ele>697</ele>
        <time>2016-03-26T08:44:36Z</time>
      </trkpt>
      <trkpt lat="43.99575" lon="7.30993">
        <ele>699.2</ele>
        <time>2016-03-26T08:44:40Z</time>
      </trkpt>
      <trkpt lat="43.99577" lon="7.31001">
        <ele>698</ele>
        <time>2016-03-26T08:44:44Z</time>
      </trkpt>
      <trkpt lat="43.99576" lon="7.3101">
        <ele>697.6</ele>
        <time>2016-03-26T08:44:48Z</time>
      </trkpt>
      <trkpt lat="43.99575" lon="7.31019">
        <ele>698.1</ele>
        <time>2016-03-26T08:44:52Z</time>
      </trkpt>
      <trkpt lat="43.99574" lon="7.31028">
        <ele>698.4</ele>
        <time>2016-03-26T08:44:56Z</time>
      </trkpt>
      <trkpt lat="43.99571" lon="7.31037">
        <ele>699.8</ele>
        <time>2016-03-26T08:45:00Z</time>
      </trkpt>
      <trkpt lat="43.9957" lon="7.3105">
        <ele>698.4</ele>
        <time>2016-03-26T08:45:04Z</time>
      </trkpt>
      <trkpt lat="43.99572" lon="7.31064">
        <ele>695.5</ele>
        <time>2016-03-26T08:45:08Z</time>
      </trkpt>
      <trkpt lat="43.99573" lon="7.31073">
        <ele>693.7</ele>
        <time>2016-03-26T08:45:12Z</time>
      </trkpt>
      <trkpt lat="43.99572" lon="7.31083">
        <ele>692.6</ele>
        <time>2016-03-26T08:45:17Z</time>
      </trkpt>
      <trkpt lat="43.99568" lon="7.31097">
        <ele>692.9</ele>
        <time>2016-03-26T08:45:20Z</time>
      </trkpt>
      <trkpt lat="43.99563" lon="7.31108">
        <ele>693.9</ele>
        <time>2016-03-26T08:45:24Z</time>
      </trkpt>
      <trkpt lat="43.9956" lon="7.31118">
        <ele>694.3</ele>
        <time>2016-03-26T08:45:28Z</time>
      </trkpt>
      <trkpt lat="43.99556" lon="7.31126">
        <ele>695.2</ele>
        <time>2016-03-26T08:45:32Z</time>
      </trkpt>
      <trkpt lat="43.99553" lon="7.31136">
        <ele>694.8</ele>
        <time>2016-03-26T08:45:36Z</time>
      </trkpt>
      <trkpt lat="43.99548" lon="7.31146">
        <ele>695.1</ele>
        <time>2016-03-26T08:45:40Z</time>
      </trkpt>
      <trkpt lat="43.99542" lon="7.31152">
        <ele>696.9</ele>
        <time>2016-03-26T08:45:44Z</time>
      </trkpt>
      <trkpt lat="43.99536" lon="7.3116">
        <ele>697.4</ele>
        <time>2016-03-26T08:45:48Z</time>
      </trkpt>
      <trkpt lat="43.99532" lon="7.31166">
        <ele>697.3</ele>
        <time>2016-03-26T08:45:52Z</time>
      </trkpt>
      <trkpt lat="43.99528" lon="7.31173">
        <ele>696.9</ele>
        <time>2016-03-26T08:45:56Z</time>
      </trkpt>
      <trkpt lat="43.99521" lon="7.31177">
        <ele>698.3</ele>
        <time>2016-03-26T08:46:00Z</time>
      </trkpt>
      <trkpt lat="43.99512" lon="7.31179">
        <ele>700.9</ele>
        <time>2016-03-26T08:46:04Z</time>
      </trkpt>
      <trkpt lat="43.99503" lon="7.31183">
        <ele>703.3</ele>
        <time>2016-03-26T08:46:08Z</time>
      </trkpt>
      <trkpt lat="43.99493" lon="7.31189">
        <ele>705.2</ele>
        <time>2016-03-26T08:46:12Z</time>
      </trkpt>
      <trkpt lat="43.99485" lon="7.31193">
        <ele>706.9</ele>
        <time>2016-03-26T08:46:16Z</time>
      </trkpt>
      <trkpt lat="43.9948" lon="7.31197">
        <ele>707.6</ele>
        <time>2016-03-26T08:46:20Z</time>
      </trkpt>
      <trkpt lat="43.99475" lon="7.31201">
        <ele>708</ele>
        <time>2016-03-26T08:46:24Z</time>
      </trkpt>
      <trkpt lat="43.9947" lon="7.31205">
        <ele>708.9</ele>
        <time>2016-03-26T08:46:28Z</time>
      </trkpt>
      <trkpt lat="43.99467" lon="7.31208">
        <ele>709.3</ele>
        <time>2016-03-26T08:46:32Z</time>
      </trkpt>
      <trkpt lat="43.99463" lon="7.31212">
        <ele>709</ele>
        <time>2016-03-26T08:46:36Z</time>
      </trkpt>
      <trkpt lat="43.99459" lon="7.31218">
        <ele>708.5</ele>
        <time>2016-03-26T08:46:40Z</time>
      </trkpt>
      <trkpt lat="43.99454" lon="7.31222">
        <ele>707.9</ele>
        <time>2016-03-26T08:46:44Z</time>
      </trkpt>
      <trkpt lat="43.99446" lon="7.31224">
        <ele>708.7</ele>
        <time>2016-03-26T08:46:48Z</time>
      </trkpt>
      <trkpt lat="43.99438" lon="7.31225">
        <ele>710</ele>
        <time>2016-03-26T08:46:53Z</time>
      </trkpt>
      <trkpt lat="43.9943" lon="7.31229">
        <ele>710</ele>
        <time>2016-03-26T08:46:56Z</time>
      </trkpt>
      <trkpt lat="43.99422" lon="7.31233">
        <ele>710</ele>
        <time>2016-03-26T08:47:00Z</time>
      </trkpt>
      <trkpt lat="43.99414" lon="7.31237">
        <ele>709.8</ele>
        <time>2016-03-26T08:47:04Z</time>
      </trkpt>
      <trkpt lat="43.99408" lon="7.31242">
        <ele>708.9</ele>
        <time>2016-03-26T08:47:08Z</time>
      </trkpt>
      <trkpt lat="43.99403" lon="7.31242">
        <ele>709.5</ele>
        <time>2016-03-26T08:47:12Z</time>
      </trkpt>
      <trkpt lat="43.99397" lon="7.31244">
        <ele>709.6</ele>
        <time>2016-03-26T08:47:16Z</time>
      </trkpt>
      <trkpt lat="43.9939" lon="7.31247">
        <ele>709.6</ele>
        <time>2016-03-26T08:47:20Z</time>
      </trkpt>
      <trkpt lat="43.99383" lon="7.31249">
        <ele>710.1</ele>
        <time>2016-03-26T08:47:24Z</time>
      </trkpt>
      <trkpt lat="43.99376" lon="7.31249">
        <ele>711.3</ele>
        <time>2016-03-26T08:47:28Z</time>
      </trkpt>
      <trkpt lat="43.99368" lon="7.31249">
        <ele>711.8</ele>
        <time>2016-03-26T08:47:33Z</time>
      </trkpt>
      <trkpt lat="43.99362" lon="7.3125">
        <ele>711.4</ele>
        <time>2016-03-26T08:47:36Z</time>
      </trkpt>
      <trkpt lat="43.99357" lon="7.31254">
        <ele>710.2</ele>
        <time>2016-03-26T08:47:41Z</time>
      </trkpt>
      <trkpt lat="43.99349" lon="7.31257">
        <ele>709.4</ele>
        <time>2016-03-26T08:47:44Z</time>
      </trkpt>
      <trkpt lat="43.99341" lon="7.31261">
        <ele>708</ele>
        <time>2016-03-26T08:47:48Z</time>
      </trkpt>
      <trkpt lat="43.99331" lon="7.3126">
        <ele>709</ele>
        <time>2016-03-26T08:47:53Z</time>
      </trkpt>
      <trkpt lat="43.99322" lon="7.3126">
        <ele>709.6</ele>
        <time>2016-03-26T08:47:56Z</time>
      </trkpt>
      <trkpt lat="43.99315" lon="7.3126">
        <ele>709.6</ele>
        <time>2016-03-26T08:48:00Z</time>
      </trkpt>
      <trkpt lat="43.99308" lon="7.31259">
        <ele>710.3</ele>
        <time>2016-03-26T08:48:04Z</time>
      </trkpt>
      <trkpt lat="43.993" lon="7.31259">
        <ele>711.1</ele>
        <time>2016-03-26T08:48:08Z</time>
      </trkpt>
      <trkpt lat="43.99291" lon="7.31257">
        <ele>712.1</ele>
        <time>2016-03-26T08:48:12Z</time>
      </trkpt>
      <trkpt lat="43.99283" lon="7.31255">
        <ele>712.9</ele>
        <time>2016-03-26T08:48:16Z</time>
      </trkpt>
      <trkpt lat="43.99276" lon="7.31256">
        <ele>712.5</ele>
        <time>2016-03-26T08:48:20Z</time>
      </trkpt>
      <trkpt lat="43.99268" lon="7.31255">
        <ele>712.6</ele>
        <time>2016-03-26T08:48:25Z</time>
      </trkpt>
      <trkpt lat="43.99263" lon="7.31256">
        <ele>712</ele>
        <time>2016-03-26T08:48:28Z</time>
      </trkpt>
      <trkpt lat="43.99258" lon="7.31259">
        <ele>711</ele>
        <time>2016-03-26T08:48:32Z</time>
      </trkpt>
      <trkpt lat="43.99252" lon="7.31259">
        <ele>710.8</ele>
        <time>2016-03-26T08:48:36Z</time>
      </trkpt>
      <trkpt lat="43.99246" lon="7.31259">
        <ele>710.8</ele>
        <time>2016-03-26T08:48:40Z</time>
      </trkpt>
      <trkpt lat="43.99238" lon="7.3126">
        <ele>710.2</ele>
        <time>2016-03-26T08:48:44Z</time>
      </trkpt>
      <trkpt lat="43.99229" lon="7.3126">
        <ele>710.4</ele>
        <time>2016-03-26T08:48:48Z</time>
      </trkpt>
      <trkpt lat="43.9922" lon="7.31257">
        <ele>711.4</ele>
        <time>2016-03-26T08:48:52Z</time>
      </trkpt>
      <trkpt lat="43.99213" lon="7.31255">
        <ele>712.1</ele>
        <time>2016-03-26T08:48:56Z</time>
      </trkpt>
      <trkpt lat="43.99207" lon="7.3125">
        <ele>714.3</ele>
        <time>2016-03-26T08:49:00Z</time>
      </trkpt>
      <trkpt lat="43.992" lon="7.31245">
        <ele>716.5</ele>
        <time>2016-03-26T08:49:04Z</time>
      </trkpt>
      <trkpt lat="43.99193" lon="7.31242">
        <ele>718.4</ele>
        <time>2016-03-26T08:49:08Z</time>
      </trkpt>
      <trkpt lat="43.99186" lon="7.31239">
        <ele>719.8</ele>
        <time>2016-03-26T08:49:12Z</time>
      </trkpt>
      <trkpt lat="43.99178" lon="7.31235">
        <ele>722.1</ele>
        <time>2016-03-26T08:49:16Z</time>
      </trkpt>
      <trkpt lat="43.99169" lon="7.3123">
        <ele>725.2</ele>
        <time>2016-03-26T08:49:20Z</time>
      </trkpt>
      <trkpt lat="43.99159" lon="7.3122">
        <ele>730.5</ele>
        <time>2016-03-26T08:49:24Z</time>
      </trkpt>
      <trkpt lat="43.99151" lon="7.31211">
        <ele>735.1</ele>
        <time>2016-03-26T08:49:28Z</time>
      </trkpt>
      <trkpt lat="43.99146" lon="7.31207">
        <ele>737.4</ele>
        <time>2016-03-26T08:49:32Z</time>
      </trkpt>
      <trkpt lat="43.99142" lon="7.31204">
        <ele>739.3</ele>
        <time>2016-03-26T08:49:36Z</time>
      </trkpt>
      <trkpt lat="43.9914" lon="7.312">
        <ele>741</ele>
        <time>2016-03-26T08:49:40Z</time>
      </trkpt>
      <trkpt lat="43.99138" lon="7.31198">
        <ele>742.3</ele>
        <time>2016-03-26T08:49:44Z</time>
      </trkpt>
      <trkpt lat="43.99136" lon="7.31196">
        <ele>743</ele>
        <time>2016-03-26T08:49:48Z</time>
      </trkpt>
      <trkpt lat="43.99132" lon="7.31194">
        <ele>744.5</ele>
        <time>2016-03-26T08:49:52Z</time>
      </trkpt>
      <trkpt lat="43.99128" lon="7.31193">
        <ele>745.1</ele>
        <time>2016-03-26T08:49:56Z</time>
      </trkpt>
      <trkpt lat="43.99123" lon="7.31195">
        <ele>744.6</ele>
        <time>2016-03-26T08:50:01Z</time>
      </trkpt>
      <trkpt lat="43.9912" lon="7.312">
        <ele>742.7</ele>
        <time>2016-03-26T08:50:04Z</time>
      </trkpt>
      <trkpt lat="43.99116" lon="7.31202">
        <ele>741.8</ele>
        <time>2016-03-26T08:50:08Z</time>
      </trkpt>
      <trkpt lat="43.99109" lon="7.31203">
        <ele>741.7</ele>
        <time>2016-03-26T08:50:12Z</time>
      </trkpt>
      <trkpt lat="43.99103" lon="7.31203">
        <ele>741.8</ele>
        <time>2016-03-26T08:50:16Z</time>
      </trkpt>
      <trkpt lat="43.99096" lon="7.31206">
        <ele>740.7</ele>
        <time>2016-03-26T08:50:20Z</time>
      </trkpt>
      <trkpt lat="43.99091" lon="7.31212">
        <ele>738.3</ele>
        <time>2016-03-26T08:50:24Z</time>
      </trkpt>
      <trkpt lat="43.99088" lon="7.31219">
        <ele>735.2</ele>
        <time>2016-03-26T08:50:28Z</time>
      </trkpt>
      <trkpt lat="43.99079" lon="7.31225">
        <ele>732.6</ele>
        <time>2016-03-26T08:50:32Z</time>
      </trkpt>
      <trkpt lat="43.99072" lon="7.3123">
        <ele>730.9</ele>
        <time>2016-03-26T08:50:36Z</time>
      </trkpt>
      <trkpt lat="43.99066" lon="7.31229">
        <ele>731.4</ele>
        <time>2016-03-26T08:50:40Z</time>
      </trkpt>
      <trkpt lat="43.99057" lon="7.3123">
        <ele>731.6</ele>
        <time>2016-03-26T08:50:44Z</time>
      </trkpt>
      <trkpt lat="43.99048" lon="7.31231">
        <ele>731.6</ele>
        <time>2016-03-26T08:50:48Z</time>
      </trkpt>
      <trkpt lat="43.99041" lon="7.31233">
        <ele>730.9</ele>
        <time>2016-03-26T08:50:52Z</time>
      </trkpt>
      <trkpt lat="43.99033" lon="7.31233">
        <ele>731.4</ele>
        <time>2016-03-26T08:50:56Z</time>
      </trkpt>
      <trkpt lat="43.99025" lon="7.3123">
        <ele>733.5</ele>
        <time>2016-03-26T08:51:00Z</time>
      </trkpt>
      <trkpt lat="43.99019" lon="7.31228">
        <ele>734.7</ele>
        <time>2016-03-26T08:51:04Z</time>
      </trkpt>
      <trkpt lat="43.99014" lon="7.31231">
        <ele>733.9</ele>
        <time>2016-03-26T08:51:08Z</time>
      </trkpt>
      <trkpt lat="43.99008" lon="7.31234">
        <ele>733.1</ele>
        <time>2016-03-26T08:51:12Z</time>
      </trkpt>
      <trkpt lat="43.99" lon="7.31234">
        <ele>733.7</ele>
        <time>2016-03-26T08:51:16Z</time>
      </trkpt>
      <trkpt lat="43.98992" lon="7.31231">
        <ele>735.5</ele>
        <time>2016-03-26T08:51:20Z</time>
      </trkpt>
      <trkpt lat="43.98983" lon="7.31226">
        <ele>737.7</ele>
        <time>2016-03-26T08:51:24Z</time>
      </trkpt>
      <trkpt lat="43.98974" lon="7.3122">
        <ele>740.7</ele>
        <time>2016-03-26T08:51:28Z</time>
      </trkpt>
      <trkpt lat="43.98966" lon="7.31219">
        <ele>741.8</ele>
        <time>2016-03-26T08:51:32Z</time>
      </trkpt>
      <trkpt lat="43.98958" lon="7.31223">
        <ele>740.7</ele>
        <time>2016-03-26T08:51:36Z</time>
      </trkpt>
      <trkpt lat="43.98952" lon="7.31231">
        <ele>737.3</ele>
        <time>2016-03-26T08:51:40Z</time>
      </trkpt>
      <trkpt lat="43.98949" lon="7.31237">
        <ele>735.1</ele>
        <time>2016-03-26T08:51:44Z</time>
      </trkpt>
      <trkpt lat="43.98949" lon="7.31237">
        <ele>735.1</ele>
        <time>2016-03-26T08:51:48Z</time>
      </trkpt>
      <trkpt lat="43.98949" lon="7.31237">
        <ele>735.1</ele>
        <time>2016-03-26T08:51:52Z</time>
      </trkpt>
      <trkpt lat="43.98949" lon="7.31237">
        <ele>735.1</ele>
        <time>2016-03-26T08:51:56Z</time>
      </trkpt>
      <trkpt lat="43.98949" lon="7.31237">
        <ele>735.1</ele>
        <time>2016-03-26T08:52:00Z</time>
      </trkpt>
      <trkpt lat="43.98949" lon="7.31237">
        <ele>735.1</ele>
        <time>2016-03-26T08:52:04Z</time>
      </trkpt>
      <trkpt lat="43.98949" lon="7.31237">
        <ele>735.1</ele>
        <time>2016-03-26T08:52:08Z</time>
      </trkpt>
      <trkpt lat="43.98949" lon="7.31237">
        <ele>735.1</ele>
        <time>2016-03-26T08:52:12Z</time>
      </trkpt>
      <trkpt lat="43.98949" lon="7.31237">
        <ele>735.1</ele>
        <time>2016-03-26T08:52:16Z</time>
      </trkpt>
      <trkpt lat="43.98949" lon="7.31237">
        <ele>735.1</ele>
        <time>2016-03-26T08:52:20Z</time>
      </trkpt>
      <trkpt lat="43.98949" lon="7.31237">
        <ele>735.1</ele>
        <time>2016-03-26T08:52:24Z</time>
      </trkpt>
      <trkpt lat="43.98949" lon="7.31237">
        <ele>735.1</ele>
        <time>2016-03-26T08:52:29Z</time>
      </trkpt>
      <trkpt lat="43.98949" lon="7.31237">
        <ele>735.1</ele>
        <time>2016-03-26T08:52:32Z</time>
      </trkpt>
      <trkpt lat="43.98949" lon="7.31237">
        <ele>735.1</ele>
        <time>2016-03-26T08:52:36Z</time>
      </trkpt>
      <trkpt lat="43.98949" lon="7.31237">
        <ele>735.1</ele>
        <time>2016-03-26T08:52:40Z</time>
      </trkpt>
      <trkpt lat="43.98949" lon="7.31237">
        <ele>735.1</ele>
        <time>2016-03-26T08:52:44Z</time>
      </trkpt>
      <trkpt lat="43.98949" lon="7.31237">
        <ele>735.1</ele>
        <time>2016-03-26T08:52:49Z</time>
      </trkpt>
      <trkpt lat="43.98949" lon="7.31237">
        <ele>735.1</ele>
        <time>2016-03-26T08:52:52Z</time>
      </trkpt>
      <trkpt lat="43.98949" lon="7.31237">
        <ele>735.1</ele>
        <time>2016-03-26T08:52:57Z</time>
      </trkpt>
      <trkpt lat="43.98949" lon="7.31237">
        <ele>735.1</ele>
        <time>2016-03-26T08:53:00Z</time>
      </trkpt>
      <trkpt lat="43.98949" lon="7.31237">
        <ele>735.1</ele>
        <time>2016-03-26T08:53:04Z</time>
      </trkpt>
      <trkpt lat="43.98949" lon="7.31237">
        <ele>735.1</ele>
        <time>2016-03-26T08:53:08Z</time>
      </trkpt>
      <trkpt lat="43.98949" lon="7.31237">
        <ele>735.1</ele>
        <time>2016-03-26T08:53:12Z</time>
      </trkpt>
      <trkpt lat="43.98949" lon="7.31237">
        <ele>735.1</ele>
        <time>2016-03-26T08:53:16Z</time>
      </trkpt>
      <trkpt lat="43.98949" lon="7.31237">
        <ele>735.1</ele>
        <time>2016-03-26T08:53:20Z</time>
      </trkpt>
      <trkpt lat="43.98949" lon="7.31237">
        <ele>735.1</ele>
        <time>2016-03-26T08:53:24Z</time>
      </trkpt>
      <trkpt lat="43.98949" lon="7.31237">
        <ele>735.1</ele>
        <time>2016-03-26T08:53:28Z</time>
      </trkpt>
      <trkpt lat="43.98949" lon="7.31237">
        <ele>735.1</ele>
        <time>2016-03-26T08:53:33Z</time>
      </trkpt>
      <trkpt lat="43.98949" lon="7.31237">
        <ele>735.1</ele>
        <time>2016-03-26T08:53:36Z</time>
      </trkpt>
      <trkpt lat="43.98936" lon="7.31259">
        <ele>726.5</ele>
        <time>2016-03-26T08:53:40Z</time>
      </trkpt>
      <trkpt lat="43.9893" lon="7.31265">
        <ele>724</ele>
        <time>2016-03-26T08:53:44Z</time>
      </trkpt>
      <trkpt lat="43.9892" lon="7.3127">
        <ele>721.5</ele>
        <time>2016-03-26T08:53:48Z</time>
      </trkpt>
      <trkpt lat="43.98912" lon="7.31275">
        <ele>719.4</ele>
        <time>2016-03-26T08:53:52Z</time>
      </trkpt>
      <trkpt lat="43.98901" lon="7.31279">
        <ele>717.4</ele>
        <time>2016-03-26T08:53:56Z</time>
      </trkpt>
      <trkpt lat="43.98891" lon="7.31283">
        <ele>715.6</ele>
        <time>2016-03-26T08:54:00Z</time>
      </trkpt>
      <trkpt lat="43.98883" lon="7.31285">
        <ele>714.4</ele>
        <time>2016-03-26T08:54:04Z</time>
      </trkpt>
      <trkpt lat="43.98874" lon="7.31288">
        <ele>712.8</ele>
        <time>2016-03-26T08:54:08Z</time>
      </trkpt>
      <trkpt lat="43.98864" lon="7.31294">
        <ele>706.5</ele>
        <time>2016-03-26T08:54:12Z</time>
      </trkpt>
      <trkpt lat="43.98854" lon="7.313">
        <ele>700.2</ele>
        <time>2016-03-26T08:54:16Z</time>
      </trkpt>
      <trkpt lat="43.98841" lon="7.31302">
        <ele>693.9</ele>
        <time>2016-03-26T08:54:20Z</time>
      </trkpt>
      <trkpt lat="43.98832" lon="7.31301">
        <ele>690.3</ele>
        <time>2016-03-26T08:54:24Z</time>
      </trkpt>
      <trkpt lat="43.9883" lon="7.31301">
        <ele>689.5</ele>
        <time>2016-03-26T08:54:28Z</time>
      </trkpt>
      <trkpt lat="43.98827" lon="7.31301">
        <ele>688</ele>
        <time>2016-03-26T08:54:33Z</time>
      </trkpt>
      <trkpt lat="43.98827" lon="7.31301">
        <ele>688</ele>
        <time>2016-03-26T08:54:36Z</time>
      </trkpt>
      <trkpt lat="43.98827" lon="7.31301">
        <ele>688</ele>
        <time>2016-03-26T08:54:40Z</time>
      </trkpt>
      <trkpt lat="43.98815" lon="7.31296">
        <ele>684.1</ele>
        <time>2016-03-26T08:54:44Z</time>
      </trkpt>
      <trkpt lat="43.98808" lon="7.31295">
        <ele>681.3</ele>
        <time>2016-03-26T08:54:48Z</time>
      </trkpt>
      <trkpt lat="43.98798" lon="7.31293">
        <ele>677.6</ele>
        <time>2016-03-26T08:54:52Z</time>
      </trkpt>
      <trkpt lat="43.98785" lon="7.31294">
        <ele>672.5</ele>
        <time>2016-03-26T08:54:57Z</time>
      </trkpt>
      <trkpt lat="43.98773" lon="7.31296">
        <ele>668.8</ele>
        <time>2016-03-26T08:55:00Z</time>
      </trkpt>
      <trkpt lat="43.98765" lon="7.31288">
        <ele>669.1</ele>
        <time>2016-03-26T08:55:04Z</time>
      </trkpt>
      <trkpt lat="43.9876" lon="7.31269">
        <ele>674.7</ele>
        <time>2016-03-26T08:55:08Z</time>
      </trkpt>
      <trkpt lat="43.98754" lon="7.31252">
        <ele>679.3</ele>
        <time>2016-03-26T08:55:12Z</time>
      </trkpt>
      <trkpt lat="43.98752" lon="7.31233">
        <ele>685.9</ele>
        <time>2016-03-26T08:55:16Z</time>
      </trkpt>
      <trkpt lat="43.98752" lon="7.31233">
        <ele>685.9</ele>
        <time>2016-03-26T08:55:20Z</time>
      </trkpt>
      <trkpt lat="43.98753" lon="7.31214">
        <ele>692.8</ele>
        <time>2016-03-26T08:55:24Z</time>
      </trkpt>
      <trkpt lat="43.98752" lon="7.31208">
        <ele>694.9</ele>
        <time>2016-03-26T08:55:25Z</time>
      </trkpt>
      <trkpt lat="43.98749" lon="7.31184">
        <ele>703.6</ele>
        <time>2016-03-26T08:55:29Z</time>
      </trkpt>
      <trkpt lat="43.98743" lon="7.31171">
        <ele>707.8</ele>
        <time>2016-03-26T08:55:32Z</time>
      </trkpt>
      <trkpt lat="43.98734" lon="7.31162">
        <ele>710.1</ele>
        <time>2016-03-26T08:55:36Z</time>
      </trkpt>
      <trkpt lat="43.98724" lon="7.31154">
        <ele>712</ele>
        <time>2016-03-26T08:55:40Z</time>
      </trkpt>
      <trkpt lat="43.98716" lon="7.31149">
        <ele>713.3</ele>
        <time>2016-03-26T08:55:44Z</time>
      </trkpt>
      <trkpt lat="43.98708" lon="7.31145">
        <ele>713.9</ele>
        <time>2016-03-26T08:55:48Z</time>
      </trkpt>
      <trkpt lat="43.98703" lon="7.31144">
        <ele>715.6</ele>
        <time>2016-03-26T08:55:52Z</time>
      </trkpt>
      <trkpt lat="43.98698" lon="7.31148">
        <ele>715</ele>
        <time>2016-03-26T08:55:56Z</time>
      </trkpt>
      <trkpt lat="43.98693" lon="7.31158">
        <ele>712.6</ele>
        <time>2016-03-26T08:56:00Z</time>
      </trkpt>
      <trkpt lat="43.98685" lon="7.3116">
        <ele>713.9</ele>
        <time>2016-03-26T08:56:04Z</time>
      </trkpt>
      <trkpt lat="43.98677" lon="7.31161">
        <ele>715.6</ele>
        <time>2016-03-26T08:56:08Z</time>
      </trkpt>
      <trkpt lat="43.98671" lon="7.31162">
        <ele>716.8</ele>
        <time>2016-03-26T08:56:12Z</time>
      </trkpt>
      <trkpt lat="43.98666" lon="7.31167">
        <ele>716.2</ele>
        <time>2016-03-26T08:56:16Z</time>
      </trkpt>
      <trkpt lat="43.9866" lon="7.31172">
        <ele>716</ele>
        <time>2016-03-26T08:56:21Z</time>
      </trkpt>
      <trkpt lat="43.98654" lon="7.3118">
        <ele>715</ele>
        <time>2016-03-26T08:56:24Z</time>
      </trkpt>
      <trkpt lat="43.98644" lon="7.31188">
        <ele>715</ele>
        <time>2016-03-26T08:56:28Z</time>
      </trkpt>
      <trkpt lat="43.98634" lon="7.31195">
        <ele>715.7</ele>
        <time>2016-03-26T08:56:33Z</time>
      </trkpt>
      <trkpt lat="43.98625" lon="7.31194">
        <ele>718.4</ele>
        <time>2016-03-26T08:56:36Z</time>
      </trkpt>
      <trkpt lat="43.98622" lon="7.31196">
        <ele>718.2</ele>
        <time>2016-03-26T08:56:40Z</time>
      </trkpt>
      <trkpt lat="43.98619" lon="7.31198">
        <ele>717.3</ele>
        <time>2016-03-26T08:56:44Z</time>
      </trkpt>
      <trkpt lat="43.98615" lon="7.31206">
        <ele>715</ele>
        <time>2016-03-26T08:56:48Z</time>
      </trkpt>
      <trkpt lat="43.9861" lon="7.31211">
        <ele>713.2</ele>
        <time>2016-03-26T08:56:52Z</time>
      </trkpt>
      <trkpt lat="43.98605" lon="7.3122">
        <ele>710.1</ele>
        <time>2016-03-26T08:56:56Z</time>
      </trkpt>
      <trkpt lat="43.98599" lon="7.31229">
        <ele>706.8</ele>
        <time>2016-03-26T08:57:00Z</time>
      </trkpt>
      <trkpt lat="43.98591" lon="7.31235">
        <ele>704.8</ele>
        <time>2016-03-26T08:57:04Z</time>
      </trkpt>
      <trkpt lat="43.98585" lon="7.31245">
        <ele>701.3</ele>
        <time>2016-03-26T08:57:08Z</time>
      </trkpt>
      <trkpt lat="43.9858" lon="7.31255">
        <ele>697.9</ele>
        <time>2016-03-26T08:57:12Z</time>
      </trkpt>
      <trkpt lat="43.98572" lon="7.31263">
        <ele>695.3</ele>
        <time>2016-03-26T08:57:16Z</time>
      </trkpt>
      <trkpt lat="43.98565" lon="7.31269">
        <ele>693.4</ele>
        <time>2016-03-26T08:57:20Z</time>
      </trkpt>
      <trkpt lat="43.98557" lon="7.31278">
        <ele>690.9</ele>
        <time>2016-03-26T08:57:24Z</time>
      </trkpt>
      <trkpt lat="43.98548" lon="7.31286">
        <ele>688.6</ele>
        <time>2016-03-26T08:57:28Z</time>
      </trkpt>
      <trkpt lat="43.9854" lon="7.31294">
        <ele>685.5</ele>
        <time>2016-03-26T08:57:32Z</time>
      </trkpt>
      <trkpt lat="43.9853" lon="7.31306">
        <ele>678.7</ele>
        <time>2016-03-26T08:57:36Z</time>
      </trkpt>
      <trkpt lat="43.9852" lon="7.31312">
        <ele>674.2</ele>
        <time>2016-03-26T08:57:40Z</time>
      </trkpt>
      <trkpt lat="43.98509" lon="7.31312">
        <ele>671.5</ele>
        <time>2016-03-26T08:57:44Z</time>
      </trkpt>
      <trkpt lat="43.98498" lon="7.3131">
        <ele>669.8</ele>
        <time>2016-03-26T08:57:48Z</time>
      </trkpt>
      <trkpt lat="43.98488" lon="7.31308">
        <ele>667.8</ele>
        <time>2016-03-26T08:57:52Z</time>
      </trkpt>
      <trkpt lat="43.98477" lon="7.31313">
        <ele>663.7</ele>
        <time>2016-03-26T08:57:56Z</time>
      </trkpt>
      <trkpt lat="43.98467" lon="7.31317">
        <ele>660.4</ele>
        <time>2016-03-26T08:58:00Z</time>
      </trkpt>
      <trkpt lat="43.98457" lon="7.31314">
        <ele>658.7</ele>
        <time>2016-03-26T08:58:04Z</time>
      </trkpt>
      <trkpt lat="43.98448" lon="7.31304">
        <ele>658.2</ele>
        <time>2016-03-26T08:58:08Z</time>
      </trkpt>
      <trkpt lat="43.98442" lon="7.31295">
        <ele>658</ele>
        <time>2016-03-26T08:58:12Z</time>
      </trkpt>
      <trkpt lat="43.98438" lon="7.31291">
        <ele>658</ele>
        <time>2016-03-26T08:58:16Z</time>
      </trkpt>
      <trkpt lat="43.98434" lon="7.31285">
        <ele>658</ele>
        <time>2016-03-26T08:58:20Z</time>
      </trkpt>
      <trkpt lat="43.98429" lon="7.3128">
        <ele>657.8</ele>
        <time>2016-03-26T08:58:24Z</time>
      </trkpt>
      <trkpt lat="43.98424" lon="7.31274">
        <ele>658.1</ele>
        <time>2016-03-26T08:58:28Z</time>
      </trkpt>
      <trkpt lat="43.9842" lon="7.31269">
        <ele>657.7</ele>
        <time>2016-03-26T08:58:32Z</time>
      </trkpt>
      <trkpt lat="43.98417" lon="7.31264">
        <ele>658.1</ele>
        <time>2016-03-26T08:58:36Z</time>
      </trkpt>
      <trkpt lat="43.98412" lon="7.3126">
        <ele>657.6</ele>
        <time>2016-03-26T08:58:40Z</time>
      </trkpt>
      <trkpt lat="43.98407" lon="7.31256">
        <ele>657.2</ele>
        <time>2016-03-26T08:58:44Z</time>
      </trkpt>
      <trkpt lat="43.98403" lon="7.31251">
        <ele>656.9</ele>
        <time>2016-03-26T08:58:48Z</time>
      </trkpt>
      <trkpt lat="43.98398" lon="7.31248">
        <ele>656.2</ele>
        <time>2016-03-26T08:58:52Z</time>
      </trkpt>
      <trkpt lat="43.98393" lon="7.31246">
        <ele>655</ele>
        <time>2016-03-26T08:58:56Z</time>
      </trkpt>
      <trkpt lat="43.98388" lon="7.31245">
        <ele>653.3</ele>
        <time>2016-03-26T08:59:00Z</time>
      </trkpt>
      <trkpt lat="43.98382" lon="7.31244">
        <ele>651.6</ele>
        <time>2016-03-26T08:59:04Z</time>
      </trkpt>
      <trkpt lat="43.98377" lon="7.31242">
        <ele>650</ele>
        <time>2016-03-26T08:59:08Z</time>
      </trkpt>
      <trkpt lat="43.98372" lon="7.31239">
        <ele>649.8</ele>
        <time>2016-03-26T08:59:12Z</time>
      </trkpt>
      <trkpt lat="43.98367" lon="7.31234">
        <ele>650</ele>
        <time>2016-03-26T08:59:16Z</time>
      </trkpt>
      <trkpt lat="43.9836" lon="7.3123">
        <ele>650.1</ele>
        <time>2016-03-26T08:59:21Z</time>
      </trkpt>
      <trkpt lat="43.98353" lon="7.31224">
        <ele>650.4</ele>
        <time>2016-03-26T08:59:24Z</time>
      </trkpt>
      <trkpt lat="43.98345" lon="7.31218">
        <ele>651</ele>
        <time>2016-03-26T08:59:28Z</time>
      </trkpt>
      <trkpt lat="43.98337" lon="7.3121">
        <ele>652</ele>
        <time>2016-03-26T08:59:32Z</time>
      </trkpt>
      <trkpt lat="43.98337" lon="7.3121">
        <ele>652</ele>
        <time>2016-03-26T08:59:36Z</time>
      </trkpt>
      <trkpt lat="43.9833" lon="7.31199">
        <ele>655.4</ele>
        <time>2016-03-26T08:59:39Z</time>
      </trkpt>
      <trkpt lat="43.98328" lon="7.31194">
        <ele>657.3</ele>
        <time>2016-03-26T08:59:40Z</time>
      </trkpt>
      <trkpt lat="43.98319" lon="7.31173">
        <ele>665</ele>
        <time>2016-03-26T08:59:44Z</time>
      </trkpt>
      <trkpt lat="43.98313" lon="7.31163">
        <ele>667.8</ele>
        <time>2016-03-26T08:59:48Z</time>
      </trkpt>
      <trkpt lat="43.98304" lon="7.3116">
        <ele>667.6</ele>
        <time>2016-03-26T08:59:52Z</time>
      </trkpt>
      <trkpt lat="43.98298" lon="7.31161">
        <ele>666.1</ele>
        <time>2016-03-26T08:59:56Z</time>
      </trkpt>
      <trkpt lat="43.9829" lon="7.31162">
        <ele>664.2</ele>
        <time>2016-03-26T09:00:00Z</time>
      </trkpt>
      <trkpt lat="43.98283" lon="7.31159">
        <ele>665</ele>
        <time>2016-03-26T09:00:04Z</time>
      </trkpt>
      <trkpt lat="43.98274" lon="7.31156">
        <ele>665.9</ele>
        <time>2016-03-26T09:00:08Z</time>
      </trkpt>
      <trkpt lat="43.98266" lon="7.3115">
        <ele>667.6</ele>
        <time>2016-03-26T09:00:12Z</time>
      </trkpt>
      <trkpt lat="43.98258" lon="7.31143">
        <ele>669.9</ele>
        <time>2016-03-26T09:00:16Z</time>
      </trkpt>
      <trkpt lat="43.9825" lon="7.31137">
        <ele>671.6</ele>
        <time>2016-03-26T09:00:20Z</time>
      </trkpt>
      <trkpt lat="43.98242" lon="7.31137">
        <ele>671</ele>
        <time>2016-03-26T09:00:24Z</time>
      </trkpt>
      <trkpt lat="43.98237" lon="7.31142">
        <ele>668.8</ele>
        <time>2016-03-26T09:00:28Z</time>
      </trkpt>
      <trkpt lat="43.98231" lon="7.31149">
        <ele>665.6</ele>
        <time>2016-03-26T09:00:32Z</time>
      </trkpt>
      <trkpt lat="43.98224" lon="7.31157">
        <ele>661.6</ele>
        <time>2016-03-26T09:00:36Z</time>
      </trkpt>
      <trkpt lat="43.98215" lon="7.31165">
        <ele>658.3</ele>
        <time>2016-03-26T09:00:40Z</time>
      </trkpt>
      <trkpt lat="43.98206" lon="7.31171">
        <ele>655.2</ele>
        <time>2016-03-26T09:00:44Z</time>
      </trkpt>
      <trkpt lat="43.98197" lon="7.31175">
        <ele>652.3</ele>
        <time>2016-03-26T09:00:48Z</time>
      </trkpt>
      <trkpt lat="43.98187" lon="7.31178">
        <ele>650.1</ele>
        <time>2016-03-26T09:00:52Z</time>
      </trkpt>
      <trkpt lat="43.98179" lon="7.31176">
        <ele>649.7</ele>
        <time>2016-03-26T09:00:56Z</time>
      </trkpt>
      <trkpt lat="43.98171" lon="7.31171">
        <ele>651.1</ele>
        <time>2016-03-26T09:01:00Z</time>
      </trkpt>
      <trkpt lat="43.98166" lon="7.31169">
        <ele>651.4</ele>
        <time>2016-03-26T09:01:04Z</time>
      </trkpt>
      <trkpt lat="43.98166" lon="7.31173">
        <ele>649.6</ele>
        <time>2016-03-26T09:01:08Z</time>
      </trkpt>
      <trkpt lat="43.98171" lon="7.31178">
        <ele>648.1</ele>
        <time>2016-03-26T09:01:12Z</time>
      </trkpt>
      <trkpt lat="43.98176" lon="7.31185">
        <ele>646</ele>
        <time>2016-03-26T09:01:16Z</time>
      </trkpt>
      <trkpt lat="43.98176" lon="7.31189">
        <ele>644.1</ele>
        <time>2016-03-26T09:01:20Z</time>
      </trkpt>
      <trkpt lat="43.98171" lon="7.31188">
        <ele>644</ele>
        <time>2016-03-26T09:01:24Z</time>
      </trkpt>
      <trkpt lat="43.98166" lon="7.31184">
        <ele>644.7</ele>
        <time>2016-03-26T09:01:28Z</time>
      </trkpt>
      <trkpt lat="43.98158" lon="7.31182">
        <ele>644.6</ele>
        <time>2016-03-26T09:01:32Z</time>
      </trkpt>
      <trkpt lat="43.9815" lon="7.31179">
        <ele>645.2</ele>
        <time>2016-03-26T09:01:36Z</time>
      </trkpt>
      <trkpt lat="43.98142" lon="7.31174">
        <ele>646.3</ele>
        <time>2016-03-26T09:01:40Z</time>
      </trkpt>
      <trkpt lat="43.98133" lon="7.31176">
        <ele>644.6</ele>
        <time>2016-03-26T09:01:44Z</time>
      </trkpt>
      <trkpt lat="43.98123" lon="7.31178">
        <ele>642.2</ele>
        <time>2016-03-26T09:01:48Z</time>
      </trkpt>
      <trkpt lat="43.98113" lon="7.31175">
        <ele>641.6</ele>
        <time>2016-03-26T09:01:52Z</time>
      </trkpt>
      <trkpt lat="43.98103" lon="7.31174">
        <ele>640.4</ele>
        <time>2016-03-26T09:01:56Z</time>
      </trkpt>
      <trkpt lat="43.98093" lon="7.3117">
        <ele>640.3</ele>
        <time>2016-03-26T09:02:00Z</time>
      </trkpt>
      <trkpt lat="43.98085" lon="7.31161">
        <ele>642.5</ele>
        <time>2016-03-26T09:02:04Z</time>
      </trkpt>
      <trkpt lat="43.98076" lon="7.31158">
        <ele>641.8</ele>
        <time>2016-03-26T09:02:08Z</time>
      </trkpt>
      <trkpt lat="43.98065" lon="7.31156">
        <ele>640.9</ele>
        <time>2016-03-26T09:02:12Z</time>
      </trkpt>
      <trkpt lat="43.98057" lon="7.3115">
        <ele>641.4</ele>
        <time>2016-03-26T09:02:16Z</time>
      </trkpt>
      <trkpt lat="43.98048" lon="7.31147">
        <ele>640.8</ele>
        <time>2016-03-26T09:02:20Z</time>
      </trkpt>
      <trkpt lat="43.98038" lon="7.31145">
        <ele>639.1</ele>
        <time>2016-03-26T09:02:24Z</time>
      </trkpt>
      <trkpt lat="43.98029" lon="7.31142">
        <ele>637.1</ele>
        <time>2016-03-26T09:02:29Z</time>
      </trkpt>
      <trkpt lat="43.98024" lon="7.31141">
        <ele>635.6</ele>
        <time>2016-03-26T09:02:32Z</time>
      </trkpt>
      <trkpt lat="43.98021" lon="7.31145">
        <ele>633.2</ele>
        <time>2016-03-26T09:02:36Z</time>
      </trkpt>
      <trkpt lat="43.98014" lon="7.31147">
        <ele>630.3</ele>
        <time>2016-03-26T09:02:41Z</time>
      </trkpt>
      <trkpt lat="43.98006" lon="7.31147">
        <ele>627.4</ele>
        <time>2016-03-26T09:02:44Z</time>
      </trkpt>
      <trkpt lat="43.97996" lon="7.31144">
        <ele>625.3</ele>
        <time>2016-03-26T09:02:48Z</time>
      </trkpt>
      <trkpt lat="43.97986" lon="7.31137">
        <ele>624.5</ele>
        <time>2016-03-26T09:02:52Z</time>
      </trkpt>
      <trkpt lat="43.97979" lon="7.31132">
        <ele>623.6</ele>
        <time>2016-03-26T09:02:56Z</time>
      </trkpt>
      <trkpt lat="43.97975" lon="7.31133">
        <ele>622</ele>
        <time>2016-03-26T09:03:00Z</time>
      </trkpt>
      <trkpt lat="43.97971" lon="7.31138">
        <ele>619</ele>
        <time>2016-03-26T09:03:04Z</time>
      </trkpt>
      <trkpt lat="43.97963" lon="7.31143">
        <ele>614.4</ele>
        <time>2016-03-26T09:03:08Z</time>
      </trkpt>
      <trkpt lat="43.97956" lon="7.31142">
        <ele>612.8</ele>
        <time>2016-03-26T09:03:12Z</time>
      </trkpt>
      <trkpt lat="43.97954" lon="7.31135">
        <ele>614.8</ele>
        <time>2016-03-26T09:03:17Z</time>
      </trkpt>
      <trkpt lat="43.97948" lon="7.31129">
        <ele>615.6</ele>
        <time>2016-03-26T09:03:20Z</time>
      </trkpt>
      <trkpt lat="43.9794" lon="7.31124">
        <ele>615.6</ele>
        <time>2016-03-26T09:03:24Z</time>
      </trkpt>
      <trkpt lat="43.97933" lon="7.31123">
        <ele>614.5</ele>
        <time>2016-03-26T09:03:28Z</time>
      </trkpt>
      <trkpt lat="43.97926" lon="7.31123">
        <ele>613</ele>
        <time>2016-03-26T09:03:32Z</time>
      </trkpt>
      <trkpt lat="43.97918" lon="7.31123">
        <ele>611.5</ele>
        <time>2016-03-26T09:03:36Z</time>
      </trkpt>
      <trkpt lat="43.97908" lon="7.31124">
        <ele>608.9</ele>
        <time>2016-03-26T09:03:40Z</time>
      </trkpt>
      <trkpt lat="43.97898" lon="7.31127">
        <ele>606</ele>
        <time>2016-03-26T09:03:44Z</time>
      </trkpt>
      <trkpt lat="43.9789" lon="7.31128">
        <ele>603.8</ele>
        <time>2016-03-26T09:03:48Z</time>
      </trkpt>
      <trkpt lat="43.97881" lon="7.31126">
        <ele>603</ele>
        <time>2016-03-26T09:03:52Z</time>
      </trkpt>
      <trkpt lat="43.97874" lon="7.31116">
        <ele>603.8</ele>
        <time>2016-03-26T09:03:56Z</time>
      </trkpt>
      <trkpt lat="43.97866" lon="7.3111">
        <ele>603</ele>
        <time>2016-03-26T09:04:00Z</time>
      </trkpt>
      <trkpt lat="43.97858" lon="7.31104">
        <ele>602.2</ele>
        <time>2016-03-26T09:04:04Z</time>
      </trkpt>
      <trkpt lat="43.97851" lon="7.31099">
        <ele>601.3</ele>
        <time>2016-03-26T09:04:08Z</time>
      </trkpt>
      <trkpt lat="43.97844" lon="7.31099">
        <ele>599.4</ele>
        <time>2016-03-26T09:04:12Z</time>
      </trkpt>
      <trkpt lat="43.97835" lon="7.31096">
        <ele>597.5</ele>
        <time>2016-03-26T09:04:16Z</time>
      </trkpt>
      <trkpt lat="43.97826" lon="7.31094">
        <ele>595.4</ele>
        <time>2016-03-26T09:04:20Z</time>
      </trkpt>
      <trkpt lat="43.97817" lon="7.31093">
        <ele>593.1</ele>
        <time>2016-03-26T09:04:24Z</time>
      </trkpt>
      <trkpt lat="43.97809" lon="7.31092">
        <ele>590.8</ele>
        <time>2016-03-26T09:04:28Z</time>
      </trkpt>
      <trkpt lat="43.97803" lon="7.31094">
        <ele>588.8</ele>
        <time>2016-03-26T09:04:32Z</time>
      </trkpt>
      <trkpt lat="43.97797" lon="7.31096">
        <ele>586.7</ele>
        <time>2016-03-26T09:04:36Z</time>
      </trkpt>
      <trkpt lat="43.97789" lon="7.31098">
        <ele>583.8</ele>
        <time>2016-03-26T09:04:40Z</time>
      </trkpt>
      <trkpt lat="43.97781" lon="7.31101">
        <ele>579.2</ele>
        <time>2016-03-26T09:04:44Z</time>
      </trkpt>
      <trkpt lat="43.97775" lon="7.31104">
        <ele>575.8</ele>
        <time>2016-03-26T09:04:48Z</time>
      </trkpt>
      <trkpt lat="43.97773" lon="7.31109">
        <ele>574.1</ele>
        <time>2016-03-26T09:04:52Z</time>
      </trkpt>
      <trkpt lat="43.97771" lon="7.31111">
        <ele>572.9</ele>
        <time>2016-03-26T09:04:56Z</time>
      </trkpt>
      <trkpt lat="43.97764" lon="7.31115">
        <ele>568.5</ele>
        <time>2016-03-26T09:05:00Z</time>
      </trkpt>
      <trkpt lat="43.97755" lon="7.31116">
        <ele>564.4</ele>
        <time>2016-03-26T09:05:04Z</time>
      </trkpt>
      <trkpt lat="43.97746" lon="7.31109">
        <ele>560.9</ele>
        <time>2016-03-26T09:05:08Z</time>
      </trkpt>
      <trkpt lat="43.97739" lon="7.31101">
        <ele>558.7</ele>
        <time>2016-03-26T09:05:12Z</time>
      </trkpt>
      <trkpt lat="43.97733" lon="7.31098">
        <ele>556.3</ele>
        <time>2016-03-26T09:05:16Z</time>
      </trkpt>
      <trkpt lat="43.97732" lon="7.31102">
        <ele>555.4</ele>
        <time>2016-03-26T09:05:20Z</time>
      </trkpt>
      <trkpt lat="43.97731" lon="7.31105">
        <ele>554.4</ele>
        <time>2016-03-26T09:05:24Z</time>
      </trkpt>
      <trkpt lat="43.97726" lon="7.31107">
        <ele>552</ele>
        <time>2016-03-26T09:05:28Z</time>
      </trkpt>
      <trkpt lat="43.97719" lon="7.31106">
        <ele>548.5</ele>
        <time>2016-03-26T09:05:32Z</time>
      </trkpt>
      <trkpt lat="43.97711" lon="7.31104">
        <ele>545.2</ele>
        <time>2016-03-26T09:05:37Z</time>
      </trkpt>
      <trkpt lat="43.97703" lon="7.31102">
        <ele>541.6</ele>
        <time>2016-03-26T09:05:40Z</time>
      </trkpt>
      <trkpt lat="43.97695" lon="7.31101">
        <ele>538.2</ele>
        <time>2016-03-26T09:05:44Z</time>
      </trkpt>
      <trkpt lat="43.97688" lon="7.31105">
        <ele>534.8</ele>
        <time>2016-03-26T09:05:48Z</time>
      </trkpt>
      <trkpt lat="43.97678" lon="7.31103">
        <ele>530.3</ele>
        <time>2016-03-26T09:05:52Z</time>
      </trkpt>
      <trkpt lat="43.97669" lon="7.31096">
        <ele>527.1</ele>
        <time>2016-03-26T09:05:56Z</time>
      </trkpt>
      <trkpt lat="43.97662" lon="7.31093">
        <ele>524</ele>
        <time>2016-03-26T09:06:00Z</time>
      </trkpt>
      <trkpt lat="43.97654" lon="7.31094">
        <ele>520.2</ele>
        <time>2016-03-26T09:06:04Z</time>
      </trkpt>
      <trkpt lat="43.97645" lon="7.31095">
        <ele>516.3</ele>
        <time>2016-03-26T09:06:08Z</time>
      </trkpt>
      <trkpt lat="43.97638" lon="7.31095">
        <ele>512.7</ele>
        <time>2016-03-26T09:06:12Z</time>
      </trkpt>
      <trkpt lat="43.9763" lon="7.31092">
        <ele>509.2</ele>
        <time>2016-03-26T09:06:16Z</time>
      </trkpt>
      <trkpt lat="43.97623" lon="7.3109">
        <ele>506.5</ele>
        <time>2016-03-26T09:06:20Z</time>
      </trkpt>
      <trkpt lat="43.97616" lon="7.31089">
        <ele>504.8</ele>
        <time>2016-03-26T09:06:24Z</time>
      </trkpt>
      <trkpt lat="43.97609" lon="7.31091">
        <ele>503</ele>
        <time>2016-03-26T09:06:28Z</time>
      </trkpt>
      <trkpt lat="43.97601" lon="7.31094">
        <ele>501.2</ele>
        <time>2016-03-26T09:06:32Z</time>
      </trkpt>
      <trkpt lat="43.97593" lon="7.31097">
        <ele>499.2</ele>
        <time>2016-03-26T09:06:36Z</time>
      </trkpt>
      <trkpt lat="43.97586" lon="7.31101">
        <ele>497.3</ele>
        <time>2016-03-26T09:06:40Z</time>
      </trkpt>
      <trkpt lat="43.9758" lon="7.31106">
        <ele>495.6</ele>
        <time>2016-03-26T09:06:44Z</time>
      </trkpt>
      <trkpt lat="43.97573" lon="7.31111">
        <ele>493.8</ele>
        <time>2016-03-26T09:06:48Z</time>
      </trkpt>
      <trkpt lat="43.97568" lon="7.31117">
        <ele>492.2</ele>
        <time>2016-03-26T09:06:52Z</time>
      </trkpt>
      <trkpt lat="43.97561" lon="7.31122">
        <ele>490.3</ele>
        <time>2016-03-26T09:06:56Z</time>
      </trkpt>
      <trkpt lat="43.97553" lon="7.31127">
        <ele>487.9</ele>
        <time>2016-03-26T09:07:00Z</time>
      </trkpt>
      <trkpt lat="43.97545" lon="7.31132">
        <ele>485.8</ele>
        <time>2016-03-26T09:07:04Z</time>
      </trkpt>
      <trkpt lat="43.97535" lon="7.31136">
        <ele>484.6</ele>
        <time>2016-03-26T09:07:08Z</time>
      </trkpt>
      <trkpt lat="43.97526" lon="7.31143">
        <ele>484</ele>
        <time>2016-03-26T09:07:12Z</time>
      </trkpt>
      <trkpt lat="43.97518" lon="7.3115">
        <ele>483.4</ele>
        <time>2016-03-26T09:07:16Z</time>
      </trkpt>
      <trkpt lat="43.97512" lon="7.31154">
        <ele>482.9</ele>
        <time>2016-03-26T09:07:20Z</time>
      </trkpt>
      <trkpt lat="43.97508" lon="7.31154">
        <ele>482.6</ele>
        <time>2016-03-26T09:07:24Z</time>
      </trkpt>
      <trkpt lat="43.97498" lon="7.31163">
        <ele>481.7</ele>
        <time>2016-03-26T09:07:28Z</time>
      </trkpt>
      <trkpt lat="43.97492" lon="7.31174">
        <ele>481</ele>
        <time>2016-03-26T09:07:32Z</time>
      </trkpt>
      <trkpt lat="43.97484" lon="7.31189">
        <ele>479.9</ele>
        <time>2016-03-26T09:07:36Z</time>
      </trkpt>
      <trkpt lat="43.97476" lon="7.31194">
        <ele>479.1</ele>
        <time>2016-03-26T09:07:40Z</time>
      </trkpt>
      <trkpt lat="43.97471" lon="7.31186">
        <ele>478.9</ele>
        <time>2016-03-26T09:07:44Z</time>
      </trkpt>
      <trkpt lat="43.97467" lon="7.31183">
        <ele>478.6</ele>
        <time>2016-03-26T09:07:48Z</time>
      </trkpt>
      <trkpt lat="43.97465" lon="7.31183">
        <ele>478.4</ele>
        <time>2016-03-26T09:07:52Z</time>
      </trkpt>
      <trkpt lat="43.97466" lon="7.31181">
        <ele>478.6</ele>
        <time>2016-03-26T09:07:56Z</time>
      </trkpt>
      <trkpt lat="43.97466" lon="7.31181">
        <ele>478.6</ele>
        <time>2016-03-26T09:08:01Z</time>
      </trkpt>
      <trkpt lat="43.97466" lon="7.31181">
        <ele>478.6</ele>
        <time>2016-03-26T09:08:04Z</time>
      </trkpt>
      <trkpt lat="43.97466" lon="7.31181">
        <ele>478.6</ele>
        <time>2016-03-26T09:08:09Z</time>
      </trkpt>
      <trkpt lat="43.97466" lon="7.31181">
        <ele>478.6</ele>
        <time>2016-03-26T09:08:12Z</time>
      </trkpt>
      <trkpt lat="43.97466" lon="7.31181">
        <ele>478.6</ele>
        <time>2016-03-26T09:08:16Z</time>
      </trkpt>
      <trkpt lat="43.97466" lon="7.31181">
        <ele>478.6</ele>
        <time>2016-03-26T09:08:20Z</time>
      </trkpt>
      <trkpt lat="43.97466" lon="7.31181">
        <ele>478.6</ele>
        <time>2016-03-26T09:08:24Z</time>
      </trkpt>
      <trkpt lat="43.97466" lon="7.31181">
        <ele>478.6</ele>
        <time>2016-03-26T09:08:28Z</time>
      </trkpt>
      <trkpt lat="43.97466" lon="7.31181">
        <ele>478.6</ele>
        <time>2016-03-26T09:08:32Z</time>
      </trkpt>
      <trkpt lat="43.97466" lon="7.31181">
        <ele>478.6</ele>
        <time>2016-03-26T09:08:36Z</time>
      </trkpt>
      <trkpt lat="43.97466" lon="7.31181">
        <ele>478.6</ele>
        <time>2016-03-26T09:08:40Z</time>
      </trkpt>
      <trkpt lat="43.97466" lon="7.31181">
        <ele>478.6</ele>
        <time>2016-03-26T09:08:44Z</time>
      </trkpt>
      <trkpt lat="43.97466" lon="7.31181">
        <ele>478.6</ele>
        <time>2016-03-26T09:08:48Z</time>
      </trkpt>
      <trkpt lat="43.97466" lon="7.31181">
        <ele>478.6</ele>
        <time>2016-03-26T09:08:52Z</time>
      </trkpt>
      <trkpt lat="43.97466" lon="7.31181">
        <ele>478.6</ele>
        <time>2016-03-26T09:08:56Z</time>
      </trkpt>
      <trkpt lat="43.97466" lon="7.31181">
        <ele>478.6</ele>
        <time>2016-03-26T09:09:00Z</time>
      </trkpt>
      <trkpt lat="43.97466" lon="7.31181">
        <ele>478.6</ele>
        <time>2016-03-26T09:09:04Z</time>
      </trkpt>
      <trkpt lat="43.97466" lon="7.31181">
        <ele>478.6</ele>
        <time>2016-03-26T09:09:08Z</time>
      </trkpt>
      <trkpt lat="43.97466" lon="7.31181">
        <ele>478.6</ele>
        <time>2016-03-26T09:09:12Z</time>
      </trkpt>
      <trkpt lat="43.97466" lon="7.31181">
        <ele>478.6</ele>
        <time>2016-03-26T09:09:16Z</time>
      </trkpt>
      <trkpt lat="43.97466" lon="7.31181">
        <ele>478.6</ele>
        <time>2016-03-26T09:09:20Z</time>
      </trkpt>
      <trkpt lat="43.97466" lon="7.31181">
        <ele>478.6</ele>
        <time>2016-03-26T09:09:24Z</time>
      </trkpt>
      <trkpt lat="43.97466" lon="7.31181">
        <ele>478.6</ele>
        <time>2016-03-26T09:09:28Z</time>
      </trkpt>
      <trkpt lat="43.97466" lon="7.31181">
        <ele>478.6</ele>
        <time>2016-03-26T09:09:32Z</time>
      </trkpt>
      <trkpt lat="43.97466" lon="7.31181">
        <ele>478.6</ele>
        <time>2016-03-26T09:09:36Z</time>
      </trkpt>
      <trkpt lat="43.97466" lon="7.31181">
        <ele>478.6</ele>
        <time>2016-03-26T09:09:40Z</time>
      </trkpt>
      <trkpt lat="43.97466" lon="7.31181">
        <ele>478.6</ele>
        <time>2016-03-26T09:09:44Z</time>
      </trkpt>
      <trkpt lat="43.97466" lon="7.31181">
        <ele>478.6</ele>
        <time>2016-03-26T09:09:48Z</time>
      </trkpt>
      <trkpt lat="43.97466" lon="7.31181">
        <ele>478.6</ele>
        <time>2016-03-26T09:09:52Z</time>
      </trkpt>
      <trkpt lat="43.97478" lon="7.31189">
        <ele>479.5</ele>
        <time>2016-03-26T09:09:56Z</time>
      </trkpt>
      <trkpt lat="43.9748" lon="7.31193">
        <ele>479.5</ele>
        <time>2016-03-26T09:10:00Z</time>
      </trkpt>
      <trkpt lat="43.97483" lon="7.31197">
        <ele>479.7</ele>
        <time>2016-03-26T09:10:04Z</time>
      </trkpt>
      <trkpt lat="43.97486" lon="7.312">
        <ele>479.9</ele>
        <time>2016-03-26T09:10:08Z</time>
      </trkpt>
      <trkpt lat="43.97488" lon="7.31205">
        <ele>479.9</ele>
        <time>2016-03-26T09:10:12Z</time>
      </trkpt>
      <trkpt lat="43.97489" lon="7.3121">
        <ele>479.9</ele>
        <time>2016-03-26T09:10:16Z</time>
      </trkpt>
      <trkpt lat="43.9749" lon="7.31212">
        <ele>479.9</ele>
        <time>2016-03-26T09:10:20Z</time>
      </trkpt>
      <trkpt lat="43.9749" lon="7.31212">
        <ele>479.9</ele>
        <time>2016-03-26T09:10:24Z</time>
      </trkpt>
      <trkpt lat="43.9749" lon="7.31212">
        <ele>479.9</ele>
        <time>2016-03-26T09:10:28Z</time>
      </trkpt>
      <trkpt lat="43.9749" lon="7.31212">
        <ele>479.9</ele>
        <time>2016-03-26T09:10:32Z</time>
      </trkpt>
      <trkpt lat="43.9749" lon="7.31212">
        <ele>479.9</ele>
        <time>2016-03-26T09:10:36Z</time>
      </trkpt>
      <trkpt lat="43.9749" lon="7.31212">
        <ele>479.9</ele>
        <time>2016-03-26T09:10:40Z</time>
      </trkpt>
      <trkpt lat="43.9749" lon="7.31212">
        <ele>479.9</ele>
        <time>2016-03-26T09:10:44Z</time>
      </trkpt>
      <trkpt lat="43.9749" lon="7.31212">
        <ele>479.9</ele>
        <time>2016-03-26T09:10:48Z</time>
      </trkpt>
      <trkpt lat="43.9749" lon="7.31212">
        <ele>479.9</ele>
        <time>2016-03-26T09:10:52Z</time>
      </trkpt>
      <trkpt lat="43.9749" lon="7.31212">
        <ele>479.9</ele>
        <time>2016-03-26T09:10:56Z</time>
      </trkpt>
      <trkpt lat="43.9749" lon="7.31212">
        <ele>479.9</ele>
        <time>2016-03-26T09:11:00Z</time>
      </trkpt>
      <trkpt lat="43.9749" lon="7.31212">
        <ele>479.9</ele>
        <time>2016-03-26T09:11:04Z</time>
      </trkpt>
      <trkpt lat="43.9749" lon="7.31212">
        <ele>479.9</ele>
        <time>2016-03-26T09:11:08Z</time>
      </trkpt>
      <trkpt lat="43.9749" lon="7.31212">
        <ele>479.9</ele>
        <time>2016-03-26T09:11:12Z</time>
      </trkpt>
      <trkpt lat="43.9749" lon="7.31212">
        <ele>479.9</ele>
        <time>2016-03-26T09:11:17Z</time>
      </trkpt>
      <trkpt lat="43.9749" lon="7.31212">
        <ele>479.9</ele>
        <time>2016-03-26T09:11:20Z</time>
      </trkpt>
      <trkpt lat="43.9749" lon="7.31212">
        <ele>479.9</ele>
        <time>2016-03-26T09:11:24Z</time>
      </trkpt>
      <trkpt lat="43.9749" lon="7.31212">
        <ele>479.9</ele>
        <time>2016-03-26T09:11:28Z</time>
      </trkpt>
      <trkpt lat="43.9749" lon="7.31212">
        <ele>479.9</ele>
        <time>2016-03-26T09:11:32Z</time>
      </trkpt>
      <trkpt lat="43.9749" lon="7.31212">
        <ele>479.9</ele>
        <time>2016-03-26T09:11:37Z</time>
      </trkpt>
      <trkpt lat="43.9749" lon="7.31212">
        <ele>479.9</ele>
        <time>2016-03-26T09:11:40Z</time>
      </trkpt>
      <trkpt lat="43.9749" lon="7.31212">
        <ele>479.9</ele>
        <time>2016-03-26T09:11:44Z</time>
      </trkpt>
      <trkpt lat="43.9749" lon="7.31212">
        <ele>479.9</ele>
        <time>2016-03-26T09:11:48Z</time>
      </trkpt>
      <trkpt lat="43.9749" lon="7.31212">
        <ele>479.9</ele>
        <time>2016-03-26T09:11:52Z</time>
      </trkpt>
      <trkpt lat="43.9749" lon="7.31212">
        <ele>479.9</ele>
        <time>2016-03-26T09:11:56Z</time>
      </trkpt>
      <trkpt lat="43.9749" lon="7.31212">
        <ele>479.9</ele>
        <time>2016-03-26T09:12:00Z</time>
      </trkpt>
      <trkpt lat="43.9749" lon="7.31212">
        <ele>479.9</ele>
        <time>2016-03-26T09:12:04Z</time>
      </trkpt>
      <trkpt lat="43.9749" lon="7.31212">
        <ele>479.9</ele>
        <time>2016-03-26T09:12:08Z</time>
      </trkpt>
      <trkpt lat="43.9749" lon="7.31212">
        <ele>479.9</ele>
        <time>2016-03-26T09:12:12Z</time>
      </trkpt>
      <trkpt lat="43.9749" lon="7.31212">
        <ele>479.9</ele>
        <time>2016-03-26T09:12:16Z</time>
      </trkpt>
      <trkpt lat="43.9749" lon="7.31212">
        <ele>479.9</ele>
        <time>2016-03-26T09:12:20Z</time>
      </trkpt>
      <trkpt lat="43.9749" lon="7.31212">
        <ele>479.9</ele>
        <time>2016-03-26T09:12:24Z</time>
      </trkpt>
      <trkpt lat="43.9749" lon="7.31212">
        <ele>479.9</ele>
        <time>2016-03-26T09:12:29Z</time>
      </trkpt>
      <trkpt lat="43.9749" lon="7.31212">
        <ele>479.9</ele>
        <time>2016-03-26T09:12:32Z</time>
      </trkpt>
      <trkpt lat="43.9749" lon="7.31212">
        <ele>479.9</ele>
        <time>2016-03-26T09:12:36Z</time>
      </trkpt>
      <trkpt lat="43.9749" lon="7.31212">
        <ele>479.9</ele>
        <time>2016-03-26T09:12:40Z</time>
      </trkpt>
      <trkpt lat="43.9749" lon="7.31212">
        <ele>479.9</ele>
        <time>2016-03-26T09:12:44Z</time>
      </trkpt>
      <trkpt lat="43.9749" lon="7.31212">
        <ele>479.9</ele>
        <time>2016-03-26T09:12:48Z</time>
      </trkpt>
      <trkpt lat="43.9749" lon="7.31212">
        <ele>479.9</ele>
        <time>2016-03-26T09:12:52Z</time>
      </trkpt>
      <trkpt lat="43.97479" lon="7.31226">
        <ele>478.9</ele>
        <time>2016-03-26T09:12:56Z</time>
      </trkpt>
      <trkpt lat="43.97473" lon="7.3123">
        <ele>478.7</ele>
        <time>2016-03-26T09:13:00Z</time>
      </trkpt>
      <trkpt lat="43.97466" lon="7.31234">
        <ele>478.7</ele>
        <time>2016-03-26T09:13:04Z</time>
      </trkpt>
      <trkpt lat="43.97459" lon="7.3124">
        <ele>478.9</ele>
        <time>2016-03-26T09:13:08Z</time>
      </trkpt>
      <trkpt lat="43.97452" lon="7.31247">
        <ele>480.2</ele>
        <time>2016-03-26T09:13:12Z</time>
      </trkpt>
      <trkpt lat="43.97446" lon="7.31256">
        <ele>481.5</ele>
        <time>2016-03-26T09:13:16Z</time>
      </trkpt>
      <trkpt lat="43.97441" lon="7.31267">
        <ele>482.9</ele>
        <time>2016-03-26T09:13:20Z</time>
      </trkpt>
      <trkpt lat="43.97441" lon="7.31267">
        <ele>482.9</ele>
        <time>2016-03-26T09:13:24Z</time>
      </trkpt>
      <trkpt lat="43.97437" lon="7.31277">
        <ele>484.1</ele>
        <time>2016-03-26T09:13:27Z</time>
      </trkpt>
      <trkpt lat="43.97435" lon="7.31283">
        <ele>484.7</ele>
        <time>2016-03-26T09:13:28Z</time>
      </trkpt>
      <trkpt lat="43.97429" lon="7.31304">
        <ele>486.1</ele>
        <time>2016-03-26T09:13:32Z</time>
      </trkpt>
      <trkpt lat="43.97422" lon="7.31315">
        <ele>487.6</ele>
        <time>2016-03-26T09:13:36Z</time>
      </trkpt>
      <trkpt lat="43.97415" lon="7.31327">
        <ele>489.6</ele>
        <time>2016-03-26T09:13:40Z</time>
      </trkpt>
      <trkpt lat="43.97409" lon="7.31338">
        <ele>491.9</ele>
        <time>2016-03-26T09:13:44Z</time>
      </trkpt>
      <trkpt lat="43.97404" lon="7.31352">
        <ele>494.7</ele>
        <time>2016-03-26T09:13:48Z</time>
      </trkpt>
      <trkpt lat="43.97399" lon="7.31366">
        <ele>497.9</ele>
        <time>2016-03-26T09:13:52Z</time>
      </trkpt>
      <trkpt lat="43.97393" lon="7.31377">
        <ele>501.1</ele>
        <time>2016-03-26T09:13:56Z</time>
      </trkpt>
      <trkpt lat="43.97387" lon="7.31388">
        <ele>502.3</ele>
        <time>2016-03-26T09:14:00Z</time>
      </trkpt>
      <trkpt lat="43.97378" lon="7.31396">
        <ele>504.7</ele>
        <time>2016-03-26T09:14:04Z</time>
      </trkpt>
      <trkpt lat="43.97369" lon="7.31406">
        <ele>502.8</ele>
        <time>2016-03-26T09:14:08Z</time>
      </trkpt>
      <trkpt lat="43.97362" lon="7.31416">
        <ele>499.4</ele>
        <time>2016-03-26T09:14:12Z</time>
      </trkpt>
      <trkpt lat="43.97357" lon="7.31425">
        <ele>496.8</ele>
        <time>2016-03-26T09:14:16Z</time>
      </trkpt>
      <trkpt lat="43.97355" lon="7.31431">
        <ele>495.3</ele>
        <time>2016-03-26T09:14:20Z</time>
      </trkpt>
      <trkpt lat="43.97357" lon="7.3143">
        <ele>495.9</ele>
        <time>2016-03-26T09:14:24Z</time>
      </trkpt>
      <trkpt lat="43.97357" lon="7.3143">
        <ele>495.9</ele>
        <time>2016-03-26T09:14:28Z</time>
      </trkpt>
      <trkpt lat="43.97357" lon="7.31429">
        <ele>496</ele>
        <time>2016-03-26T09:14:32Z</time>
      </trkpt>
      <trkpt lat="43.97371" lon="7.31441">
        <ele>496.6</ele>
        <time>2016-03-26T09:14:36Z</time>
      </trkpt>
      <trkpt lat="43.97373" lon="7.31442">
        <ele>496.7</ele>
        <time>2016-03-26T09:14:40Z</time>
      </trkpt>
      <trkpt lat="43.97374" lon="7.31443">
        <ele>496.7</ele>
        <time>2016-03-26T09:14:44Z</time>
      </trkpt>
      <trkpt lat="43.97391" lon="7.31447">
        <ele>489.7</ele>
        <time>2016-03-26T09:14:48Z</time>
      </trkpt>
      <trkpt lat="43.97433" lon="7.31447">
        <ele>473</ele>
        <time>2016-03-26T09:14:52Z</time>
      </trkpt>
      <trkpt lat="43.97451" lon="7.31445">
        <ele>466.5</ele>
        <time>2016-03-26T09:14:56Z</time>
      </trkpt>
      <trkpt lat="43.97462" lon="7.3145">
        <ele>462.2</ele>
        <time>2016-03-26T09:15:00Z</time>
      </trkpt>
      <trkpt lat="43.97471" lon="7.31453">
        <ele>460.3</ele>
        <time>2016-03-26T09:15:04Z</time>
      </trkpt>
      <trkpt lat="43.97481" lon="7.31455">
        <ele>458.5</ele>
        <time>2016-03-26T09:15:08Z</time>
      </trkpt>
      <trkpt lat="43.97485" lon="7.31458">
        <ele>457.5</ele>
        <time>2016-03-26T09:15:12Z</time>
      </trkpt>
      <trkpt lat="43.97491" lon="7.31463">
        <ele>457.7</ele>
        <time>2016-03-26T09:15:16Z</time>
      </trkpt>
      <trkpt lat="43.97496" lon="7.31465">
        <ele>457.4</ele>
        <time>2016-03-26T09:15:20Z</time>
      </trkpt>
      <trkpt lat="43.97497" lon="7.31466">
        <ele>457.6</ele>
        <time>2016-03-26T09:15:24Z</time>
      </trkpt>
      <trkpt lat="43.97497" lon="7.31466">
        <ele>457.6</ele>
        <time>2016-03-26T09:15:28Z</time>
      </trkpt>
      <trkpt lat="43.97502" lon="7.31474">
        <ele>458.5</ele>
        <time>2016-03-26T09:15:32Z</time>
      </trkpt>
      <trkpt lat="43.97508" lon="7.31479">
        <ele>458.6</ele>
        <time>2016-03-26T09:15:36Z</time>
      </trkpt>
      <trkpt lat="43.97513" lon="7.31483">
        <ele>458.5</ele>
        <time>2016-03-26T09:15:40Z</time>
      </trkpt>
      <trkpt lat="43.97518" lon="7.31487">
        <ele>458.4</ele>
        <time>2016-03-26T09:15:44Z</time>
      </trkpt>
      <trkpt lat="43.97523" lon="7.31492">
        <ele>458.1</ele>
        <time>2016-03-26T09:15:49Z</time>
      </trkpt>
      <trkpt lat="43.97529" lon="7.31498">
        <ele>457.9</ele>
        <time>2016-03-26T09:15:52Z</time>
      </trkpt>
      <trkpt lat="43.97529" lon="7.31506">
        <ele>459.4</ele>
        <time>2016-03-26T09:15:56Z</time>
      </trkpt>
      <trkpt lat="43.97527" lon="7.31517">
        <ele>462.2</ele>
        <time>2016-03-26T09:16:00Z</time>
      </trkpt>
      <trkpt lat="43.97525" lon="7.31525">
        <ele>464.4</ele>
        <time>2016-03-26T09:16:05Z</time>
      </trkpt>
      <trkpt lat="43.97525" lon="7.31533">
        <ele>466.1</ele>
        <time>2016-03-26T09:16:08Z</time>
      </trkpt>
      <trkpt lat="43.97525" lon="7.31542">
        <ele>467.8</ele>
        <time>2016-03-26T09:16:12Z</time>
      </trkpt>
      <trkpt lat="43.97525" lon="7.31551">
        <ele>469.6</ele>
        <time>2016-03-26T09:16:16Z</time>
      </trkpt>
      <trkpt lat="43.97526" lon="7.31558">
        <ele>470.3</ele>
        <time>2016-03-26T09:16:20Z</time>
      </trkpt>
      <trkpt lat="43.97528" lon="7.31565">
        <ele>471.1</ele>
        <time>2016-03-26T09:16:24Z</time>
      </trkpt>
      <trkpt lat="43.97529" lon="7.31572">
        <ele>472</ele>
        <time>2016-03-26T09:16:28Z</time>
      </trkpt>
      <trkpt lat="43.9753" lon="7.31578">
        <ele>472.6</ele>
        <time>2016-03-26T09:16:32Z</time>
      </trkpt>
      <trkpt lat="43.97534" lon="7.31584">
        <ele>472.4</ele>
        <time>2016-03-26T09:16:36Z</time>
      </trkpt>
      <trkpt lat="43.97539" lon="7.3159">
        <ele>471.8</ele>
        <time>2016-03-26T09:16:40Z</time>
      </trkpt>
      <trkpt lat="43.97543" lon="7.31596">
        <ele>471.6</ele>
        <time>2016-03-26T09:16:44Z</time>
      </trkpt>
      <trkpt lat="43.97548" lon="7.31604">
        <ele>472.2</ele>
        <time>2016-03-26T09:16:48Z</time>
      </trkpt>
      <trkpt lat="43.97551" lon="7.31612">
        <ele>473.1</ele>
        <time>2016-03-26T09:16:52Z</time>
      </trkpt>
      <trkpt lat="43.97555" lon="7.3162">
        <ele>473.9</ele>
        <time>2016-03-26T09:16:56Z</time>
      </trkpt>
      <trkpt lat="43.9756" lon="7.31629">
        <ele>475</ele>
        <time>2016-03-26T09:17:00Z</time>
      </trkpt>
      <trkpt lat="43.97563" lon="7.31636">
        <ele>476.8</ele>
        <time>2016-03-26T09:17:04Z</time>
      </trkpt>
      <trkpt lat="43.97566" lon="7.31644">
        <ele>478.6</ele>
        <time>2016-03-26T09:17:08Z</time>
      </trkpt>
      <trkpt lat="43.9757" lon="7.3165">
        <ele>480</ele>
        <time>2016-03-26T09:17:12Z</time>
      </trkpt>
      <trkpt lat="43.97576" lon="7.31653">
        <ele>480.2</ele>
        <time>2016-03-26T09:17:16Z</time>
      </trkpt>
      <trkpt lat="43.9758" lon="7.31657">
        <ele>480.9</ele>
        <time>2016-03-26T09:17:21Z</time>
      </trkpt>
      <trkpt lat="43.97584" lon="7.31661">
        <ele>481.6</ele>
        <time>2016-03-26T09:17:24Z</time>
      </trkpt>
      <trkpt lat="43.9759" lon="7.31662">
        <ele>481.6</ele>
        <time>2016-03-26T09:17:28Z</time>
      </trkpt>
      <trkpt lat="43.97595" lon="7.31664">
        <ele>481.7</ele>
        <time>2016-03-26T09:17:32Z</time>
      </trkpt>
      <trkpt lat="43.97599" lon="7.31665">
        <ele>481.5</ele>
        <time>2016-03-26T09:17:36Z</time>
      </trkpt>
      <trkpt lat="43.97601" lon="7.31668">
        <ele>482.6</ele>
        <time>2016-03-26T09:17:40Z</time>
      </trkpt>
      <trkpt lat="43.97601" lon="7.31668">
        <ele>482.6</ele>
        <time>2016-03-26T09:17:44Z</time>
      </trkpt>
      <trkpt lat="43.97602" lon="7.31672">
        <ele>483.6</ele>
        <time>2016-03-26T09:17:48Z</time>
      </trkpt>
      <trkpt lat="43.97602" lon="7.31672">
        <ele>483.6</ele>
        <time>2016-03-26T09:17:50Z</time>
      </trkpt>
      <trkpt lat="43.97602" lon="7.31672">
        <ele>483.6</ele>
        <time>2016-03-26T09:17:52Z</time>
      </trkpt>
      <trkpt lat="43.97602" lon="7.31672">
        <ele>483.6</ele>
        <time>2016-03-26T09:17:56Z</time>
      </trkpt>
      <trkpt lat="43.97612" lon="7.31679">
        <ele>485.3</ele>
        <time>2016-03-26T09:18:00Z</time>
      </trkpt>
      <trkpt lat="43.97616" lon="7.3168">
        <ele>485.5</ele>
        <time>2016-03-26T09:18:04Z</time>
      </trkpt>
      <trkpt lat="43.97619" lon="7.31681">
        <ele>485.6</ele>
        <time>2016-03-26T09:18:08Z</time>
      </trkpt>
      <trkpt lat="43.97619" lon="7.31681">
        <ele>485.6</ele>
        <time>2016-03-26T09:18:12Z</time>
      </trkpt>
      <trkpt lat="43.97619" lon="7.31681">
        <ele>485.6</ele>
        <time>2016-03-26T09:18:16Z</time>
      </trkpt>
      <trkpt lat="43.97619" lon="7.31681">
        <ele>485.6</ele>
        <time>2016-03-26T09:18:20Z</time>
      </trkpt>
      <trkpt lat="43.97623" lon="7.3169">
        <ele>488.7</ele>
        <time>2016-03-26T09:18:24Z</time>
      </trkpt>
      <trkpt lat="43.97629" lon="7.31696">
        <ele>490.6</ele>
        <time>2016-03-26T09:18:28Z</time>
      </trkpt>
      <trkpt lat="43.97634" lon="7.31703">
        <ele>492.9</ele>
        <time>2016-03-26T09:18:32Z</time>
      </trkpt>
      <trkpt lat="43.9764" lon="7.3171">
        <ele>494.9</ele>
        <time>2016-03-26T09:18:36Z</time>
      </trkpt>
      <trkpt lat="43.97646" lon="7.31716">
        <ele>496</ele>
        <time>2016-03-26T09:18:40Z</time>
      </trkpt>
      <trkpt lat="43.97654" lon="7.31722">
        <ele>497.3</ele>
        <time>2016-03-26T09:18:44Z</time>
      </trkpt>
      <trkpt lat="43.97661" lon="7.31726">
        <ele>498</ele>
        <time>2016-03-26T09:18:48Z</time>
      </trkpt>
      <trkpt lat="43.97665" lon="7.31729">
        <ele>498.3</ele>
        <time>2016-03-26T09:18:52Z</time>
      </trkpt>
      <trkpt lat="43.97669" lon="7.31732">
        <ele>499</ele>
        <time>2016-03-26T09:18:56Z</time>
      </trkpt>
      <trkpt lat="43.97674" lon="7.31738">
        <ele>500.4</ele>
        <time>2016-03-26T09:19:00Z</time>
      </trkpt>
      <trkpt lat="43.9768" lon="7.31744">
        <ele>502.2</ele>
        <time>2016-03-26T09:19:04Z</time>
      </trkpt>
      <trkpt lat="43.97688" lon="7.31751">
        <ele>503.6</ele>
        <time>2016-03-26T09:19:08Z</time>
      </trkpt>
      <trkpt lat="43.97694" lon="7.31758">
        <ele>505.5</ele>
        <time>2016-03-26T09:19:12Z</time>
      </trkpt>
      <trkpt lat="43.97701" lon="7.31765">
        <ele>507.1</ele>
        <time>2016-03-26T09:19:16Z</time>
      </trkpt>
      <trkpt lat="43.97707" lon="7.31772">
        <ele>508.9</ele>
        <time>2016-03-26T09:19:20Z</time>
      </trkpt>
      <trkpt lat="43.97713" lon="7.3178">
        <ele>510.8</ele>
        <time>2016-03-26T09:19:24Z</time>
      </trkpt>
      <trkpt lat="43.97717" lon="7.31786">
        <ele>511.8</ele>
        <time>2016-03-26T09:19:28Z</time>
      </trkpt>
      <trkpt lat="43.97721" lon="7.31787">
        <ele>511.6</ele>
        <time>2016-03-26T09:19:32Z</time>
      </trkpt>
      <trkpt lat="43.97725" lon="7.31791">
        <ele>512.1</ele>
        <time>2016-03-26T09:19:36Z</time>
      </trkpt>
      <trkpt lat="43.97729" lon="7.31795">
        <ele>512.4</ele>
        <time>2016-03-26T09:19:40Z</time>
      </trkpt>
      <trkpt lat="43.97732" lon="7.31799">
        <ele>513</ele>
        <time>2016-03-26T09:19:44Z</time>
      </trkpt>
      <trkpt lat="43.97736" lon="7.31803">
        <ele>513.4</ele>
        <time>2016-03-26T09:19:48Z</time>
      </trkpt>
      <trkpt lat="43.97739" lon="7.31807">
        <ele>514.1</ele>
        <time>2016-03-26T09:19:52Z</time>
      </trkpt>
      <trkpt lat="43.97744" lon="7.31812">
        <ele>514.7</ele>
        <time>2016-03-26T09:19:56Z</time>
      </trkpt>
      <trkpt lat="43.97748" lon="7.31818">
        <ele>515.5</ele>
        <time>2016-03-26T09:20:00Z</time>
      </trkpt>
      <trkpt lat="43.97753" lon="7.31821">
        <ele>515.6</ele>
        <time>2016-03-26T09:20:04Z</time>
      </trkpt>
      <trkpt lat="43.97759" lon="7.31823">
        <ele>514.6</ele>
        <time>2016-03-26T09:20:08Z</time>
      </trkpt>
      <trkpt lat="43.97763" lon="7.31825">
        <ele>514.3</ele>
        <time>2016-03-26T09:20:12Z</time>
      </trkpt>
      <trkpt lat="43.97764" lon="7.31828">
        <ele>515.1</ele>
        <time>2016-03-26T09:20:17Z</time>
      </trkpt>
      <trkpt lat="43.97764" lon="7.31828">
        <ele>515.1</ele>
        <time>2016-03-26T09:20:20Z</time>
      </trkpt>
      <trkpt lat="43.97764" lon="7.31828">
        <ele>515.1</ele>
        <time>2016-03-26T09:20:24Z</time>
      </trkpt>
      <trkpt lat="43.97771" lon="7.31832">
        <ele>514.6</ele>
        <time>2016-03-26T09:20:28Z</time>
      </trkpt>
      <trkpt lat="43.97778" lon="7.31838">
        <ele>514.8</ele>
        <time>2016-03-26T09:20:32Z</time>
      </trkpt>
      <trkpt lat="43.97786" lon="7.31845">
        <ele>515.1</ele>
        <time>2016-03-26T09:20:36Z</time>
      </trkpt>
      <trkpt lat="43.97793" lon="7.31851">
        <ele>515.2</ele>
        <time>2016-03-26T09:20:40Z</time>
      </trkpt>
      <trkpt lat="43.97802" lon="7.31856">
        <ele>514.8</ele>
        <time>2016-03-26T09:20:44Z</time>
      </trkpt>
      <trkpt lat="43.97809" lon="7.31863">
        <ele>515.1</ele>
        <time>2016-03-26T09:20:48Z</time>
      </trkpt>
      <trkpt lat="43.97816" lon="7.31869">
        <ele>515.3</ele>
        <time>2016-03-26T09:20:52Z</time>
      </trkpt>
      <trkpt lat="43.97824" lon="7.31877">
        <ele>516</ele>
        <time>2016-03-26T09:20:56Z</time>
      </trkpt>
      <trkpt lat="43.9783" lon="7.31885">
        <ele>516.4</ele>
        <time>2016-03-26T09:21:00Z</time>
      </trkpt>
      <trkpt lat="43.97836" lon="7.31891">
        <ele>517</ele>
        <time>2016-03-26T09:21:04Z</time>
      </trkpt>
      <trkpt lat="43.97841" lon="7.31898">
        <ele>517.6</ele>
        <time>2016-03-26T09:21:08Z</time>
      </trkpt>
      <trkpt lat="43.97848" lon="7.31903">
        <ele>517.2</ele>
        <time>2016-03-26T09:21:12Z</time>
      </trkpt>
      <trkpt lat="43.97857" lon="7.31906">
        <ele>516</ele>
        <time>2016-03-26T09:21:16Z</time>
      </trkpt>
      <trkpt lat="43.97866" lon="7.31908">
        <ele>514.2</ele>
        <time>2016-03-26T09:21:20Z</time>
      </trkpt>
      <trkpt lat="43.97875" lon="7.319">
        <ele>510</ele>
        <time>2016-03-26T09:21:24Z</time>
      </trkpt>
      <trkpt lat="43.97882" lon="7.31887">
        <ele>506.2</ele>
        <time>2016-03-26T09:21:28Z</time>
      </trkpt>
      <trkpt lat="43.97888" lon="7.31875">
        <ele>502.6</ele>
        <time>2016-03-26T09:21:32Z</time>
      </trkpt>
      <trkpt lat="43.97893" lon="7.31862">
        <ele>499.1</ele>
        <time>2016-03-26T09:21:36Z</time>
      </trkpt>
      <trkpt lat="43.97901" lon="7.31853">
        <ele>496.4</ele>
        <time>2016-03-26T09:21:40Z</time>
      </trkpt>
      <trkpt lat="43.97912" lon="7.3185">
        <ele>495.2</ele>
        <time>2016-03-26T09:21:44Z</time>
      </trkpt>
      <trkpt lat="43.97922" lon="7.31849">
        <ele>494.6</ele>
        <time>2016-03-26T09:21:48Z</time>
      </trkpt>
      <trkpt lat="43.97932" lon="7.31848">
        <ele>493.9</ele>
        <time>2016-03-26T09:21:52Z</time>
      </trkpt>
      <trkpt lat="43.97942" lon="7.31849">
        <ele>493.6</ele>
        <time>2016-03-26T09:21:56Z</time>
      </trkpt>
      <trkpt lat="43.97951" lon="7.31848">
        <ele>493.2</ele>
        <time>2016-03-26T09:22:00Z</time>
      </trkpt>
      <trkpt lat="43.97961" lon="7.31847">
        <ele>492.6</ele>
        <time>2016-03-26T09:22:04Z</time>
      </trkpt>
      <trkpt lat="43.97972" lon="7.31851">
        <ele>493.5</ele>
        <time>2016-03-26T09:22:08Z</time>
      </trkpt>
      <trkpt lat="43.97982" lon="7.31859">
        <ele>495.7</ele>
        <time>2016-03-26T09:22:12Z</time>
      </trkpt>
      <trkpt lat="43.97982" lon="7.31859">
        <ele>495.7</ele>
        <time>2016-03-26T09:22:16Z</time>
      </trkpt>
      <trkpt lat="43.97987" lon="7.31872">
        <ele>499.1</ele>
        <time>2016-03-26T09:22:19Z</time>
      </trkpt>
      <trkpt lat="43.97988" lon="7.31876">
        <ele>500.2</ele>
        <time>2016-03-26T09:22:20Z</time>
      </trkpt>
      <trkpt lat="43.97995" lon="7.31899">
        <ele>504.8</ele>
        <time>2016-03-26T09:22:25Z</time>
      </trkpt>
      <trkpt lat="43.98" lon="7.3191">
        <ele>507.1</ele>
        <time>2016-03-26T09:22:28Z</time>
      </trkpt>
      <trkpt lat="43.98005" lon="7.31915">
        <ele>508</ele>
        <time>2016-03-26T09:22:32Z</time>
      </trkpt>
      <trkpt lat="43.9801" lon="7.31915">
        <ele>507.7</ele>
        <time>2016-03-26T09:22:36Z</time>
      </trkpt>
      <trkpt lat="43.98015" lon="7.3191">
        <ele>506.4</ele>
        <time>2016-03-26T09:22:40Z</time>
      </trkpt>
      <trkpt lat="43.98019" lon="7.31902">
        <ele>504.6</ele>
        <time>2016-03-26T09:22:44Z</time>
      </trkpt>
      <trkpt lat="43.98025" lon="7.31896">
        <ele>503.2</ele>
        <time>2016-03-26T09:22:49Z</time>
      </trkpt>
      <trkpt lat="43.98033" lon="7.31894">
        <ele>502.5</ele>
        <time>2016-03-26T09:22:53Z</time>
      </trkpt>
      <trkpt lat="43.9804" lon="7.31895">
        <ele>502.4</ele>
        <time>2016-03-26T09:22:57Z</time>
      </trkpt>
      <trkpt lat="43.98048" lon="7.31896">
        <ele>502.6</ele>
        <time>2016-03-26T09:23:01Z</time>
      </trkpt>
      <trkpt lat="43.98055" lon="7.31898">
        <ele>502.9</ele>
        <time>2016-03-26T09:23:04Z</time>
      </trkpt>
      <trkpt lat="43.98063" lon="7.31901">
        <ele>503.4</ele>
        <time>2016-03-26T09:23:09Z</time>
      </trkpt>
      <trkpt lat="43.98071" lon="7.31904">
        <ele>504.2</ele>
        <time>2016-03-26T09:23:12Z</time>
      </trkpt>
      <trkpt lat="43.98078" lon="7.31907">
        <ele>504.8</ele>
        <time>2016-03-26T09:23:16Z</time>
      </trkpt>
      <trkpt lat="43.98085" lon="7.31909">
        <ele>505.3</ele>
        <time>2016-03-26T09:23:20Z</time>
      </trkpt>
      <trkpt lat="43.98092" lon="7.31913">
        <ele>506.1</ele>
        <time>2016-03-26T09:23:24Z</time>
      </trkpt>
      <trkpt lat="43.981" lon="7.31914">
        <ele>506.5</ele>
        <time>2016-03-26T09:23:28Z</time>
      </trkpt>
      <trkpt lat="43.98109" lon="7.31914">
        <ele>506.4</ele>
        <time>2016-03-26T09:23:32Z</time>
      </trkpt>
      <trkpt lat="43.98118" lon="7.31916">
        <ele>506.7</ele>
        <time>2016-03-26T09:23:36Z</time>
      </trkpt>
      <trkpt lat="43.98126" lon="7.31916">
        <ele>506.8</ele>
        <time>2016-03-26T09:23:40Z</time>
      </trkpt>
      <trkpt lat="43.98134" lon="7.31916">
        <ele>506.6</ele>
        <time>2016-03-26T09:23:44Z</time>
      </trkpt>
      <trkpt lat="43.98142" lon="7.31916">
        <ele>506.6</ele>
        <time>2016-03-26T09:23:48Z</time>
      </trkpt>
      <trkpt lat="43.98149" lon="7.31917">
        <ele>506.8</ele>
        <time>2016-03-26T09:23:52Z</time>
      </trkpt>
      <trkpt lat="43.98156" lon="7.31919">
        <ele>507.4</ele>
        <time>2016-03-26T09:23:56Z</time>
      </trkpt>
      <trkpt lat="43.98164" lon="7.31922">
        <ele>507.9</ele>
        <time>2016-03-26T09:24:00Z</time>
      </trkpt>
      <trkpt lat="43.98173" lon="7.31923">
        <ele>508.2</ele>
        <time>2016-03-26T09:24:04Z</time>
      </trkpt>
      <trkpt lat="43.9818" lon="7.31925">
        <ele>508.8</ele>
        <time>2016-03-26T09:24:08Z</time>
      </trkpt>
      <trkpt lat="43.98187" lon="7.31932">
        <ele>510.7</ele>
        <time>2016-03-26T09:24:12Z</time>
      </trkpt>
      <trkpt lat="43.98194" lon="7.3194">
        <ele>513.2</ele>
        <time>2016-03-26T09:24:16Z</time>
      </trkpt>
      <trkpt lat="43.98199" lon="7.31952">
        <ele>516.7</ele>
        <time>2016-03-26T09:24:20Z</time>
      </trkpt>
      <trkpt lat="43.98204" lon="7.3196">
        <ele>519.6</ele>
        <time>2016-03-26T09:24:24Z</time>
      </trkpt>
      <trkpt lat="43.9821" lon="7.31966">
        <ele>521</ele>
        <time>2016-03-26T09:24:28Z</time>
      </trkpt>
      <trkpt lat="43.98214" lon="7.31973">
        <ele>522.1</ele>
        <time>2016-03-26T09:24:32Z</time>
      </trkpt>
      <trkpt lat="43.98218" lon="7.31984">
        <ele>524.6</ele>
        <time>2016-03-26T09:24:36Z</time>
      </trkpt>
      <trkpt lat="43.98223" lon="7.31995">
        <ele>526.6</ele>
        <time>2016-03-26T09:24:40Z</time>
      </trkpt>
      <trkpt lat="43.9823" lon="7.32005">
        <ele>527.7</ele>
        <time>2016-03-26T09:24:44Z</time>
      </trkpt>
      <trkpt lat="43.98236" lon="7.32014">
        <ele>528.8</ele>
        <time>2016-03-26T09:24:48Z</time>
      </trkpt>
      <trkpt lat="43.98242" lon="7.32023">
        <ele>530.1</ele>
        <time>2016-03-26T09:24:52Z</time>
      </trkpt>
      <trkpt lat="43.98248" lon="7.32034">
        <ele>531.3</ele>
        <time>2016-03-26T09:24:56Z</time>
      </trkpt>
      <trkpt lat="43.98255" lon="7.32045">
        <ele>532.4</ele>
        <time>2016-03-26T09:25:00Z</time>
      </trkpt>
      <trkpt lat="43.98261" lon="7.32055">
        <ele>533</ele>
        <time>2016-03-26T09:25:04Z</time>
      </trkpt>
      <trkpt lat="43.98261" lon="7.32055">
        <ele>533</ele>
        <time>2016-03-26T09:25:09Z</time>
      </trkpt>
      <trkpt lat="43.98268" lon="7.32064">
        <ele>533.2</ele>
        <time>2016-03-26T09:25:11Z</time>
      </trkpt>
      <trkpt lat="43.98273" lon="7.32066">
        <ele>532.2</ele>
        <time>2016-03-26T09:25:13Z</time>
      </trkpt>
      <trkpt lat="43.98275" lon="7.32065">
        <ele>531.3</ele>
        <time>2016-03-26T09:25:17Z</time>
      </trkpt>
      <trkpt lat="43.98279" lon="7.32064">
        <ele>529.7</ele>
        <time>2016-03-26T09:25:20Z</time>
      </trkpt>
      <trkpt lat="43.98286" lon="7.32066">
        <ele>528.2</ele>
        <time>2016-03-26T09:25:24Z</time>
      </trkpt>
      <trkpt lat="43.98293" lon="7.32071">
        <ele>527.3</ele>
        <time>2016-03-26T09:25:28Z</time>
      </trkpt>
      <trkpt lat="43.98302" lon="7.3208">
        <ele>527.7</ele>
        <time>2016-03-26T09:25:32Z</time>
      </trkpt>
      <trkpt lat="43.98308" lon="7.32091">
        <ele>528.5</ele>
        <time>2016-03-26T09:25:36Z</time>
      </trkpt>
      <trkpt lat="43.98313" lon="7.32101">
        <ele>529.7</ele>
        <time>2016-03-26T09:25:40Z</time>
      </trkpt>
      <trkpt lat="43.98315" lon="7.32112">
        <ele>531.6</ele>
        <time>2016-03-26T09:25:44Z</time>
      </trkpt>
      <trkpt lat="43.98319" lon="7.32123">
        <ele>533</ele>
        <time>2016-03-26T09:25:48Z</time>
      </trkpt>
      <trkpt lat="43.98322" lon="7.32134">
        <ele>535.4</ele>
        <time>2016-03-26T09:25:52Z</time>
      </trkpt>
      <trkpt lat="43.98326" lon="7.32145">
        <ele>537.4</ele>
        <time>2016-03-26T09:25:56Z</time>
      </trkpt>
      <trkpt lat="43.98329" lon="7.32156">
        <ele>539.2</ele>
        <time>2016-03-26T09:26:00Z</time>
      </trkpt>
      <trkpt lat="43.98331" lon="7.32166">
        <ele>541.5</ele>
        <time>2016-03-26T09:26:04Z</time>
      </trkpt>
      <trkpt lat="43.98332" lon="7.32177">
        <ele>544.1</ele>
        <time>2016-03-26T09:26:09Z</time>
      </trkpt>
      <trkpt lat="43.98335" lon="7.32187">
        <ele>545.5</ele>
        <time>2016-03-26T09:26:12Z</time>
      </trkpt>
      <trkpt lat="43.98339" lon="7.32197">
        <ele>546.6</ele>
        <time>2016-03-26T09:26:16Z</time>
      </trkpt>
      <trkpt lat="43.98342" lon="7.32208">
        <ele>548.1</ele>
        <time>2016-03-26T09:26:20Z</time>
      </trkpt>
      <trkpt lat="43.98345" lon="7.32219">
        <ele>549</ele>
        <time>2016-03-26T09:26:24Z</time>
      </trkpt>
      <trkpt lat="43.98349" lon="7.32229">
        <ele>549.7</ele>
        <time>2016-03-26T09:26:28Z</time>
      </trkpt>
      <trkpt lat="43.98353" lon="7.32238">
        <ele>550.2</ele>
        <time>2016-03-26T09:26:32Z</time>
      </trkpt>
      <trkpt lat="43.98357" lon="7.32247">
        <ele>550.1</ele>
        <time>2016-03-26T09:26:36Z</time>
      </trkpt>
      <trkpt lat="43.98363" lon="7.32258">
        <ele>549.6</ele>
        <time>2016-03-26T09:26:40Z</time>
      </trkpt>
      <trkpt lat="43.98367" lon="7.3227">
        <ele>550.5</ele>
        <time>2016-03-26T09:26:44Z</time>
      </trkpt>
      <trkpt lat="43.98371" lon="7.32282">
        <ele>551</ele>
        <time>2016-03-26T09:26:48Z</time>
      </trkpt>
      <trkpt lat="43.98377" lon="7.32292">
        <ele>550.3</ele>
        <time>2016-03-26T09:26:52Z</time>
      </trkpt>
      <trkpt lat="43.98381" lon="7.32296">
        <ele>549.5</ele>
        <time>2016-03-26T09:26:57Z</time>
      </trkpt>
      <trkpt lat="43.98382" lon="7.32299">
        <ele>549.6</ele>
        <time>2016-03-26T09:27:00Z</time>
      </trkpt>
      <trkpt lat="43.98382" lon="7.32299">
        <ele>549.6</ele>
        <time>2016-03-26T09:27:04Z</time>
      </trkpt>
      <trkpt lat="43.98382" lon="7.32299">
        <ele>549.6</ele>
        <time>2016-03-26T09:27:08Z</time>
      </trkpt>
      <trkpt lat="43.98382" lon="7.32299">
        <ele>549.6</ele>
        <time>2016-03-26T09:27:12Z</time>
      </trkpt>
      <trkpt lat="43.98382" lon="7.32299">
        <ele>549.6</ele>
        <time>2016-03-26T09:27:16Z</time>
      </trkpt>
      <trkpt lat="43.98382" lon="7.32299">
        <ele>549.6</ele>
        <time>2016-03-26T09:27:20Z</time>
      </trkpt>
      <trkpt lat="43.98382" lon="7.32299">
        <ele>549.6</ele>
        <time>2016-03-26T09:27:25Z</time>
      </trkpt>
      <trkpt lat="43.98382" lon="7.32299">
        <ele>549.6</ele>
        <time>2016-03-26T09:27:28Z</time>
      </trkpt>
      <trkpt lat="43.98386" lon="7.32305">
        <ele>549.1</ele>
        <time>2016-03-26T09:27:32Z</time>
      </trkpt>
      <trkpt lat="43.98389" lon="7.32316">
        <ele>549.5</ele>
        <time>2016-03-26T09:27:36Z</time>
      </trkpt>
      <trkpt lat="43.98395" lon="7.32327">
        <ele>548.9</ele>
        <time>2016-03-26T09:27:40Z</time>
      </trkpt>
      <trkpt lat="43.98402" lon="7.32333">
        <ele>547.1</ele>
        <time>2016-03-26T09:27:44Z</time>
      </trkpt>
      <trkpt lat="43.98409" lon="7.32331">
        <ele>543.8</ele>
        <time>2016-03-26T09:27:48Z</time>
      </trkpt>
      <trkpt lat="43.98417" lon="7.32332">
        <ele>540.3</ele>
        <time>2016-03-26T09:27:52Z</time>
      </trkpt>
      <trkpt lat="43.98427" lon="7.32341">
        <ele>537.6</ele>
        <time>2016-03-26T09:27:57Z</time>
      </trkpt>
      <trkpt lat="43.98435" lon="7.32348">
        <ele>535.2</ele>
        <time>2016-03-26T09:28:00Z</time>
      </trkpt>
      <trkpt lat="43.98442" lon="7.32357">
        <ele>533.1</ele>
        <time>2016-03-26T09:28:04Z</time>
      </trkpt>
      <trkpt lat="43.98447" lon="7.3237">
        <ele>532.4</ele>
        <time>2016-03-26T09:28:08Z</time>
      </trkpt>
      <trkpt lat="43.98451" lon="7.32385">
        <ele>533.6</ele>
        <time>2016-03-26T09:28:12Z</time>
      </trkpt>
      <trkpt lat="43.98454" lon="7.32402">
        <ele>535.2</ele>
        <time>2016-03-26T09:28:16Z</time>
      </trkpt>
      <trkpt lat="43.9846" lon="7.32415">
        <ele>535.4</ele>
        <time>2016-03-26T09:28:20Z</time>
      </trkpt>
      <trkpt lat="43.98468" lon="7.32425">
        <ele>536.5</ele>
        <time>2016-03-26T09:28:24Z</time>
      </trkpt>
      <trkpt lat="43.98475" lon="7.32433">
        <ele>536.6</ele>
        <time>2016-03-26T09:28:28Z</time>
      </trkpt>
      <trkpt lat="43.98482" lon="7.32446">
        <ele>537.3</ele>
        <time>2016-03-26T09:28:32Z</time>
      </trkpt>
      <trkpt lat="43.98487" lon="7.32456">
        <ele>537.6</ele>
        <time>2016-03-26T09:28:36Z</time>
      </trkpt>
      <trkpt lat="43.98493" lon="7.32462">
        <ele>537</ele>
        <time>2016-03-26T09:28:40Z</time>
      </trkpt>
      <trkpt lat="43.98502" lon="7.32469">
        <ele>536.1</ele>
        <time>2016-03-26T09:28:44Z</time>
      </trkpt>
      <trkpt lat="43.98512" lon="7.32474">
        <ele>534.5</ele>
        <time>2016-03-26T09:28:48Z</time>
      </trkpt>
      <trkpt lat="43.98521" lon="7.32481">
        <ele>533.3</ele>
        <time>2016-03-26T09:28:52Z</time>
      </trkpt>
      <trkpt lat="43.9853" lon="7.32489">
        <ele>531.9</ele>
        <time>2016-03-26T09:28:56Z</time>
      </trkpt>
      <trkpt lat="43.98538" lon="7.32493">
        <ele>530.4</ele>
        <time>2016-03-26T09:29:00Z</time>
      </trkpt>
      <trkpt lat="43.98541" lon="7.32497">
        <ele>530</ele>
        <time>2016-03-26T09:29:04Z</time>
      </trkpt>
      <trkpt lat="43.98543" lon="7.32504">
        <ele>530.5</ele>
        <time>2016-03-26T09:29:08Z</time>
      </trkpt>
      <trkpt lat="43.98545" lon="7.32511">
        <ele>531.4</ele>
        <time>2016-03-26T09:29:12Z</time>
      </trkpt>
      <trkpt lat="43.9855" lon="7.32515">
        <ele>532</ele>
        <time>2016-03-26T09:29:16Z</time>
      </trkpt>
      <trkpt lat="43.98553" lon="7.32519">
        <ele>532.5</ele>
        <time>2016-03-26T09:29:20Z</time>
      </trkpt>
      <trkpt lat="43.98555" lon="7.32523">
        <ele>532.8</ele>
        <time>2016-03-26T09:29:24Z</time>
      </trkpt>
      <trkpt lat="43.98557" lon="7.32527">
        <ele>533.1</ele>
        <time>2016-03-26T09:29:28Z</time>
      </trkpt>
      <trkpt lat="43.98557" lon="7.32527">
        <ele>533.1</ele>
        <time>2016-03-26T09:29:32Z</time>
      </trkpt>
      <trkpt lat="43.98557" lon="7.32527">
        <ele>533.1</ele>
        <time>2016-03-26T09:29:36Z</time>
      </trkpt>
      <trkpt lat="43.98557" lon="7.32527">
        <ele>533.1</ele>
        <time>2016-03-26T09:29:40Z</time>
      </trkpt>
      <trkpt lat="43.98557" lon="7.32527">
        <ele>533.1</ele>
        <time>2016-03-26T09:29:44Z</time>
      </trkpt>
      <trkpt lat="43.98557" lon="7.32527">
        <ele>533.1</ele>
        <time>2016-03-26T09:29:48Z</time>
      </trkpt>
      <trkpt lat="43.98557" lon="7.32527">
        <ele>533.1</ele>
        <time>2016-03-26T09:29:53Z</time>
      </trkpt>
      <trkpt lat="43.98557" lon="7.32527">
        <ele>533.1</ele>
        <time>2016-03-26T09:29:56Z</time>
      </trkpt>
      <trkpt lat="43.98557" lon="7.32527">
        <ele>533.1</ele>
        <time>2016-03-26T09:30:00Z</time>
      </trkpt>
      <trkpt lat="43.98561" lon="7.3256">
        <ele>535.6</ele>
        <time>2016-03-26T09:30:04Z</time>
      </trkpt>
      <trkpt lat="43.98563" lon="7.32565">
        <ele>536.1</ele>
        <time>2016-03-26T09:30:08Z</time>
      </trkpt>
      <trkpt lat="43.98563" lon="7.32565">
        <ele>536.1</ele>
        <time>2016-03-26T09:30:12Z</time>
      </trkpt>
      <trkpt lat="43.98563" lon="7.32565">
        <ele>536.1</ele>
        <time>2016-03-26T09:30:16Z</time>
      </trkpt>
      <trkpt lat="43.98563" lon="7.32565">
        <ele>536.1</ele>
        <time>2016-03-26T09:30:20Z</time>
      </trkpt>
      <trkpt lat="43.98566" lon="7.3258">
        <ele>537.5</ele>
        <time>2016-03-26T09:30:25Z</time>
      </trkpt>
      <trkpt lat="43.98567" lon="7.32586">
        <ele>538</ele>
        <time>2016-03-26T09:30:28Z</time>
      </trkpt>
      <trkpt lat="43.98566" lon="7.32593">
        <ele>538.9</ele>
        <time>2016-03-26T09:30:32Z</time>
      </trkpt>
      <trkpt lat="43.98566" lon="7.32599">
        <ele>539.5</ele>
        <time>2016-03-26T09:30:36Z</time>
      </trkpt>
      <trkpt lat="43.98566" lon="7.32605">
        <ele>540.1</ele>
        <time>2016-03-26T09:30:40Z</time>
      </trkpt>
      <trkpt lat="43.98567" lon="7.32612">
        <ele>540.7</ele>
        <time>2016-03-26T09:30:44Z</time>
      </trkpt>
      <trkpt lat="43.98568" lon="7.32619">
        <ele>541.2</ele>
        <time>2016-03-26T09:30:48Z</time>
      </trkpt>
      <trkpt lat="43.98571" lon="7.32625">
        <ele>541.5</ele>
        <time>2016-03-26T09:30:52Z</time>
      </trkpt>
      <trkpt lat="43.98575" lon="7.32628">
        <ele>541.1</ele>
        <time>2016-03-26T09:30:56Z</time>
      </trkpt>
      <trkpt lat="43.98579" lon="7.32628">
        <ele>540.6</ele>
        <time>2016-03-26T09:31:00Z</time>
      </trkpt>
      <trkpt lat="43.98581" lon="7.32627">
        <ele>540.1</ele>
        <time>2016-03-26T09:31:04Z</time>
      </trkpt>
      <trkpt lat="43.98583" lon="7.32627">
        <ele>539.7</ele>
        <time>2016-03-26T09:31:08Z</time>
      </trkpt>
      <trkpt lat="43.98587" lon="7.32625">
        <ele>539</ele>
        <time>2016-03-26T09:31:12Z</time>
      </trkpt>
      <trkpt lat="43.98589" lon="7.32623">
        <ele>538.4</ele>
        <time>2016-03-26T09:31:16Z</time>
      </trkpt>
      <trkpt lat="43.98592" lon="7.3262">
        <ele>537.9</ele>
        <time>2016-03-26T09:31:20Z</time>
      </trkpt>
      <trkpt lat="43.98594" lon="7.32616">
        <ele>537.2</ele>
        <time>2016-03-26T09:31:24Z</time>
      </trkpt>
      <trkpt lat="43.98597" lon="7.32611">
        <ele>536.6</ele>
        <time>2016-03-26T09:31:28Z</time>
      </trkpt>
      <trkpt lat="43.98598" lon="7.32606">
        <ele>536.1</ele>
        <time>2016-03-26T09:31:32Z</time>
      </trkpt>
      <trkpt lat="43.98601" lon="7.32601">
        <ele>535.5</ele>
        <time>2016-03-26T09:31:36Z</time>
      </trkpt>
      <trkpt lat="43.98603" lon="7.32596">
        <ele>535.1</ele>
        <time>2016-03-26T09:31:40Z</time>
      </trkpt>
      <trkpt lat="43.98605" lon="7.32592">
        <ele>534.7</ele>
        <time>2016-03-26T09:31:45Z</time>
      </trkpt>
      <trkpt lat="43.98605" lon="7.32587">
        <ele>534.4</ele>
        <time>2016-03-26T09:31:48Z</time>
      </trkpt>
      <trkpt lat="43.98607" lon="7.32582">
        <ele>534.1</ele>
        <time>2016-03-26T09:31:52Z</time>
      </trkpt>
      <trkpt lat="43.98611" lon="7.32575">
        <ele>533.5</ele>
        <time>2016-03-26T09:31:56Z</time>
      </trkpt>
      <trkpt lat="43.98615" lon="7.32569">
        <ele>533</ele>
        <time>2016-03-26T09:32:00Z</time>
      </trkpt>
      <trkpt lat="43.98619" lon="7.32563">
        <ele>532.6</ele>
        <time>2016-03-26T09:32:04Z</time>
      </trkpt>
      <trkpt lat="43.98624" lon="7.32558">
        <ele>532.3</ele>
        <time>2016-03-26T09:32:08Z</time>
      </trkpt>
      <trkpt lat="43.98628" lon="7.32554">
        <ele>533.8</ele>
        <time>2016-03-26T09:32:12Z</time>
      </trkpt>
      <trkpt lat="43.98632" lon="7.32549">
        <ele>535.4</ele>
        <time>2016-03-26T09:32:16Z</time>
      </trkpt>
      <trkpt lat="43.98634" lon="7.32545">
        <ele>536.8</ele>
        <time>2016-03-26T09:32:20Z</time>
      </trkpt>
      <trkpt lat="43.98637" lon="7.32541">
        <ele>538.2</ele>
        <time>2016-03-26T09:32:24Z</time>
      </trkpt>
      <trkpt lat="43.98638" lon="7.32536">
        <ele>540.2</ele>
        <time>2016-03-26T09:32:28Z</time>
      </trkpt>
      <trkpt lat="43.98638" lon="7.32532">
        <ele>540.7</ele>
        <time>2016-03-26T09:32:32Z</time>
      </trkpt>
      <trkpt lat="43.98638" lon="7.32532">
        <ele>540.7</ele>
        <time>2016-03-26T09:32:36Z</time>
      </trkpt>
      <trkpt lat="43.98638" lon="7.32532">
        <ele>540.7</ele>
        <time>2016-03-26T09:32:40Z</time>
      </trkpt>
      <trkpt lat="43.98641" lon="7.32516">
        <ele>545.5</ele>
        <time>2016-03-26T09:32:44Z</time>
      </trkpt>
      <trkpt lat="43.98642" lon="7.32511">
        <ele>547.1</ele>
        <time>2016-03-26T09:32:48Z</time>
      </trkpt>
      <trkpt lat="43.98643" lon="7.32506">
        <ele>549</ele>
        <time>2016-03-26T09:32:52Z</time>
      </trkpt>
      <trkpt lat="43.98644" lon="7.325">
        <ele>551</ele>
        <time>2016-03-26T09:32:56Z</time>
      </trkpt>
      <trkpt lat="43.98646" lon="7.32495">
        <ele>552.8</ele>
        <time>2016-03-26T09:33:00Z</time>
      </trkpt>
      <trkpt lat="43.98647" lon="7.3249">
        <ele>554.7</ele>
        <time>2016-03-26T09:33:04Z</time>
      </trkpt>
      <trkpt lat="43.98649" lon="7.32483">
        <ele>557</ele>
        <time>2016-03-26T09:33:08Z</time>
      </trkpt>
      <trkpt lat="43.9865" lon="7.32478">
        <ele>558.5</ele>
        <time>2016-03-26T09:33:12Z</time>
      </trkpt>
      <trkpt lat="43.98649" lon="7.32473">
        <ele>559.1</ele>
        <time>2016-03-26T09:33:16Z</time>
      </trkpt>
      <trkpt lat="43.98649" lon="7.32469">
        <ele>559.8</ele>
        <time>2016-03-26T09:33:20Z</time>
      </trkpt>
      <trkpt lat="43.98649" lon="7.32469">
        <ele>559.8</ele>
        <time>2016-03-26T09:33:24Z</time>
      </trkpt>
      <trkpt lat="43.98649" lon="7.32469">
        <ele>559.8</ele>
        <time>2016-03-26T09:33:28Z</time>
      </trkpt>
      <trkpt lat="43.98649" lon="7.32469">
        <ele>559.8</ele>
        <time>2016-03-26T09:33:32Z</time>
      </trkpt>
      <trkpt lat="43.98649" lon="7.32469">
        <ele>559.8</ele>
        <time>2016-03-26T09:33:36Z</time>
      </trkpt>
      <trkpt lat="43.98649" lon="7.32469">
        <ele>559.8</ele>
        <time>2016-03-26T09:33:40Z</time>
      </trkpt>
      <trkpt lat="43.98649" lon="7.32469">
        <ele>559.8</ele>
        <time>2016-03-26T09:33:45Z</time>
      </trkpt>
      <trkpt lat="43.98649" lon="7.32469">
        <ele>559.8</ele>
        <time>2016-03-26T09:33:48Z</time>
      </trkpt>
      <trkpt lat="43.98649" lon="7.32469">
        <ele>559.8</ele>
        <time>2016-03-26T09:33:52Z</time>
      </trkpt>
      <trkpt lat="43.98649" lon="7.32469">
        <ele>559.8</ele>
        <time>2016-03-26T09:33:56Z</time>
      </trkpt>
      <trkpt lat="43.98649" lon="7.32469">
        <ele>559.8</ele>
        <time>2016-03-26T09:34:01Z</time>
      </trkpt>
      <trkpt lat="43.98649" lon="7.32469">
        <ele>559.8</ele>
        <time>2016-03-26T09:34:04Z</time>
      </trkpt>
      <trkpt lat="43.98649" lon="7.32469">
        <ele>559.8</ele>
        <time>2016-03-26T09:34:08Z</time>
      </trkpt>
      <trkpt lat="43.98649" lon="7.32469">
        <ele>559.8</ele>
        <time>2016-03-26T09:34:13Z</time>
      </trkpt>
      <trkpt lat="43.98649" lon="7.32469">
        <ele>559.8</ele>
        <time>2016-03-26T09:34:16Z</time>
      </trkpt>
      <trkpt lat="43.98674" lon="7.32506">
        <ele>565.2</ele>
        <time>2016-03-26T09:34:20Z</time>
      </trkpt>
      <trkpt lat="43.98676" lon="7.3251">
        <ele>564.9</ele>
        <time>2016-03-26T09:34:24Z</time>
      </trkpt>
      <trkpt lat="43.98677" lon="7.32516">
        <ele>564.3</ele>
        <time>2016-03-26T09:34:28Z</time>
      </trkpt>
      <trkpt lat="43.98677" lon="7.32522">
        <ele>563.1</ele>
        <time>2016-03-26T09:34:32Z</time>
      </trkpt>
      <trkpt lat="43.98679" lon="7.32528">
        <ele>562.6</ele>
        <time>2016-03-26T09:34:36Z</time>
      </trkpt>
      <trkpt lat="43.98679" lon="7.32534">
        <ele>561.6</ele>
        <time>2016-03-26T09:34:40Z</time>
      </trkpt>
      <trkpt lat="43.98677" lon="7.3254">
        <ele>559.2</ele>
        <time>2016-03-26T09:34:44Z</time>
      </trkpt>
      <trkpt lat="43.98676" lon="7.32546">
        <ele>558.1</ele>
        <time>2016-03-26T09:34:48Z</time>
      </trkpt>
      <trkpt lat="43.98676" lon="7.32552">
        <ele>557.8</ele>
        <time>2016-03-26T09:34:52Z</time>
      </trkpt>
      <trkpt lat="43.98678" lon="7.32561">
        <ele>558.6</ele>
        <time>2016-03-26T09:34:57Z</time>
      </trkpt>
      <trkpt lat="43.98681" lon="7.32566">
        <ele>559.6</ele>
        <time>2016-03-26T09:35:00Z</time>
      </trkpt>
      <trkpt lat="43.98683" lon="7.32572">
        <ele>560.4</ele>
        <time>2016-03-26T09:35:04Z</time>
      </trkpt>
      <trkpt lat="43.98685" lon="7.32576">
        <ele>561.2</ele>
        <time>2016-03-26T09:35:08Z</time>
      </trkpt>
      <trkpt lat="43.98688" lon="7.32578">
        <ele>562.5</ele>
        <time>2016-03-26T09:35:12Z</time>
      </trkpt>
      <trkpt lat="43.98691" lon="7.3258">
        <ele>564.1</ele>
        <time>2016-03-26T09:35:16Z</time>
      </trkpt>
      <trkpt lat="43.98694" lon="7.32581">
        <ele>565.5</ele>
        <time>2016-03-26T09:35:20Z</time>
      </trkpt>
      <trkpt lat="43.98698" lon="7.32581">
        <ele>567.1</ele>
        <time>2016-03-26T09:35:24Z</time>
      </trkpt>
      <trkpt lat="43.98698" lon="7.32581">
        <ele>567.1</ele>
        <time>2016-03-26T09:35:28Z</time>
      </trkpt>
      <trkpt lat="43.98698" lon="7.32581">
        <ele>567.1</ele>
        <time>2016-03-26T09:35:32Z</time>
      </trkpt>
      <trkpt lat="43.98698" lon="7.32581">
        <ele>567.1</ele>
        <time>2016-03-26T09:35:36Z</time>
      </trkpt>
      <trkpt lat="43.98698" lon="7.32581">
        <ele>567.1</ele>
        <time>2016-03-26T09:35:40Z</time>
      </trkpt>
      <trkpt lat="43.98698" lon="7.32581">
        <ele>567.1</ele>
        <time>2016-03-26T09:35:44Z</time>
      </trkpt>
      <trkpt lat="43.98717" lon="7.32585">
        <ele>575.3</ele>
        <time>2016-03-26T09:35:48Z</time>
      </trkpt>
      <trkpt lat="43.98721" lon="7.32586">
        <ele>576.8</ele>
        <time>2016-03-26T09:35:52Z</time>
      </trkpt>
      <trkpt lat="43.98725" lon="7.32589">
        <ele>578.2</ele>
        <time>2016-03-26T09:35:57Z</time>
      </trkpt>
      <trkpt lat="43.98729" lon="7.32591">
        <ele>579.5</ele>
        <time>2016-03-26T09:36:00Z</time>
      </trkpt>
      <trkpt lat="43.98733" lon="7.32594">
        <ele>580.7</ele>
        <time>2016-03-26T09:36:04Z</time>
      </trkpt>
      <trkpt lat="43.98736" lon="7.32598">
        <ele>581.7</ele>
        <time>2016-03-26T09:36:08Z</time>
      </trkpt>
      <trkpt lat="43.9874" lon="7.32602">
        <ele>583.2</ele>
        <time>2016-03-26T09:36:12Z</time>
      </trkpt>
      <trkpt lat="43.98745" lon="7.32606">
        <ele>584.8</ele>
        <time>2016-03-26T09:36:16Z</time>
      </trkpt>
      <trkpt lat="43.98749" lon="7.3261">
        <ele>586.3</ele>
        <time>2016-03-26T09:36:20Z</time>
      </trkpt>
      <trkpt lat="43.98753" lon="7.32613">
        <ele>587.5</ele>
        <time>2016-03-26T09:36:24Z</time>
      </trkpt>
      <trkpt lat="43.98758" lon="7.32618">
        <ele>588.9</ele>
        <time>2016-03-26T09:36:28Z</time>
      </trkpt>
      <trkpt lat="43.98763" lon="7.32623">
        <ele>590.6</ele>
        <time>2016-03-26T09:36:32Z</time>
      </trkpt>
      <trkpt lat="43.98767" lon="7.32627">
        <ele>592</ele>
        <time>2016-03-26T09:36:37Z</time>
      </trkpt>
      <trkpt lat="43.98771" lon="7.32631">
        <ele>593.4</ele>
        <time>2016-03-26T09:36:40Z</time>
      </trkpt>
      <trkpt lat="43.98777" lon="7.32637">
        <ele>595.2</ele>
        <time>2016-03-26T09:36:44Z</time>
      </trkpt>
      <trkpt lat="43.98782" lon="7.32642">
        <ele>597.1</ele>
        <time>2016-03-26T09:36:49Z</time>
      </trkpt>
      <trkpt lat="43.98786" lon="7.32645">
        <ele>598.4</ele>
        <time>2016-03-26T09:36:52Z</time>
      </trkpt>
      <trkpt lat="43.9879" lon="7.3265">
        <ele>599.7</ele>
        <time>2016-03-26T09:36:56Z</time>
      </trkpt>
      <trkpt lat="43.98794" lon="7.32653">
        <ele>600.8</ele>
        <time>2016-03-26T09:37:00Z</time>
      </trkpt>
      <trkpt lat="43.98797" lon="7.32657">
        <ele>601.3</ele>
        <time>2016-03-26T09:37:04Z</time>
      </trkpt>
      <trkpt lat="43.98802" lon="7.32661">
        <ele>602.2</ele>
        <time>2016-03-26T09:37:08Z</time>
      </trkpt>
      <trkpt lat="43.98807" lon="7.32665">
        <ele>603.1</ele>
        <time>2016-03-26T09:37:12Z</time>
      </trkpt>
      <trkpt lat="43.98811" lon="7.32669">
        <ele>603.8</ele>
        <time>2016-03-26T09:37:17Z</time>
      </trkpt>
      <trkpt lat="43.98816" lon="7.32674">
        <ele>604.6</ele>
        <time>2016-03-26T09:37:20Z</time>
      </trkpt>
      <trkpt lat="43.9882" lon="7.32679">
        <ele>605.3</ele>
        <time>2016-03-26T09:37:24Z</time>
      </trkpt>
      <trkpt lat="43.98825" lon="7.32685">
        <ele>606.1</ele>
        <time>2016-03-26T09:37:28Z</time>
      </trkpt>
      <trkpt lat="43.9883" lon="7.32691">
        <ele>607</ele>
        <time>2016-03-26T09:37:32Z</time>
      </trkpt>
      <trkpt lat="43.98834" lon="7.32697">
        <ele>607.8</ele>
        <time>2016-03-26T09:37:36Z</time>
      </trkpt>
      <trkpt lat="43.98838" lon="7.32702">
        <ele>608.4</ele>
        <time>2016-03-26T09:37:40Z</time>
      </trkpt>
      <trkpt lat="43.98841" lon="7.32707">
        <ele>609</ele>
        <time>2016-03-26T09:37:44Z</time>
      </trkpt>
      <trkpt lat="43.98847" lon="7.3271">
        <ele>610.2</ele>
        <time>2016-03-26T09:37:48Z</time>
      </trkpt>
      <trkpt lat="43.98852" lon="7.32713">
        <ele>611.2</ele>
        <time>2016-03-26T09:37:52Z</time>
      </trkpt>
      <trkpt lat="43.98856" lon="7.32716">
        <ele>612.2</ele>
        <time>2016-03-26T09:37:56Z</time>
      </trkpt>
      <trkpt lat="43.98861" lon="7.3272">
        <ele>613.2</ele>
        <time>2016-03-26T09:38:00Z</time>
      </trkpt>
      <trkpt lat="43.98865" lon="7.32723">
        <ele>614.3</ele>
        <time>2016-03-26T09:38:04Z</time>
      </trkpt>
      <trkpt lat="43.9887" lon="7.32725">
        <ele>615.6</ele>
        <time>2016-03-26T09:38:08Z</time>
      </trkpt>
      <trkpt lat="43.98876" lon="7.32726">
        <ele>616.9</ele>
        <time>2016-03-26T09:38:12Z</time>
      </trkpt>
      <trkpt lat="43.98882" lon="7.32726">
        <ele>617.6</ele>
        <time>2016-03-26T09:38:16Z</time>
      </trkpt>
      <trkpt lat="43.98888" lon="7.32725">
        <ele>618.3</ele>
        <time>2016-03-26T09:38:20Z</time>
      </trkpt>
      <trkpt lat="43.98894" lon="7.32725">
        <ele>619</ele>
        <time>2016-03-26T09:38:24Z</time>
      </trkpt>
      <trkpt lat="43.98898" lon="7.32727">
        <ele>619.4</ele>
        <time>2016-03-26T09:38:28Z</time>
      </trkpt>
      <trkpt lat="43.98902" lon="7.32731">
        <ele>619.9</ele>
        <time>2016-03-26T09:38:32Z</time>
      </trkpt>
      <trkpt lat="43.98906" lon="7.32735">
        <ele>620.4</ele>
        <time>2016-03-26T09:38:36Z</time>
      </trkpt>
      <trkpt lat="43.9891" lon="7.3274">
        <ele>620.9</ele>
        <time>2016-03-26T09:38:40Z</time>
      </trkpt>
      <trkpt lat="43.98914" lon="7.32745">
        <ele>621.4</ele>
        <time>2016-03-26T09:38:44Z</time>
      </trkpt>
      <trkpt lat="43.98917" lon="7.32748">
        <ele>621.8</ele>
        <time>2016-03-26T09:38:48Z</time>
      </trkpt>
      <trkpt lat="43.98919" lon="7.32751">
        <ele>622.1</ele>
        <time>2016-03-26T09:38:52Z</time>
      </trkpt>
      <trkpt lat="43.98919" lon="7.32751">
        <ele>622.1</ele>
        <time>2016-03-26T09:38:56Z</time>
      </trkpt>
      <trkpt lat="43.98922" lon="7.32759">
        <ele>622.5</ele>
        <time>2016-03-26T09:39:00Z</time>
      </trkpt>
      <trkpt lat="43.98923" lon="7.32764">
        <ele>622.7</ele>
        <time>2016-03-26T09:39:04Z</time>
      </trkpt>
      <trkpt lat="43.98925" lon="7.3277">
        <ele>623</ele>
        <time>2016-03-26T09:39:08Z</time>
      </trkpt>
      <trkpt lat="43.98928" lon="7.32776">
        <ele>623.5</ele>
        <time>2016-03-26T09:39:12Z</time>
      </trkpt>
      <trkpt lat="43.98932" lon="7.32781">
        <ele>624</ele>
        <time>2016-03-26T09:39:17Z</time>
      </trkpt>
      <trkpt lat="43.98936" lon="7.32788">
        <ele>624.7</ele>
        <time>2016-03-26T09:39:20Z</time>
      </trkpt>
      <trkpt lat="43.98938" lon="7.32793">
        <ele>625.2</ele>
        <time>2016-03-26T09:39:24Z</time>
      </trkpt>
      <trkpt lat="43.98942" lon="7.32798">
        <ele>626.1</ele>
        <time>2016-03-26T09:39:28Z</time>
      </trkpt>
      <trkpt lat="43.98945" lon="7.32803">
        <ele>627</ele>
        <time>2016-03-26T09:39:32Z</time>
      </trkpt>
      <trkpt lat="43.98948" lon="7.32808">
        <ele>627.9</ele>
        <time>2016-03-26T09:39:36Z</time>
      </trkpt>
      <trkpt lat="43.9895" lon="7.32815">
        <ele>628.8</ele>
        <time>2016-03-26T09:39:40Z</time>
      </trkpt>
      <trkpt lat="43.98951" lon="7.3282">
        <ele>629.4</ele>
        <time>2016-03-26T09:39:44Z</time>
      </trkpt>
      <trkpt lat="43.98954" lon="7.32825">
        <ele>630.4</ele>
        <time>2016-03-26T09:39:48Z</time>
      </trkpt>
      <trkpt lat="43.98958" lon="7.3283">
        <ele>631.6</ele>
        <time>2016-03-26T09:39:52Z</time>
      </trkpt>
      <trkpt lat="43.98956" lon="7.32833">
        <ele>631.5</ele>
        <time>2016-03-26T09:39:56Z</time>
      </trkpt>
      <trkpt lat="43.98951" lon="7.32835">
        <ele>630.8</ele>
        <time>2016-03-26T09:40:01Z</time>
      </trkpt>
      <trkpt lat="43.9895" lon="7.32841">
        <ele>631.1</ele>
        <time>2016-03-26T09:40:04Z</time>
      </trkpt>
      <trkpt lat="43.9895" lon="7.32848">
        <ele>631.8</ele>
        <time>2016-03-26T09:40:08Z</time>
      </trkpt>
      <trkpt lat="43.98952" lon="7.32855">
        <ele>632.7</ele>
        <time>2016-03-26T09:40:12Z</time>
      </trkpt>
      <trkpt lat="43.98953" lon="7.32861">
        <ele>633.4</ele>
        <time>2016-03-26T09:40:16Z</time>
      </trkpt>
      <trkpt lat="43.98955" lon="7.32864">
        <ele>634.2</ele>
        <time>2016-03-26T09:40:20Z</time>
      </trkpt>
      <trkpt lat="43.98958" lon="7.32866">
        <ele>635</ele>
        <time>2016-03-26T09:40:24Z</time>
      </trkpt>
      <trkpt lat="43.98962" lon="7.32867">
        <ele>635.2</ele>
        <time>2016-03-26T09:40:28Z</time>
      </trkpt>
      <trkpt lat="43.98966" lon="7.32869">
        <ele>635.4</ele>
        <time>2016-03-26T09:40:33Z</time>
      </trkpt>
      <trkpt lat="43.9897" lon="7.32872">
        <ele>635.7</ele>
        <time>2016-03-26T09:40:36Z</time>
      </trkpt>
      <trkpt lat="43.98974" lon="7.32876">
        <ele>636.1</ele>
        <time>2016-03-26T09:40:40Z</time>
      </trkpt>
      <trkpt lat="43.98979" lon="7.32879">
        <ele>636.7</ele>
        <time>2016-03-26T09:40:44Z</time>
      </trkpt>
      <trkpt lat="43.98984" lon="7.32883">
        <ele>637.4</ele>
        <time>2016-03-26T09:40:48Z</time>
      </trkpt>
      <trkpt lat="43.98989" lon="7.32887">
        <ele>638.2</ele>
        <time>2016-03-26T09:40:52Z</time>
      </trkpt>
      <trkpt lat="43.98993" lon="7.32891">
        <ele>639.1</ele>
        <time>2016-03-26T09:40:56Z</time>
      </trkpt>
      <trkpt lat="43.98998" lon="7.32895">
        <ele>640</ele>
        <time>2016-03-26T09:41:00Z</time>
      </trkpt>
      <trkpt lat="43.99002" lon="7.32899">
        <ele>641</ele>
        <time>2016-03-26T09:41:04Z</time>
      </trkpt>
      <trkpt lat="43.99005" lon="7.32905">
        <ele>642.2</ele>
        <time>2016-03-26T09:41:08Z</time>
      </trkpt>
      <trkpt lat="43.99008" lon="7.32911">
        <ele>643.8</ele>
        <time>2016-03-26T09:41:12Z</time>
      </trkpt>
      <trkpt lat="43.9901" lon="7.32917">
        <ele>645.2</ele>
        <time>2016-03-26T09:41:16Z</time>
      </trkpt>
      <trkpt lat="43.99011" lon="7.32921">
        <ele>646.2</ele>
        <time>2016-03-26T09:41:20Z</time>
      </trkpt>
      <trkpt lat="43.99011" lon="7.32921">
        <ele>646.2</ele>
        <time>2016-03-26T09:41:24Z</time>
      </trkpt>
      <trkpt lat="43.99006" lon="7.32917">
        <ele>644.8</ele>
        <time>2016-03-26T09:41:28Z</time>
      </trkpt>
      <trkpt lat="43.99001" lon="7.32913">
        <ele>643.8</ele>
        <time>2016-03-26T09:41:32Z</time>
      </trkpt>
      <trkpt lat="43.98995" lon="7.32912">
        <ele>643.2</ele>
        <time>2016-03-26T09:41:36Z</time>
      </trkpt>
      <trkpt lat="43.98992" lon="7.32916">
        <ele>644</ele>
        <time>2016-03-26T09:41:40Z</time>
      </trkpt>
      <trkpt lat="43.98992" lon="7.32916">
        <ele>644</ele>
        <time>2016-03-26T09:41:44Z</time>
      </trkpt>
      <trkpt lat="43.98999" lon="7.32926">
        <ele>646.3</ele>
        <time>2016-03-26T09:41:48Z</time>
      </trkpt>
      <trkpt lat="43.99002" lon="7.32931">
        <ele>647.6</ele>
        <time>2016-03-26T09:41:52Z</time>
      </trkpt>
      <trkpt lat="43.99003" lon="7.32937">
        <ele>648.9</ele>
        <time>2016-03-26T09:41:56Z</time>
      </trkpt>
      <trkpt lat="43.99001" lon="7.32939">
        <ele>649.1</ele>
        <time>2016-03-26T09:42:00Z</time>
      </trkpt>
      <trkpt lat="43.99001" lon="7.32939">
        <ele>649.1</ele>
        <time>2016-03-26T09:42:04Z</time>
      </trkpt>
      <trkpt lat="43.98991" lon="7.32936">
        <ele>647.6</ele>
        <time>2016-03-26T09:42:08Z</time>
      </trkpt>
      <trkpt lat="43.98985" lon="7.32936">
        <ele>647.1</ele>
        <time>2016-03-26T09:42:12Z</time>
      </trkpt>
      <trkpt lat="43.98981" lon="7.32937">
        <ele>646.9</ele>
        <time>2016-03-26T09:42:16Z</time>
      </trkpt>
      <trkpt lat="43.98976" lon="7.32937">
        <ele>646.5</ele>
        <time>2016-03-26T09:42:20Z</time>
      </trkpt>
      <trkpt lat="43.98971" lon="7.3294">
        <ele>646.5</ele>
        <time>2016-03-26T09:42:24Z</time>
      </trkpt>
      <trkpt lat="43.98968" lon="7.32943">
        <ele>646.7</ele>
        <time>2016-03-26T09:42:28Z</time>
      </trkpt>
      <trkpt lat="43.98965" lon="7.32947">
        <ele>647.1</ele>
        <time>2016-03-26T09:42:32Z</time>
      </trkpt>
      <trkpt lat="43.98963" lon="7.32952">
        <ele>647.6</ele>
        <time>2016-03-26T09:42:36Z</time>
      </trkpt>
      <trkpt lat="43.98961" lon="7.32959">
        <ele>648.5</ele>
        <time>2016-03-26T09:42:41Z</time>
      </trkpt>
      <trkpt lat="43.98962" lon="7.32964">
        <ele>649.1</ele>
        <time>2016-03-26T09:42:44Z</time>
      </trkpt>
      <trkpt lat="43.98962" lon="7.32966">
        <ele>649.4</ele>
        <time>2016-03-26T09:42:48Z</time>
      </trkpt>
      <trkpt lat="43.98959" lon="7.3297">
        <ele>649.4</ele>
        <time>2016-03-26T09:42:52Z</time>
      </trkpt>
      <trkpt lat="43.98955" lon="7.32974">
        <ele>648.4</ele>
        <time>2016-03-26T09:42:56Z</time>
      </trkpt>
      <trkpt lat="43.9895" lon="7.32979">
        <ele>647.1</ele>
        <time>2016-03-26T09:43:01Z</time>
      </trkpt>
      <trkpt lat="43.98947" lon="7.32984">
        <ele>646.2</ele>
        <time>2016-03-26T09:43:04Z</time>
      </trkpt>
      <trkpt lat="43.98944" lon="7.32989">
        <ele>645.6</ele>
        <time>2016-03-26T09:43:08Z</time>
      </trkpt>
      <trkpt lat="43.98943" lon="7.32996">
        <ele>645.5</ele>
        <time>2016-03-26T09:43:12Z</time>
      </trkpt>
      <trkpt lat="43.98942" lon="7.33002">
        <ele>645.8</ele>
        <time>2016-03-26T09:43:16Z</time>
      </trkpt>
      <trkpt lat="43.98942" lon="7.33008">
        <ele>646.3</ele>
        <time>2016-03-26T09:43:20Z</time>
      </trkpt>
      <trkpt lat="43.98942" lon="7.33015">
        <ele>646.9</ele>
        <time>2016-03-26T09:43:24Z</time>
      </trkpt>
      <trkpt lat="43.98942" lon="7.33022">
        <ele>647.2</ele>
        <time>2016-03-26T09:43:28Z</time>
      </trkpt>
      <trkpt lat="43.98941" lon="7.3303">
        <ele>647.8</ele>
        <time>2016-03-26T09:43:32Z</time>
      </trkpt>
      <trkpt lat="43.98941" lon="7.33037">
        <ele>648.3</ele>
        <time>2016-03-26T09:43:36Z</time>
      </trkpt>
      <trkpt lat="43.98941" lon="7.33044">
        <ele>649</ele>
        <time>2016-03-26T09:43:40Z</time>
      </trkpt>
      <trkpt lat="43.98941" lon="7.33044">
        <ele>649</ele>
        <time>2016-03-26T09:43:44Z</time>
      </trkpt>
      <trkpt lat="43.98941" lon="7.33051">
        <ele>649.5</ele>
        <time>2016-03-26T09:43:47Z</time>
      </trkpt>
      <trkpt lat="43.98941" lon="7.33058">
        <ele>649.9</ele>
        <time>2016-03-26T09:43:48Z</time>
      </trkpt>
      <trkpt lat="43.9894" lon="7.33066">
        <ele>649.7</ele>
        <time>2016-03-26T09:43:52Z</time>
      </trkpt>
      <trkpt lat="43.98939" lon="7.33074">
        <ele>650</ele>
        <time>2016-03-26T09:43:57Z</time>
      </trkpt>
      <trkpt lat="43.9894" lon="7.33082">
        <ele>650.8</ele>
        <time>2016-03-26T09:44:00Z</time>
      </trkpt>
      <trkpt lat="43.9894" lon="7.33095">
        <ele>652.1</ele>
        <time>2016-03-26T09:44:04Z</time>
      </trkpt>
      <trkpt lat="43.98941" lon="7.33108">
        <ele>653.8</ele>
        <time>2016-03-26T09:44:08Z</time>
      </trkpt>
      <trkpt lat="43.98943" lon="7.33123">
        <ele>656.2</ele>
        <time>2016-03-26T09:44:12Z</time>
      </trkpt>
      <trkpt lat="43.98947" lon="7.33137">
        <ele>658.4</ele>
        <time>2016-03-26T09:44:16Z</time>
      </trkpt>
      <trkpt lat="43.98951" lon="7.33149">
        <ele>660.9</ele>
        <time>2016-03-26T09:44:20Z</time>
      </trkpt>
      <trkpt lat="43.98957" lon="7.33159">
        <ele>664.6</ele>
        <time>2016-03-26T09:44:24Z</time>
      </trkpt>
      <trkpt lat="43.98965" lon="7.33167">
        <ele>667.1</ele>
        <time>2016-03-26T09:44:28Z</time>
      </trkpt>
      <trkpt lat="43.98973" lon="7.33175">
        <ele>669.7</ele>
        <time>2016-03-26T09:44:32Z</time>
      </trkpt>
      <trkpt lat="43.98981" lon="7.33178">
        <ele>672.3</ele>
        <time>2016-03-26T09:44:36Z</time>
      </trkpt>
      <trkpt lat="43.98986" lon="7.33179">
        <ele>674.1</ele>
        <time>2016-03-26T09:44:40Z</time>
      </trkpt>
      <trkpt lat="43.98993" lon="7.3318">
        <ele>676.4</ele>
        <time>2016-03-26T09:44:44Z</time>
      </trkpt>
      <trkpt lat="43.98993" lon="7.3318">
        <ele>676.4</ele>
        <time>2016-03-26T09:44:45Z</time>
      </trkpt>
      <trkpt lat="43.99" lon="7.3318">
        <ele>678.8</ele>
        <time>2016-03-26T09:44:48Z</time>
      </trkpt>
      <trkpt lat="43.99" lon="7.3318">
        <ele>678.8</ele>
        <time>2016-03-26T09:44:53Z</time>
      </trkpt>
    </trkseg>
  </trk>
</gpx>